<?xml version="1.0" encoding="UTF-8" standalone="no" ?>
<gpx xmlns="http://www.topografix.com/GPX/1/1" xmlns:xsi="http://www.w3.org/2001/XMLSchema-instance" xsi:schemaLocation="http://www.topografix.com/GPX/1/1 http://www.topografix.com/GPX/1/1/gpx.xsd" version="1.1" creator="VisuGPX - https://www.visugpx.com">
  <metadata>
    <name>2018-09-04 Bike ride-Ambérieux-Rancé O v36k</name>
    <desc><![CDATA[2018-09-04 Bike ride-Ambérieux-Rancé O v36k]]></desc>
  </metadata>
  <wpt lat="45.9246" lon="4.73714">
    <ele>174</ele>
    <name><![CDATA[2018-09-04 09:59 (Start)]]></name>
  </wpt>
  <wpt lat="45.92465" lon="4.73708">
    <ele>174</ele>
    <name><![CDATA[2018-09-04 09:59 (End)]]></name>
  </wpt>
  <trk>
    <name><![CDATA[2018-09-04 09:59]]></name>
    <trkseg>
      <trkpt lat="45.9246" lon="4.73714">
        <ele>174</ele>
        <time>2018-09-04T07:59:15.294Z</time>
      </trkpt>
      <trkpt lat="45.92453" lon="4.73719">
        <ele>174</ele>
        <time>2018-09-04T07:59:20Z</time>
      </trkpt>
      <trkpt lat="45.92451" lon="4.73723">
        <ele>174</ele>
        <time>2018-09-04T07:59:21Z</time>
      </trkpt>
      <trkpt lat="45.92458" lon="4.73717">
        <ele>174</ele>
        <time>2018-09-04T07:59:37Z</time>
      </trkpt>
      <trkpt lat="45.92459" lon="4.73715">
        <ele>174</ele>
        <time>2018-09-04T07:59:38Z</time>
      </trkpt>
      <trkpt lat="45.92463" lon="4.73704">
        <ele>174</ele>
        <time>2018-09-04T07:59:41Z</time>
      </trkpt>
      <trkpt lat="45.92464" lon="4.73699">
        <ele>174</ele>
        <time>2018-09-04T07:59:42Z</time>
      </trkpt>
      <trkpt lat="45.92467" lon="4.73687">
        <ele>174</ele>
        <time>2018-09-04T07:59:44Z</time>
      </trkpt>
      <trkpt lat="45.92473" lon="4.73657">
        <ele>174</ele>
        <time>2018-09-04T07:59:47Z</time>
      </trkpt>
      <trkpt lat="45.92477" lon="4.73648">
        <ele>174</ele>
        <time>2018-09-04T07:59:50Z</time>
      </trkpt>
      <trkpt lat="45.92479" lon="4.73646">
        <ele>174</ele>
        <time>2018-09-04T07:59:51Z</time>
      </trkpt>
      <trkpt lat="45.92485" lon="4.73644">
        <ele>174</ele>
        <time>2018-09-04T07:59:52Z</time>
      </trkpt>
      <trkpt lat="45.92489" lon="4.73645">
        <ele>174</ele>
        <time>2018-09-04T07:59:53Z</time>
      </trkpt>
      <trkpt lat="45.92497" lon="4.73647">
        <ele>174</ele>
        <time>2018-09-04T07:59:55Z</time>
      </trkpt>
      <trkpt lat="45.92502" lon="4.73647">
        <ele>174</ele>
        <time>2018-09-04T07:59:56Z</time>
      </trkpt>
      <trkpt lat="45.92506" lon="4.73646">
        <ele>174</ele>
        <time>2018-09-04T07:59:57Z</time>
      </trkpt>
      <trkpt lat="45.92511" lon="4.73645">
        <ele>174</ele>
        <time>2018-09-04T07:59:58Z</time>
      </trkpt>
      <trkpt lat="45.92519" lon="4.73643">
        <ele>173</ele>
        <time>2018-09-04T08:00:00Z</time>
      </trkpt>
      <trkpt lat="45.92523" lon="4.73642">
        <ele>173</ele>
        <time>2018-09-04T08:00:01Z</time>
      </trkpt>
      <trkpt lat="45.92531" lon="4.73641">
        <ele>173</ele>
        <time>2018-09-04T08:00:03Z</time>
      </trkpt>
      <trkpt lat="45.92536" lon="4.73641">
        <ele>173</ele>
        <time>2018-09-04T08:00:04Z</time>
      </trkpt>
      <trkpt lat="45.92544" lon="4.7364">
        <ele>173</ele>
        <time>2018-09-04T08:00:06Z</time>
      </trkpt>
      <trkpt lat="45.9255" lon="4.73632">
        <ele>173</ele>
        <time>2018-09-04T08:00:07Z</time>
      </trkpt>
      <trkpt lat="45.92556" lon="4.73631">
        <ele>173</ele>
        <time>2018-09-04T08:00:09Z</time>
      </trkpt>
      <trkpt lat="45.92562" lon="4.73628">
        <ele>173</ele>
        <time>2018-09-04T08:00:10Z</time>
      </trkpt>
      <trkpt lat="45.9257" lon="4.73624">
        <ele>173</ele>
        <time>2018-09-04T08:00:12Z</time>
      </trkpt>
      <trkpt lat="45.92574" lon="4.73623">
        <ele>173</ele>
        <time>2018-09-04T08:00:13Z</time>
      </trkpt>
      <trkpt lat="45.92582" lon="4.73622">
        <ele>173</ele>
        <time>2018-09-04T08:00:15Z</time>
      </trkpt>
      <trkpt lat="45.92587" lon="4.73622">
        <ele>173</ele>
        <time>2018-09-04T08:00:16Z</time>
      </trkpt>
      <trkpt lat="45.92593" lon="4.73624">
        <ele>173</ele>
        <time>2018-09-04T08:00:17Z</time>
      </trkpt>
      <trkpt lat="45.92598" lon="4.73624">
        <ele>173</ele>
        <time>2018-09-04T08:00:18Z</time>
      </trkpt>
      <trkpt lat="45.92603" lon="4.73624">
        <ele>173</ele>
        <time>2018-09-04T08:00:19Z</time>
      </trkpt>
      <trkpt lat="45.92607" lon="4.73626">
        <ele>173</ele>
        <time>2018-09-04T08:00:20Z</time>
      </trkpt>
      <trkpt lat="45.92614" lon="4.73629">
        <ele>173</ele>
        <time>2018-09-04T08:00:22Z</time>
      </trkpt>
      <trkpt lat="45.9262" lon="4.73632">
        <ele>173</ele>
        <time>2018-09-04T08:00:23Z</time>
      </trkpt>
      <trkpt lat="45.92628" lon="4.73637">
        <ele>173</ele>
        <time>2018-09-04T08:00:24Z</time>
      </trkpt>
      <trkpt lat="45.92633" lon="4.73643">
        <ele>173</ele>
        <time>2018-09-04T08:00:25Z</time>
      </trkpt>
      <trkpt lat="45.92635" lon="4.73653">
        <ele>173</ele>
        <time>2018-09-04T08:00:26Z</time>
      </trkpt>
      <trkpt lat="45.92633" lon="4.7366">
        <ele>173</ele>
        <time>2018-09-04T08:00:27Z</time>
      </trkpt>
      <trkpt lat="45.92636" lon="4.73669">
        <ele>173</ele>
        <time>2018-09-04T08:00:29Z</time>
      </trkpt>
      <trkpt lat="45.92639" lon="4.73674">
        <ele>173</ele>
        <time>2018-09-04T08:00:30Z</time>
      </trkpt>
      <trkpt lat="45.92642" lon="4.73679">
        <ele>173</ele>
        <time>2018-09-04T08:00:31Z</time>
      </trkpt>
      <trkpt lat="45.92645" lon="4.73685">
        <ele>173</ele>
        <time>2018-09-04T08:00:32Z</time>
      </trkpt>
      <trkpt lat="45.9265" lon="4.7369">
        <ele>173</ele>
        <time>2018-09-04T08:00:33Z</time>
      </trkpt>
      <trkpt lat="45.92655" lon="4.73694">
        <ele>173</ele>
        <time>2018-09-04T08:00:34Z</time>
      </trkpt>
      <trkpt lat="45.92658" lon="4.73698">
        <ele>173</ele>
        <time>2018-09-04T08:00:35Z</time>
      </trkpt>
      <trkpt lat="45.92662" lon="4.73704">
        <ele>173</ele>
        <time>2018-09-04T08:00:36Z</time>
      </trkpt>
      <trkpt lat="45.92666" lon="4.73708">
        <ele>173</ele>
        <time>2018-09-04T08:00:37Z</time>
      </trkpt>
      <trkpt lat="45.92671" lon="4.73712">
        <ele>174</ele>
        <time>2018-09-04T08:00:38Z</time>
      </trkpt>
      <trkpt lat="45.92678" lon="4.73712">
        <ele>173</ele>
        <time>2018-09-04T08:00:39Z</time>
      </trkpt>
      <trkpt lat="45.92682" lon="4.73715">
        <ele>173</ele>
        <time>2018-09-04T08:00:40Z</time>
      </trkpt>
      <trkpt lat="45.92688" lon="4.73717">
        <ele>173</ele>
        <time>2018-09-04T08:00:41Z</time>
      </trkpt>
      <trkpt lat="45.92692" lon="4.73718">
        <ele>173</ele>
        <time>2018-09-04T08:00:42Z</time>
      </trkpt>
      <trkpt lat="45.92697" lon="4.73718">
        <ele>173</ele>
        <time>2018-09-04T08:00:43Z</time>
      </trkpt>
      <trkpt lat="45.92702" lon="4.73718">
        <ele>173</ele>
        <time>2018-09-04T08:00:44Z</time>
      </trkpt>
      <trkpt lat="45.92711" lon="4.73718">
        <ele>173</ele>
        <time>2018-09-04T08:00:46Z</time>
      </trkpt>
      <trkpt lat="45.92715" lon="4.73719">
        <ele>173</ele>
        <time>2018-09-04T08:00:47Z</time>
      </trkpt>
      <trkpt lat="45.92719" lon="4.73721">
        <ele>173</ele>
        <time>2018-09-04T08:00:48Z</time>
      </trkpt>
      <trkpt lat="45.92724" lon="4.7372">
        <ele>173</ele>
        <time>2018-09-04T08:00:49Z</time>
      </trkpt>
      <trkpt lat="45.92729" lon="4.73723">
        <ele>173</ele>
        <time>2018-09-04T08:00:50Z</time>
      </trkpt>
      <trkpt lat="45.92733" lon="4.73724">
        <ele>173</ele>
        <time>2018-09-04T08:00:51Z</time>
      </trkpt>
      <trkpt lat="45.92738" lon="4.73724">
        <ele>173</ele>
        <time>2018-09-04T08:00:52Z</time>
      </trkpt>
      <trkpt lat="45.92743" lon="4.73726">
        <ele>173</ele>
        <time>2018-09-04T08:00:53Z</time>
      </trkpt>
      <trkpt lat="45.92748" lon="4.73727">
        <ele>173</ele>
        <time>2018-09-04T08:00:54Z</time>
      </trkpt>
      <trkpt lat="45.92753" lon="4.73729">
        <ele>172</ele>
        <time>2018-09-04T08:00:55Z</time>
      </trkpt>
      <trkpt lat="45.92759" lon="4.73731">
        <ele>172</ele>
        <time>2018-09-04T08:00:56Z</time>
      </trkpt>
      <trkpt lat="45.92764" lon="4.73734">
        <ele>172</ele>
        <time>2018-09-04T08:00:57Z</time>
      </trkpt>
      <trkpt lat="45.92769" lon="4.73738">
        <ele>172</ele>
        <time>2018-09-04T08:00:58Z</time>
      </trkpt>
      <trkpt lat="45.92774" lon="4.7374">
        <ele>172</ele>
        <time>2018-09-04T08:00:59Z</time>
      </trkpt>
      <trkpt lat="45.92777" lon="4.73751">
        <ele>173</ele>
        <time>2018-09-04T08:01:02Z</time>
      </trkpt>
      <trkpt lat="45.92781" lon="4.73757">
        <ele>173</ele>
        <time>2018-09-04T08:01:03Z</time>
      </trkpt>
      <trkpt lat="45.92788" lon="4.7376">
        <ele>173</ele>
        <time>2018-09-04T08:01:05Z</time>
      </trkpt>
      <trkpt lat="45.92792" lon="4.73765">
        <ele>173</ele>
        <time>2018-09-04T08:01:06Z</time>
      </trkpt>
      <trkpt lat="45.928" lon="4.73768">
        <ele>173</ele>
        <time>2018-09-04T08:01:08Z</time>
      </trkpt>
      <trkpt lat="45.92805" lon="4.73769">
        <ele>173</ele>
        <time>2018-09-04T08:01:09Z</time>
      </trkpt>
      <trkpt lat="45.9281" lon="4.73771">
        <ele>173</ele>
        <time>2018-09-04T08:01:10Z</time>
      </trkpt>
      <trkpt lat="45.92814" lon="4.73774">
        <ele>173</ele>
        <time>2018-09-04T08:01:11Z</time>
      </trkpt>
      <trkpt lat="45.92819" lon="4.73776">
        <ele>173</ele>
        <time>2018-09-04T08:01:12Z</time>
      </trkpt>
      <trkpt lat="45.92825" lon="4.73778">
        <ele>173</ele>
        <time>2018-09-04T08:01:13Z</time>
      </trkpt>
      <trkpt lat="45.92831" lon="4.73781">
        <ele>173</ele>
        <time>2018-09-04T08:01:14Z</time>
      </trkpt>
      <trkpt lat="45.92836" lon="4.73784">
        <ele>173</ele>
        <time>2018-09-04T08:01:15Z</time>
      </trkpt>
      <trkpt lat="45.92841" lon="4.73787">
        <ele>173</ele>
        <time>2018-09-04T08:01:16Z</time>
      </trkpt>
      <trkpt lat="45.92845" lon="4.7379">
        <ele>173</ele>
        <time>2018-09-04T08:01:17Z</time>
      </trkpt>
      <trkpt lat="45.9285" lon="4.73794">
        <ele>173</ele>
        <time>2018-09-04T08:01:19Z</time>
      </trkpt>
      <trkpt lat="45.92854" lon="4.73801">
        <ele>173</ele>
        <time>2018-09-04T08:01:20Z</time>
      </trkpt>
      <trkpt lat="45.92858" lon="4.73807">
        <ele>173</ele>
        <time>2018-09-04T08:01:21Z</time>
      </trkpt>
      <trkpt lat="45.92858" lon="4.73815">
        <ele>173</ele>
        <time>2018-09-04T08:01:22Z</time>
      </trkpt>
      <trkpt lat="45.9286" lon="4.73822">
        <ele>173</ele>
        <time>2018-09-04T08:01:23Z</time>
      </trkpt>
      <trkpt lat="45.92861" lon="4.73829">
        <ele>173</ele>
        <time>2018-09-04T08:01:24Z</time>
      </trkpt>
      <trkpt lat="45.92863" lon="4.73837">
        <ele>173</ele>
        <time>2018-09-04T08:01:25Z</time>
      </trkpt>
      <trkpt lat="45.92865" lon="4.73845">
        <ele>173</ele>
        <time>2018-09-04T08:01:26Z</time>
      </trkpt>
      <trkpt lat="45.92867" lon="4.73852">
        <ele>173</ele>
        <time>2018-09-04T08:01:27Z</time>
      </trkpt>
      <trkpt lat="45.92868" lon="4.73859">
        <ele>173</ele>
        <time>2018-09-04T08:01:28Z</time>
      </trkpt>
      <trkpt lat="45.9287" lon="4.73865">
        <ele>173</ele>
        <time>2018-09-04T08:01:29Z</time>
      </trkpt>
      <trkpt lat="45.92871" lon="4.73872">
        <ele>173</ele>
        <time>2018-09-04T08:01:30Z</time>
      </trkpt>
      <trkpt lat="45.92872" lon="4.73881">
        <ele>173</ele>
        <time>2018-09-04T08:01:31Z</time>
      </trkpt>
      <trkpt lat="45.9287" lon="4.73888">
        <ele>173</ele>
        <time>2018-09-04T08:01:32Z</time>
      </trkpt>
      <trkpt lat="45.92872" lon="4.73897">
        <ele>173</ele>
        <time>2018-09-04T08:01:33Z</time>
      </trkpt>
      <trkpt lat="45.92876" lon="4.73905">
        <ele>173</ele>
        <time>2018-09-04T08:01:34Z</time>
      </trkpt>
      <trkpt lat="45.92877" lon="4.73911">
        <ele>173</ele>
        <time>2018-09-04T08:01:35Z</time>
      </trkpt>
      <trkpt lat="45.92877" lon="4.7392">
        <ele>172</ele>
        <time>2018-09-04T08:01:36Z</time>
      </trkpt>
      <trkpt lat="45.92878" lon="4.73927">
        <ele>172</ele>
        <time>2018-09-04T08:01:37Z</time>
      </trkpt>
      <trkpt lat="45.9288" lon="4.73934">
        <ele>172</ele>
        <time>2018-09-04T08:01:38Z</time>
      </trkpt>
      <trkpt lat="45.92879" lon="4.73941">
        <ele>172</ele>
        <time>2018-09-04T08:01:39Z</time>
      </trkpt>
      <trkpt lat="45.92879" lon="4.73949">
        <ele>172</ele>
        <time>2018-09-04T08:01:40Z</time>
      </trkpt>
      <trkpt lat="45.9288" lon="4.73956">
        <ele>172</ele>
        <time>2018-09-04T08:01:41Z</time>
      </trkpt>
      <trkpt lat="45.92879" lon="4.73962">
        <ele>172</ele>
        <time>2018-09-04T08:01:42Z</time>
      </trkpt>
      <trkpt lat="45.92879" lon="4.73973">
        <ele>172</ele>
        <time>2018-09-04T08:01:44Z</time>
      </trkpt>
      <trkpt lat="45.92878" lon="4.73979">
        <ele>172</ele>
        <time>2018-09-04T08:01:45Z</time>
      </trkpt>
      <trkpt lat="45.92877" lon="4.73991">
        <ele>172</ele>
        <time>2018-09-04T08:01:47Z</time>
      </trkpt>
      <trkpt lat="45.92875" lon="4.73996">
        <ele>173</ele>
        <time>2018-09-04T08:01:48Z</time>
      </trkpt>
      <trkpt lat="45.92874" lon="4.74004">
        <ele>172</ele>
        <time>2018-09-04T08:01:49Z</time>
      </trkpt>
      <trkpt lat="45.92873" lon="4.7401">
        <ele>172</ele>
        <time>2018-09-04T08:01:50Z</time>
      </trkpt>
      <trkpt lat="45.92869" lon="4.74022">
        <ele>172</ele>
        <time>2018-09-04T08:01:52Z</time>
      </trkpt>
      <trkpt lat="45.92868" lon="4.74028">
        <ele>172</ele>
        <time>2018-09-04T08:01:53Z</time>
      </trkpt>
      <trkpt lat="45.92865" lon="4.74035">
        <ele>172</ele>
        <time>2018-09-04T08:01:54Z</time>
      </trkpt>
      <trkpt lat="45.92863" lon="4.74044">
        <ele>172</ele>
        <time>2018-09-04T08:01:55Z</time>
      </trkpt>
      <trkpt lat="45.92858" lon="4.7405">
        <ele>172</ele>
        <time>2018-09-04T08:01:56Z</time>
      </trkpt>
      <trkpt lat="45.92853" lon="4.74055">
        <ele>172</ele>
        <time>2018-09-04T08:01:57Z</time>
      </trkpt>
      <trkpt lat="45.92848" lon="4.74058">
        <ele>172</ele>
        <time>2018-09-04T08:01:58Z</time>
      </trkpt>
      <trkpt lat="45.92844" lon="4.74065">
        <ele>172</ele>
        <time>2018-09-04T08:01:59Z</time>
      </trkpt>
      <trkpt lat="45.9284" lon="4.74071">
        <ele>172</ele>
        <time>2018-09-04T08:02:00Z</time>
      </trkpt>
      <trkpt lat="45.92836" lon="4.74075">
        <ele>171</ele>
        <time>2018-09-04T08:02:01Z</time>
      </trkpt>
      <trkpt lat="45.92832" lon="4.74081">
        <ele>171</ele>
        <time>2018-09-04T08:02:02Z</time>
      </trkpt>
      <trkpt lat="45.92829" lon="4.74086">
        <ele>171</ele>
        <time>2018-09-04T08:02:03Z</time>
      </trkpt>
      <trkpt lat="45.92824" lon="4.74089">
        <ele>171</ele>
        <time>2018-09-04T08:02:04Z</time>
      </trkpt>
      <trkpt lat="45.9282" lon="4.74094">
        <ele>171</ele>
        <time>2018-09-04T08:02:05Z</time>
      </trkpt>
      <trkpt lat="45.92816" lon="4.741">
        <ele>171</ele>
        <time>2018-09-04T08:02:06Z</time>
      </trkpt>
      <trkpt lat="45.92811" lon="4.74106">
        <ele>172</ele>
        <time>2018-09-04T08:02:07Z</time>
      </trkpt>
      <trkpt lat="45.92806" lon="4.7411">
        <ele>172</ele>
        <time>2018-09-04T08:02:08Z</time>
      </trkpt>
      <trkpt lat="45.92802" lon="4.74117">
        <ele>172</ele>
        <time>2018-09-04T08:02:09Z</time>
      </trkpt>
      <trkpt lat="45.92797" lon="4.74122">
        <ele>172</ele>
        <time>2018-09-04T08:02:10Z</time>
      </trkpt>
      <trkpt lat="45.92794" lon="4.74128">
        <ele>172</ele>
        <time>2018-09-04T08:02:11Z</time>
      </trkpt>
      <trkpt lat="45.92789" lon="4.74132">
        <ele>172</ele>
        <time>2018-09-04T08:02:12Z</time>
      </trkpt>
      <trkpt lat="45.92784" lon="4.74137">
        <ele>172</ele>
        <time>2018-09-04T08:02:13Z</time>
      </trkpt>
      <trkpt lat="45.9278" lon="4.74142">
        <ele>172</ele>
        <time>2018-09-04T08:02:14Z</time>
      </trkpt>
      <trkpt lat="45.92775" lon="4.74148">
        <ele>172</ele>
        <time>2018-09-04T08:02:15Z</time>
      </trkpt>
      <trkpt lat="45.9277" lon="4.74153">
        <ele>172</ele>
        <time>2018-09-04T08:02:16Z</time>
      </trkpt>
      <trkpt lat="45.92766" lon="4.74159">
        <ele>172</ele>
        <time>2018-09-04T08:02:17Z</time>
      </trkpt>
      <trkpt lat="45.92762" lon="4.74163">
        <ele>172</ele>
        <time>2018-09-04T08:02:18Z</time>
      </trkpt>
      <trkpt lat="45.92757" lon="4.74168">
        <ele>172</ele>
        <time>2018-09-04T08:02:19Z</time>
      </trkpt>
      <trkpt lat="45.92752" lon="4.74172">
        <ele>172</ele>
        <time>2018-09-04T08:02:20Z</time>
      </trkpt>
      <trkpt lat="45.92748" lon="4.74176">
        <ele>172</ele>
        <time>2018-09-04T08:02:21Z</time>
      </trkpt>
      <trkpt lat="45.92744" lon="4.74182">
        <ele>172</ele>
        <time>2018-09-04T08:02:22Z</time>
      </trkpt>
      <trkpt lat="45.92739" lon="4.74187">
        <ele>172</ele>
        <time>2018-09-04T08:02:23Z</time>
      </trkpt>
      <trkpt lat="45.92736" lon="4.7419">
        <ele>171</ele>
        <time>2018-09-04T08:02:24Z</time>
      </trkpt>
      <trkpt lat="45.92733" lon="4.74197">
        <ele>171</ele>
        <time>2018-09-04T08:02:25Z</time>
      </trkpt>
      <trkpt lat="45.92729" lon="4.74202">
        <ele>171</ele>
        <time>2018-09-04T08:02:26Z</time>
      </trkpt>
      <trkpt lat="45.92725" lon="4.74208">
        <ele>171</ele>
        <time>2018-09-04T08:02:27Z</time>
      </trkpt>
      <trkpt lat="45.92721" lon="4.74213">
        <ele>171</ele>
        <time>2018-09-04T08:02:28Z</time>
      </trkpt>
      <trkpt lat="45.92717" lon="4.7422">
        <ele>171</ele>
        <time>2018-09-04T08:02:29Z</time>
      </trkpt>
      <trkpt lat="45.92713" lon="4.74226">
        <ele>171</ele>
        <time>2018-09-04T08:02:30Z</time>
      </trkpt>
      <trkpt lat="45.92709" lon="4.74232">
        <ele>171</ele>
        <time>2018-09-04T08:02:31Z</time>
      </trkpt>
      <trkpt lat="45.92705" lon="4.74238">
        <ele>171</ele>
        <time>2018-09-04T08:02:32Z</time>
      </trkpt>
      <trkpt lat="45.92701" lon="4.74244">
        <ele>171</ele>
        <time>2018-09-04T08:02:33Z</time>
      </trkpt>
      <trkpt lat="45.92698" lon="4.7425">
        <ele>171</ele>
        <time>2018-09-04T08:02:34Z</time>
      </trkpt>
      <trkpt lat="45.92695" lon="4.74255">
        <ele>171</ele>
        <time>2018-09-04T08:02:35Z</time>
      </trkpt>
      <trkpt lat="45.92692" lon="4.7426">
        <ele>171</ele>
        <time>2018-09-04T08:02:36Z</time>
      </trkpt>
      <trkpt lat="45.92688" lon="4.74265">
        <ele>171</ele>
        <time>2018-09-04T08:02:37Z</time>
      </trkpt>
      <trkpt lat="45.92685" lon="4.74271">
        <ele>171</ele>
        <time>2018-09-04T08:02:38Z</time>
      </trkpt>
      <trkpt lat="45.92681" lon="4.74277">
        <ele>171</ele>
        <time>2018-09-04T08:02:39Z</time>
      </trkpt>
      <trkpt lat="45.92677" lon="4.74282">
        <ele>171</ele>
        <time>2018-09-04T08:02:40Z</time>
      </trkpt>
      <trkpt lat="45.92674" lon="4.74288">
        <ele>171</ele>
        <time>2018-09-04T08:02:41Z</time>
      </trkpt>
      <trkpt lat="45.9267" lon="4.74294">
        <ele>171</ele>
        <time>2018-09-04T08:02:42Z</time>
      </trkpt>
      <trkpt lat="45.92666" lon="4.743">
        <ele>171</ele>
        <time>2018-09-04T08:02:43Z</time>
      </trkpt>
      <trkpt lat="45.92661" lon="4.74307">
        <ele>171</ele>
        <time>2018-09-04T08:02:44Z</time>
      </trkpt>
      <trkpt lat="45.92658" lon="4.74314">
        <ele>171</ele>
        <time>2018-09-04T08:02:45Z</time>
      </trkpt>
      <trkpt lat="45.92654" lon="4.7432">
        <ele>171</ele>
        <time>2018-09-04T08:02:46Z</time>
      </trkpt>
      <trkpt lat="45.92651" lon="4.74326">
        <ele>171</ele>
        <time>2018-09-04T08:02:47Z</time>
      </trkpt>
      <trkpt lat="45.92647" lon="4.74333">
        <ele>171</ele>
        <time>2018-09-04T08:02:48Z</time>
      </trkpt>
      <trkpt lat="45.92642" lon="4.74342">
        <ele>171</ele>
        <time>2018-09-04T08:02:49Z</time>
      </trkpt>
      <trkpt lat="45.92639" lon="4.74349">
        <ele>171</ele>
        <time>2018-09-04T08:02:50Z</time>
      </trkpt>
      <trkpt lat="45.92636" lon="4.74357">
        <ele>171</ele>
        <time>2018-09-04T08:02:51Z</time>
      </trkpt>
      <trkpt lat="45.92632" lon="4.74363">
        <ele>171</ele>
        <time>2018-09-04T08:02:52Z</time>
      </trkpt>
      <trkpt lat="45.92627" lon="4.74368">
        <ele>171</ele>
        <time>2018-09-04T08:02:53Z</time>
      </trkpt>
      <trkpt lat="45.92624" lon="4.74373">
        <ele>171</ele>
        <time>2018-09-04T08:02:54Z</time>
      </trkpt>
      <trkpt lat="45.92621" lon="4.7438">
        <ele>170</ele>
        <time>2018-09-04T08:02:55Z</time>
      </trkpt>
      <trkpt lat="45.92616" lon="4.74385">
        <ele>170</ele>
        <time>2018-09-04T08:02:56Z</time>
      </trkpt>
      <trkpt lat="45.92613" lon="4.74392">
        <ele>170</ele>
        <time>2018-09-04T08:02:57Z</time>
      </trkpt>
      <trkpt lat="45.92609" lon="4.744">
        <ele>170</ele>
        <time>2018-09-04T08:02:58Z</time>
      </trkpt>
      <trkpt lat="45.92606" lon="4.74407">
        <ele>170</ele>
        <time>2018-09-04T08:02:59Z</time>
      </trkpt>
      <trkpt lat="45.92602" lon="4.74415">
        <ele>170</ele>
        <time>2018-09-04T08:03:00Z</time>
      </trkpt>
      <trkpt lat="45.92598" lon="4.74425">
        <ele>170</ele>
        <time>2018-09-04T08:03:01Z</time>
      </trkpt>
      <trkpt lat="45.92595" lon="4.74432">
        <ele>170</ele>
        <time>2018-09-04T08:03:02Z</time>
      </trkpt>
      <trkpt lat="45.92591" lon="4.7444">
        <ele>170</ele>
        <time>2018-09-04T08:03:03Z</time>
      </trkpt>
      <trkpt lat="45.92589" lon="4.74447">
        <ele>170</ele>
        <time>2018-09-04T08:03:04Z</time>
      </trkpt>
      <trkpt lat="45.92585" lon="4.74454">
        <ele>170</ele>
        <time>2018-09-04T08:03:05Z</time>
      </trkpt>
      <trkpt lat="45.92581" lon="4.74462">
        <ele>170</ele>
        <time>2018-09-04T08:03:06Z</time>
      </trkpt>
      <trkpt lat="45.92576" lon="4.74469">
        <ele>170</ele>
        <time>2018-09-04T08:03:07Z</time>
      </trkpt>
      <trkpt lat="45.92573" lon="4.74476">
        <ele>170</ele>
        <time>2018-09-04T08:03:08Z</time>
      </trkpt>
      <trkpt lat="45.92569" lon="4.74481">
        <ele>170</ele>
        <time>2018-09-04T08:03:09Z</time>
      </trkpt>
      <trkpt lat="45.92565" lon="4.74488">
        <ele>170</ele>
        <time>2018-09-04T08:03:10Z</time>
      </trkpt>
      <trkpt lat="45.92561" lon="4.74495">
        <ele>170</ele>
        <time>2018-09-04T08:03:11Z</time>
      </trkpt>
      <trkpt lat="45.92558" lon="4.74504">
        <ele>170</ele>
        <time>2018-09-04T08:03:12Z</time>
      </trkpt>
      <trkpt lat="45.92554" lon="4.74511">
        <ele>170</ele>
        <time>2018-09-04T08:03:13Z</time>
      </trkpt>
      <trkpt lat="45.92549" lon="4.74521">
        <ele>170</ele>
        <time>2018-09-04T08:03:14Z</time>
      </trkpt>
      <trkpt lat="45.92545" lon="4.74526">
        <ele>170</ele>
        <time>2018-09-04T08:03:15Z</time>
      </trkpt>
      <trkpt lat="45.9254" lon="4.74533">
        <ele>171</ele>
        <time>2018-09-04T08:03:16Z</time>
      </trkpt>
      <trkpt lat="45.92535" lon="4.74539">
        <ele>171</ele>
        <time>2018-09-04T08:03:17Z</time>
      </trkpt>
      <trkpt lat="45.92533" lon="4.74546">
        <ele>171</ele>
        <time>2018-09-04T08:03:18Z</time>
      </trkpt>
      <trkpt lat="45.92529" lon="4.74552">
        <ele>171</ele>
        <time>2018-09-04T08:03:19Z</time>
      </trkpt>
      <trkpt lat="45.92525" lon="4.74558">
        <ele>171</ele>
        <time>2018-09-04T08:03:20Z</time>
      </trkpt>
      <trkpt lat="45.92521" lon="4.74564">
        <ele>171</ele>
        <time>2018-09-04T08:03:21Z</time>
      </trkpt>
      <trkpt lat="45.92517" lon="4.74569">
        <ele>171</ele>
        <time>2018-09-04T08:03:22Z</time>
      </trkpt>
      <trkpt lat="45.92513" lon="4.74574">
        <ele>171</ele>
        <time>2018-09-04T08:03:23Z</time>
      </trkpt>
      <trkpt lat="45.92509" lon="4.74579">
        <ele>171</ele>
        <time>2018-09-04T08:03:24Z</time>
      </trkpt>
      <trkpt lat="45.92505" lon="4.74584">
        <ele>171</ele>
        <time>2018-09-04T08:03:25Z</time>
      </trkpt>
      <trkpt lat="45.925" lon="4.74589">
        <ele>171</ele>
        <time>2018-09-04T08:03:26Z</time>
      </trkpt>
      <trkpt lat="45.92496" lon="4.74594">
        <ele>171</ele>
        <time>2018-09-04T08:03:27Z</time>
      </trkpt>
      <trkpt lat="45.92491" lon="4.746">
        <ele>171</ele>
        <time>2018-09-04T08:03:28Z</time>
      </trkpt>
      <trkpt lat="45.92485" lon="4.74608">
        <ele>171</ele>
        <time>2018-09-04T08:03:29Z</time>
      </trkpt>
      <trkpt lat="45.92481" lon="4.74614">
        <ele>171</ele>
        <time>2018-09-04T08:03:30Z</time>
      </trkpt>
      <trkpt lat="45.92478" lon="4.7462">
        <ele>171</ele>
        <time>2018-09-04T08:03:31Z</time>
      </trkpt>
      <trkpt lat="45.92474" lon="4.74625">
        <ele>171</ele>
        <time>2018-09-04T08:03:32Z</time>
      </trkpt>
      <trkpt lat="45.92469" lon="4.74632">
        <ele>171</ele>
        <time>2018-09-04T08:03:33Z</time>
      </trkpt>
      <trkpt lat="45.92465" lon="4.74638">
        <ele>171</ele>
        <time>2018-09-04T08:03:34Z</time>
      </trkpt>
      <trkpt lat="45.92461" lon="4.74644">
        <ele>171</ele>
        <time>2018-09-04T08:03:35Z</time>
      </trkpt>
      <trkpt lat="45.92457" lon="4.7465">
        <ele>171</ele>
        <time>2018-09-04T08:03:36Z</time>
      </trkpt>
      <trkpt lat="45.92448" lon="4.74664">
        <ele>171</ele>
        <time>2018-09-04T08:03:38Z</time>
      </trkpt>
      <trkpt lat="45.92444" lon="4.74672">
        <ele>171</ele>
        <time>2018-09-04T08:03:39Z</time>
      </trkpt>
      <trkpt lat="45.9244" lon="4.74677">
        <ele>171</ele>
        <time>2018-09-04T08:03:40Z</time>
      </trkpt>
      <trkpt lat="45.92438" lon="4.74688">
        <ele>171</ele>
        <time>2018-09-04T08:03:41Z</time>
      </trkpt>
      <trkpt lat="45.92433" lon="4.74695">
        <ele>171</ele>
        <time>2018-09-04T08:03:42Z</time>
      </trkpt>
      <trkpt lat="45.92431" lon="4.74705">
        <ele>171</ele>
        <time>2018-09-04T08:03:43Z</time>
      </trkpt>
      <trkpt lat="45.92429" lon="4.74712">
        <ele>171</ele>
        <time>2018-09-04T08:03:44Z</time>
      </trkpt>
      <trkpt lat="45.92428" lon="4.7472">
        <ele>171</ele>
        <time>2018-09-04T08:03:45Z</time>
      </trkpt>
      <trkpt lat="45.92424" lon="4.74726">
        <ele>171</ele>
        <time>2018-09-04T08:03:46Z</time>
      </trkpt>
      <trkpt lat="45.92422" lon="4.74736">
        <ele>171</ele>
        <time>2018-09-04T08:03:47Z</time>
      </trkpt>
      <trkpt lat="45.92419" lon="4.74744">
        <ele>172</ele>
        <time>2018-09-04T08:03:48Z</time>
      </trkpt>
      <trkpt lat="45.92416" lon="4.74753">
        <ele>172</ele>
        <time>2018-09-04T08:03:49Z</time>
      </trkpt>
      <trkpt lat="45.92413" lon="4.74762">
        <ele>172</ele>
        <time>2018-09-04T08:03:50Z</time>
      </trkpt>
      <trkpt lat="45.92409" lon="4.74771">
        <ele>172</ele>
        <time>2018-09-04T08:03:51Z</time>
      </trkpt>
      <trkpt lat="45.92409" lon="4.74781">
        <ele>171</ele>
        <time>2018-09-04T08:03:52Z</time>
      </trkpt>
      <trkpt lat="45.92405" lon="4.74791">
        <ele>171</ele>
        <time>2018-09-04T08:03:53Z</time>
      </trkpt>
      <trkpt lat="45.92403" lon="4.74799">
        <ele>171</ele>
        <time>2018-09-04T08:03:54Z</time>
      </trkpt>
      <trkpt lat="45.924" lon="4.74809">
        <ele>171</ele>
        <time>2018-09-04T08:03:55Z</time>
      </trkpt>
      <trkpt lat="45.92399" lon="4.74819">
        <ele>171</ele>
        <time>2018-09-04T08:03:56Z</time>
      </trkpt>
      <trkpt lat="45.92398" lon="4.74829">
        <ele>171</ele>
        <time>2018-09-04T08:03:57Z</time>
      </trkpt>
      <trkpt lat="45.92395" lon="4.7484">
        <ele>171</ele>
        <time>2018-09-04T08:03:58Z</time>
      </trkpt>
      <trkpt lat="45.92393" lon="4.7485">
        <ele>171</ele>
        <time>2018-09-04T08:03:59Z</time>
      </trkpt>
      <trkpt lat="45.92392" lon="4.74862">
        <ele>171</ele>
        <time>2018-09-04T08:04:00Z</time>
      </trkpt>
      <trkpt lat="45.92389" lon="4.74875">
        <ele>171</ele>
        <time>2018-09-04T08:04:01Z</time>
      </trkpt>
      <trkpt lat="45.92387" lon="4.74883">
        <ele>171</ele>
        <time>2018-09-04T08:04:02Z</time>
      </trkpt>
      <trkpt lat="45.92384" lon="4.74892">
        <ele>171</ele>
        <time>2018-09-04T08:04:03Z</time>
      </trkpt>
      <trkpt lat="45.9238" lon="4.74902">
        <ele>171</ele>
        <time>2018-09-04T08:04:04Z</time>
      </trkpt>
      <trkpt lat="45.92377" lon="4.7491">
        <ele>171</ele>
        <time>2018-09-04T08:04:05Z</time>
      </trkpt>
      <trkpt lat="45.92374" lon="4.74917">
        <ele>170</ele>
        <time>2018-09-04T08:04:06Z</time>
      </trkpt>
      <trkpt lat="45.92371" lon="4.74924">
        <ele>170</ele>
        <time>2018-09-04T08:04:07Z</time>
      </trkpt>
      <trkpt lat="45.92367" lon="4.74933">
        <ele>170</ele>
        <time>2018-09-04T08:04:08Z</time>
      </trkpt>
      <trkpt lat="45.92364" lon="4.7494">
        <ele>170</ele>
        <time>2018-09-04T08:04:09Z</time>
      </trkpt>
      <trkpt lat="45.92361" lon="4.74945">
        <ele>170</ele>
        <time>2018-09-04T08:04:10Z</time>
      </trkpt>
      <trkpt lat="45.92357" lon="4.74951">
        <ele>170</ele>
        <time>2018-09-04T08:04:11Z</time>
      </trkpt>
      <trkpt lat="45.92354" lon="4.74958">
        <ele>170</ele>
        <time>2018-09-04T08:04:12Z</time>
      </trkpt>
      <trkpt lat="45.92351" lon="4.74965">
        <ele>170</ele>
        <time>2018-09-04T08:04:13Z</time>
      </trkpt>
      <trkpt lat="45.92347" lon="4.74977">
        <ele>170</ele>
        <time>2018-09-04T08:04:14Z</time>
      </trkpt>
      <trkpt lat="45.92344" lon="4.74984">
        <ele>170</ele>
        <time>2018-09-04T08:04:15Z</time>
      </trkpt>
      <trkpt lat="45.92342" lon="4.74994">
        <ele>170</ele>
        <time>2018-09-04T08:04:16Z</time>
      </trkpt>
      <trkpt lat="45.92338" lon="4.74997">
        <ele>170</ele>
        <time>2018-09-04T08:04:17Z</time>
      </trkpt>
      <trkpt lat="45.92335" lon="4.75005">
        <ele>170</ele>
        <time>2018-09-04T08:04:18Z</time>
      </trkpt>
      <trkpt lat="45.92331" lon="4.75012">
        <ele>171</ele>
        <time>2018-09-04T08:04:19Z</time>
      </trkpt>
      <trkpt lat="45.92328" lon="4.75019">
        <ele>171</ele>
        <time>2018-09-04T08:04:20Z</time>
      </trkpt>
      <trkpt lat="45.92324" lon="4.75026">
        <ele>171</ele>
        <time>2018-09-04T08:04:21Z</time>
      </trkpt>
      <trkpt lat="45.92319" lon="4.75033">
        <ele>171</ele>
        <time>2018-09-04T08:04:22Z</time>
      </trkpt>
      <trkpt lat="45.92314" lon="4.75041">
        <ele>172</ele>
        <time>2018-09-04T08:04:23Z</time>
      </trkpt>
      <trkpt lat="45.92309" lon="4.75049">
        <ele>172</ele>
        <time>2018-09-04T08:04:24Z</time>
      </trkpt>
      <trkpt lat="45.92304" lon="4.75055">
        <ele>172</ele>
        <time>2018-09-04T08:04:25Z</time>
      </trkpt>
      <trkpt lat="45.92301" lon="4.75062">
        <ele>172</ele>
        <time>2018-09-04T08:04:26Z</time>
      </trkpt>
      <trkpt lat="45.92298" lon="4.7507">
        <ele>172</ele>
        <time>2018-09-04T08:04:27Z</time>
      </trkpt>
      <trkpt lat="45.92293" lon="4.75077">
        <ele>172</ele>
        <time>2018-09-04T08:04:28Z</time>
      </trkpt>
      <trkpt lat="45.92287" lon="4.75081">
        <ele>172</ele>
        <time>2018-09-04T08:04:29Z</time>
      </trkpt>
      <trkpt lat="45.92284" lon="4.75088">
        <ele>173</ele>
        <time>2018-09-04T08:04:30Z</time>
      </trkpt>
      <trkpt lat="45.92279" lon="4.75091">
        <ele>173</ele>
        <time>2018-09-04T08:04:31Z</time>
      </trkpt>
      <trkpt lat="45.92274" lon="4.75096">
        <ele>173</ele>
        <time>2018-09-04T08:04:32Z</time>
      </trkpt>
      <trkpt lat="45.9227" lon="4.751">
        <ele>173</ele>
        <time>2018-09-04T08:04:33Z</time>
      </trkpt>
      <trkpt lat="45.92265" lon="4.75105">
        <ele>174</ele>
        <time>2018-09-04T08:04:34Z</time>
      </trkpt>
      <trkpt lat="45.92261" lon="4.75112">
        <ele>174</ele>
        <time>2018-09-04T08:04:35Z</time>
      </trkpt>
      <trkpt lat="45.92255" lon="4.75118">
        <ele>174</ele>
        <time>2018-09-04T08:04:36Z</time>
      </trkpt>
      <trkpt lat="45.9225" lon="4.75124">
        <ele>174</ele>
        <time>2018-09-04T08:04:37Z</time>
      </trkpt>
      <trkpt lat="45.92246" lon="4.75127">
        <ele>174</ele>
        <time>2018-09-04T08:04:38Z</time>
      </trkpt>
      <trkpt lat="45.92242" lon="4.75133">
        <ele>174</ele>
        <time>2018-09-04T08:04:39Z</time>
      </trkpt>
      <trkpt lat="45.92239" lon="4.75139">
        <ele>174</ele>
        <time>2018-09-04T08:04:40Z</time>
      </trkpt>
      <trkpt lat="45.92236" lon="4.75143">
        <ele>174</ele>
        <time>2018-09-04T08:04:41Z</time>
      </trkpt>
      <trkpt lat="45.92232" lon="4.75148">
        <ele>174</ele>
        <time>2018-09-04T08:04:42Z</time>
      </trkpt>
      <trkpt lat="45.92227" lon="4.75154">
        <ele>174</ele>
        <time>2018-09-04T08:04:43Z</time>
      </trkpt>
      <trkpt lat="45.92224" lon="4.75159">
        <ele>174</ele>
        <time>2018-09-04T08:04:44Z</time>
      </trkpt>
      <trkpt lat="45.92222" lon="4.75167">
        <ele>175</ele>
        <time>2018-09-04T08:04:45Z</time>
      </trkpt>
      <trkpt lat="45.9222" lon="4.75175">
        <ele>175</ele>
        <time>2018-09-04T08:04:46Z</time>
      </trkpt>
      <trkpt lat="45.92217" lon="4.75182">
        <ele>175</ele>
        <time>2018-09-04T08:04:47Z</time>
      </trkpt>
      <trkpt lat="45.92215" lon="4.7519">
        <ele>175</ele>
        <time>2018-09-04T08:04:48Z</time>
      </trkpt>
      <trkpt lat="45.92213" lon="4.75197">
        <ele>175</ele>
        <time>2018-09-04T08:04:49Z</time>
      </trkpt>
      <trkpt lat="45.92212" lon="4.75204">
        <ele>175</ele>
        <time>2018-09-04T08:04:50Z</time>
      </trkpt>
      <trkpt lat="45.92211" lon="4.75212">
        <ele>175</ele>
        <time>2018-09-04T08:04:51Z</time>
      </trkpt>
      <trkpt lat="45.9221" lon="4.75217">
        <ele>175</ele>
        <time>2018-09-04T08:04:52Z</time>
      </trkpt>
      <trkpt lat="45.9221" lon="4.75224">
        <ele>175</ele>
        <time>2018-09-04T08:04:53Z</time>
      </trkpt>
      <trkpt lat="45.92209" lon="4.75231">
        <ele>175</ele>
        <time>2018-09-04T08:04:54Z</time>
      </trkpt>
      <trkpt lat="45.92209" lon="4.75239">
        <ele>175</ele>
        <time>2018-09-04T08:04:55Z</time>
      </trkpt>
      <trkpt lat="45.92209" lon="4.75245">
        <ele>175</ele>
        <time>2018-09-04T08:04:56Z</time>
      </trkpt>
      <trkpt lat="45.9221" lon="4.75252">
        <ele>175</ele>
        <time>2018-09-04T08:04:57Z</time>
      </trkpt>
      <trkpt lat="45.9221" lon="4.75258">
        <ele>175</ele>
        <time>2018-09-04T08:04:58Z</time>
      </trkpt>
      <trkpt lat="45.9221" lon="4.75271">
        <ele>176</ele>
        <time>2018-09-04T08:05:00Z</time>
      </trkpt>
      <trkpt lat="45.9221" lon="4.75277">
        <ele>176</ele>
        <time>2018-09-04T08:05:01Z</time>
      </trkpt>
      <trkpt lat="45.9221" lon="4.75283">
        <ele>176</ele>
        <time>2018-09-04T08:05:02Z</time>
      </trkpt>
      <trkpt lat="45.92209" lon="4.7529">
        <ele>176</ele>
        <time>2018-09-04T08:05:03Z</time>
      </trkpt>
      <trkpt lat="45.92209" lon="4.75297">
        <ele>176</ele>
        <time>2018-09-04T08:05:04Z</time>
      </trkpt>
      <trkpt lat="45.92209" lon="4.75305">
        <ele>176</ele>
        <time>2018-09-04T08:05:05Z</time>
      </trkpt>
      <trkpt lat="45.92206" lon="4.75317">
        <ele>176</ele>
        <time>2018-09-04T08:05:07Z</time>
      </trkpt>
      <trkpt lat="45.92204" lon="4.75324">
        <ele>176</ele>
        <time>2018-09-04T08:05:08Z</time>
      </trkpt>
      <trkpt lat="45.92203" lon="4.7533">
        <ele>176</ele>
        <time>2018-09-04T08:05:09Z</time>
      </trkpt>
      <trkpt lat="45.92201" lon="4.75338">
        <ele>177</ele>
        <time>2018-09-04T08:05:10Z</time>
      </trkpt>
      <trkpt lat="45.922" lon="4.75345">
        <ele>177</ele>
        <time>2018-09-04T08:05:11Z</time>
      </trkpt>
      <trkpt lat="45.92197" lon="4.7535">
        <ele>177</ele>
        <time>2018-09-04T08:05:12Z</time>
      </trkpt>
      <trkpt lat="45.92195" lon="4.75357">
        <ele>177</ele>
        <time>2018-09-04T08:05:13Z</time>
      </trkpt>
      <trkpt lat="45.92192" lon="4.75365">
        <ele>177</ele>
        <time>2018-09-04T08:05:14Z</time>
      </trkpt>
      <trkpt lat="45.9219" lon="4.75372">
        <ele>177</ele>
        <time>2018-09-04T08:05:15Z</time>
      </trkpt>
      <trkpt lat="45.92186" lon="4.75377">
        <ele>177</ele>
        <time>2018-09-04T08:05:16Z</time>
      </trkpt>
      <trkpt lat="45.92185" lon="4.75386">
        <ele>177</ele>
        <time>2018-09-04T08:05:17Z</time>
      </trkpt>
      <trkpt lat="45.92184" lon="4.75394">
        <ele>177</ele>
        <time>2018-09-04T08:05:18Z</time>
      </trkpt>
      <trkpt lat="45.92181" lon="4.75401">
        <ele>177</ele>
        <time>2018-09-04T08:05:19Z</time>
      </trkpt>
      <trkpt lat="45.92179" lon="4.75408">
        <ele>177</ele>
        <time>2018-09-04T08:05:20Z</time>
      </trkpt>
      <trkpt lat="45.92177" lon="4.75416">
        <ele>178</ele>
        <time>2018-09-04T08:05:21Z</time>
      </trkpt>
      <trkpt lat="45.92174" lon="4.75423">
        <ele>177</ele>
        <time>2018-09-04T08:05:22Z</time>
      </trkpt>
      <trkpt lat="45.92171" lon="4.75433">
        <ele>177</ele>
        <time>2018-09-04T08:05:23Z</time>
      </trkpt>
      <trkpt lat="45.92169" lon="4.75437">
        <ele>177</ele>
        <time>2018-09-04T08:05:24Z</time>
      </trkpt>
      <trkpt lat="45.92163" lon="4.75444">
        <ele>177</ele>
        <time>2018-09-04T08:05:26Z</time>
      </trkpt>
      <trkpt lat="45.9216" lon="4.75454">
        <ele>176</ele>
        <time>2018-09-04T08:05:27Z</time>
      </trkpt>
      <trkpt lat="45.92157" lon="4.75461">
        <ele>176</ele>
        <time>2018-09-04T08:05:28Z</time>
      </trkpt>
      <trkpt lat="45.92154" lon="4.75471">
        <ele>176</ele>
        <time>2018-09-04T08:05:29Z</time>
      </trkpt>
      <trkpt lat="45.92152" lon="4.75479">
        <ele>176</ele>
        <time>2018-09-04T08:05:30Z</time>
      </trkpt>
      <trkpt lat="45.92148" lon="4.75487">
        <ele>176</ele>
        <time>2018-09-04T08:05:31Z</time>
      </trkpt>
      <trkpt lat="45.92145" lon="4.75493">
        <ele>176</ele>
        <time>2018-09-04T08:05:32Z</time>
      </trkpt>
      <trkpt lat="45.92141" lon="4.75502">
        <ele>174</ele>
        <time>2018-09-04T08:05:33Z</time>
      </trkpt>
      <trkpt lat="45.92137" lon="4.75508">
        <ele>174</ele>
        <time>2018-09-04T08:05:34Z</time>
      </trkpt>
      <trkpt lat="45.92132" lon="4.75517">
        <ele>174</ele>
        <time>2018-09-04T08:05:35Z</time>
      </trkpt>
      <trkpt lat="45.92128" lon="4.75523">
        <ele>174</ele>
        <time>2018-09-04T08:05:36Z</time>
      </trkpt>
      <trkpt lat="45.92124" lon="4.75528">
        <ele>174</ele>
        <time>2018-09-04T08:05:37Z</time>
      </trkpt>
      <trkpt lat="45.9212" lon="4.75536">
        <ele>174</ele>
        <time>2018-09-04T08:05:38Z</time>
      </trkpt>
      <trkpt lat="45.92118" lon="4.75543">
        <ele>174</ele>
        <time>2018-09-04T08:05:39Z</time>
      </trkpt>
      <trkpt lat="45.92115" lon="4.7555">
        <ele>174</ele>
        <time>2018-09-04T08:05:40Z</time>
      </trkpt>
      <trkpt lat="45.92111" lon="4.75554">
        <ele>174</ele>
        <time>2018-09-04T08:05:41Z</time>
      </trkpt>
      <trkpt lat="45.92105" lon="4.75563">
        <ele>174</ele>
        <time>2018-09-04T08:05:45Z</time>
      </trkpt>
      <trkpt lat="45.92104" lon="4.75564">
        <ele>174</ele>
        <time>2018-09-04T08:05:46Z</time>
      </trkpt>
      <trkpt lat="45.92106" lon="4.75574">
        <ele>174</ele>
        <time>2018-09-04T08:05:55Z</time>
      </trkpt>
      <trkpt lat="45.92107" lon="4.75577">
        <ele>174</ele>
        <time>2018-09-04T08:05:56Z</time>
      </trkpt>
      <trkpt lat="45.92112" lon="4.75586">
        <ele>174</ele>
        <time>2018-09-04T08:05:59Z</time>
      </trkpt>
      <trkpt lat="45.92114" lon="4.75589">
        <ele>174</ele>
        <time>2018-09-04T08:06:00Z</time>
      </trkpt>
      <trkpt lat="45.92116" lon="4.75592">
        <ele>174</ele>
        <time>2018-09-04T08:06:01Z</time>
      </trkpt>
      <trkpt lat="45.92125" lon="4.756">
        <ele>174</ele>
        <time>2018-09-04T08:06:02Z</time>
      </trkpt>
      <trkpt lat="45.92129" lon="4.75604">
        <ele>174</ele>
        <time>2018-09-04T08:06:03Z</time>
      </trkpt>
      <trkpt lat="45.92133" lon="4.7561">
        <ele>174</ele>
        <time>2018-09-04T08:06:04Z</time>
      </trkpt>
      <trkpt lat="45.92137" lon="4.75614">
        <ele>174</ele>
        <time>2018-09-04T08:06:05Z</time>
      </trkpt>
      <trkpt lat="45.92142" lon="4.75618">
        <ele>174</ele>
        <time>2018-09-04T08:06:06Z</time>
      </trkpt>
      <trkpt lat="45.92146" lon="4.75622">
        <ele>174</ele>
        <time>2018-09-04T08:06:07Z</time>
      </trkpt>
      <trkpt lat="45.92151" lon="4.75625">
        <ele>174</ele>
        <time>2018-09-04T08:06:08Z</time>
      </trkpt>
      <trkpt lat="45.92155" lon="4.7563">
        <ele>174</ele>
        <time>2018-09-04T08:06:09Z</time>
      </trkpt>
      <trkpt lat="45.92159" lon="4.75634">
        <ele>174</ele>
        <time>2018-09-04T08:06:10Z</time>
      </trkpt>
      <trkpt lat="45.92164" lon="4.75638">
        <ele>174</ele>
        <time>2018-09-04T08:06:11Z</time>
      </trkpt>
      <trkpt lat="45.92169" lon="4.75643">
        <ele>174</ele>
        <time>2018-09-04T08:06:12Z</time>
      </trkpt>
      <trkpt lat="45.92173" lon="4.75647">
        <ele>174</ele>
        <time>2018-09-04T08:06:13Z</time>
      </trkpt>
      <trkpt lat="45.92177" lon="4.75651">
        <ele>174</ele>
        <time>2018-09-04T08:06:14Z</time>
      </trkpt>
      <trkpt lat="45.92181" lon="4.75654">
        <ele>174</ele>
        <time>2018-09-04T08:06:15Z</time>
      </trkpt>
      <trkpt lat="45.92186" lon="4.75659">
        <ele>174</ele>
        <time>2018-09-04T08:06:16Z</time>
      </trkpt>
      <trkpt lat="45.9219" lon="4.75663">
        <ele>174</ele>
        <time>2018-09-04T08:06:17Z</time>
      </trkpt>
      <trkpt lat="45.92194" lon="4.75667">
        <ele>174</ele>
        <time>2018-09-04T08:06:18Z</time>
      </trkpt>
      <trkpt lat="45.92197" lon="4.75671">
        <ele>174</ele>
        <time>2018-09-04T08:06:19Z</time>
      </trkpt>
      <trkpt lat="45.92203" lon="4.75674">
        <ele>174</ele>
        <time>2018-09-04T08:06:20Z</time>
      </trkpt>
      <trkpt lat="45.92207" lon="4.75679">
        <ele>174</ele>
        <time>2018-09-04T08:06:21Z</time>
      </trkpt>
      <trkpt lat="45.9221" lon="4.75683">
        <ele>174</ele>
        <time>2018-09-04T08:06:22Z</time>
      </trkpt>
      <trkpt lat="45.92214" lon="4.75687">
        <ele>174</ele>
        <time>2018-09-04T08:06:23Z</time>
      </trkpt>
      <trkpt lat="45.92218" lon="4.75692">
        <ele>174</ele>
        <time>2018-09-04T08:06:24Z</time>
      </trkpt>
      <trkpt lat="45.92223" lon="4.75698">
        <ele>174</ele>
        <time>2018-09-04T08:06:25Z</time>
      </trkpt>
      <trkpt lat="45.92228" lon="4.75702">
        <ele>174</ele>
        <time>2018-09-04T08:06:26Z</time>
      </trkpt>
      <trkpt lat="45.92232" lon="4.75708">
        <ele>174</ele>
        <time>2018-09-04T08:06:27Z</time>
      </trkpt>
      <trkpt lat="45.92236" lon="4.75714">
        <ele>174</ele>
        <time>2018-09-04T08:06:28Z</time>
      </trkpt>
      <trkpt lat="45.9224" lon="4.7572">
        <ele>174</ele>
        <time>2018-09-04T08:06:29Z</time>
      </trkpt>
      <trkpt lat="45.92243" lon="4.75727">
        <ele>174</ele>
        <time>2018-09-04T08:06:30Z</time>
      </trkpt>
      <trkpt lat="45.92246" lon="4.75739">
        <ele>174</ele>
        <time>2018-09-04T08:06:32Z</time>
      </trkpt>
      <trkpt lat="45.92247" lon="4.75745">
        <ele>174</ele>
        <time>2018-09-04T08:06:33Z</time>
      </trkpt>
      <trkpt lat="45.92248" lon="4.7575">
        <ele>174</ele>
        <time>2018-09-04T08:06:34Z</time>
      </trkpt>
      <trkpt lat="45.9225" lon="4.75757">
        <ele>174</ele>
        <time>2018-09-04T08:06:35Z</time>
      </trkpt>
      <trkpt lat="45.92251" lon="4.75763">
        <ele>174</ele>
        <time>2018-09-04T08:06:36Z</time>
      </trkpt>
      <trkpt lat="45.92252" lon="4.7577">
        <ele>174</ele>
        <time>2018-09-04T08:06:37Z</time>
      </trkpt>
      <trkpt lat="45.92255" lon="4.75782">
        <ele>174</ele>
        <time>2018-09-04T08:06:39Z</time>
      </trkpt>
      <trkpt lat="45.92256" lon="4.75789">
        <ele>174</ele>
        <time>2018-09-04T08:06:40Z</time>
      </trkpt>
      <trkpt lat="45.92258" lon="4.75795">
        <ele>174</ele>
        <time>2018-09-04T08:06:41Z</time>
      </trkpt>
      <trkpt lat="45.9226" lon="4.75802">
        <ele>174</ele>
        <time>2018-09-04T08:06:42Z</time>
      </trkpt>
      <trkpt lat="45.92262" lon="4.75808">
        <ele>174</ele>
        <time>2018-09-04T08:06:43Z</time>
      </trkpt>
      <trkpt lat="45.92265" lon="4.75814">
        <ele>174</ele>
        <time>2018-09-04T08:06:44Z</time>
      </trkpt>
      <trkpt lat="45.92268" lon="4.7582">
        <ele>174</ele>
        <time>2018-09-04T08:06:45Z</time>
      </trkpt>
      <trkpt lat="45.92272" lon="4.75826">
        <ele>174</ele>
        <time>2018-09-04T08:06:46Z</time>
      </trkpt>
      <trkpt lat="45.92277" lon="4.7583">
        <ele>174</ele>
        <time>2018-09-04T08:06:47Z</time>
      </trkpt>
      <trkpt lat="45.92283" lon="4.75835">
        <ele>173</ele>
        <time>2018-09-04T08:06:48Z</time>
      </trkpt>
      <trkpt lat="45.92289" lon="4.75838">
        <ele>173</ele>
        <time>2018-09-04T08:06:49Z</time>
      </trkpt>
      <trkpt lat="45.92295" lon="4.75841">
        <ele>173</ele>
        <time>2018-09-04T08:06:50Z</time>
      </trkpt>
      <trkpt lat="45.923" lon="4.75845">
        <ele>173</ele>
        <time>2018-09-04T08:06:51Z</time>
      </trkpt>
      <trkpt lat="45.92305" lon="4.75849">
        <ele>173</ele>
        <time>2018-09-04T08:06:52Z</time>
      </trkpt>
      <trkpt lat="45.9231" lon="4.75852">
        <ele>173</ele>
        <time>2018-09-04T08:06:53Z</time>
      </trkpt>
      <trkpt lat="45.92316" lon="4.75856">
        <ele>173</ele>
        <time>2018-09-04T08:06:54Z</time>
      </trkpt>
      <trkpt lat="45.92321" lon="4.75859">
        <ele>173</ele>
        <time>2018-09-04T08:06:55Z</time>
      </trkpt>
      <trkpt lat="45.92326" lon="4.75863">
        <ele>173</ele>
        <time>2018-09-04T08:06:56Z</time>
      </trkpt>
      <trkpt lat="45.92331" lon="4.75867">
        <ele>173</ele>
        <time>2018-09-04T08:06:57Z</time>
      </trkpt>
      <trkpt lat="45.92337" lon="4.75872">
        <ele>173</ele>
        <time>2018-09-04T08:06:58Z</time>
      </trkpt>
      <trkpt lat="45.92343" lon="4.75875">
        <ele>173</ele>
        <time>2018-09-04T08:06:59Z</time>
      </trkpt>
      <trkpt lat="45.92349" lon="4.75879">
        <ele>173</ele>
        <time>2018-09-04T08:07:00Z</time>
      </trkpt>
      <trkpt lat="45.92355" lon="4.75883">
        <ele>173</ele>
        <time>2018-09-04T08:07:01Z</time>
      </trkpt>
      <trkpt lat="45.92361" lon="4.75887">
        <ele>173</ele>
        <time>2018-09-04T08:07:02Z</time>
      </trkpt>
      <trkpt lat="45.92366" lon="4.75892">
        <ele>173</ele>
        <time>2018-09-04T08:07:03Z</time>
      </trkpt>
      <trkpt lat="45.92372" lon="4.75895">
        <ele>173</ele>
        <time>2018-09-04T08:07:04Z</time>
      </trkpt>
      <trkpt lat="45.92378" lon="4.75899">
        <ele>173</ele>
        <time>2018-09-04T08:07:05Z</time>
      </trkpt>
      <trkpt lat="45.92383" lon="4.75902">
        <ele>173</ele>
        <time>2018-09-04T08:07:06Z</time>
      </trkpt>
      <trkpt lat="45.92388" lon="4.75905">
        <ele>173</ele>
        <time>2018-09-04T08:07:07Z</time>
      </trkpt>
      <trkpt lat="45.92393" lon="4.75909">
        <ele>173</ele>
        <time>2018-09-04T08:07:08Z</time>
      </trkpt>
      <trkpt lat="45.92398" lon="4.75912">
        <ele>173</ele>
        <time>2018-09-04T08:07:09Z</time>
      </trkpt>
      <trkpt lat="45.92402" lon="4.75915">
        <ele>172</ele>
        <time>2018-09-04T08:07:10Z</time>
      </trkpt>
      <trkpt lat="45.92407" lon="4.75917">
        <ele>172</ele>
        <time>2018-09-04T08:07:11Z</time>
      </trkpt>
      <trkpt lat="45.92412" lon="4.75921">
        <ele>172</ele>
        <time>2018-09-04T08:07:12Z</time>
      </trkpt>
      <trkpt lat="45.92416" lon="4.75924">
        <ele>172</ele>
        <time>2018-09-04T08:07:13Z</time>
      </trkpt>
      <trkpt lat="45.92421" lon="4.75928">
        <ele>172</ele>
        <time>2018-09-04T08:07:14Z</time>
      </trkpt>
      <trkpt lat="45.92425" lon="4.75932">
        <ele>172</ele>
        <time>2018-09-04T08:07:15Z</time>
      </trkpt>
      <trkpt lat="45.92429" lon="4.75935">
        <ele>172</ele>
        <time>2018-09-04T08:07:16Z</time>
      </trkpt>
      <trkpt lat="45.92434" lon="4.75938">
        <ele>172</ele>
        <time>2018-09-04T08:07:17Z</time>
      </trkpt>
      <trkpt lat="45.92438" lon="4.75942">
        <ele>172</ele>
        <time>2018-09-04T08:07:18Z</time>
      </trkpt>
      <trkpt lat="45.92443" lon="4.75946">
        <ele>172</ele>
        <time>2018-09-04T08:07:19Z</time>
      </trkpt>
      <trkpt lat="45.92447" lon="4.75948">
        <ele>172</ele>
        <time>2018-09-04T08:07:20Z</time>
      </trkpt>
      <trkpt lat="45.92451" lon="4.75952">
        <ele>172</ele>
        <time>2018-09-04T08:07:21Z</time>
      </trkpt>
      <trkpt lat="45.92456" lon="4.75955">
        <ele>172</ele>
        <time>2018-09-04T08:07:22Z</time>
      </trkpt>
      <trkpt lat="45.92461" lon="4.7596">
        <ele>172</ele>
        <time>2018-09-04T08:07:23Z</time>
      </trkpt>
      <trkpt lat="45.92466" lon="4.75963">
        <ele>172</ele>
        <time>2018-09-04T08:07:24Z</time>
      </trkpt>
      <trkpt lat="45.92471" lon="4.75966">
        <ele>172</ele>
        <time>2018-09-04T08:07:25Z</time>
      </trkpt>
      <trkpt lat="45.92475" lon="4.75971">
        <ele>172</ele>
        <time>2018-09-04T08:07:26Z</time>
      </trkpt>
      <trkpt lat="45.92479" lon="4.75974">
        <ele>172</ele>
        <time>2018-09-04T08:07:27Z</time>
      </trkpt>
      <trkpt lat="45.92483" lon="4.75978">
        <ele>172</ele>
        <time>2018-09-04T08:07:28Z</time>
      </trkpt>
      <trkpt lat="45.92488" lon="4.75981">
        <ele>172</ele>
        <time>2018-09-04T08:07:29Z</time>
      </trkpt>
      <trkpt lat="45.92492" lon="4.75986">
        <ele>172</ele>
        <time>2018-09-04T08:07:30Z</time>
      </trkpt>
      <trkpt lat="45.92497" lon="4.75991">
        <ele>172</ele>
        <time>2018-09-04T08:07:31Z</time>
      </trkpt>
      <trkpt lat="45.92501" lon="4.75994">
        <ele>172</ele>
        <time>2018-09-04T08:07:32Z</time>
      </trkpt>
      <trkpt lat="45.92507" lon="4.75996">
        <ele>172</ele>
        <time>2018-09-04T08:07:33Z</time>
      </trkpt>
      <trkpt lat="45.92512" lon="4.75999">
        <ele>172</ele>
        <time>2018-09-04T08:07:34Z</time>
      </trkpt>
      <trkpt lat="45.92517" lon="4.76003">
        <ele>172</ele>
        <time>2018-09-04T08:07:35Z</time>
      </trkpt>
      <trkpt lat="45.92524" lon="4.76007">
        <ele>172</ele>
        <time>2018-09-04T08:07:36Z</time>
      </trkpt>
      <trkpt lat="45.9253" lon="4.76009">
        <ele>172</ele>
        <time>2018-09-04T08:07:37Z</time>
      </trkpt>
      <trkpt lat="45.92535" lon="4.76012">
        <ele>172</ele>
        <time>2018-09-04T08:07:38Z</time>
      </trkpt>
      <trkpt lat="45.9254" lon="4.76015">
        <ele>172</ele>
        <time>2018-09-04T08:07:39Z</time>
      </trkpt>
      <trkpt lat="45.92545" lon="4.76018">
        <ele>172</ele>
        <time>2018-09-04T08:07:40Z</time>
      </trkpt>
      <trkpt lat="45.92551" lon="4.76019">
        <ele>172</ele>
        <time>2018-09-04T08:07:41Z</time>
      </trkpt>
      <trkpt lat="45.92555" lon="4.76022">
        <ele>172</ele>
        <time>2018-09-04T08:07:42Z</time>
      </trkpt>
      <trkpt lat="45.92562" lon="4.76028">
        <ele>172</ele>
        <time>2018-09-04T08:07:44Z</time>
      </trkpt>
      <trkpt lat="45.92567" lon="4.76031">
        <ele>172</ele>
        <time>2018-09-04T08:07:45Z</time>
      </trkpt>
      <trkpt lat="45.92572" lon="4.76034">
        <ele>172</ele>
        <time>2018-09-04T08:07:46Z</time>
      </trkpt>
      <trkpt lat="45.92577" lon="4.76037">
        <ele>172</ele>
        <time>2018-09-04T08:07:47Z</time>
      </trkpt>
      <trkpt lat="45.92582" lon="4.76041">
        <ele>172</ele>
        <time>2018-09-04T08:07:48Z</time>
      </trkpt>
      <trkpt lat="45.92586" lon="4.76045">
        <ele>171</ele>
        <time>2018-09-04T08:07:49Z</time>
      </trkpt>
      <trkpt lat="45.92591" lon="4.76049">
        <ele>171</ele>
        <time>2018-09-04T08:07:50Z</time>
      </trkpt>
      <trkpt lat="45.92596" lon="4.76054">
        <ele>171</ele>
        <time>2018-09-04T08:07:51Z</time>
      </trkpt>
      <trkpt lat="45.92601" lon="4.76058">
        <ele>171</ele>
        <time>2018-09-04T08:07:52Z</time>
      </trkpt>
      <trkpt lat="45.92606" lon="4.76063">
        <ele>171</ele>
        <time>2018-09-04T08:07:53Z</time>
      </trkpt>
      <trkpt lat="45.92611" lon="4.76066">
        <ele>171</ele>
        <time>2018-09-04T08:07:54Z</time>
      </trkpt>
      <trkpt lat="45.92617" lon="4.7607">
        <ele>171</ele>
        <time>2018-09-04T08:07:55Z</time>
      </trkpt>
      <trkpt lat="45.92624" lon="4.76075">
        <ele>171</ele>
        <time>2018-09-04T08:07:56Z</time>
      </trkpt>
      <trkpt lat="45.92629" lon="4.76079">
        <ele>170</ele>
        <time>2018-09-04T08:07:57Z</time>
      </trkpt>
      <trkpt lat="45.92635" lon="4.76084">
        <ele>170</ele>
        <time>2018-09-04T08:07:58Z</time>
      </trkpt>
      <trkpt lat="45.9264" lon="4.76088">
        <ele>170</ele>
        <time>2018-09-04T08:07:59Z</time>
      </trkpt>
      <trkpt lat="45.92647" lon="4.76092">
        <ele>170</ele>
        <time>2018-09-04T08:08:00Z</time>
      </trkpt>
      <trkpt lat="45.92654" lon="4.76094">
        <ele>170</ele>
        <time>2018-09-04T08:08:01Z</time>
      </trkpt>
      <trkpt lat="45.92662" lon="4.76099">
        <ele>170</ele>
        <time>2018-09-04T08:08:02Z</time>
      </trkpt>
      <trkpt lat="45.92668" lon="4.76103">
        <ele>169</ele>
        <time>2018-09-04T08:08:03Z</time>
      </trkpt>
      <trkpt lat="45.92676" lon="4.76106">
        <ele>169</ele>
        <time>2018-09-04T08:08:04Z</time>
      </trkpt>
      <trkpt lat="45.92683" lon="4.7611">
        <ele>169</ele>
        <time>2018-09-04T08:08:05Z</time>
      </trkpt>
      <trkpt lat="45.9269" lon="4.76115">
        <ele>169</ele>
        <time>2018-09-04T08:08:06Z</time>
      </trkpt>
      <trkpt lat="45.92696" lon="4.76121">
        <ele>169</ele>
        <time>2018-09-04T08:08:07Z</time>
      </trkpt>
      <trkpt lat="45.92702" lon="4.76125">
        <ele>169</ele>
        <time>2018-09-04T08:08:08Z</time>
      </trkpt>
      <trkpt lat="45.92709" lon="4.76129">
        <ele>168</ele>
        <time>2018-09-04T08:08:09Z</time>
      </trkpt>
      <trkpt lat="45.92715" lon="4.76134">
        <ele>168</ele>
        <time>2018-09-04T08:08:10Z</time>
      </trkpt>
      <trkpt lat="45.92722" lon="4.76138">
        <ele>168</ele>
        <time>2018-09-04T08:08:11Z</time>
      </trkpt>
      <trkpt lat="45.92728" lon="4.76143">
        <ele>168</ele>
        <time>2018-09-04T08:08:12Z</time>
      </trkpt>
      <trkpt lat="45.92734" lon="4.76149">
        <ele>168</ele>
        <time>2018-09-04T08:08:13Z</time>
      </trkpt>
      <trkpt lat="45.92739" lon="4.76154">
        <ele>168</ele>
        <time>2018-09-04T08:08:14Z</time>
      </trkpt>
      <trkpt lat="45.92744" lon="4.7616">
        <ele>167</ele>
        <time>2018-09-04T08:08:15Z</time>
      </trkpt>
      <trkpt lat="45.9275" lon="4.76165">
        <ele>167</ele>
        <time>2018-09-04T08:08:16Z</time>
      </trkpt>
      <trkpt lat="45.92757" lon="4.76168">
        <ele>167</ele>
        <time>2018-09-04T08:08:17Z</time>
      </trkpt>
      <trkpt lat="45.92762" lon="4.76173">
        <ele>167</ele>
        <time>2018-09-04T08:08:18Z</time>
      </trkpt>
      <trkpt lat="45.92767" lon="4.76178">
        <ele>167</ele>
        <time>2018-09-04T08:08:19Z</time>
      </trkpt>
      <trkpt lat="45.92773" lon="4.76182">
        <ele>167</ele>
        <time>2018-09-04T08:08:20Z</time>
      </trkpt>
      <trkpt lat="45.92777" lon="4.76188">
        <ele>168</ele>
        <time>2018-09-04T08:08:21Z</time>
      </trkpt>
      <trkpt lat="45.92781" lon="4.76193">
        <ele>168</ele>
        <time>2018-09-04T08:08:22Z</time>
      </trkpt>
      <trkpt lat="45.92786" lon="4.76196">
        <ele>168</ele>
        <time>2018-09-04T08:08:23Z</time>
      </trkpt>
      <trkpt lat="45.9279" lon="4.76203">
        <ele>168</ele>
        <time>2018-09-04T08:08:24Z</time>
      </trkpt>
      <trkpt lat="45.92796" lon="4.76207">
        <ele>168</ele>
        <time>2018-09-04T08:08:25Z</time>
      </trkpt>
      <trkpt lat="45.928" lon="4.76211">
        <ele>168</ele>
        <time>2018-09-04T08:08:26Z</time>
      </trkpt>
      <trkpt lat="45.92803" lon="4.76217">
        <ele>168</ele>
        <time>2018-09-04T08:08:27Z</time>
      </trkpt>
      <trkpt lat="45.92809" lon="4.76222">
        <ele>168</ele>
        <time>2018-09-04T08:08:28Z</time>
      </trkpt>
      <trkpt lat="45.92815" lon="4.76226">
        <ele>168</ele>
        <time>2018-09-04T08:08:29Z</time>
      </trkpt>
      <trkpt lat="45.9282" lon="4.7623">
        <ele>168</ele>
        <time>2018-09-04T08:08:30Z</time>
      </trkpt>
      <trkpt lat="45.92824" lon="4.76236">
        <ele>168</ele>
        <time>2018-09-04T08:08:31Z</time>
      </trkpt>
      <trkpt lat="45.92829" lon="4.76239">
        <ele>169</ele>
        <time>2018-09-04T08:08:32Z</time>
      </trkpt>
      <trkpt lat="45.92834" lon="4.76244">
        <ele>169</ele>
        <time>2018-09-04T08:08:33Z</time>
      </trkpt>
      <trkpt lat="45.92838" lon="4.76249">
        <ele>169</ele>
        <time>2018-09-04T08:08:34Z</time>
      </trkpt>
      <trkpt lat="45.92844" lon="4.76253">
        <ele>169</ele>
        <time>2018-09-04T08:08:35Z</time>
      </trkpt>
      <trkpt lat="45.92849" lon="4.76258">
        <ele>169</ele>
        <time>2018-09-04T08:08:36Z</time>
      </trkpt>
      <trkpt lat="45.92853" lon="4.76261">
        <ele>169</ele>
        <time>2018-09-04T08:08:37Z</time>
      </trkpt>
      <trkpt lat="45.92857" lon="4.76265">
        <ele>169</ele>
        <time>2018-09-04T08:08:38Z</time>
      </trkpt>
      <trkpt lat="45.92862" lon="4.7627">
        <ele>169</ele>
        <time>2018-09-04T08:08:39Z</time>
      </trkpt>
      <trkpt lat="45.92868" lon="4.76273">
        <ele>169</ele>
        <time>2018-09-04T08:08:40Z</time>
      </trkpt>
      <trkpt lat="45.92874" lon="4.76278">
        <ele>169</ele>
        <time>2018-09-04T08:08:41Z</time>
      </trkpt>
      <trkpt lat="45.92879" lon="4.76285">
        <ele>169</ele>
        <time>2018-09-04T08:08:42Z</time>
      </trkpt>
      <trkpt lat="45.92884" lon="4.7629">
        <ele>169</ele>
        <time>2018-09-04T08:08:43Z</time>
      </trkpt>
      <trkpt lat="45.92888" lon="4.76295">
        <ele>169</ele>
        <time>2018-09-04T08:08:44Z</time>
      </trkpt>
      <trkpt lat="45.92893" lon="4.76301">
        <ele>169</ele>
        <time>2018-09-04T08:08:45Z</time>
      </trkpt>
      <trkpt lat="45.92899" lon="4.76305">
        <ele>169</ele>
        <time>2018-09-04T08:08:46Z</time>
      </trkpt>
      <trkpt lat="45.92903" lon="4.76309">
        <ele>169</ele>
        <time>2018-09-04T08:08:47Z</time>
      </trkpt>
      <trkpt lat="45.92909" lon="4.76314">
        <ele>169</ele>
        <time>2018-09-04T08:08:48Z</time>
      </trkpt>
      <trkpt lat="45.92912" lon="4.76318">
        <ele>169</ele>
        <time>2018-09-04T08:08:49Z</time>
      </trkpt>
      <trkpt lat="45.92917" lon="4.76322">
        <ele>169</ele>
        <time>2018-09-04T08:08:50Z</time>
      </trkpt>
      <trkpt lat="45.92922" lon="4.76327">
        <ele>169</ele>
        <time>2018-09-04T08:08:51Z</time>
      </trkpt>
      <trkpt lat="45.92925" lon="4.76331">
        <ele>169</ele>
        <time>2018-09-04T08:08:52Z</time>
      </trkpt>
      <trkpt lat="45.92931" lon="4.76337">
        <ele>169</ele>
        <time>2018-09-04T08:08:53Z</time>
      </trkpt>
      <trkpt lat="45.92935" lon="4.76342">
        <ele>169</ele>
        <time>2018-09-04T08:08:54Z</time>
      </trkpt>
      <trkpt lat="45.92939" lon="4.76347">
        <ele>169</ele>
        <time>2018-09-04T08:08:55Z</time>
      </trkpt>
      <trkpt lat="45.92942" lon="4.7635">
        <ele>169</ele>
        <time>2018-09-04T08:08:56Z</time>
      </trkpt>
      <trkpt lat="45.92947" lon="4.76357">
        <ele>169</ele>
        <time>2018-09-04T08:08:57Z</time>
      </trkpt>
      <trkpt lat="45.92951" lon="4.76363">
        <ele>169</ele>
        <time>2018-09-04T08:08:58Z</time>
      </trkpt>
      <trkpt lat="45.92957" lon="4.76367">
        <ele>169</ele>
        <time>2018-09-04T08:08:59Z</time>
      </trkpt>
      <trkpt lat="45.92962" lon="4.76372">
        <ele>169</ele>
        <time>2018-09-04T08:09:00Z</time>
      </trkpt>
      <trkpt lat="45.92967" lon="4.76376">
        <ele>169</ele>
        <time>2018-09-04T08:09:01Z</time>
      </trkpt>
      <trkpt lat="45.92972" lon="4.7638">
        <ele>169</ele>
        <time>2018-09-04T08:09:02Z</time>
      </trkpt>
      <trkpt lat="45.92976" lon="4.76384">
        <ele>169</ele>
        <time>2018-09-04T08:09:03Z</time>
      </trkpt>
      <trkpt lat="45.92981" lon="4.7639">
        <ele>169</ele>
        <time>2018-09-04T08:09:04Z</time>
      </trkpt>
      <trkpt lat="45.92986" lon="4.76395">
        <ele>169</ele>
        <time>2018-09-04T08:09:05Z</time>
      </trkpt>
      <trkpt lat="45.92993" lon="4.76402">
        <ele>169</ele>
        <time>2018-09-04T08:09:07Z</time>
      </trkpt>
      <trkpt lat="45.92997" lon="4.76408">
        <ele>169</ele>
        <time>2018-09-04T08:09:08Z</time>
      </trkpt>
      <trkpt lat="45.93001" lon="4.76413">
        <ele>169</ele>
        <time>2018-09-04T08:09:09Z</time>
      </trkpt>
      <trkpt lat="45.93005" lon="4.76417">
        <ele>169</ele>
        <time>2018-09-04T08:09:10Z</time>
      </trkpt>
      <trkpt lat="45.93009" lon="4.76421">
        <ele>169</ele>
        <time>2018-09-04T08:09:11Z</time>
      </trkpt>
      <trkpt lat="45.93013" lon="4.76425">
        <ele>169</ele>
        <time>2018-09-04T08:09:12Z</time>
      </trkpt>
      <trkpt lat="45.93018" lon="4.76429">
        <ele>169</ele>
        <time>2018-09-04T08:09:13Z</time>
      </trkpt>
      <trkpt lat="45.93023" lon="4.76432">
        <ele>169</ele>
        <time>2018-09-04T08:09:14Z</time>
      </trkpt>
      <trkpt lat="45.9303" lon="4.76439">
        <ele>169</ele>
        <time>2018-09-04T08:09:16Z</time>
      </trkpt>
      <trkpt lat="45.93034" lon="4.76444">
        <ele>169</ele>
        <time>2018-09-04T08:09:17Z</time>
      </trkpt>
      <trkpt lat="45.93038" lon="4.76448">
        <ele>169</ele>
        <time>2018-09-04T08:09:18Z</time>
      </trkpt>
      <trkpt lat="45.93042" lon="4.76453">
        <ele>169</ele>
        <time>2018-09-04T08:09:19Z</time>
      </trkpt>
      <trkpt lat="45.93046" lon="4.76459">
        <ele>169</ele>
        <time>2018-09-04T08:09:20Z</time>
      </trkpt>
      <trkpt lat="45.9305" lon="4.76463">
        <ele>169</ele>
        <time>2018-09-04T08:09:21Z</time>
      </trkpt>
      <trkpt lat="45.93055" lon="4.76466">
        <ele>169</ele>
        <time>2018-09-04T08:09:22Z</time>
      </trkpt>
      <trkpt lat="45.93059" lon="4.76469">
        <ele>169</ele>
        <time>2018-09-04T08:09:23Z</time>
      </trkpt>
      <trkpt lat="45.93062" lon="4.76474">
        <ele>169</ele>
        <time>2018-09-04T08:09:24Z</time>
      </trkpt>
      <trkpt lat="45.93067" lon="4.76478">
        <ele>169</ele>
        <time>2018-09-04T08:09:25Z</time>
      </trkpt>
      <trkpt lat="45.93072" lon="4.76481">
        <ele>169</ele>
        <time>2018-09-04T08:09:26Z</time>
      </trkpt>
      <trkpt lat="45.93077" lon="4.76486">
        <ele>170</ele>
        <time>2018-09-04T08:09:27Z</time>
      </trkpt>
      <trkpt lat="45.93082" lon="4.76491">
        <ele>170</ele>
        <time>2018-09-04T08:09:28Z</time>
      </trkpt>
      <trkpt lat="45.93087" lon="4.76495">
        <ele>170</ele>
        <time>2018-09-04T08:09:29Z</time>
      </trkpt>
      <trkpt lat="45.93092" lon="4.76501">
        <ele>170</ele>
        <time>2018-09-04T08:09:30Z</time>
      </trkpt>
      <trkpt lat="45.93095" lon="4.76505">
        <ele>170</ele>
        <time>2018-09-04T08:09:31Z</time>
      </trkpt>
      <trkpt lat="45.93099" lon="4.7651">
        <ele>170</ele>
        <time>2018-09-04T08:09:32Z</time>
      </trkpt>
      <trkpt lat="45.93103" lon="4.76514">
        <ele>170</ele>
        <time>2018-09-04T08:09:33Z</time>
      </trkpt>
      <trkpt lat="45.93108" lon="4.76517">
        <ele>170</ele>
        <time>2018-09-04T08:09:34Z</time>
      </trkpt>
      <trkpt lat="45.93112" lon="4.76521">
        <ele>170</ele>
        <time>2018-09-04T08:09:35Z</time>
      </trkpt>
      <trkpt lat="45.93116" lon="4.76525">
        <ele>170</ele>
        <time>2018-09-04T08:09:36Z</time>
      </trkpt>
      <trkpt lat="45.9312" lon="4.7653">
        <ele>170</ele>
        <time>2018-09-04T08:09:37Z</time>
      </trkpt>
      <trkpt lat="45.93124" lon="4.76535">
        <ele>170</ele>
        <time>2018-09-04T08:09:38Z</time>
      </trkpt>
      <trkpt lat="45.9313" lon="4.76538">
        <ele>170</ele>
        <time>2018-09-04T08:09:39Z</time>
      </trkpt>
      <trkpt lat="45.93135" lon="4.76545">
        <ele>170</ele>
        <time>2018-09-04T08:09:40Z</time>
      </trkpt>
      <trkpt lat="45.93142" lon="4.76549">
        <ele>170</ele>
        <time>2018-09-04T08:09:41Z</time>
      </trkpt>
      <trkpt lat="45.93145" lon="4.76555">
        <ele>170</ele>
        <time>2018-09-04T08:09:42Z</time>
      </trkpt>
      <trkpt lat="45.9315" lon="4.7656">
        <ele>170</ele>
        <time>2018-09-04T08:09:43Z</time>
      </trkpt>
      <trkpt lat="45.93157" lon="4.76567">
        <ele>170</ele>
        <time>2018-09-04T08:09:45Z</time>
      </trkpt>
      <trkpt lat="45.93162" lon="4.76571">
        <ele>170</ele>
        <time>2018-09-04T08:09:46Z</time>
      </trkpt>
      <trkpt lat="45.93169" lon="4.76577">
        <ele>170</ele>
        <time>2018-09-04T08:09:47Z</time>
      </trkpt>
      <trkpt lat="45.93171" lon="4.76582">
        <ele>171</ele>
        <time>2018-09-04T08:09:48Z</time>
      </trkpt>
      <trkpt lat="45.93177" lon="4.76586">
        <ele>171</ele>
        <time>2018-09-04T08:09:49Z</time>
      </trkpt>
      <trkpt lat="45.93181" lon="4.76589">
        <ele>171</ele>
        <time>2018-09-04T08:09:50Z</time>
      </trkpt>
      <trkpt lat="45.93184" lon="4.7659">
        <ele>171</ele>
        <time>2018-09-04T08:09:51Z</time>
      </trkpt>
      <trkpt lat="45.93189" lon="4.76596">
        <ele>170</ele>
        <time>2018-09-04T08:09:52Z</time>
      </trkpt>
      <trkpt lat="45.93194" lon="4.766">
        <ele>170</ele>
        <time>2018-09-04T08:09:53Z</time>
      </trkpt>
      <trkpt lat="45.93197" lon="4.76605">
        <ele>170</ele>
        <time>2018-09-04T08:09:54Z</time>
      </trkpt>
      <trkpt lat="45.93201" lon="4.76609">
        <ele>170</ele>
        <time>2018-09-04T08:09:55Z</time>
      </trkpt>
      <trkpt lat="45.93205" lon="4.76614">
        <ele>170</ele>
        <time>2018-09-04T08:09:56Z</time>
      </trkpt>
      <trkpt lat="45.93209" lon="4.76618">
        <ele>170</ele>
        <time>2018-09-04T08:09:57Z</time>
      </trkpt>
      <trkpt lat="45.93213" lon="4.76621">
        <ele>170</ele>
        <time>2018-09-04T08:09:58Z</time>
      </trkpt>
      <trkpt lat="45.93218" lon="4.76627">
        <ele>170</ele>
        <time>2018-09-04T08:10:00Z</time>
      </trkpt>
      <trkpt lat="45.93222" lon="4.76631">
        <ele>170</ele>
        <time>2018-09-04T08:10:01Z</time>
      </trkpt>
      <trkpt lat="45.93228" lon="4.7664">
        <ele>171</ele>
        <time>2018-09-04T08:10:03Z</time>
      </trkpt>
      <trkpt lat="45.93232" lon="4.76644">
        <ele>171</ele>
        <time>2018-09-04T08:10:04Z</time>
      </trkpt>
      <trkpt lat="45.93236" lon="4.76648">
        <ele>171</ele>
        <time>2018-09-04T08:10:05Z</time>
      </trkpt>
      <trkpt lat="45.93242" lon="4.76653">
        <ele>171</ele>
        <time>2018-09-04T08:10:06Z</time>
      </trkpt>
      <trkpt lat="45.93246" lon="4.76658">
        <ele>171</ele>
        <time>2018-09-04T08:10:07Z</time>
      </trkpt>
      <trkpt lat="45.9325" lon="4.76661">
        <ele>172</ele>
        <time>2018-09-04T08:10:08Z</time>
      </trkpt>
      <trkpt lat="45.93257" lon="4.76667">
        <ele>171</ele>
        <time>2018-09-04T08:10:10Z</time>
      </trkpt>
      <trkpt lat="45.93263" lon="4.76671">
        <ele>172</ele>
        <time>2018-09-04T08:10:11Z</time>
      </trkpt>
      <trkpt lat="45.93267" lon="4.76677">
        <ele>172</ele>
        <time>2018-09-04T08:10:12Z</time>
      </trkpt>
      <trkpt lat="45.93271" lon="4.76682">
        <ele>172</ele>
        <time>2018-09-04T08:10:13Z</time>
      </trkpt>
      <trkpt lat="45.93276" lon="4.76685">
        <ele>172</ele>
        <time>2018-09-04T08:10:14Z</time>
      </trkpt>
      <trkpt lat="45.93281" lon="4.7669">
        <ele>172</ele>
        <time>2018-09-04T08:10:15Z</time>
      </trkpt>
      <trkpt lat="45.93286" lon="4.76694">
        <ele>172</ele>
        <time>2018-09-04T08:10:16Z</time>
      </trkpt>
      <trkpt lat="45.93289" lon="4.76697">
        <ele>172</ele>
        <time>2018-09-04T08:10:17Z</time>
      </trkpt>
      <trkpt lat="45.93295" lon="4.76703">
        <ele>172</ele>
        <time>2018-09-04T08:10:18Z</time>
      </trkpt>
      <trkpt lat="45.933" lon="4.76708">
        <ele>172</ele>
        <time>2018-09-04T08:10:19Z</time>
      </trkpt>
      <trkpt lat="45.93304" lon="4.76712">
        <ele>172</ele>
        <time>2018-09-04T08:10:20Z</time>
      </trkpt>
      <trkpt lat="45.93308" lon="4.76715">
        <ele>172</ele>
        <time>2018-09-04T08:10:21Z</time>
      </trkpt>
      <trkpt lat="45.93312" lon="4.76721">
        <ele>172</ele>
        <time>2018-09-04T08:10:22Z</time>
      </trkpt>
      <trkpt lat="45.93317" lon="4.76726">
        <ele>172</ele>
        <time>2018-09-04T08:10:23Z</time>
      </trkpt>
      <trkpt lat="45.93323" lon="4.7673">
        <ele>172</ele>
        <time>2018-09-04T08:10:24Z</time>
      </trkpt>
      <trkpt lat="45.93327" lon="4.76735">
        <ele>172</ele>
        <time>2018-09-04T08:10:25Z</time>
      </trkpt>
      <trkpt lat="45.93332" lon="4.76742">
        <ele>173</ele>
        <time>2018-09-04T08:10:26Z</time>
      </trkpt>
      <trkpt lat="45.93336" lon="4.76746">
        <ele>173</ele>
        <time>2018-09-04T08:10:27Z</time>
      </trkpt>
      <trkpt lat="45.93341" lon="4.76751">
        <ele>173</ele>
        <time>2018-09-04T08:10:28Z</time>
      </trkpt>
      <trkpt lat="45.93346" lon="4.76756">
        <ele>172</ele>
        <time>2018-09-04T08:10:29Z</time>
      </trkpt>
      <trkpt lat="45.93351" lon="4.7676">
        <ele>172</ele>
        <time>2018-09-04T08:10:30Z</time>
      </trkpt>
      <trkpt lat="45.93354" lon="4.76766">
        <ele>172</ele>
        <time>2018-09-04T08:10:31Z</time>
      </trkpt>
      <trkpt lat="45.93358" lon="4.7677">
        <ele>172</ele>
        <time>2018-09-04T08:10:32Z</time>
      </trkpt>
      <trkpt lat="45.93363" lon="4.76773">
        <ele>172</ele>
        <time>2018-09-04T08:10:33Z</time>
      </trkpt>
      <trkpt lat="45.93368" lon="4.76777">
        <ele>172</ele>
        <time>2018-09-04T08:10:34Z</time>
      </trkpt>
      <trkpt lat="45.93372" lon="4.76782">
        <ele>172</ele>
        <time>2018-09-04T08:10:35Z</time>
      </trkpt>
      <trkpt lat="45.93377" lon="4.76787">
        <ele>172</ele>
        <time>2018-09-04T08:10:36Z</time>
      </trkpt>
      <trkpt lat="45.93381" lon="4.76792">
        <ele>172</ele>
        <time>2018-09-04T08:10:37Z</time>
      </trkpt>
      <trkpt lat="45.93385" lon="4.76798">
        <ele>172</ele>
        <time>2018-09-04T08:10:38Z</time>
      </trkpt>
      <trkpt lat="45.9339" lon="4.76801">
        <ele>172</ele>
        <time>2018-09-04T08:10:39Z</time>
      </trkpt>
      <trkpt lat="45.93394" lon="4.76806">
        <ele>172</ele>
        <time>2018-09-04T08:10:40Z</time>
      </trkpt>
      <trkpt lat="45.93398" lon="4.76812">
        <ele>172</ele>
        <time>2018-09-04T08:10:41Z</time>
      </trkpt>
      <trkpt lat="45.93402" lon="4.76818">
        <ele>172</ele>
        <time>2018-09-04T08:10:42Z</time>
      </trkpt>
      <trkpt lat="45.93407" lon="4.76824">
        <ele>172</ele>
        <time>2018-09-04T08:10:43Z</time>
      </trkpt>
      <trkpt lat="45.9341" lon="4.7683">
        <ele>172</ele>
        <time>2018-09-04T08:10:44Z</time>
      </trkpt>
      <trkpt lat="45.93414" lon="4.76837">
        <ele>172</ele>
        <time>2018-09-04T08:10:45Z</time>
      </trkpt>
      <trkpt lat="45.93417" lon="4.76845">
        <ele>171</ele>
        <time>2018-09-04T08:10:46Z</time>
      </trkpt>
      <trkpt lat="45.9342" lon="4.76852">
        <ele>171</ele>
        <time>2018-09-04T08:10:47Z</time>
      </trkpt>
      <trkpt lat="45.93423" lon="4.76859">
        <ele>171</ele>
        <time>2018-09-04T08:10:48Z</time>
      </trkpt>
      <trkpt lat="45.93425" lon="4.76865">
        <ele>171</ele>
        <time>2018-09-04T08:10:49Z</time>
      </trkpt>
      <trkpt lat="45.93428" lon="4.76873">
        <ele>171</ele>
        <time>2018-09-04T08:10:50Z</time>
      </trkpt>
      <trkpt lat="45.93431" lon="4.76879">
        <ele>171</ele>
        <time>2018-09-04T08:10:51Z</time>
      </trkpt>
      <trkpt lat="45.93433" lon="4.76887">
        <ele>171</ele>
        <time>2018-09-04T08:10:52Z</time>
      </trkpt>
      <trkpt lat="45.93436" lon="4.76893">
        <ele>171</ele>
        <time>2018-09-04T08:10:53Z</time>
      </trkpt>
      <trkpt lat="45.93438" lon="4.76901">
        <ele>171</ele>
        <time>2018-09-04T08:10:54Z</time>
      </trkpt>
      <trkpt lat="45.9344" lon="4.76909">
        <ele>170</ele>
        <time>2018-09-04T08:10:55Z</time>
      </trkpt>
      <trkpt lat="45.93443" lon="4.76915">
        <ele>170</ele>
        <time>2018-09-04T08:10:56Z</time>
      </trkpt>
      <trkpt lat="45.93444" lon="4.76923">
        <ele>170</ele>
        <time>2018-09-04T08:10:57Z</time>
      </trkpt>
      <trkpt lat="45.93447" lon="4.76935">
        <ele>170</ele>
        <time>2018-09-04T08:10:58Z</time>
      </trkpt>
      <trkpt lat="45.93448" lon="4.76943">
        <ele>170</ele>
        <time>2018-09-04T08:10:59Z</time>
      </trkpt>
      <trkpt lat="45.9345" lon="4.76951">
        <ele>170</ele>
        <time>2018-09-04T08:11:00Z</time>
      </trkpt>
      <trkpt lat="45.93451" lon="4.76959">
        <ele>170</ele>
        <time>2018-09-04T08:11:01Z</time>
      </trkpt>
      <trkpt lat="45.93452" lon="4.76967">
        <ele>170</ele>
        <time>2018-09-04T08:11:02Z</time>
      </trkpt>
      <trkpt lat="45.93454" lon="4.76975">
        <ele>170</ele>
        <time>2018-09-04T08:11:03Z</time>
      </trkpt>
      <trkpt lat="45.93455" lon="4.76982">
        <ele>170</ele>
        <time>2018-09-04T08:11:04Z</time>
      </trkpt>
      <trkpt lat="45.93457" lon="4.76991">
        <ele>170</ele>
        <time>2018-09-04T08:11:05Z</time>
      </trkpt>
      <trkpt lat="45.93457" lon="4.76999">
        <ele>170</ele>
        <time>2018-09-04T08:11:06Z</time>
      </trkpt>
      <trkpt lat="45.93459" lon="4.77006">
        <ele>170</ele>
        <time>2018-09-04T08:11:07Z</time>
      </trkpt>
      <trkpt lat="45.9346" lon="4.77014">
        <ele>170</ele>
        <time>2018-09-04T08:11:08Z</time>
      </trkpt>
      <trkpt lat="45.93461" lon="4.77023">
        <ele>170</ele>
        <time>2018-09-04T08:11:09Z</time>
      </trkpt>
      <trkpt lat="45.93462" lon="4.7703">
        <ele>170</ele>
        <time>2018-09-04T08:11:10Z</time>
      </trkpt>
      <trkpt lat="45.93464" lon="4.77038">
        <ele>170</ele>
        <time>2018-09-04T08:11:11Z</time>
      </trkpt>
      <trkpt lat="45.93466" lon="4.77047">
        <ele>170</ele>
        <time>2018-09-04T08:11:12Z</time>
      </trkpt>
      <trkpt lat="45.93469" lon="4.77055">
        <ele>170</ele>
        <time>2018-09-04T08:11:13Z</time>
      </trkpt>
      <trkpt lat="45.9347" lon="4.77063">
        <ele>170</ele>
        <time>2018-09-04T08:11:14Z</time>
      </trkpt>
      <trkpt lat="45.93471" lon="4.77071">
        <ele>170</ele>
        <time>2018-09-04T08:11:15Z</time>
      </trkpt>
      <trkpt lat="45.93471" lon="4.7708">
        <ele>170</ele>
        <time>2018-09-04T08:11:16Z</time>
      </trkpt>
      <trkpt lat="45.93474" lon="4.77088">
        <ele>169</ele>
        <time>2018-09-04T08:11:17Z</time>
      </trkpt>
      <trkpt lat="45.93476" lon="4.77095">
        <ele>169</ele>
        <time>2018-09-04T08:11:18Z</time>
      </trkpt>
      <trkpt lat="45.93477" lon="4.77102">
        <ele>169</ele>
        <time>2018-09-04T08:11:19Z</time>
      </trkpt>
      <trkpt lat="45.93478" lon="4.77109">
        <ele>169</ele>
        <time>2018-09-04T08:11:20Z</time>
      </trkpt>
      <trkpt lat="45.9348" lon="4.77117">
        <ele>169</ele>
        <time>2018-09-04T08:11:21Z</time>
      </trkpt>
      <trkpt lat="45.93482" lon="4.77124">
        <ele>169</ele>
        <time>2018-09-04T08:11:22Z</time>
      </trkpt>
      <trkpt lat="45.93483" lon="4.77129">
        <ele>169</ele>
        <time>2018-09-04T08:11:23Z</time>
      </trkpt>
      <trkpt lat="45.93486" lon="4.77136">
        <ele>169</ele>
        <time>2018-09-04T08:11:24Z</time>
      </trkpt>
      <trkpt lat="45.93486" lon="4.77143">
        <ele>169</ele>
        <time>2018-09-04T08:11:25Z</time>
      </trkpt>
      <trkpt lat="45.93487" lon="4.7715">
        <ele>169</ele>
        <time>2018-09-04T08:11:26Z</time>
      </trkpt>
      <trkpt lat="45.93489" lon="4.77157">
        <ele>169</ele>
        <time>2018-09-04T08:11:27Z</time>
      </trkpt>
      <trkpt lat="45.9349" lon="4.77165">
        <ele>169</ele>
        <time>2018-09-04T08:11:28Z</time>
      </trkpt>
      <trkpt lat="45.93493" lon="4.77174">
        <ele>169</ele>
        <time>2018-09-04T08:11:29Z</time>
      </trkpt>
      <trkpt lat="45.93495" lon="4.77182">
        <ele>169</ele>
        <time>2018-09-04T08:11:30Z</time>
      </trkpt>
      <trkpt lat="45.93497" lon="4.77189">
        <ele>169</ele>
        <time>2018-09-04T08:11:31Z</time>
      </trkpt>
      <trkpt lat="45.935" lon="4.77198">
        <ele>169</ele>
        <time>2018-09-04T08:11:32Z</time>
      </trkpt>
      <trkpt lat="45.93502" lon="4.77208">
        <ele>169</ele>
        <time>2018-09-04T08:11:33Z</time>
      </trkpt>
      <trkpt lat="45.93504" lon="4.77216">
        <ele>169</ele>
        <time>2018-09-04T08:11:34Z</time>
      </trkpt>
      <trkpt lat="45.93507" lon="4.77223">
        <ele>169</ele>
        <time>2018-09-04T08:11:35Z</time>
      </trkpt>
      <trkpt lat="45.93508" lon="4.77231">
        <ele>169</ele>
        <time>2018-09-04T08:11:36Z</time>
      </trkpt>
      <trkpt lat="45.93509" lon="4.77239">
        <ele>169</ele>
        <time>2018-09-04T08:11:37Z</time>
      </trkpt>
      <trkpt lat="45.93511" lon="4.77247">
        <ele>169</ele>
        <time>2018-09-04T08:11:38Z</time>
      </trkpt>
      <trkpt lat="45.93512" lon="4.77254">
        <ele>170</ele>
        <time>2018-09-04T08:11:39Z</time>
      </trkpt>
      <trkpt lat="45.93514" lon="4.77262">
        <ele>170</ele>
        <time>2018-09-04T08:11:40Z</time>
      </trkpt>
      <trkpt lat="45.93515" lon="4.77269">
        <ele>170</ele>
        <time>2018-09-04T08:11:41Z</time>
      </trkpt>
      <trkpt lat="45.93516" lon="4.77276">
        <ele>170</ele>
        <time>2018-09-04T08:11:42Z</time>
      </trkpt>
      <trkpt lat="45.93517" lon="4.77285">
        <ele>170</ele>
        <time>2018-09-04T08:11:43Z</time>
      </trkpt>
      <trkpt lat="45.93518" lon="4.77293">
        <ele>170</ele>
        <time>2018-09-04T08:11:44Z</time>
      </trkpt>
      <trkpt lat="45.93519" lon="4.77301">
        <ele>170</ele>
        <time>2018-09-04T08:11:45Z</time>
      </trkpt>
      <trkpt lat="45.93521" lon="4.77309">
        <ele>170</ele>
        <time>2018-09-04T08:11:46Z</time>
      </trkpt>
      <trkpt lat="45.93523" lon="4.77316">
        <ele>170</ele>
        <time>2018-09-04T08:11:47Z</time>
      </trkpt>
      <trkpt lat="45.93524" lon="4.77324">
        <ele>170</ele>
        <time>2018-09-04T08:11:48Z</time>
      </trkpt>
      <trkpt lat="45.93526" lon="4.7733">
        <ele>170</ele>
        <time>2018-09-04T08:11:49Z</time>
      </trkpt>
      <trkpt lat="45.93527" lon="4.77338">
        <ele>170</ele>
        <time>2018-09-04T08:11:50Z</time>
      </trkpt>
      <trkpt lat="45.9353" lon="4.77344">
        <ele>170</ele>
        <time>2018-09-04T08:11:51Z</time>
      </trkpt>
      <trkpt lat="45.93532" lon="4.77352">
        <ele>170</ele>
        <time>2018-09-04T08:11:52Z</time>
      </trkpt>
      <trkpt lat="45.93532" lon="4.77359">
        <ele>170</ele>
        <time>2018-09-04T08:11:53Z</time>
      </trkpt>
      <trkpt lat="45.93534" lon="4.77366">
        <ele>170</ele>
        <time>2018-09-04T08:11:54Z</time>
      </trkpt>
      <trkpt lat="45.93536" lon="4.77374">
        <ele>170</ele>
        <time>2018-09-04T08:11:55Z</time>
      </trkpt>
      <trkpt lat="45.93537" lon="4.77383">
        <ele>170</ele>
        <time>2018-09-04T08:11:56Z</time>
      </trkpt>
      <trkpt lat="45.93539" lon="4.77392">
        <ele>170</ele>
        <time>2018-09-04T08:11:57Z</time>
      </trkpt>
      <trkpt lat="45.93542" lon="4.77401">
        <ele>170</ele>
        <time>2018-09-04T08:11:58Z</time>
      </trkpt>
      <trkpt lat="45.93545" lon="4.77409">
        <ele>170</ele>
        <time>2018-09-04T08:11:59Z</time>
      </trkpt>
      <trkpt lat="45.93548" lon="4.77418">
        <ele>170</ele>
        <time>2018-09-04T08:12:00Z</time>
      </trkpt>
      <trkpt lat="45.93549" lon="4.77426">
        <ele>170</ele>
        <time>2018-09-04T08:12:01Z</time>
      </trkpt>
      <trkpt lat="45.9355" lon="4.77433">
        <ele>169</ele>
        <time>2018-09-04T08:12:02Z</time>
      </trkpt>
      <trkpt lat="45.93552" lon="4.77441">
        <ele>169</ele>
        <time>2018-09-04T08:12:03Z</time>
      </trkpt>
      <trkpt lat="45.93554" lon="4.77449">
        <ele>169</ele>
        <time>2018-09-04T08:12:04Z</time>
      </trkpt>
      <trkpt lat="45.93555" lon="4.77457">
        <ele>169</ele>
        <time>2018-09-04T08:12:05Z</time>
      </trkpt>
      <trkpt lat="45.93557" lon="4.77465">
        <ele>169</ele>
        <time>2018-09-04T08:12:06Z</time>
      </trkpt>
      <trkpt lat="45.93558" lon="4.77473">
        <ele>169</ele>
        <time>2018-09-04T08:12:07Z</time>
      </trkpt>
      <trkpt lat="45.93559" lon="4.77481">
        <ele>169</ele>
        <time>2018-09-04T08:12:08Z</time>
      </trkpt>
      <trkpt lat="45.93559" lon="4.77487">
        <ele>169</ele>
        <time>2018-09-04T08:12:09Z</time>
      </trkpt>
      <trkpt lat="45.93561" lon="4.77495">
        <ele>169</ele>
        <time>2018-09-04T08:12:10Z</time>
      </trkpt>
      <trkpt lat="45.93564" lon="4.77501">
        <ele>169</ele>
        <time>2018-09-04T08:12:11Z</time>
      </trkpt>
      <trkpt lat="45.93567" lon="4.77508">
        <ele>169</ele>
        <time>2018-09-04T08:12:12Z</time>
      </trkpt>
      <trkpt lat="45.93569" lon="4.77516">
        <ele>169</ele>
        <time>2018-09-04T08:12:13Z</time>
      </trkpt>
      <trkpt lat="45.93571" lon="4.77523">
        <ele>169</ele>
        <time>2018-09-04T08:12:14Z</time>
      </trkpt>
      <trkpt lat="45.93572" lon="4.7753">
        <ele>169</ele>
        <time>2018-09-04T08:12:15Z</time>
      </trkpt>
      <trkpt lat="45.93575" lon="4.77541">
        <ele>169</ele>
        <time>2018-09-04T08:12:16Z</time>
      </trkpt>
      <trkpt lat="45.93577" lon="4.77548">
        <ele>169</ele>
        <time>2018-09-04T08:12:17Z</time>
      </trkpt>
      <trkpt lat="45.93578" lon="4.77555">
        <ele>169</ele>
        <time>2018-09-04T08:12:18Z</time>
      </trkpt>
      <trkpt lat="45.9358" lon="4.77562">
        <ele>169</ele>
        <time>2018-09-04T08:12:19Z</time>
      </trkpt>
      <trkpt lat="45.93583" lon="4.7757">
        <ele>170</ele>
        <time>2018-09-04T08:12:20Z</time>
      </trkpt>
      <trkpt lat="45.93586" lon="4.77579">
        <ele>170</ele>
        <time>2018-09-04T08:12:21Z</time>
      </trkpt>
      <trkpt lat="45.93588" lon="4.77586">
        <ele>170</ele>
        <time>2018-09-04T08:12:22Z</time>
      </trkpt>
      <trkpt lat="45.9359" lon="4.77593">
        <ele>170</ele>
        <time>2018-09-04T08:12:23Z</time>
      </trkpt>
      <trkpt lat="45.93592" lon="4.776">
        <ele>170</ele>
        <time>2018-09-04T08:12:24Z</time>
      </trkpt>
      <trkpt lat="45.93596" lon="4.77606">
        <ele>170</ele>
        <time>2018-09-04T08:12:25Z</time>
      </trkpt>
      <trkpt lat="45.93598" lon="4.77612">
        <ele>170</ele>
        <time>2018-09-04T08:12:26Z</time>
      </trkpt>
      <trkpt lat="45.93599" lon="4.7762">
        <ele>170</ele>
        <time>2018-09-04T08:12:27Z</time>
      </trkpt>
      <trkpt lat="45.93604" lon="4.7763">
        <ele>169</ele>
        <time>2018-09-04T08:12:28Z</time>
      </trkpt>
      <trkpt lat="45.93606" lon="4.77637">
        <ele>169</ele>
        <time>2018-09-04T08:12:29Z</time>
      </trkpt>
      <trkpt lat="45.93608" lon="4.77644">
        <ele>169</ele>
        <time>2018-09-04T08:12:30Z</time>
      </trkpt>
      <trkpt lat="45.93612" lon="4.77653">
        <ele>169</ele>
        <time>2018-09-04T08:12:31Z</time>
      </trkpt>
      <trkpt lat="45.93615" lon="4.7766">
        <ele>169</ele>
        <time>2018-09-04T08:12:32Z</time>
      </trkpt>
      <trkpt lat="45.93617" lon="4.77667">
        <ele>169</ele>
        <time>2018-09-04T08:12:33Z</time>
      </trkpt>
      <trkpt lat="45.93621" lon="4.77676">
        <ele>169</ele>
        <time>2018-09-04T08:12:34Z</time>
      </trkpt>
      <trkpt lat="45.93624" lon="4.77683">
        <ele>169</ele>
        <time>2018-09-04T08:12:35Z</time>
      </trkpt>
      <trkpt lat="45.93628" lon="4.77689">
        <ele>169</ele>
        <time>2018-09-04T08:12:36Z</time>
      </trkpt>
      <trkpt lat="45.93631" lon="4.77695">
        <ele>169</ele>
        <time>2018-09-04T08:12:37Z</time>
      </trkpt>
      <trkpt lat="45.93636" lon="4.77705">
        <ele>170</ele>
        <time>2018-09-04T08:12:39Z</time>
      </trkpt>
      <trkpt lat="45.93638" lon="4.77709">
        <ele>170</ele>
        <time>2018-09-04T08:12:40Z</time>
      </trkpt>
      <trkpt lat="45.93641" lon="4.77714">
        <ele>170</ele>
        <time>2018-09-04T08:12:41Z</time>
      </trkpt>
      <trkpt lat="45.93645" lon="4.77719">
        <ele>170</ele>
        <time>2018-09-04T08:12:42Z</time>
      </trkpt>
      <trkpt lat="45.93648" lon="4.77728">
        <ele>170</ele>
        <time>2018-09-04T08:12:44Z</time>
      </trkpt>
      <trkpt lat="45.9365" lon="4.77733">
        <ele>170</ele>
        <time>2018-09-04T08:12:45Z</time>
      </trkpt>
      <trkpt lat="45.93656" lon="4.7774">
        <ele>170</ele>
        <time>2018-09-04T08:12:47Z</time>
      </trkpt>
      <trkpt lat="45.93657" lon="4.77742">
        <ele>170</ele>
        <time>2018-09-04T08:12:48Z</time>
      </trkpt>
      <trkpt lat="45.9366" lon="4.77747">
        <ele>171</ele>
        <time>2018-09-04T08:12:49Z</time>
      </trkpt>
      <trkpt lat="45.93663" lon="4.77753">
        <ele>171</ele>
        <time>2018-09-04T08:12:50Z</time>
      </trkpt>
      <trkpt lat="45.9367" lon="4.77758">
        <ele>171</ele>
        <time>2018-09-04T08:12:52Z</time>
      </trkpt>
      <trkpt lat="45.93673" lon="4.77763">
        <ele>170</ele>
        <time>2018-09-04T08:12:53Z</time>
      </trkpt>
      <trkpt lat="45.93679" lon="4.77771">
        <ele>170</ele>
        <time>2018-09-04T08:12:55Z</time>
      </trkpt>
      <trkpt lat="45.93682" lon="4.77776">
        <ele>170</ele>
        <time>2018-09-04T08:12:56Z</time>
      </trkpt>
      <trkpt lat="45.93687" lon="4.77783">
        <ele>170</ele>
        <time>2018-09-04T08:12:58Z</time>
      </trkpt>
      <trkpt lat="45.9369" lon="4.77787">
        <ele>170</ele>
        <time>2018-09-04T08:12:59Z</time>
      </trkpt>
      <trkpt lat="45.93695" lon="4.77796">
        <ele>169</ele>
        <time>2018-09-04T08:13:01Z</time>
      </trkpt>
      <trkpt lat="45.93698" lon="4.778">
        <ele>169</ele>
        <time>2018-09-04T08:13:02Z</time>
      </trkpt>
      <trkpt lat="45.93704" lon="4.77807">
        <ele>169</ele>
        <time>2018-09-04T08:13:04Z</time>
      </trkpt>
      <trkpt lat="45.93705" lon="4.7781">
        <ele>169</ele>
        <time>2018-09-04T08:13:05Z</time>
      </trkpt>
      <trkpt lat="45.93711" lon="4.77819">
        <ele>169</ele>
        <time>2018-09-04T08:13:07Z</time>
      </trkpt>
      <trkpt lat="45.93715" lon="4.77823">
        <ele>169</ele>
        <time>2018-09-04T08:13:08Z</time>
      </trkpt>
      <trkpt lat="45.9372" lon="4.77831">
        <ele>168</ele>
        <time>2018-09-04T08:13:10Z</time>
      </trkpt>
      <trkpt lat="45.93723" lon="4.77836">
        <ele>167</ele>
        <time>2018-09-04T08:13:11Z</time>
      </trkpt>
      <trkpt lat="45.93728" lon="4.77844">
        <ele>167</ele>
        <time>2018-09-04T08:13:13Z</time>
      </trkpt>
      <trkpt lat="45.93732" lon="4.77847">
        <ele>167</ele>
        <time>2018-09-04T08:13:14Z</time>
      </trkpt>
      <trkpt lat="45.93738" lon="4.77854">
        <ele>167</ele>
        <time>2018-09-04T08:13:16Z</time>
      </trkpt>
      <trkpt lat="45.93742" lon="4.77858">
        <ele>167</ele>
        <time>2018-09-04T08:13:17Z</time>
      </trkpt>
      <trkpt lat="45.93747" lon="4.77868">
        <ele>167</ele>
        <time>2018-09-04T08:13:19Z</time>
      </trkpt>
      <trkpt lat="45.93751" lon="4.77873">
        <ele>166</ele>
        <time>2018-09-04T08:13:20Z</time>
      </trkpt>
      <trkpt lat="45.93755" lon="4.77876">
        <ele>166</ele>
        <time>2018-09-04T08:13:21Z</time>
      </trkpt>
      <trkpt lat="45.93758" lon="4.77881">
        <ele>166</ele>
        <time>2018-09-04T08:13:22Z</time>
      </trkpt>
      <trkpt lat="45.93762" lon="4.77885">
        <ele>166</ele>
        <time>2018-09-04T08:13:23Z</time>
      </trkpt>
      <trkpt lat="45.93766" lon="4.7789">
        <ele>166</ele>
        <time>2018-09-04T08:13:24Z</time>
      </trkpt>
      <trkpt lat="45.93769" lon="4.77895">
        <ele>166</ele>
        <time>2018-09-04T08:13:25Z</time>
      </trkpt>
      <trkpt lat="45.93772" lon="4.779">
        <ele>166</ele>
        <time>2018-09-04T08:13:26Z</time>
      </trkpt>
      <trkpt lat="45.93778" lon="4.77909">
        <ele>166</ele>
        <time>2018-09-04T08:13:28Z</time>
      </trkpt>
      <trkpt lat="45.93781" lon="4.77914">
        <ele>166</ele>
        <time>2018-09-04T08:13:29Z</time>
      </trkpt>
      <trkpt lat="45.93785" lon="4.7792">
        <ele>168</ele>
        <time>2018-09-04T08:13:30Z</time>
      </trkpt>
      <trkpt lat="45.93789" lon="4.77926">
        <ele>168</ele>
        <time>2018-09-04T08:13:31Z</time>
      </trkpt>
      <trkpt lat="45.93793" lon="4.77931">
        <ele>168</ele>
        <time>2018-09-04T08:13:32Z</time>
      </trkpt>
      <trkpt lat="45.93797" lon="4.77935">
        <ele>168</ele>
        <time>2018-09-04T08:13:33Z</time>
      </trkpt>
      <trkpt lat="45.93801" lon="4.7794">
        <ele>169</ele>
        <time>2018-09-04T08:13:34Z</time>
      </trkpt>
      <trkpt lat="45.93805" lon="4.77946">
        <ele>169</ele>
        <time>2018-09-04T08:13:35Z</time>
      </trkpt>
      <trkpt lat="45.93808" lon="4.77951">
        <ele>169</ele>
        <time>2018-09-04T08:13:36Z</time>
      </trkpt>
      <trkpt lat="45.93812" lon="4.77956">
        <ele>170</ele>
        <time>2018-09-04T08:13:37Z</time>
      </trkpt>
      <trkpt lat="45.93819" lon="4.77955">
        <ele>170</ele>
        <time>2018-09-04T08:13:38Z</time>
      </trkpt>
      <trkpt lat="45.93823" lon="4.77961">
        <ele>171</ele>
        <time>2018-09-04T08:13:39Z</time>
      </trkpt>
      <trkpt lat="45.93829" lon="4.77966">
        <ele>171</ele>
        <time>2018-09-04T08:13:40Z</time>
      </trkpt>
      <trkpt lat="45.93832" lon="4.77971">
        <ele>172</ele>
        <time>2018-09-04T08:13:41Z</time>
      </trkpt>
      <trkpt lat="45.93836" lon="4.77979">
        <ele>178</ele>
        <time>2018-09-04T08:13:43Z</time>
      </trkpt>
      <trkpt lat="45.93838" lon="4.77983">
        <ele>178</ele>
        <time>2018-09-04T08:13:44Z</time>
      </trkpt>
      <trkpt lat="45.9384" lon="4.77994">
        <ele>179</ele>
        <time>2018-09-04T08:13:47Z</time>
      </trkpt>
      <trkpt lat="45.9384" lon="4.78008">
        <ele>181</ele>
        <time>2018-09-04T08:13:48Z</time>
      </trkpt>
      <trkpt lat="45.9384" lon="4.78014">
        <ele>181</ele>
        <time>2018-09-04T08:13:49Z</time>
      </trkpt>
      <trkpt lat="45.93843" lon="4.78022">
        <ele>182</ele>
        <time>2018-09-04T08:13:50Z</time>
      </trkpt>
      <trkpt lat="45.93845" lon="4.78028">
        <ele>182</ele>
        <time>2018-09-04T08:13:51Z</time>
      </trkpt>
      <trkpt lat="45.93846" lon="4.78034">
        <ele>182</ele>
        <time>2018-09-04T08:13:52Z</time>
      </trkpt>
      <trkpt lat="45.93846" lon="4.78047">
        <ele>182</ele>
        <time>2018-09-04T08:13:54Z</time>
      </trkpt>
      <trkpt lat="45.93846" lon="4.78053">
        <ele>182</ele>
        <time>2018-09-04T08:13:55Z</time>
      </trkpt>
      <trkpt lat="45.93843" lon="4.78064">
        <ele>182</ele>
        <time>2018-09-04T08:13:57Z</time>
      </trkpt>
      <trkpt lat="45.93843" lon="4.78071">
        <ele>182</ele>
        <time>2018-09-04T08:13:58Z</time>
      </trkpt>
      <trkpt lat="45.93842" lon="4.78078">
        <ele>181</ele>
        <time>2018-09-04T08:13:59Z</time>
      </trkpt>
      <trkpt lat="45.93838" lon="4.78084">
        <ele>181</ele>
        <time>2018-09-04T08:14:00Z</time>
      </trkpt>
      <trkpt lat="45.93837" lon="4.78094">
        <ele>182</ele>
        <time>2018-09-04T08:14:02Z</time>
      </trkpt>
      <trkpt lat="45.93835" lon="4.781">
        <ele>183</ele>
        <time>2018-09-04T08:14:03Z</time>
      </trkpt>
      <trkpt lat="45.93833" lon="4.7811">
        <ele>179</ele>
        <time>2018-09-04T08:14:05Z</time>
      </trkpt>
      <trkpt lat="45.93831" lon="4.78116">
        <ele>179</ele>
        <time>2018-09-04T08:14:06Z</time>
      </trkpt>
      <trkpt lat="45.93832" lon="4.78122">
        <ele>180</ele>
        <time>2018-09-04T08:14:07Z</time>
      </trkpt>
      <trkpt lat="45.9383" lon="4.78129">
        <ele>180</ele>
        <time>2018-09-04T08:14:08Z</time>
      </trkpt>
      <trkpt lat="45.93828" lon="4.78136">
        <ele>180</ele>
        <time>2018-09-04T08:14:09Z</time>
      </trkpt>
      <trkpt lat="45.93826" lon="4.78142">
        <ele>180</ele>
        <time>2018-09-04T08:14:10Z</time>
      </trkpt>
      <trkpt lat="45.93826" lon="4.78151">
        <ele>180</ele>
        <time>2018-09-04T08:14:11Z</time>
      </trkpt>
      <trkpt lat="45.93824" lon="4.78156">
        <ele>181</ele>
        <time>2018-09-04T08:14:12Z</time>
      </trkpt>
      <trkpt lat="45.9382" lon="4.78167">
        <ele>182</ele>
        <time>2018-09-04T08:14:14Z</time>
      </trkpt>
      <trkpt lat="45.9382" lon="4.78173">
        <ele>182</ele>
        <time>2018-09-04T08:14:15Z</time>
      </trkpt>
      <trkpt lat="45.93817" lon="4.78184">
        <ele>182</ele>
        <time>2018-09-04T08:14:17Z</time>
      </trkpt>
      <trkpt lat="45.93815" lon="4.78189">
        <ele>182</ele>
        <time>2018-09-04T08:14:18Z</time>
      </trkpt>
      <trkpt lat="45.93812" lon="4.78201">
        <ele>182</ele>
        <time>2018-09-04T08:14:20Z</time>
      </trkpt>
      <trkpt lat="45.93812" lon="4.78208">
        <ele>182</ele>
        <time>2018-09-04T08:14:21Z</time>
      </trkpt>
      <trkpt lat="45.93809" lon="4.78218">
        <ele>182</ele>
        <time>2018-09-04T08:14:23Z</time>
      </trkpt>
      <trkpt lat="45.93807" lon="4.78219">
        <ele>182</ele>
        <time>2018-09-04T08:14:24Z</time>
      </trkpt>
      <trkpt lat="45.93803" lon="4.78224">
        <ele>182</ele>
        <time>2018-09-04T08:14:25Z</time>
      </trkpt>
      <trkpt lat="45.93801" lon="4.78231">
        <ele>182</ele>
        <time>2018-09-04T08:14:26Z</time>
      </trkpt>
      <trkpt lat="45.93798" lon="4.78236">
        <ele>182</ele>
        <time>2018-09-04T08:14:27Z</time>
      </trkpt>
      <trkpt lat="45.93797" lon="4.78242">
        <ele>182</ele>
        <time>2018-09-04T08:14:28Z</time>
      </trkpt>
      <trkpt lat="45.93795" lon="4.7825">
        <ele>182</ele>
        <time>2018-09-04T08:14:29Z</time>
      </trkpt>
      <trkpt lat="45.93793" lon="4.78257">
        <ele>183</ele>
        <time>2018-09-04T08:14:30Z</time>
      </trkpt>
      <trkpt lat="45.93791" lon="4.78264">
        <ele>183</ele>
        <time>2018-09-04T08:14:31Z</time>
      </trkpt>
      <trkpt lat="45.93791" lon="4.78272">
        <ele>183</ele>
        <time>2018-09-04T08:14:32Z</time>
      </trkpt>
      <trkpt lat="45.9379" lon="4.78279">
        <ele>183</ele>
        <time>2018-09-04T08:14:33Z</time>
      </trkpt>
      <trkpt lat="45.93789" lon="4.78288">
        <ele>183</ele>
        <time>2018-09-04T08:14:34Z</time>
      </trkpt>
      <trkpt lat="45.93788" lon="4.78299">
        <ele>183</ele>
        <time>2018-09-04T08:14:35Z</time>
      </trkpt>
      <trkpt lat="45.93786" lon="4.78305">
        <ele>183</ele>
        <time>2018-09-04T08:14:36Z</time>
      </trkpt>
      <trkpt lat="45.93784" lon="4.78312">
        <ele>183</ele>
        <time>2018-09-04T08:14:37Z</time>
      </trkpt>
      <trkpt lat="45.93782" lon="4.78318">
        <ele>183</ele>
        <time>2018-09-04T08:14:38Z</time>
      </trkpt>
      <trkpt lat="45.93777" lon="4.78322">
        <ele>183</ele>
        <time>2018-09-04T08:14:39Z</time>
      </trkpt>
      <trkpt lat="45.93775" lon="4.7833">
        <ele>183</ele>
        <time>2018-09-04T08:14:40Z</time>
      </trkpt>
      <trkpt lat="45.93773" lon="4.78339">
        <ele>183</ele>
        <time>2018-09-04T08:14:41Z</time>
      </trkpt>
      <trkpt lat="45.93773" lon="4.78347">
        <ele>183</ele>
        <time>2018-09-04T08:14:42Z</time>
      </trkpt>
      <trkpt lat="45.93769" lon="4.78353">
        <ele>183</ele>
        <time>2018-09-04T08:14:43Z</time>
      </trkpt>
      <trkpt lat="45.93767" lon="4.78362">
        <ele>183</ele>
        <time>2018-09-04T08:14:44Z</time>
      </trkpt>
      <trkpt lat="45.93765" lon="4.78371">
        <ele>183</ele>
        <time>2018-09-04T08:14:45Z</time>
      </trkpt>
      <trkpt lat="45.93764" lon="4.78381">
        <ele>183</ele>
        <time>2018-09-04T08:14:46Z</time>
      </trkpt>
      <trkpt lat="45.93762" lon="4.78389">
        <ele>183</ele>
        <time>2018-09-04T08:14:47Z</time>
      </trkpt>
      <trkpt lat="45.9376" lon="4.78394">
        <ele>183</ele>
        <time>2018-09-04T08:14:48Z</time>
      </trkpt>
      <trkpt lat="45.93758" lon="4.78401">
        <ele>183</ele>
        <time>2018-09-04T08:14:49Z</time>
      </trkpt>
      <trkpt lat="45.93756" lon="4.78406">
        <ele>182</ele>
        <time>2018-09-04T08:14:50Z</time>
      </trkpt>
      <trkpt lat="45.93756" lon="4.78413">
        <ele>182</ele>
        <time>2018-09-04T08:14:51Z</time>
      </trkpt>
      <trkpt lat="45.93754" lon="4.7842">
        <ele>182</ele>
        <time>2018-09-04T08:14:52Z</time>
      </trkpt>
      <trkpt lat="45.93754" lon="4.78429">
        <ele>183</ele>
        <time>2018-09-04T08:14:53Z</time>
      </trkpt>
      <trkpt lat="45.93752" lon="4.78436">
        <ele>183</ele>
        <time>2018-09-04T08:14:54Z</time>
      </trkpt>
      <trkpt lat="45.93751" lon="4.78443">
        <ele>183</ele>
        <time>2018-09-04T08:14:55Z</time>
      </trkpt>
      <trkpt lat="45.93749" lon="4.78451">
        <ele>180</ele>
        <time>2018-09-04T08:14:56Z</time>
      </trkpt>
      <trkpt lat="45.93747" lon="4.78459">
        <ele>180</ele>
        <time>2018-09-04T08:14:57Z</time>
      </trkpt>
      <trkpt lat="45.93745" lon="4.78467">
        <ele>180</ele>
        <time>2018-09-04T08:14:58Z</time>
      </trkpt>
      <trkpt lat="45.93743" lon="4.78475">
        <ele>180</ele>
        <time>2018-09-04T08:14:59Z</time>
      </trkpt>
      <trkpt lat="45.9374" lon="4.78485">
        <ele>180</ele>
        <time>2018-09-04T08:15:00Z</time>
      </trkpt>
      <trkpt lat="45.93736" lon="4.78493">
        <ele>180</ele>
        <time>2018-09-04T08:15:01Z</time>
      </trkpt>
      <trkpt lat="45.93733" lon="4.78504">
        <ele>179</ele>
        <time>2018-09-04T08:15:02Z</time>
      </trkpt>
      <trkpt lat="45.93731" lon="4.78514">
        <ele>179</ele>
        <time>2018-09-04T08:15:03Z</time>
      </trkpt>
      <trkpt lat="45.93728" lon="4.78524">
        <ele>179</ele>
        <time>2018-09-04T08:15:04Z</time>
      </trkpt>
      <trkpt lat="45.93723" lon="4.78533">
        <ele>178</ele>
        <time>2018-09-04T08:15:05Z</time>
      </trkpt>
      <trkpt lat="45.93719" lon="4.78543">
        <ele>178</ele>
        <time>2018-09-04T08:15:06Z</time>
      </trkpt>
      <trkpt lat="45.93718" lon="4.7855">
        <ele>178</ele>
        <time>2018-09-04T08:15:07Z</time>
      </trkpt>
      <trkpt lat="45.93717" lon="4.7856">
        <ele>178</ele>
        <time>2018-09-04T08:15:08Z</time>
      </trkpt>
      <trkpt lat="45.93714" lon="4.7857">
        <ele>178</ele>
        <time>2018-09-04T08:15:09Z</time>
      </trkpt>
      <trkpt lat="45.93714" lon="4.78577">
        <ele>178</ele>
        <time>2018-09-04T08:15:10Z</time>
      </trkpt>
      <trkpt lat="45.93712" lon="4.78587">
        <ele>177</ele>
        <time>2018-09-04T08:15:11Z</time>
      </trkpt>
      <trkpt lat="45.93713" lon="4.78594">
        <ele>177</ele>
        <time>2018-09-04T08:15:12Z</time>
      </trkpt>
      <trkpt lat="45.93711" lon="4.78601">
        <ele>176</ele>
        <time>2018-09-04T08:15:13Z</time>
      </trkpt>
      <trkpt lat="45.93712" lon="4.78609">
        <ele>176</ele>
        <time>2018-09-04T08:15:14Z</time>
      </trkpt>
      <trkpt lat="45.93711" lon="4.78616">
        <ele>176</ele>
        <time>2018-09-04T08:15:15Z</time>
      </trkpt>
      <trkpt lat="45.9371" lon="4.78623">
        <ele>176</ele>
        <time>2018-09-04T08:15:16Z</time>
      </trkpt>
      <trkpt lat="45.93715" lon="4.78633">
        <ele>176</ele>
        <time>2018-09-04T08:15:19Z</time>
      </trkpt>
      <trkpt lat="45.93719" lon="4.7863">
        <ele>177</ele>
        <time>2018-09-04T08:15:20Z</time>
      </trkpt>
      <trkpt lat="45.93726" lon="4.78627">
        <ele>177</ele>
        <time>2018-09-04T08:15:21Z</time>
      </trkpt>
      <trkpt lat="45.93729" lon="4.78625">
        <ele>177</ele>
        <time>2018-09-04T08:15:22Z</time>
      </trkpt>
      <trkpt lat="45.93737" lon="4.78623">
        <ele>177</ele>
        <time>2018-09-04T08:15:25Z</time>
      </trkpt>
      <trkpt lat="45.93739" lon="4.78623">
        <ele>177</ele>
        <time>2018-09-04T08:15:26Z</time>
      </trkpt>
      <trkpt lat="45.93743" lon="4.78621">
        <ele>177</ele>
        <time>2018-09-04T08:15:28Z</time>
      </trkpt>
      <trkpt lat="45.93753" lon="4.78615">
        <ele>181</ele>
        <time>2018-09-04T08:15:29Z</time>
      </trkpt>
      <trkpt lat="45.93762" lon="4.78614">
        <ele>181</ele>
        <time>2018-09-04T08:15:32Z</time>
      </trkpt>
      <trkpt lat="45.93763" lon="4.78614">
        <ele>181</ele>
        <time>2018-09-04T08:15:33Z</time>
      </trkpt>
      <trkpt lat="45.93772" lon="4.78611">
        <ele>181</ele>
        <time>2018-09-04T08:15:37Z</time>
      </trkpt>
      <trkpt lat="45.93774" lon="4.78611">
        <ele>181</ele>
        <time>2018-09-04T08:15:38Z</time>
      </trkpt>
      <trkpt lat="45.93776" lon="4.78609">
        <ele>181</ele>
        <time>2018-09-04T08:15:39Z</time>
      </trkpt>
      <trkpt lat="45.93784" lon="4.78606">
        <ele>182</ele>
        <time>2018-09-04T08:15:40Z</time>
      </trkpt>
      <trkpt lat="45.93792" lon="4.78604">
        <ele>182</ele>
        <time>2018-09-04T08:15:44Z</time>
      </trkpt>
      <trkpt lat="45.93794" lon="4.78604">
        <ele>182</ele>
        <time>2018-09-04T08:15:45Z</time>
      </trkpt>
      <trkpt lat="45.93803" lon="4.78603">
        <ele>183</ele>
        <time>2018-09-04T08:15:48Z</time>
      </trkpt>
      <trkpt lat="45.93806" lon="4.78603">
        <ele>183</ele>
        <time>2018-09-04T08:15:49Z</time>
      </trkpt>
      <trkpt lat="45.93809" lon="4.78602">
        <ele>183</ele>
        <time>2018-09-04T08:15:50Z</time>
      </trkpt>
      <trkpt lat="45.93818" lon="4.786">
        <ele>184</ele>
        <time>2018-09-04T08:15:51Z</time>
      </trkpt>
      <trkpt lat="45.93826" lon="4.78597">
        <ele>185</ele>
        <time>2018-09-04T08:15:55Z</time>
      </trkpt>
      <trkpt lat="45.93828" lon="4.78597">
        <ele>185</ele>
        <time>2018-09-04T08:15:56Z</time>
      </trkpt>
      <trkpt lat="45.93835" lon="4.78596">
        <ele>187</ele>
        <time>2018-09-04T08:15:59Z</time>
      </trkpt>
      <trkpt lat="45.93838" lon="4.78596">
        <ele>187</ele>
        <time>2018-09-04T08:16:00Z</time>
      </trkpt>
      <trkpt lat="45.93847" lon="4.78595">
        <ele>188</ele>
        <time>2018-09-04T08:16:04Z</time>
      </trkpt>
      <trkpt lat="45.93849" lon="4.78595">
        <ele>188</ele>
        <time>2018-09-04T08:16:05Z</time>
      </trkpt>
      <trkpt lat="45.93858" lon="4.78595">
        <ele>188</ele>
        <time>2018-09-04T08:16:09Z</time>
      </trkpt>
      <trkpt lat="45.9386" lon="4.78594">
        <ele>188</ele>
        <time>2018-09-04T08:16:10Z</time>
      </trkpt>
      <trkpt lat="45.93868" lon="4.78592">
        <ele>188</ele>
        <time>2018-09-04T08:16:13Z</time>
      </trkpt>
      <trkpt lat="45.9387" lon="4.78592">
        <ele>189</ele>
        <time>2018-09-04T08:16:14Z</time>
      </trkpt>
      <trkpt lat="45.93877" lon="4.78589">
        <ele>189</ele>
        <time>2018-09-04T08:16:17Z</time>
      </trkpt>
      <trkpt lat="45.93879" lon="4.78589">
        <ele>189</ele>
        <time>2018-09-04T08:16:18Z</time>
      </trkpt>
      <trkpt lat="45.93887" lon="4.78585">
        <ele>190</ele>
        <time>2018-09-04T08:16:21Z</time>
      </trkpt>
      <trkpt lat="45.93889" lon="4.78584">
        <ele>190</ele>
        <time>2018-09-04T08:16:22Z</time>
      </trkpt>
      <trkpt lat="45.93896" lon="4.78583">
        <ele>192</ele>
        <time>2018-09-04T08:16:25Z</time>
      </trkpt>
      <trkpt lat="45.93898" lon="4.78582">
        <ele>192</ele>
        <time>2018-09-04T08:16:26Z</time>
      </trkpt>
      <trkpt lat="45.93907" lon="4.78578">
        <ele>192</ele>
        <time>2018-09-04T08:16:30Z</time>
      </trkpt>
      <trkpt lat="45.93909" lon="4.78577">
        <ele>192</ele>
        <time>2018-09-04T08:16:31Z</time>
      </trkpt>
      <trkpt lat="45.93915" lon="4.78572">
        <ele>192</ele>
        <time>2018-09-04T08:16:34Z</time>
      </trkpt>
      <trkpt lat="45.93917" lon="4.78569">
        <ele>195</ele>
        <time>2018-09-04T08:16:35Z</time>
      </trkpt>
      <trkpt lat="45.93925" lon="4.78564">
        <ele>196</ele>
        <time>2018-09-04T08:16:39Z</time>
      </trkpt>
      <trkpt lat="45.93928" lon="4.78565">
        <ele>196</ele>
        <time>2018-09-04T08:16:40Z</time>
      </trkpt>
      <trkpt lat="45.93931" lon="4.7857">
        <ele>196</ele>
        <time>2018-09-04T08:16:42Z</time>
      </trkpt>
      <trkpt lat="45.93935" lon="4.78582">
        <ele>196</ele>
        <time>2018-09-04T08:16:43Z</time>
      </trkpt>
      <trkpt lat="45.93936" lon="4.78593">
        <ele>195</ele>
        <time>2018-09-04T08:16:45Z</time>
      </trkpt>
      <trkpt lat="45.93936" lon="4.78596">
        <ele>195</ele>
        <time>2018-09-04T08:16:46Z</time>
      </trkpt>
      <trkpt lat="45.93936" lon="4.78608">
        <ele>196</ele>
        <time>2018-09-04T08:16:49Z</time>
      </trkpt>
      <trkpt lat="45.93935" lon="4.7862">
        <ele>195</ele>
        <time>2018-09-04T08:16:50Z</time>
      </trkpt>
      <trkpt lat="45.93935" lon="4.78632">
        <ele>195</ele>
        <time>2018-09-04T08:16:52Z</time>
      </trkpt>
      <trkpt lat="45.93935" lon="4.78639">
        <ele>195</ele>
        <time>2018-09-04T08:16:53Z</time>
      </trkpt>
      <trkpt lat="45.93935" lon="4.78651">
        <ele>194</ele>
        <time>2018-09-04T08:16:55Z</time>
      </trkpt>
      <trkpt lat="45.93935" lon="4.78657">
        <ele>194</ele>
        <time>2018-09-04T08:16:56Z</time>
      </trkpt>
      <trkpt lat="45.93935" lon="4.78665">
        <ele>194</ele>
        <time>2018-09-04T08:16:58Z</time>
      </trkpt>
      <trkpt lat="45.93935" lon="4.78673">
        <ele>193</ele>
        <time>2018-09-04T08:16:59Z</time>
      </trkpt>
      <trkpt lat="45.93936" lon="4.78685">
        <ele>193</ele>
        <time>2018-09-04T08:17:01Z</time>
      </trkpt>
      <trkpt lat="45.93936" lon="4.7869">
        <ele>194</ele>
        <time>2018-09-04T08:17:02Z</time>
      </trkpt>
      <trkpt lat="45.93936" lon="4.78702">
        <ele>194</ele>
        <time>2018-09-04T08:17:04Z</time>
      </trkpt>
      <trkpt lat="45.93936" lon="4.78708">
        <ele>194</ele>
        <time>2018-09-04T08:17:05Z</time>
      </trkpt>
      <trkpt lat="45.93937" lon="4.7872">
        <ele>194</ele>
        <time>2018-09-04T08:17:07Z</time>
      </trkpt>
      <trkpt lat="45.93937" lon="4.78726">
        <ele>194</ele>
        <time>2018-09-04T08:17:08Z</time>
      </trkpt>
      <trkpt lat="45.93937" lon="4.78733">
        <ele>193</ele>
        <time>2018-09-04T08:17:09Z</time>
      </trkpt>
      <trkpt lat="45.93937" lon="4.7874">
        <ele>193</ele>
        <time>2018-09-04T08:17:10Z</time>
      </trkpt>
      <trkpt lat="45.93939" lon="4.78752">
        <ele>193</ele>
        <time>2018-09-04T08:17:12Z</time>
      </trkpt>
      <trkpt lat="45.93937" lon="4.78759">
        <ele>193</ele>
        <time>2018-09-04T08:17:13Z</time>
      </trkpt>
      <trkpt lat="45.93936" lon="4.7877">
        <ele>193</ele>
        <time>2018-09-04T08:17:15Z</time>
      </trkpt>
      <trkpt lat="45.93937" lon="4.78776">
        <ele>194</ele>
        <time>2018-09-04T08:17:16Z</time>
      </trkpt>
      <trkpt lat="45.93937" lon="4.78787">
        <ele>194</ele>
        <time>2018-09-04T08:17:18Z</time>
      </trkpt>
      <trkpt lat="45.93938" lon="4.78794">
        <ele>194</ele>
        <time>2018-09-04T08:17:19Z</time>
      </trkpt>
      <trkpt lat="45.93936" lon="4.78801">
        <ele>194</ele>
        <time>2018-09-04T08:17:20Z</time>
      </trkpt>
      <trkpt lat="45.93936" lon="4.78807">
        <ele>194</ele>
        <time>2018-09-04T08:17:21Z</time>
      </trkpt>
      <trkpt lat="45.93937" lon="4.78814">
        <ele>194</ele>
        <time>2018-09-04T08:17:22Z</time>
      </trkpt>
      <trkpt lat="45.93939" lon="4.7882">
        <ele>194</ele>
        <time>2018-09-04T08:17:23Z</time>
      </trkpt>
      <trkpt lat="45.9394" lon="4.78827">
        <ele>194</ele>
        <time>2018-09-04T08:17:24Z</time>
      </trkpt>
      <trkpt lat="45.9394" lon="4.78833">
        <ele>194</ele>
        <time>2018-09-04T08:17:25Z</time>
      </trkpt>
      <trkpt lat="45.9394" lon="4.7884">
        <ele>193</ele>
        <time>2018-09-04T08:17:26Z</time>
      </trkpt>
      <trkpt lat="45.93939" lon="4.78848">
        <ele>193</ele>
        <time>2018-09-04T08:17:27Z</time>
      </trkpt>
      <trkpt lat="45.93938" lon="4.78854">
        <ele>194</ele>
        <time>2018-09-04T08:17:28Z</time>
      </trkpt>
      <trkpt lat="45.93939" lon="4.78861">
        <ele>194</ele>
        <time>2018-09-04T08:17:29Z</time>
      </trkpt>
      <trkpt lat="45.93938" lon="4.78869">
        <ele>194</ele>
        <time>2018-09-04T08:17:30Z</time>
      </trkpt>
      <trkpt lat="45.93939" lon="4.78876">
        <ele>194</ele>
        <time>2018-09-04T08:17:31Z</time>
      </trkpt>
      <trkpt lat="45.9394" lon="4.78882">
        <ele>194</ele>
        <time>2018-09-04T08:17:32Z</time>
      </trkpt>
      <trkpt lat="45.9394" lon="4.78889">
        <ele>193</ele>
        <time>2018-09-04T08:17:33Z</time>
      </trkpt>
      <trkpt lat="45.93941" lon="4.789">
        <ele>193</ele>
        <time>2018-09-04T08:17:35Z</time>
      </trkpt>
      <trkpt lat="45.93941" lon="4.78907">
        <ele>193</ele>
        <time>2018-09-04T08:17:36Z</time>
      </trkpt>
      <trkpt lat="45.93941" lon="4.78919">
        <ele>193</ele>
        <time>2018-09-04T08:17:38Z</time>
      </trkpt>
      <trkpt lat="45.93942" lon="4.78926">
        <ele>193</ele>
        <time>2018-09-04T08:17:39Z</time>
      </trkpt>
      <trkpt lat="45.93942" lon="4.78933">
        <ele>193</ele>
        <time>2018-09-04T08:17:40Z</time>
      </trkpt>
      <trkpt lat="45.93943" lon="4.78939">
        <ele>194</ele>
        <time>2018-09-04T08:17:41Z</time>
      </trkpt>
      <trkpt lat="45.93943" lon="4.78947">
        <ele>194</ele>
        <time>2018-09-04T08:17:42Z</time>
      </trkpt>
      <trkpt lat="45.93942" lon="4.78954">
        <ele>194</ele>
        <time>2018-09-04T08:17:43Z</time>
      </trkpt>
      <trkpt lat="45.93942" lon="4.78961">
        <ele>194</ele>
        <time>2018-09-04T08:17:44Z</time>
      </trkpt>
      <trkpt lat="45.93942" lon="4.78967">
        <ele>194</ele>
        <time>2018-09-04T08:17:45Z</time>
      </trkpt>
      <trkpt lat="45.93943" lon="4.78974">
        <ele>194</ele>
        <time>2018-09-04T08:17:46Z</time>
      </trkpt>
      <trkpt lat="45.93945" lon="4.7898">
        <ele>194</ele>
        <time>2018-09-04T08:17:47Z</time>
      </trkpt>
      <trkpt lat="45.93946" lon="4.7899">
        <ele>194</ele>
        <time>2018-09-04T08:17:48Z</time>
      </trkpt>
      <trkpt lat="45.93945" lon="4.78996">
        <ele>194</ele>
        <time>2018-09-04T08:17:49Z</time>
      </trkpt>
      <trkpt lat="45.93946" lon="4.79005">
        <ele>195</ele>
        <time>2018-09-04T08:17:51Z</time>
      </trkpt>
      <trkpt lat="45.93945" lon="4.79013">
        <ele>195</ele>
        <time>2018-09-04T08:17:52Z</time>
      </trkpt>
      <trkpt lat="45.93946" lon="4.79019">
        <ele>195</ele>
        <time>2018-09-04T08:17:53Z</time>
      </trkpt>
      <trkpt lat="45.93946" lon="4.79025">
        <ele>195</ele>
        <time>2018-09-04T08:17:54Z</time>
      </trkpt>
      <trkpt lat="45.93947" lon="4.79034">
        <ele>195</ele>
        <time>2018-09-04T08:17:55Z</time>
      </trkpt>
      <trkpt lat="45.93948" lon="4.79041">
        <ele>196</ele>
        <time>2018-09-04T08:17:56Z</time>
      </trkpt>
      <trkpt lat="45.93948" lon="4.79048">
        <ele>196</ele>
        <time>2018-09-04T08:17:57Z</time>
      </trkpt>
      <trkpt lat="45.93948" lon="4.79054">
        <ele>196</ele>
        <time>2018-09-04T08:17:58Z</time>
      </trkpt>
      <trkpt lat="45.9395" lon="4.79066">
        <ele>196</ele>
        <time>2018-09-04T08:18:00Z</time>
      </trkpt>
      <trkpt lat="45.9395" lon="4.79071">
        <ele>196</ele>
        <time>2018-09-04T08:18:01Z</time>
      </trkpt>
      <trkpt lat="45.9395" lon="4.79082">
        <ele>196</ele>
        <time>2018-09-04T08:18:03Z</time>
      </trkpt>
      <trkpt lat="45.9395" lon="4.79089">
        <ele>196</ele>
        <time>2018-09-04T08:18:04Z</time>
      </trkpt>
      <trkpt lat="45.93951" lon="4.79101">
        <ele>197</ele>
        <time>2018-09-04T08:18:06Z</time>
      </trkpt>
      <trkpt lat="45.9395" lon="4.79107">
        <ele>197</ele>
        <time>2018-09-04T08:18:07Z</time>
      </trkpt>
      <trkpt lat="45.9395" lon="4.7912">
        <ele>197</ele>
        <time>2018-09-04T08:18:09Z</time>
      </trkpt>
      <trkpt lat="45.93949" lon="4.79126">
        <ele>197</ele>
        <time>2018-09-04T08:18:10Z</time>
      </trkpt>
      <trkpt lat="45.93951" lon="4.79138">
        <ele>197</ele>
        <time>2018-09-04T08:18:12Z</time>
      </trkpt>
      <trkpt lat="45.93951" lon="4.79145">
        <ele>197</ele>
        <time>2018-09-04T08:18:13Z</time>
      </trkpt>
      <trkpt lat="45.93951" lon="4.79156">
        <ele>197</ele>
        <time>2018-09-04T08:18:15Z</time>
      </trkpt>
      <trkpt lat="45.9395" lon="4.79162">
        <ele>197</ele>
        <time>2018-09-04T08:18:16Z</time>
      </trkpt>
      <trkpt lat="45.93951" lon="4.79173">
        <ele>197</ele>
        <time>2018-09-04T08:18:18Z</time>
      </trkpt>
      <trkpt lat="45.93951" lon="4.7918">
        <ele>197</ele>
        <time>2018-09-04T08:18:19Z</time>
      </trkpt>
      <trkpt lat="45.93952" lon="4.79192">
        <ele>197</ele>
        <time>2018-09-04T08:18:21Z</time>
      </trkpt>
      <trkpt lat="45.93951" lon="4.79198">
        <ele>197</ele>
        <time>2018-09-04T08:18:22Z</time>
      </trkpt>
      <trkpt lat="45.93951" lon="4.79204">
        <ele>197</ele>
        <time>2018-09-04T08:18:23Z</time>
      </trkpt>
      <trkpt lat="45.93957" lon="4.79216">
        <ele>197</ele>
        <time>2018-09-04T08:18:24Z</time>
      </trkpt>
      <trkpt lat="45.93957" lon="4.79227">
        <ele>197</ele>
        <time>2018-09-04T08:18:26Z</time>
      </trkpt>
      <trkpt lat="45.93956" lon="4.79232">
        <ele>197</ele>
        <time>2018-09-04T08:18:27Z</time>
      </trkpt>
      <trkpt lat="45.93956" lon="4.79238">
        <ele>197</ele>
        <time>2018-09-04T08:18:28Z</time>
      </trkpt>
      <trkpt lat="45.93956" lon="4.79246">
        <ele>197</ele>
        <time>2018-09-04T08:18:29Z</time>
      </trkpt>
      <trkpt lat="45.93956" lon="4.79258">
        <ele>198</ele>
        <time>2018-09-04T08:18:31Z</time>
      </trkpt>
      <trkpt lat="45.93955" lon="4.79263">
        <ele>198</ele>
        <time>2018-09-04T08:18:32Z</time>
      </trkpt>
      <trkpt lat="45.93954" lon="4.79275">
        <ele>198</ele>
        <time>2018-09-04T08:18:34Z</time>
      </trkpt>
      <trkpt lat="45.93954" lon="4.79281">
        <ele>198</ele>
        <time>2018-09-04T08:18:35Z</time>
      </trkpt>
      <trkpt lat="45.93956" lon="4.7929">
        <ele>199</ele>
        <time>2018-09-04T08:18:37Z</time>
      </trkpt>
      <trkpt lat="45.93956" lon="4.79299">
        <ele>199</ele>
        <time>2018-09-04T08:18:38Z</time>
      </trkpt>
      <trkpt lat="45.93956" lon="4.79307">
        <ele>199</ele>
        <time>2018-09-04T08:18:40Z</time>
      </trkpt>
      <trkpt lat="45.93956" lon="4.79315">
        <ele>199</ele>
        <time>2018-09-04T08:18:41Z</time>
      </trkpt>
      <trkpt lat="45.93954" lon="4.79327">
        <ele>199</ele>
        <time>2018-09-04T08:18:43Z</time>
      </trkpt>
      <trkpt lat="45.93954" lon="4.79331">
        <ele>199</ele>
        <time>2018-09-04T08:18:44Z</time>
      </trkpt>
      <trkpt lat="45.93952" lon="4.79344">
        <ele>200</ele>
        <time>2018-09-04T08:18:46Z</time>
      </trkpt>
      <trkpt lat="45.93952" lon="4.7935">
        <ele>200</ele>
        <time>2018-09-04T08:18:47Z</time>
      </trkpt>
      <trkpt lat="45.93952" lon="4.79361">
        <ele>200</ele>
        <time>2018-09-04T08:18:49Z</time>
      </trkpt>
      <trkpt lat="45.93952" lon="4.79367">
        <ele>201</ele>
        <time>2018-09-04T08:18:50Z</time>
      </trkpt>
      <trkpt lat="45.93952" lon="4.79379">
        <ele>201</ele>
        <time>2018-09-04T08:18:52Z</time>
      </trkpt>
      <trkpt lat="45.93952" lon="4.79386">
        <ele>201</ele>
        <time>2018-09-04T08:18:53Z</time>
      </trkpt>
      <trkpt lat="45.93953" lon="4.79398">
        <ele>201</ele>
        <time>2018-09-04T08:18:56Z</time>
      </trkpt>
      <trkpt lat="45.93953" lon="4.79408">
        <ele>201</ele>
        <time>2018-09-04T08:18:57Z</time>
      </trkpt>
      <trkpt lat="45.93953" lon="4.79419">
        <ele>202</ele>
        <time>2018-09-04T08:18:59Z</time>
      </trkpt>
      <trkpt lat="45.93954" lon="4.79424">
        <ele>202</ele>
        <time>2018-09-04T08:19:00Z</time>
      </trkpt>
      <trkpt lat="45.93954" lon="4.79435">
        <ele>202</ele>
        <time>2018-09-04T08:19:02Z</time>
      </trkpt>
      <trkpt lat="45.93953" lon="4.7944">
        <ele>202</ele>
        <time>2018-09-04T08:19:03Z</time>
      </trkpt>
      <trkpt lat="45.93952" lon="4.79448">
        <ele>202</ele>
        <time>2018-09-04T08:19:05Z</time>
      </trkpt>
      <trkpt lat="45.93951" lon="4.79455">
        <ele>202</ele>
        <time>2018-09-04T08:19:06Z</time>
      </trkpt>
      <trkpt lat="45.9395" lon="4.79465">
        <ele>202</ele>
        <time>2018-09-04T08:19:09Z</time>
      </trkpt>
      <trkpt lat="45.9395" lon="4.79475">
        <ele>202</ele>
        <time>2018-09-04T08:19:10Z</time>
      </trkpt>
      <trkpt lat="45.9395" lon="4.79481">
        <ele>202</ele>
        <time>2018-09-04T08:19:12Z</time>
      </trkpt>
      <trkpt lat="45.93951" lon="4.79491">
        <ele>202</ele>
        <time>2018-09-04T08:19:13Z</time>
      </trkpt>
      <trkpt lat="45.93951" lon="4.79501">
        <ele>204</ele>
        <time>2018-09-04T08:19:15Z</time>
      </trkpt>
      <trkpt lat="45.93951" lon="4.79504">
        <ele>204</ele>
        <time>2018-09-04T08:19:16Z</time>
      </trkpt>
      <trkpt lat="45.93952" lon="4.79513">
        <ele>204</ele>
        <time>2018-09-04T08:19:19Z</time>
      </trkpt>
      <trkpt lat="45.93953" lon="4.79524">
        <ele>204</ele>
        <time>2018-09-04T08:19:20Z</time>
      </trkpt>
      <trkpt lat="45.93953" lon="4.79533">
        <ele>204</ele>
        <time>2018-09-04T08:19:22Z</time>
      </trkpt>
      <trkpt lat="45.93954" lon="4.7954">
        <ele>205</ele>
        <time>2018-09-04T08:19:23Z</time>
      </trkpt>
      <trkpt lat="45.93954" lon="4.7955">
        <ele>205</ele>
        <time>2018-09-04T08:19:26Z</time>
      </trkpt>
      <trkpt lat="45.93955" lon="4.79561">
        <ele>205</ele>
        <time>2018-09-04T08:19:27Z</time>
      </trkpt>
      <trkpt lat="45.93956" lon="4.79569">
        <ele>205</ele>
        <time>2018-09-04T08:19:29Z</time>
      </trkpt>
      <trkpt lat="45.93957" lon="4.79577">
        <ele>205</ele>
        <time>2018-09-04T08:19:30Z</time>
      </trkpt>
      <trkpt lat="45.93958" lon="4.79586">
        <ele>207</ele>
        <time>2018-09-04T08:19:33Z</time>
      </trkpt>
      <trkpt lat="45.93959" lon="4.7959">
        <ele>207</ele>
        <time>2018-09-04T08:19:34Z</time>
      </trkpt>
      <trkpt lat="45.9396" lon="4.79602">
        <ele>207</ele>
        <time>2018-09-04T08:19:35Z</time>
      </trkpt>
      <trkpt lat="45.93961" lon="4.79608">
        <ele>207</ele>
        <time>2018-09-04T08:19:36Z</time>
      </trkpt>
      <trkpt lat="45.93962" lon="4.79616">
        <ele>207</ele>
        <time>2018-09-04T08:19:38Z</time>
      </trkpt>
      <trkpt lat="45.93962" lon="4.79624">
        <ele>207</ele>
        <time>2018-09-04T08:19:39Z</time>
      </trkpt>
      <trkpt lat="45.93962" lon="4.79636">
        <ele>207</ele>
        <time>2018-09-04T08:19:41Z</time>
      </trkpt>
      <trkpt lat="45.93963" lon="4.79641">
        <ele>207</ele>
        <time>2018-09-04T08:19:42Z</time>
      </trkpt>
      <trkpt lat="45.93963" lon="4.79652">
        <ele>207</ele>
        <time>2018-09-04T08:19:44Z</time>
      </trkpt>
      <trkpt lat="45.93963" lon="4.79657">
        <ele>207</ele>
        <time>2018-09-04T08:19:45Z</time>
      </trkpt>
      <trkpt lat="45.93963" lon="4.79668">
        <ele>207</ele>
        <time>2018-09-04T08:19:47Z</time>
      </trkpt>
      <trkpt lat="45.93965" lon="4.79674">
        <ele>207</ele>
        <time>2018-09-04T08:19:48Z</time>
      </trkpt>
      <trkpt lat="45.93966" lon="4.79685">
        <ele>207</ele>
        <time>2018-09-04T08:19:50Z</time>
      </trkpt>
      <trkpt lat="45.93965" lon="4.79691">
        <ele>207</ele>
        <time>2018-09-04T08:19:51Z</time>
      </trkpt>
      <trkpt lat="45.93965" lon="4.79698">
        <ele>207</ele>
        <time>2018-09-04T08:19:52Z</time>
      </trkpt>
      <trkpt lat="45.93967" lon="4.79705">
        <ele>207</ele>
        <time>2018-09-04T08:19:53Z</time>
      </trkpt>
      <trkpt lat="45.93967" lon="4.79717">
        <ele>207</ele>
        <time>2018-09-04T08:19:55Z</time>
      </trkpt>
      <trkpt lat="45.9397" lon="4.79723">
        <ele>207</ele>
        <time>2018-09-04T08:19:56Z</time>
      </trkpt>
      <trkpt lat="45.93971" lon="4.7973">
        <ele>207</ele>
        <time>2018-09-04T08:19:57Z</time>
      </trkpt>
      <trkpt lat="45.93971" lon="4.79737">
        <ele>207</ele>
        <time>2018-09-04T08:19:58Z</time>
      </trkpt>
      <trkpt lat="45.9397" lon="4.79744">
        <ele>207</ele>
        <time>2018-09-04T08:19:59Z</time>
      </trkpt>
      <trkpt lat="45.93971" lon="4.79751">
        <ele>206</ele>
        <time>2018-09-04T08:20:00Z</time>
      </trkpt>
      <trkpt lat="45.93971" lon="4.79758">
        <ele>206</ele>
        <time>2018-09-04T08:20:01Z</time>
      </trkpt>
      <trkpt lat="45.93971" lon="4.79766">
        <ele>206</ele>
        <time>2018-09-04T08:20:02Z</time>
      </trkpt>
      <trkpt lat="45.93972" lon="4.79773">
        <ele>206</ele>
        <time>2018-09-04T08:20:03Z</time>
      </trkpt>
      <trkpt lat="45.93972" lon="4.7978">
        <ele>206</ele>
        <time>2018-09-04T08:20:04Z</time>
      </trkpt>
      <trkpt lat="45.93972" lon="4.79788">
        <ele>206</ele>
        <time>2018-09-04T08:20:05Z</time>
      </trkpt>
      <trkpt lat="45.93972" lon="4.79794">
        <ele>206</ele>
        <time>2018-09-04T08:20:06Z</time>
      </trkpt>
      <trkpt lat="45.9397" lon="4.798">
        <ele>206</ele>
        <time>2018-09-04T08:20:07Z</time>
      </trkpt>
      <trkpt lat="45.93969" lon="4.79807">
        <ele>206</ele>
        <time>2018-09-04T08:20:08Z</time>
      </trkpt>
      <trkpt lat="45.93968" lon="4.79815">
        <ele>207</ele>
        <time>2018-09-04T08:20:09Z</time>
      </trkpt>
      <trkpt lat="45.93968" lon="4.79824">
        <ele>207</ele>
        <time>2018-09-04T08:20:10Z</time>
      </trkpt>
      <trkpt lat="45.93967" lon="4.79833">
        <ele>207</ele>
        <time>2018-09-04T08:20:11Z</time>
      </trkpt>
      <trkpt lat="45.93967" lon="4.79841">
        <ele>206</ele>
        <time>2018-09-04T08:20:12Z</time>
      </trkpt>
      <trkpt lat="45.93967" lon="4.79848">
        <ele>206</ele>
        <time>2018-09-04T08:20:13Z</time>
      </trkpt>
      <trkpt lat="45.93966" lon="4.79856">
        <ele>206</ele>
        <time>2018-09-04T08:20:14Z</time>
      </trkpt>
      <trkpt lat="45.93964" lon="4.79862">
        <ele>206</ele>
        <time>2018-09-04T08:20:15Z</time>
      </trkpt>
      <trkpt lat="45.93963" lon="4.79871">
        <ele>206</ele>
        <time>2018-09-04T08:20:16Z</time>
      </trkpt>
      <trkpt lat="45.93961" lon="4.79877">
        <ele>206</ele>
        <time>2018-09-04T08:20:17Z</time>
      </trkpt>
      <trkpt lat="45.93959" lon="4.79884">
        <ele>206</ele>
        <time>2018-09-04T08:20:18Z</time>
      </trkpt>
      <trkpt lat="45.93959" lon="4.79892">
        <ele>206</ele>
        <time>2018-09-04T08:20:19Z</time>
      </trkpt>
      <trkpt lat="45.93954" lon="4.79899">
        <ele>205</ele>
        <time>2018-09-04T08:20:20Z</time>
      </trkpt>
      <trkpt lat="45.93953" lon="4.79906">
        <ele>205</ele>
        <time>2018-09-04T08:20:21Z</time>
      </trkpt>
      <trkpt lat="45.93954" lon="4.79913">
        <ele>205</ele>
        <time>2018-09-04T08:20:22Z</time>
      </trkpt>
      <trkpt lat="45.93951" lon="4.79919">
        <ele>205</ele>
        <time>2018-09-04T08:20:23Z</time>
      </trkpt>
      <trkpt lat="45.93949" lon="4.79924">
        <ele>205</ele>
        <time>2018-09-04T08:20:24Z</time>
      </trkpt>
      <trkpt lat="45.93949" lon="4.79931">
        <ele>205</ele>
        <time>2018-09-04T08:20:25Z</time>
      </trkpt>
      <trkpt lat="45.93948" lon="4.79938">
        <ele>205</ele>
        <time>2018-09-04T08:20:26Z</time>
      </trkpt>
      <trkpt lat="45.93947" lon="4.79945">
        <ele>205</ele>
        <time>2018-09-04T08:20:27Z</time>
      </trkpt>
      <trkpt lat="45.93946" lon="4.79951">
        <ele>205</ele>
        <time>2018-09-04T08:20:28Z</time>
      </trkpt>
      <trkpt lat="45.93945" lon="4.79959">
        <ele>205</ele>
        <time>2018-09-04T08:20:29Z</time>
      </trkpt>
      <trkpt lat="45.93943" lon="4.79966">
        <ele>205</ele>
        <time>2018-09-04T08:20:30Z</time>
      </trkpt>
      <trkpt lat="45.93943" lon="4.79974">
        <ele>205</ele>
        <time>2018-09-04T08:20:31Z</time>
      </trkpt>
      <trkpt lat="45.93943" lon="4.79983">
        <ele>205</ele>
        <time>2018-09-04T08:20:32Z</time>
      </trkpt>
      <trkpt lat="45.93942" lon="4.7999">
        <ele>204</ele>
        <time>2018-09-04T08:20:33Z</time>
      </trkpt>
      <trkpt lat="45.93941" lon="4.79997">
        <ele>204</ele>
        <time>2018-09-04T08:20:34Z</time>
      </trkpt>
      <trkpt lat="45.93941" lon="4.80004">
        <ele>206</ele>
        <time>2018-09-04T08:20:35Z</time>
      </trkpt>
      <trkpt lat="45.93941" lon="4.80012">
        <ele>206</ele>
        <time>2018-09-04T08:20:36Z</time>
      </trkpt>
      <trkpt lat="45.93941" lon="4.80018">
        <ele>206</ele>
        <time>2018-09-04T08:20:37Z</time>
      </trkpt>
      <trkpt lat="45.9394" lon="4.80025">
        <ele>206</ele>
        <time>2018-09-04T08:20:38Z</time>
      </trkpt>
      <trkpt lat="45.93938" lon="4.80033">
        <ele>207</ele>
        <time>2018-09-04T08:20:39Z</time>
      </trkpt>
      <trkpt lat="45.93937" lon="4.80039">
        <ele>207</ele>
        <time>2018-09-04T08:20:40Z</time>
      </trkpt>
      <trkpt lat="45.93942" lon="4.80055">
        <ele>208</ele>
        <time>2018-09-04T08:20:41Z</time>
      </trkpt>
      <trkpt lat="45.93938" lon="4.8006">
        <ele>207</ele>
        <time>2018-09-04T08:20:42Z</time>
      </trkpt>
      <trkpt lat="45.93936" lon="4.80066">
        <ele>207</ele>
        <time>2018-09-04T08:20:43Z</time>
      </trkpt>
      <trkpt lat="45.93935" lon="4.80078">
        <ele>207</ele>
        <time>2018-09-04T08:20:45Z</time>
      </trkpt>
      <trkpt lat="45.93935" lon="4.80085">
        <ele>208</ele>
        <time>2018-09-04T08:20:46Z</time>
      </trkpt>
      <trkpt lat="45.93932" lon="4.80091">
        <ele>207</ele>
        <time>2018-09-04T08:20:47Z</time>
      </trkpt>
      <trkpt lat="45.93933" lon="4.80098">
        <ele>208</ele>
        <time>2018-09-04T08:20:48Z</time>
      </trkpt>
      <trkpt lat="45.93936" lon="4.80104">
        <ele>208</ele>
        <time>2018-09-04T08:20:49Z</time>
      </trkpt>
      <trkpt lat="45.93938" lon="4.80109">
        <ele>208</ele>
        <time>2018-09-04T08:20:50Z</time>
      </trkpt>
      <trkpt lat="45.93939" lon="4.80115">
        <ele>208</ele>
        <time>2018-09-04T08:20:51Z</time>
      </trkpt>
      <trkpt lat="45.9394" lon="4.80122">
        <ele>208</ele>
        <time>2018-09-04T08:20:52Z</time>
      </trkpt>
      <trkpt lat="45.9394" lon="4.80128">
        <ele>208</ele>
        <time>2018-09-04T08:20:53Z</time>
      </trkpt>
      <trkpt lat="45.93941" lon="4.80135">
        <ele>208</ele>
        <time>2018-09-04T08:20:54Z</time>
      </trkpt>
      <trkpt lat="45.93941" lon="4.80141">
        <ele>208</ele>
        <time>2018-09-04T08:20:55Z</time>
      </trkpt>
      <trkpt lat="45.93941" lon="4.80148">
        <ele>208</ele>
        <time>2018-09-04T08:20:56Z</time>
      </trkpt>
      <trkpt lat="45.93943" lon="4.80159">
        <ele>208</ele>
        <time>2018-09-04T08:20:58Z</time>
      </trkpt>
      <trkpt lat="45.93944" lon="4.80165">
        <ele>208</ele>
        <time>2018-09-04T08:20:59Z</time>
      </trkpt>
      <trkpt lat="45.93946" lon="4.80171">
        <ele>206</ele>
        <time>2018-09-04T08:21:00Z</time>
      </trkpt>
      <trkpt lat="45.93947" lon="4.80179">
        <ele>206</ele>
        <time>2018-09-04T08:21:01Z</time>
      </trkpt>
      <trkpt lat="45.9395" lon="4.80191">
        <ele>205</ele>
        <time>2018-09-04T08:21:03Z</time>
      </trkpt>
      <trkpt lat="45.93952" lon="4.80198">
        <ele>205</ele>
        <time>2018-09-04T08:21:04Z</time>
      </trkpt>
      <trkpt lat="45.93954" lon="4.80209">
        <ele>205</ele>
        <time>2018-09-04T08:21:06Z</time>
      </trkpt>
      <trkpt lat="45.93956" lon="4.80216">
        <ele>205</ele>
        <time>2018-09-04T08:21:07Z</time>
      </trkpt>
      <trkpt lat="45.93957" lon="4.80223">
        <ele>205</ele>
        <time>2018-09-04T08:21:08Z</time>
      </trkpt>
      <trkpt lat="45.93959" lon="4.80229">
        <ele>205</ele>
        <time>2018-09-04T08:21:09Z</time>
      </trkpt>
      <trkpt lat="45.93961" lon="4.80236">
        <ele>204</ele>
        <time>2018-09-04T08:21:10Z</time>
      </trkpt>
      <trkpt lat="45.93963" lon="4.80242">
        <ele>204</ele>
        <time>2018-09-04T08:21:11Z</time>
      </trkpt>
      <trkpt lat="45.93965" lon="4.80248">
        <ele>204</ele>
        <time>2018-09-04T08:21:12Z</time>
      </trkpt>
      <trkpt lat="45.93967" lon="4.80254">
        <ele>202</ele>
        <time>2018-09-04T08:21:13Z</time>
      </trkpt>
      <trkpt lat="45.9397" lon="4.80264">
        <ele>202</ele>
        <time>2018-09-04T08:21:15Z</time>
      </trkpt>
      <trkpt lat="45.93972" lon="4.8027">
        <ele>202</ele>
        <time>2018-09-04T08:21:16Z</time>
      </trkpt>
      <trkpt lat="45.93975" lon="4.80282">
        <ele>203</ele>
        <time>2018-09-04T08:21:18Z</time>
      </trkpt>
      <trkpt lat="45.93976" lon="4.80288">
        <ele>203</ele>
        <time>2018-09-04T08:21:19Z</time>
      </trkpt>
      <trkpt lat="45.9398" lon="4.80299">
        <ele>203</ele>
        <time>2018-09-04T08:21:21Z</time>
      </trkpt>
      <trkpt lat="45.93981" lon="4.80304">
        <ele>203</ele>
        <time>2018-09-04T08:21:22Z</time>
      </trkpt>
      <trkpt lat="45.93985" lon="4.80313">
        <ele>203</ele>
        <time>2018-09-04T08:21:24Z</time>
      </trkpt>
      <trkpt lat="45.93987" lon="4.80319">
        <ele>204</ele>
        <time>2018-09-04T08:21:25Z</time>
      </trkpt>
      <trkpt lat="45.9399" lon="4.80329">
        <ele>204</ele>
        <time>2018-09-04T08:21:28Z</time>
      </trkpt>
      <trkpt lat="45.93991" lon="4.80333">
        <ele>205</ele>
        <time>2018-09-04T08:21:29Z</time>
      </trkpt>
      <trkpt lat="45.93992" lon="4.80337">
        <ele>206</ele>
        <time>2018-09-04T08:21:30Z</time>
      </trkpt>
      <trkpt lat="45.93995" lon="4.80348">
        <ele>206</ele>
        <time>2018-09-04T08:21:31Z</time>
      </trkpt>
      <trkpt lat="45.93998" lon="4.80357">
        <ele>207</ele>
        <time>2018-09-04T08:21:34Z</time>
      </trkpt>
      <trkpt lat="45.93999" lon="4.80361">
        <ele>207</ele>
        <time>2018-09-04T08:21:35Z</time>
      </trkpt>
      <trkpt lat="45.94003" lon="4.80372">
        <ele>216</ele>
        <time>2018-09-04T08:21:38Z</time>
      </trkpt>
      <trkpt lat="45.94004" lon="4.80376">
        <ele>216</ele>
        <time>2018-09-04T08:21:39Z</time>
      </trkpt>
      <trkpt lat="45.94008" lon="4.80387">
        <ele>217</ele>
        <time>2018-09-04T08:21:42Z</time>
      </trkpt>
      <trkpt lat="45.94009" lon="4.8039">
        <ele>217</ele>
        <time>2018-09-04T08:21:43Z</time>
      </trkpt>
      <trkpt lat="45.94013" lon="4.80402">
        <ele>217</ele>
        <time>2018-09-04T08:21:46Z</time>
      </trkpt>
      <trkpt lat="45.94015" lon="4.80406">
        <ele>218</ele>
        <time>2018-09-04T08:21:47Z</time>
      </trkpt>
      <trkpt lat="45.94018" lon="4.80417">
        <ele>221</ele>
        <time>2018-09-04T08:21:50Z</time>
      </trkpt>
      <trkpt lat="45.94018" lon="4.80421">
        <ele>221</ele>
        <time>2018-09-04T08:21:51Z</time>
      </trkpt>
      <trkpt lat="45.9402" lon="4.80431">
        <ele>222</ele>
        <time>2018-09-04T08:21:54Z</time>
      </trkpt>
      <trkpt lat="45.9402" lon="4.80435">
        <ele>222</ele>
        <time>2018-09-04T08:21:55Z</time>
      </trkpt>
      <trkpt lat="45.94021" lon="4.80445">
        <ele>223</ele>
        <time>2018-09-04T08:21:58Z</time>
      </trkpt>
      <trkpt lat="45.94021" lon="4.80448">
        <ele>223</ele>
        <time>2018-09-04T08:21:59Z</time>
      </trkpt>
      <trkpt lat="45.94021" lon="4.80459">
        <ele>223</ele>
        <time>2018-09-04T08:22:02Z</time>
      </trkpt>
      <trkpt lat="45.94021" lon="4.80463">
        <ele>223</ele>
        <time>2018-09-04T08:22:03Z</time>
      </trkpt>
      <trkpt lat="45.94021" lon="4.80473">
        <ele>223</ele>
        <time>2018-09-04T08:22:06Z</time>
      </trkpt>
      <trkpt lat="45.94021" lon="4.80477">
        <ele>223</ele>
        <time>2018-09-04T08:22:07Z</time>
      </trkpt>
      <trkpt lat="45.94021" lon="4.80488">
        <ele>223</ele>
        <time>2018-09-04T08:22:10Z</time>
      </trkpt>
      <trkpt lat="45.94021" lon="4.80492">
        <ele>223</ele>
        <time>2018-09-04T08:22:11Z</time>
      </trkpt>
      <trkpt lat="45.94022" lon="4.80503">
        <ele>224</ele>
        <time>2018-09-04T08:22:14Z</time>
      </trkpt>
      <trkpt lat="45.94023" lon="4.80507">
        <ele>224</ele>
        <time>2018-09-04T08:22:15Z</time>
      </trkpt>
      <trkpt lat="45.94023" lon="4.80518">
        <ele>224</ele>
        <time>2018-09-04T08:22:18Z</time>
      </trkpt>
      <trkpt lat="45.94023" lon="4.80522">
        <ele>225</ele>
        <time>2018-09-04T08:22:19Z</time>
      </trkpt>
      <trkpt lat="45.94023" lon="4.80526">
        <ele>225</ele>
        <time>2018-09-04T08:22:20Z</time>
      </trkpt>
      <trkpt lat="45.94024" lon="4.80539">
        <ele>225</ele>
        <time>2018-09-04T08:22:21Z</time>
      </trkpt>
      <trkpt lat="45.94026" lon="4.80549">
        <ele>225</ele>
        <time>2018-09-04T08:22:25Z</time>
      </trkpt>
      <trkpt lat="45.94026" lon="4.80552">
        <ele>225</ele>
        <time>2018-09-04T08:22:26Z</time>
      </trkpt>
      <trkpt lat="45.94025" lon="4.80564">
        <ele>225</ele>
        <time>2018-09-04T08:22:30Z</time>
      </trkpt>
      <trkpt lat="45.94025" lon="4.80567">
        <ele>224</ele>
        <time>2018-09-04T08:22:31Z</time>
      </trkpt>
      <trkpt lat="45.94024" lon="4.80579">
        <ele>224</ele>
        <time>2018-09-04T08:22:35Z</time>
      </trkpt>
      <trkpt lat="45.94024" lon="4.80583">
        <ele>224</ele>
        <time>2018-09-04T08:22:36Z</time>
      </trkpt>
      <trkpt lat="45.94025" lon="4.80593">
        <ele>224</ele>
        <time>2018-09-04T08:22:39Z</time>
      </trkpt>
      <trkpt lat="45.94026" lon="4.80597">
        <ele>224</ele>
        <time>2018-09-04T08:22:40Z</time>
      </trkpt>
      <trkpt lat="45.94028" lon="4.80608">
        <ele>225</ele>
        <time>2018-09-04T08:22:44Z</time>
      </trkpt>
      <trkpt lat="45.94028" lon="4.80612">
        <ele>225</ele>
        <time>2018-09-04T08:22:45Z</time>
      </trkpt>
      <trkpt lat="45.9403" lon="4.80622">
        <ele>225</ele>
        <time>2018-09-04T08:22:48Z</time>
      </trkpt>
      <trkpt lat="45.9403" lon="4.80626">
        <ele>225</ele>
        <time>2018-09-04T08:22:49Z</time>
      </trkpt>
      <trkpt lat="45.94031" lon="4.80637">
        <ele>225</ele>
        <time>2018-09-04T08:22:52Z</time>
      </trkpt>
      <trkpt lat="45.94032" lon="4.80641">
        <ele>225</ele>
        <time>2018-09-04T08:22:53Z</time>
      </trkpt>
      <trkpt lat="45.94032" lon="4.8065">
        <ele>225</ele>
        <time>2018-09-04T08:22:55Z</time>
      </trkpt>
      <trkpt lat="45.94033" lon="4.80654">
        <ele>225</ele>
        <time>2018-09-04T08:22:56Z</time>
      </trkpt>
      <trkpt lat="45.94033" lon="4.80662">
        <ele>225</ele>
        <time>2018-09-04T08:22:58Z</time>
      </trkpt>
      <trkpt lat="45.94033" lon="4.80673">
        <ele>225</ele>
        <time>2018-09-04T08:22:59Z</time>
      </trkpt>
      <trkpt lat="45.94035" lon="4.80684">
        <ele>225</ele>
        <time>2018-09-04T08:23:03Z</time>
      </trkpt>
      <trkpt lat="45.94035" lon="4.80687">
        <ele>226</ele>
        <time>2018-09-04T08:23:04Z</time>
      </trkpt>
      <trkpt lat="45.94035" lon="4.80699">
        <ele>226</ele>
        <time>2018-09-04T08:23:08Z</time>
      </trkpt>
      <trkpt lat="45.94035" lon="4.80702">
        <ele>226</ele>
        <time>2018-09-04T08:23:09Z</time>
      </trkpt>
      <trkpt lat="45.94035" lon="4.80713">
        <ele>226</ele>
        <time>2018-09-04T08:23:12Z</time>
      </trkpt>
      <trkpt lat="45.94036" lon="4.80716">
        <ele>226</ele>
        <time>2018-09-04T08:23:13Z</time>
      </trkpt>
      <trkpt lat="45.94038" lon="4.80727">
        <ele>226</ele>
        <time>2018-09-04T08:23:16Z</time>
      </trkpt>
      <trkpt lat="45.94038" lon="4.8073">
        <ele>226</ele>
        <time>2018-09-04T08:23:17Z</time>
      </trkpt>
      <trkpt lat="45.9404" lon="4.80742">
        <ele>227</ele>
        <time>2018-09-04T08:23:20Z</time>
      </trkpt>
      <trkpt lat="45.94041" lon="4.80746">
        <ele>227</ele>
        <time>2018-09-04T08:23:21Z</time>
      </trkpt>
      <trkpt lat="45.94043" lon="4.80757">
        <ele>228</ele>
        <time>2018-09-04T08:23:24Z</time>
      </trkpt>
      <trkpt lat="45.94044" lon="4.8076">
        <ele>228</ele>
        <time>2018-09-04T08:23:25Z</time>
      </trkpt>
      <trkpt lat="45.94045" lon="4.80771">
        <ele>228</ele>
        <time>2018-09-04T08:23:28Z</time>
      </trkpt>
      <trkpt lat="45.94046" lon="4.80774">
        <ele>228</ele>
        <time>2018-09-04T08:23:29Z</time>
      </trkpt>
      <trkpt lat="45.94048" lon="4.80784">
        <ele>229</ele>
        <time>2018-09-04T08:23:32Z</time>
      </trkpt>
      <trkpt lat="45.94049" lon="4.80788">
        <ele>229</ele>
        <time>2018-09-04T08:23:33Z</time>
      </trkpt>
      <trkpt lat="45.9405" lon="4.80799">
        <ele>229</ele>
        <time>2018-09-04T08:23:36Z</time>
      </trkpt>
      <trkpt lat="45.94051" lon="4.80803">
        <ele>229</ele>
        <time>2018-09-04T08:23:37Z</time>
      </trkpt>
      <trkpt lat="45.94053" lon="4.80815">
        <ele>230</ele>
        <time>2018-09-04T08:23:40Z</time>
      </trkpt>
      <trkpt lat="45.94053" lon="4.80819">
        <ele>230</ele>
        <time>2018-09-04T08:23:41Z</time>
      </trkpt>
      <trkpt lat="45.94055" lon="4.80831">
        <ele>231</ele>
        <time>2018-09-04T08:23:44Z</time>
      </trkpt>
      <trkpt lat="45.94056" lon="4.80834">
        <ele>231</ele>
        <time>2018-09-04T08:23:45Z</time>
      </trkpt>
      <trkpt lat="45.94057" lon="4.80846">
        <ele>231</ele>
        <time>2018-09-04T08:23:48Z</time>
      </trkpt>
      <trkpt lat="45.94058" lon="4.8085">
        <ele>231</ele>
        <time>2018-09-04T08:23:49Z</time>
      </trkpt>
      <trkpt lat="45.94059" lon="4.8086">
        <ele>231</ele>
        <time>2018-09-04T08:23:52Z</time>
      </trkpt>
      <trkpt lat="45.94059" lon="4.80863">
        <ele>231</ele>
        <time>2018-09-04T08:23:53Z</time>
      </trkpt>
      <trkpt lat="45.94061" lon="4.80873">
        <ele>231</ele>
        <time>2018-09-04T08:23:56Z</time>
      </trkpt>
      <trkpt lat="45.94061" lon="4.80876">
        <ele>231</ele>
        <time>2018-09-04T08:23:57Z</time>
      </trkpt>
      <trkpt lat="45.94062" lon="4.80887">
        <ele>231</ele>
        <time>2018-09-04T08:24:00Z</time>
      </trkpt>
      <trkpt lat="45.94063" lon="4.80891">
        <ele>231</ele>
        <time>2018-09-04T08:24:01Z</time>
      </trkpt>
      <trkpt lat="45.94065" lon="4.80901">
        <ele>232</ele>
        <time>2018-09-04T08:24:04Z</time>
      </trkpt>
      <trkpt lat="45.94065" lon="4.80904">
        <ele>233</ele>
        <time>2018-09-04T08:24:05Z</time>
      </trkpt>
      <trkpt lat="45.94068" lon="4.80916">
        <ele>234</ele>
        <time>2018-09-04T08:24:09Z</time>
      </trkpt>
      <trkpt lat="45.94068" lon="4.80919">
        <ele>234</ele>
        <time>2018-09-04T08:24:10Z</time>
      </trkpt>
      <trkpt lat="45.94068" lon="4.80929">
        <ele>234</ele>
        <time>2018-09-04T08:24:13Z</time>
      </trkpt>
      <trkpt lat="45.94068" lon="4.80932">
        <ele>233</ele>
        <time>2018-09-04T08:24:14Z</time>
      </trkpt>
      <trkpt lat="45.94069" lon="4.80942">
        <ele>233</ele>
        <time>2018-09-04T08:24:17Z</time>
      </trkpt>
      <trkpt lat="45.94069" lon="4.80946">
        <ele>233</ele>
        <time>2018-09-04T08:24:18Z</time>
      </trkpt>
      <trkpt lat="45.9407" lon="4.80956">
        <ele>232</ele>
        <time>2018-09-04T08:24:21Z</time>
      </trkpt>
      <trkpt lat="45.9407" lon="4.8096">
        <ele>233</ele>
        <time>2018-09-04T08:24:22Z</time>
      </trkpt>
      <trkpt lat="45.94071" lon="4.8097">
        <ele>233</ele>
        <time>2018-09-04T08:24:25Z</time>
      </trkpt>
      <trkpt lat="45.94072" lon="4.80973">
        <ele>233</ele>
        <time>2018-09-04T08:24:26Z</time>
      </trkpt>
      <trkpt lat="45.94073" lon="4.80983">
        <ele>235</ele>
        <time>2018-09-04T08:24:29Z</time>
      </trkpt>
      <trkpt lat="45.94074" lon="4.80987">
        <ele>235</ele>
        <time>2018-09-04T08:24:30Z</time>
      </trkpt>
      <trkpt lat="45.94075" lon="4.80997">
        <ele>237</ele>
        <time>2018-09-04T08:24:33Z</time>
      </trkpt>
      <trkpt lat="45.94075" lon="4.81">
        <ele>237</ele>
        <time>2018-09-04T08:24:34Z</time>
      </trkpt>
      <trkpt lat="45.94076" lon="4.81011">
        <ele>236</ele>
        <time>2018-09-04T08:24:37Z</time>
      </trkpt>
      <trkpt lat="45.94077" lon="4.81015">
        <ele>235</ele>
        <time>2018-09-04T08:24:38Z</time>
      </trkpt>
      <trkpt lat="45.94079" lon="4.81027">
        <ele>234</ele>
        <time>2018-09-04T08:24:41Z</time>
      </trkpt>
      <trkpt lat="45.9408" lon="4.81031">
        <ele>234</ele>
        <time>2018-09-04T08:24:42Z</time>
      </trkpt>
      <trkpt lat="45.94084" lon="4.81042">
        <ele>243</ele>
        <time>2018-09-04T08:24:45Z</time>
      </trkpt>
      <trkpt lat="45.94085" lon="4.81046">
        <ele>243</ele>
        <time>2018-09-04T08:24:46Z</time>
      </trkpt>
      <trkpt lat="45.94089" lon="4.81055">
        <ele>243</ele>
        <time>2018-09-04T08:24:49Z</time>
      </trkpt>
      <trkpt lat="45.9409" lon="4.81058">
        <ele>243</ele>
        <time>2018-09-04T08:24:50Z</time>
      </trkpt>
      <trkpt lat="45.94094" lon="4.81067">
        <ele>242</ele>
        <time>2018-09-04T08:24:53Z</time>
      </trkpt>
      <trkpt lat="45.94095" lon="4.8107">
        <ele>242</ele>
        <time>2018-09-04T08:24:54Z</time>
      </trkpt>
      <trkpt lat="45.941" lon="4.81078">
        <ele>242</ele>
        <time>2018-09-04T08:24:57Z</time>
      </trkpt>
      <trkpt lat="45.94101" lon="4.81081">
        <ele>242</ele>
        <time>2018-09-04T08:24:58Z</time>
      </trkpt>
      <trkpt lat="45.94107" lon="4.8109">
        <ele>241</ele>
        <time>2018-09-04T08:25:01Z</time>
      </trkpt>
      <trkpt lat="45.94109" lon="4.81093">
        <ele>242</ele>
        <time>2018-09-04T08:25:02Z</time>
      </trkpt>
      <trkpt lat="45.94113" lon="4.81101">
        <ele>242</ele>
        <time>2018-09-04T08:25:05Z</time>
      </trkpt>
      <trkpt lat="45.94115" lon="4.81104">
        <ele>243</ele>
        <time>2018-09-04T08:25:06Z</time>
      </trkpt>
      <trkpt lat="45.9412" lon="4.81114">
        <ele>243</ele>
        <time>2018-09-04T08:25:09Z</time>
      </trkpt>
      <trkpt lat="45.94121" lon="4.81117">
        <ele>243</ele>
        <time>2018-09-04T08:25:10Z</time>
      </trkpt>
      <trkpt lat="45.94126" lon="4.81124">
        <ele>243</ele>
        <time>2018-09-04T08:25:13Z</time>
      </trkpt>
      <trkpt lat="45.94128" lon="4.81127">
        <ele>243</ele>
        <time>2018-09-04T08:25:14Z</time>
      </trkpt>
      <trkpt lat="45.94132" lon="4.81135">
        <ele>244</ele>
        <time>2018-09-04T08:25:17Z</time>
      </trkpt>
      <trkpt lat="45.94134" lon="4.81138">
        <ele>244</ele>
        <time>2018-09-04T08:25:18Z</time>
      </trkpt>
      <trkpt lat="45.94139" lon="4.81147">
        <ele>244</ele>
        <time>2018-09-04T08:25:21Z</time>
      </trkpt>
      <trkpt lat="45.9414" lon="4.8115">
        <ele>244</ele>
        <time>2018-09-04T08:25:22Z</time>
      </trkpt>
      <trkpt lat="45.94145" lon="4.8116">
        <ele>245</ele>
        <time>2018-09-04T08:25:25Z</time>
      </trkpt>
      <trkpt lat="45.94147" lon="4.81164">
        <ele>245</ele>
        <time>2018-09-04T08:25:26Z</time>
      </trkpt>
      <trkpt lat="45.9415" lon="4.81172">
        <ele>245</ele>
        <time>2018-09-04T08:25:28Z</time>
      </trkpt>
      <trkpt lat="45.94151" lon="4.81176">
        <ele>245</ele>
        <time>2018-09-04T08:25:29Z</time>
      </trkpt>
      <trkpt lat="45.94154" lon="4.81185">
        <ele>245</ele>
        <time>2018-09-04T08:25:31Z</time>
      </trkpt>
      <trkpt lat="45.94155" lon="4.81189">
        <ele>245</ele>
        <time>2018-09-04T08:25:32Z</time>
      </trkpt>
      <trkpt lat="45.94159" lon="4.812">
        <ele>245</ele>
        <time>2018-09-04T08:25:35Z</time>
      </trkpt>
      <trkpt lat="45.9416" lon="4.81203">
        <ele>245</ele>
        <time>2018-09-04T08:25:36Z</time>
      </trkpt>
      <trkpt lat="45.94163" lon="4.81214">
        <ele>245</ele>
        <time>2018-09-04T08:25:39Z</time>
      </trkpt>
      <trkpt lat="45.94164" lon="4.81217">
        <ele>245</ele>
        <time>2018-09-04T08:25:40Z</time>
      </trkpt>
      <trkpt lat="45.94166" lon="4.81227">
        <ele>246</ele>
        <time>2018-09-04T08:25:43Z</time>
      </trkpt>
      <trkpt lat="45.94166" lon="4.81231">
        <ele>246</ele>
        <time>2018-09-04T08:25:44Z</time>
      </trkpt>
      <trkpt lat="45.94168" lon="4.81241">
        <ele>252</ele>
        <time>2018-09-04T08:25:47Z</time>
      </trkpt>
      <trkpt lat="45.94169" lon="4.81244">
        <ele>251</ele>
        <time>2018-09-04T08:25:48Z</time>
      </trkpt>
      <trkpt lat="45.9417" lon="4.81256">
        <ele>252</ele>
        <time>2018-09-04T08:25:52Z</time>
      </trkpt>
      <trkpt lat="45.9417" lon="4.81259">
        <ele>252</ele>
        <time>2018-09-04T08:25:53Z</time>
      </trkpt>
      <trkpt lat="45.94169" lon="4.8127">
        <ele>254</ele>
        <time>2018-09-04T08:25:56Z</time>
      </trkpt>
      <trkpt lat="45.94169" lon="4.81273">
        <ele>254</ele>
        <time>2018-09-04T08:25:57Z</time>
      </trkpt>
      <trkpt lat="45.94168" lon="4.81284">
        <ele>255</ele>
        <time>2018-09-04T08:26:00Z</time>
      </trkpt>
      <trkpt lat="45.94168" lon="4.81287">
        <ele>255</ele>
        <time>2018-09-04T08:26:01Z</time>
      </trkpt>
      <trkpt lat="45.94169" lon="4.81298">
        <ele>255</ele>
        <time>2018-09-04T08:26:04Z</time>
      </trkpt>
      <trkpt lat="45.94169" lon="4.81301">
        <ele>255</ele>
        <time>2018-09-04T08:26:05Z</time>
      </trkpt>
      <trkpt lat="45.94168" lon="4.81313">
        <ele>255</ele>
        <time>2018-09-04T08:26:09Z</time>
      </trkpt>
      <trkpt lat="45.94168" lon="4.81317">
        <ele>255</ele>
        <time>2018-09-04T08:26:10Z</time>
      </trkpt>
      <trkpt lat="45.94169" lon="4.81327">
        <ele>253</ele>
        <time>2018-09-04T08:26:13Z</time>
      </trkpt>
      <trkpt lat="45.9417" lon="4.8133">
        <ele>253</ele>
        <time>2018-09-04T08:26:14Z</time>
      </trkpt>
      <trkpt lat="45.94172" lon="4.81342">
        <ele>255</ele>
        <time>2018-09-04T08:26:17Z</time>
      </trkpt>
      <trkpt lat="45.94172" lon="4.81346">
        <ele>255</ele>
        <time>2018-09-04T08:26:18Z</time>
      </trkpt>
      <trkpt lat="45.94172" lon="4.81359">
        <ele>257</ele>
        <time>2018-09-04T08:26:22Z</time>
      </trkpt>
      <trkpt lat="45.94171" lon="4.81363">
        <ele>257</ele>
        <time>2018-09-04T08:26:23Z</time>
      </trkpt>
      <trkpt lat="45.94171" lon="4.81374">
        <ele>258</ele>
        <time>2018-09-04T08:26:26Z</time>
      </trkpt>
      <trkpt lat="45.94171" lon="4.81377">
        <ele>258</ele>
        <time>2018-09-04T08:26:27Z</time>
      </trkpt>
      <trkpt lat="45.94171" lon="4.81389">
        <ele>258</ele>
        <time>2018-09-04T08:26:31Z</time>
      </trkpt>
      <trkpt lat="45.94171" lon="4.81392">
        <ele>258</ele>
        <time>2018-09-04T08:26:32Z</time>
      </trkpt>
      <trkpt lat="45.94169" lon="4.81403">
        <ele>257</ele>
        <time>2018-09-04T08:26:35Z</time>
      </trkpt>
      <trkpt lat="45.94169" lon="4.81408">
        <ele>257</ele>
        <time>2018-09-04T08:26:36Z</time>
      </trkpt>
      <trkpt lat="45.94167" lon="4.81417">
        <ele>256</ele>
        <time>2018-09-04T08:26:38Z</time>
      </trkpt>
      <trkpt lat="45.94166" lon="4.81421">
        <ele>256</ele>
        <time>2018-09-04T08:26:39Z</time>
      </trkpt>
      <trkpt lat="45.94165" lon="4.81432">
        <ele>256</ele>
        <time>2018-09-04T08:26:42Z</time>
      </trkpt>
      <trkpt lat="45.94164" lon="4.81436">
        <ele>256</ele>
        <time>2018-09-04T08:26:43Z</time>
      </trkpt>
      <trkpt lat="45.94163" lon="4.81446">
        <ele>257</ele>
        <time>2018-09-04T08:26:46Z</time>
      </trkpt>
      <trkpt lat="45.94162" lon="4.8145">
        <ele>257</ele>
        <time>2018-09-04T08:26:47Z</time>
      </trkpt>
      <trkpt lat="45.94162" lon="4.81461">
        <ele>257</ele>
        <time>2018-09-04T08:26:50Z</time>
      </trkpt>
      <trkpt lat="45.94162" lon="4.81464">
        <ele>258</ele>
        <time>2018-09-04T08:26:51Z</time>
      </trkpt>
      <trkpt lat="45.94162" lon="4.81476">
        <ele>259</ele>
        <time>2018-09-04T08:26:54Z</time>
      </trkpt>
      <trkpt lat="45.94162" lon="4.81479">
        <ele>259</ele>
        <time>2018-09-04T08:26:55Z</time>
      </trkpt>
      <trkpt lat="45.9416" lon="4.8149">
        <ele>260</ele>
        <time>2018-09-04T08:26:58Z</time>
      </trkpt>
      <trkpt lat="45.9416" lon="4.81495">
        <ele>261</ele>
        <time>2018-09-04T08:26:59Z</time>
      </trkpt>
      <trkpt lat="45.94158" lon="4.81506">
        <ele>263</ele>
        <time>2018-09-04T08:27:03Z</time>
      </trkpt>
      <trkpt lat="45.94158" lon="4.81509">
        <ele>263</ele>
        <time>2018-09-04T08:27:04Z</time>
      </trkpt>
      <trkpt lat="45.94157" lon="4.81518">
        <ele>263</ele>
        <time>2018-09-04T08:27:07Z</time>
      </trkpt>
      <trkpt lat="45.94157" lon="4.81522">
        <ele>263</ele>
        <time>2018-09-04T08:27:08Z</time>
      </trkpt>
      <trkpt lat="45.94156" lon="4.81534">
        <ele>264</ele>
        <time>2018-09-04T08:27:11Z</time>
      </trkpt>
      <trkpt lat="45.94155" lon="4.81537">
        <ele>264</ele>
        <time>2018-09-04T08:27:12Z</time>
      </trkpt>
      <trkpt lat="45.94155" lon="4.8155">
        <ele>264</ele>
        <time>2018-09-04T08:27:15Z</time>
      </trkpt>
      <trkpt lat="45.94155" lon="4.81554">
        <ele>264</ele>
        <time>2018-09-04T08:27:16Z</time>
      </trkpt>
      <trkpt lat="45.94155" lon="4.81565">
        <ele>265</ele>
        <time>2018-09-04T08:27:19Z</time>
      </trkpt>
      <trkpt lat="45.94155" lon="4.81569">
        <ele>265</ele>
        <time>2018-09-04T08:27:20Z</time>
      </trkpt>
      <trkpt lat="45.94156" lon="4.81579">
        <ele>266</ele>
        <time>2018-09-04T08:27:23Z</time>
      </trkpt>
      <trkpt lat="45.94156" lon="4.81583">
        <ele>266</ele>
        <time>2018-09-04T08:27:24Z</time>
      </trkpt>
      <trkpt lat="45.94157" lon="4.81595">
        <ele>267</ele>
        <time>2018-09-04T08:27:27Z</time>
      </trkpt>
      <trkpt lat="45.94158" lon="4.81598">
        <ele>267</ele>
        <time>2018-09-04T08:27:28Z</time>
      </trkpt>
      <trkpt lat="45.9416" lon="4.8161">
        <ele>267</ele>
        <time>2018-09-04T08:27:31Z</time>
      </trkpt>
      <trkpt lat="45.94161" lon="4.81614">
        <ele>267</ele>
        <time>2018-09-04T08:27:32Z</time>
      </trkpt>
      <trkpt lat="45.94162" lon="4.81623">
        <ele>268</ele>
        <time>2018-09-04T08:27:34Z</time>
      </trkpt>
      <trkpt lat="45.94163" lon="4.81626">
        <ele>268</ele>
        <time>2018-09-04T08:27:35Z</time>
      </trkpt>
      <trkpt lat="45.94164" lon="4.81635">
        <ele>268</ele>
        <time>2018-09-04T08:27:37Z</time>
      </trkpt>
      <trkpt lat="45.94165" lon="4.81639">
        <ele>268</ele>
        <time>2018-09-04T08:27:38Z</time>
      </trkpt>
      <trkpt lat="45.94167" lon="4.81647">
        <ele>268</ele>
        <time>2018-09-04T08:27:40Z</time>
      </trkpt>
      <trkpt lat="45.94168" lon="4.81652">
        <ele>268</ele>
        <time>2018-09-04T08:27:41Z</time>
      </trkpt>
      <trkpt lat="45.9417" lon="4.8166">
        <ele>268</ele>
        <time>2018-09-04T08:27:43Z</time>
      </trkpt>
      <trkpt lat="45.94171" lon="4.81665">
        <ele>269</ele>
        <time>2018-09-04T08:27:44Z</time>
      </trkpt>
      <trkpt lat="45.94173" lon="4.81673">
        <ele>268</ele>
        <time>2018-09-04T08:27:46Z</time>
      </trkpt>
      <trkpt lat="45.94174" lon="4.81678">
        <ele>268</ele>
        <time>2018-09-04T08:27:47Z</time>
      </trkpt>
      <trkpt lat="45.94177" lon="4.81688">
        <ele>267</ele>
        <time>2018-09-04T08:27:49Z</time>
      </trkpt>
      <trkpt lat="45.94178" lon="4.81693">
        <ele>267</ele>
        <time>2018-09-04T08:27:50Z</time>
      </trkpt>
      <trkpt lat="45.94182" lon="4.81704">
        <ele>267</ele>
        <time>2018-09-04T08:27:51Z</time>
      </trkpt>
      <trkpt lat="45.94185" lon="4.81715">
        <ele>267</ele>
        <time>2018-09-04T08:27:54Z</time>
      </trkpt>
      <trkpt lat="45.94186" lon="4.81724">
        <ele>267</ele>
        <time>2018-09-04T08:27:55Z</time>
      </trkpt>
      <trkpt lat="45.94186" lon="4.8173">
        <ele>267</ele>
        <time>2018-09-04T08:27:57Z</time>
      </trkpt>
      <trkpt lat="45.94186" lon="4.8174">
        <ele>267</ele>
        <time>2018-09-04T08:27:58Z</time>
      </trkpt>
      <trkpt lat="45.94189" lon="4.81749">
        <ele>267</ele>
        <time>2018-09-04T08:28:01Z</time>
      </trkpt>
      <trkpt lat="45.94193" lon="4.81757">
        <ele>266</ele>
        <time>2018-09-04T08:28:02Z</time>
      </trkpt>
      <trkpt lat="45.94196" lon="4.81767">
        <ele>266</ele>
        <time>2018-09-04T08:28:04Z</time>
      </trkpt>
      <trkpt lat="45.94198" lon="4.81773">
        <ele>266</ele>
        <time>2018-09-04T08:28:05Z</time>
      </trkpt>
      <trkpt lat="45.94199" lon="4.81785">
        <ele>266</ele>
        <time>2018-09-04T08:28:07Z</time>
      </trkpt>
      <trkpt lat="45.94199" lon="4.81787">
        <ele>266</ele>
        <time>2018-09-04T08:28:08Z</time>
      </trkpt>
      <trkpt lat="45.94199" lon="4.81794">
        <ele>266</ele>
        <time>2018-09-04T08:28:10Z</time>
      </trkpt>
      <trkpt lat="45.94199" lon="4.81804">
        <ele>266</ele>
        <time>2018-09-04T08:28:11Z</time>
      </trkpt>
      <trkpt lat="45.942" lon="4.81813">
        <ele>266</ele>
        <time>2018-09-04T08:28:13Z</time>
      </trkpt>
      <trkpt lat="45.94201" lon="4.81821">
        <ele>266</ele>
        <time>2018-09-04T08:28:14Z</time>
      </trkpt>
      <trkpt lat="45.94202" lon="4.81831">
        <ele>266</ele>
        <time>2018-09-04T08:28:16Z</time>
      </trkpt>
      <trkpt lat="45.94203" lon="4.81837">
        <ele>266</ele>
        <time>2018-09-04T08:28:17Z</time>
      </trkpt>
      <trkpt lat="45.94206" lon="4.81847">
        <ele>266</ele>
        <time>2018-09-04T08:28:20Z</time>
      </trkpt>
      <trkpt lat="45.94208" lon="4.81856">
        <ele>265</ele>
        <time>2018-09-04T08:28:21Z</time>
      </trkpt>
      <trkpt lat="45.94209" lon="4.81868">
        <ele>265</ele>
        <time>2018-09-04T08:28:23Z</time>
      </trkpt>
      <trkpt lat="45.9421" lon="4.81875">
        <ele>265</ele>
        <time>2018-09-04T08:28:24Z</time>
      </trkpt>
      <trkpt lat="45.94211" lon="4.81881">
        <ele>265</ele>
        <time>2018-09-04T08:28:25Z</time>
      </trkpt>
      <trkpt lat="45.94212" lon="4.81887">
        <ele>265</ele>
        <time>2018-09-04T08:28:26Z</time>
      </trkpt>
      <trkpt lat="45.94213" lon="4.81894">
        <ele>265</ele>
        <time>2018-09-04T08:28:27Z</time>
      </trkpt>
      <trkpt lat="45.94215" lon="4.819">
        <ele>265</ele>
        <time>2018-09-04T08:28:28Z</time>
      </trkpt>
      <trkpt lat="45.94217" lon="4.81912">
        <ele>265</ele>
        <time>2018-09-04T08:28:30Z</time>
      </trkpt>
      <trkpt lat="45.94218" lon="4.81918">
        <ele>264</ele>
        <time>2018-09-04T08:28:31Z</time>
      </trkpt>
      <trkpt lat="45.94221" lon="4.81929">
        <ele>264</ele>
        <time>2018-09-04T08:28:33Z</time>
      </trkpt>
      <trkpt lat="45.94222" lon="4.81934">
        <ele>264</ele>
        <time>2018-09-04T08:28:34Z</time>
      </trkpt>
      <trkpt lat="45.94224" lon="4.81943">
        <ele>264</ele>
        <time>2018-09-04T08:28:36Z</time>
      </trkpt>
      <trkpt lat="45.94225" lon="4.8195">
        <ele>264</ele>
        <time>2018-09-04T08:28:37Z</time>
      </trkpt>
      <trkpt lat="45.94226" lon="4.81957">
        <ele>264</ele>
        <time>2018-09-04T08:28:38Z</time>
      </trkpt>
      <trkpt lat="45.94228" lon="4.81963">
        <ele>264</ele>
        <time>2018-09-04T08:28:39Z</time>
      </trkpt>
      <trkpt lat="45.9423" lon="4.8197">
        <ele>264</ele>
        <time>2018-09-04T08:28:40Z</time>
      </trkpt>
      <trkpt lat="45.94235" lon="4.81978">
        <ele>263</ele>
        <time>2018-09-04T08:28:41Z</time>
      </trkpt>
      <trkpt lat="45.94235" lon="4.81984">
        <ele>263</ele>
        <time>2018-09-04T08:28:43Z</time>
      </trkpt>
      <trkpt lat="45.94237" lon="4.81996">
        <ele>263</ele>
        <time>2018-09-04T08:28:44Z</time>
      </trkpt>
      <trkpt lat="45.9424" lon="4.82008">
        <ele>263</ele>
        <time>2018-09-04T08:28:46Z</time>
      </trkpt>
      <trkpt lat="45.94242" lon="4.82016">
        <ele>263</ele>
        <time>2018-09-04T08:28:47Z</time>
      </trkpt>
      <trkpt lat="45.94242" lon="4.82029">
        <ele>263</ele>
        <time>2018-09-04T08:28:49Z</time>
      </trkpt>
      <trkpt lat="45.94241" lon="4.82035">
        <ele>263</ele>
        <time>2018-09-04T08:28:50Z</time>
      </trkpt>
      <trkpt lat="45.94241" lon="4.82043">
        <ele>263</ele>
        <time>2018-09-04T08:28:53Z</time>
      </trkpt>
      <trkpt lat="45.94242" lon="4.82054">
        <ele>263</ele>
        <time>2018-09-04T08:28:54Z</time>
      </trkpt>
      <trkpt lat="45.94241" lon="4.82061">
        <ele>263</ele>
        <time>2018-09-04T08:28:57Z</time>
      </trkpt>
      <trkpt lat="45.94241" lon="4.82072">
        <ele>263</ele>
        <time>2018-09-04T08:28:58Z</time>
      </trkpt>
      <trkpt lat="45.9424" lon="4.82083">
        <ele>263</ele>
        <time>2018-09-04T08:29:00Z</time>
      </trkpt>
      <trkpt lat="45.94243" lon="4.82093">
        <ele>263</ele>
        <time>2018-09-04T08:29:01Z</time>
      </trkpt>
      <trkpt lat="45.94248" lon="4.82104">
        <ele>263</ele>
        <time>2018-09-04T08:29:02Z</time>
      </trkpt>
      <trkpt lat="45.94252" lon="4.82112">
        <ele>263</ele>
        <time>2018-09-04T08:29:03Z</time>
      </trkpt>
      <trkpt lat="45.94254" lon="4.8212">
        <ele>263</ele>
        <time>2018-09-04T08:29:04Z</time>
      </trkpt>
      <trkpt lat="45.94256" lon="4.82128">
        <ele>263</ele>
        <time>2018-09-04T08:29:05Z</time>
      </trkpt>
      <trkpt lat="45.94259" lon="4.82137">
        <ele>263</ele>
        <time>2018-09-04T08:29:06Z</time>
      </trkpt>
      <trkpt lat="45.94261" lon="4.82145">
        <ele>263</ele>
        <time>2018-09-04T08:29:07Z</time>
      </trkpt>
      <trkpt lat="45.94262" lon="4.82153">
        <ele>263</ele>
        <time>2018-09-04T08:29:08Z</time>
      </trkpt>
      <trkpt lat="45.94264" lon="4.8216">
        <ele>263</ele>
        <time>2018-09-04T08:29:09Z</time>
      </trkpt>
      <trkpt lat="45.94265" lon="4.82167">
        <ele>263</ele>
        <time>2018-09-04T08:29:10Z</time>
      </trkpt>
      <trkpt lat="45.94267" lon="4.82174">
        <ele>263</ele>
        <time>2018-09-04T08:29:11Z</time>
      </trkpt>
      <trkpt lat="45.94269" lon="4.82179">
        <ele>264</ele>
        <time>2018-09-04T08:29:12Z</time>
      </trkpt>
      <trkpt lat="45.9427" lon="4.82186">
        <ele>264</ele>
        <time>2018-09-04T08:29:13Z</time>
      </trkpt>
      <trkpt lat="45.94271" lon="4.82192">
        <ele>264</ele>
        <time>2018-09-04T08:29:14Z</time>
      </trkpt>
      <trkpt lat="45.94272" lon="4.82199">
        <ele>264</ele>
        <time>2018-09-04T08:29:15Z</time>
      </trkpt>
      <trkpt lat="45.94274" lon="4.82205">
        <ele>264</ele>
        <time>2018-09-04T08:29:16Z</time>
      </trkpt>
      <trkpt lat="45.94278" lon="4.82213">
        <ele>264</ele>
        <time>2018-09-04T08:29:17Z</time>
      </trkpt>
      <trkpt lat="45.9428" lon="4.82221">
        <ele>264</ele>
        <time>2018-09-04T08:29:18Z</time>
      </trkpt>
      <trkpt lat="45.94282" lon="4.82228">
        <ele>264</ele>
        <time>2018-09-04T08:29:19Z</time>
      </trkpt>
      <trkpt lat="45.94283" lon="4.82235">
        <ele>264</ele>
        <time>2018-09-04T08:29:20Z</time>
      </trkpt>
      <trkpt lat="45.94283" lon="4.82242">
        <ele>264</ele>
        <time>2018-09-04T08:29:21Z</time>
      </trkpt>
      <trkpt lat="45.94285" lon="4.8225">
        <ele>264</ele>
        <time>2018-09-04T08:29:22Z</time>
      </trkpt>
      <trkpt lat="45.94284" lon="4.82257">
        <ele>265</ele>
        <time>2018-09-04T08:29:23Z</time>
      </trkpt>
      <trkpt lat="45.94285" lon="4.82265">
        <ele>265</ele>
        <time>2018-09-04T08:29:24Z</time>
      </trkpt>
      <trkpt lat="45.94285" lon="4.82273">
        <ele>265</ele>
        <time>2018-09-04T08:29:25Z</time>
      </trkpt>
      <trkpt lat="45.94285" lon="4.82281">
        <ele>265</ele>
        <time>2018-09-04T08:29:26Z</time>
      </trkpt>
      <trkpt lat="45.94285" lon="4.82288">
        <ele>265</ele>
        <time>2018-09-04T08:29:27Z</time>
      </trkpt>
      <trkpt lat="45.94285" lon="4.82295">
        <ele>265</ele>
        <time>2018-09-04T08:29:28Z</time>
      </trkpt>
      <trkpt lat="45.94285" lon="4.82302">
        <ele>265</ele>
        <time>2018-09-04T08:29:29Z</time>
      </trkpt>
      <trkpt lat="45.94286" lon="4.82308">
        <ele>265</ele>
        <time>2018-09-04T08:29:30Z</time>
      </trkpt>
      <trkpt lat="45.94286" lon="4.8232">
        <ele>265</ele>
        <time>2018-09-04T08:29:32Z</time>
      </trkpt>
      <trkpt lat="45.94285" lon="4.82326">
        <ele>265</ele>
        <time>2018-09-04T08:29:33Z</time>
      </trkpt>
      <trkpt lat="45.94285" lon="4.82337">
        <ele>264</ele>
        <time>2018-09-04T08:29:35Z</time>
      </trkpt>
      <trkpt lat="45.94286" lon="4.82343">
        <ele>264</ele>
        <time>2018-09-04T08:29:36Z</time>
      </trkpt>
      <trkpt lat="45.94286" lon="4.82356">
        <ele>264</ele>
        <time>2018-09-04T08:29:38Z</time>
      </trkpt>
      <trkpt lat="45.94287" lon="4.82361">
        <ele>264</ele>
        <time>2018-09-04T08:29:39Z</time>
      </trkpt>
      <trkpt lat="45.94287" lon="4.82372">
        <ele>264</ele>
        <time>2018-09-04T08:29:41Z</time>
      </trkpt>
      <trkpt lat="45.94288" lon="4.82377">
        <ele>264</ele>
        <time>2018-09-04T08:29:42Z</time>
      </trkpt>
      <trkpt lat="45.94289" lon="4.82388">
        <ele>264</ele>
        <time>2018-09-04T08:29:44Z</time>
      </trkpt>
      <trkpt lat="45.9429" lon="4.82394">
        <ele>264</ele>
        <time>2018-09-04T08:29:45Z</time>
      </trkpt>
      <trkpt lat="45.9429" lon="4.82405">
        <ele>264</ele>
        <time>2018-09-04T08:29:47Z</time>
      </trkpt>
      <trkpt lat="45.94291" lon="4.82411">
        <ele>264</ele>
        <time>2018-09-04T08:29:48Z</time>
      </trkpt>
      <trkpt lat="45.94292" lon="4.82421">
        <ele>264</ele>
        <time>2018-09-04T08:29:50Z</time>
      </trkpt>
      <trkpt lat="45.94292" lon="4.82427">
        <ele>264</ele>
        <time>2018-09-04T08:29:51Z</time>
      </trkpt>
      <trkpt lat="45.94293" lon="4.82437">
        <ele>264</ele>
        <time>2018-09-04T08:29:53Z</time>
      </trkpt>
      <trkpt lat="45.94293" lon="4.82443">
        <ele>264</ele>
        <time>2018-09-04T08:29:54Z</time>
      </trkpt>
      <trkpt lat="45.94293" lon="4.82454">
        <ele>264</ele>
        <time>2018-09-04T08:29:56Z</time>
      </trkpt>
      <trkpt lat="45.94292" lon="4.82459">
        <ele>264</ele>
        <time>2018-09-04T08:29:57Z</time>
      </trkpt>
      <trkpt lat="45.94293" lon="4.82466">
        <ele>264</ele>
        <time>2018-09-04T08:29:58Z</time>
      </trkpt>
      <trkpt lat="45.94293" lon="4.82474">
        <ele>264</ele>
        <time>2018-09-04T08:29:59Z</time>
      </trkpt>
      <trkpt lat="45.94292" lon="4.82482">
        <ele>264</ele>
        <time>2018-09-04T08:30:00Z</time>
      </trkpt>
      <trkpt lat="45.94293" lon="4.82489">
        <ele>264</ele>
        <time>2018-09-04T08:30:01Z</time>
      </trkpt>
      <trkpt lat="45.94293" lon="4.82496">
        <ele>264</ele>
        <time>2018-09-04T08:30:02Z</time>
      </trkpt>
      <trkpt lat="45.94293" lon="4.82503">
        <ele>264</ele>
        <time>2018-09-04T08:30:03Z</time>
      </trkpt>
      <trkpt lat="45.94293" lon="4.8251">
        <ele>264</ele>
        <time>2018-09-04T08:30:04Z</time>
      </trkpt>
      <trkpt lat="45.94293" lon="4.82517">
        <ele>264</ele>
        <time>2018-09-04T08:30:05Z</time>
      </trkpt>
      <trkpt lat="45.94293" lon="4.82527">
        <ele>264</ele>
        <time>2018-09-04T08:30:07Z</time>
      </trkpt>
      <trkpt lat="45.94294" lon="4.82533">
        <ele>264</ele>
        <time>2018-09-04T08:30:08Z</time>
      </trkpt>
      <trkpt lat="45.94294" lon="4.8254">
        <ele>264</ele>
        <time>2018-09-04T08:30:09Z</time>
      </trkpt>
      <trkpt lat="45.94294" lon="4.82546">
        <ele>264</ele>
        <time>2018-09-04T08:30:10Z</time>
      </trkpt>
      <trkpt lat="45.94295" lon="4.82554">
        <ele>264</ele>
        <time>2018-09-04T08:30:11Z</time>
      </trkpt>
      <trkpt lat="45.94295" lon="4.8256">
        <ele>264</ele>
        <time>2018-09-04T08:30:12Z</time>
      </trkpt>
      <trkpt lat="45.94295" lon="4.82566">
        <ele>264</ele>
        <time>2018-09-04T08:30:13Z</time>
      </trkpt>
      <trkpt lat="45.94294" lon="4.82573">
        <ele>264</ele>
        <time>2018-09-04T08:30:14Z</time>
      </trkpt>
      <trkpt lat="45.94294" lon="4.82581">
        <ele>264</ele>
        <time>2018-09-04T08:30:15Z</time>
      </trkpt>
      <trkpt lat="45.94293" lon="4.82587">
        <ele>265</ele>
        <time>2018-09-04T08:30:16Z</time>
      </trkpt>
      <trkpt lat="45.94295" lon="4.82593">
        <ele>265</ele>
        <time>2018-09-04T08:30:17Z</time>
      </trkpt>
      <trkpt lat="45.94296" lon="4.826">
        <ele>265</ele>
        <time>2018-09-04T08:30:18Z</time>
      </trkpt>
      <trkpt lat="45.94296" lon="4.82611">
        <ele>265</ele>
        <time>2018-09-04T08:30:20Z</time>
      </trkpt>
      <trkpt lat="45.94295" lon="4.82618">
        <ele>265</ele>
        <time>2018-09-04T08:30:21Z</time>
      </trkpt>
      <trkpt lat="45.94297" lon="4.8263">
        <ele>265</ele>
        <time>2018-09-04T08:30:23Z</time>
      </trkpt>
      <trkpt lat="45.94296" lon="4.82637">
        <ele>265</ele>
        <time>2018-09-04T08:30:24Z</time>
      </trkpt>
      <trkpt lat="45.94297" lon="4.82645">
        <ele>265</ele>
        <time>2018-09-04T08:30:25Z</time>
      </trkpt>
      <trkpt lat="45.94296" lon="4.82653">
        <ele>265</ele>
        <time>2018-09-04T08:30:26Z</time>
      </trkpt>
      <trkpt lat="45.94294" lon="4.82658">
        <ele>265</ele>
        <time>2018-09-04T08:30:27Z</time>
      </trkpt>
      <trkpt lat="45.94294" lon="4.82666">
        <ele>265</ele>
        <time>2018-09-04T08:30:28Z</time>
      </trkpt>
      <trkpt lat="45.94295" lon="4.82674">
        <ele>265</ele>
        <time>2018-09-04T08:30:29Z</time>
      </trkpt>
      <trkpt lat="45.94296" lon="4.8268">
        <ele>265</ele>
        <time>2018-09-04T08:30:30Z</time>
      </trkpt>
      <trkpt lat="45.94296" lon="4.82687">
        <ele>265</ele>
        <time>2018-09-04T08:30:31Z</time>
      </trkpt>
      <trkpt lat="45.94296" lon="4.82693">
        <ele>265</ele>
        <time>2018-09-04T08:30:32Z</time>
      </trkpt>
      <trkpt lat="45.94296" lon="4.827">
        <ele>265</ele>
        <time>2018-09-04T08:30:33Z</time>
      </trkpt>
      <trkpt lat="45.94295" lon="4.82707">
        <ele>265</ele>
        <time>2018-09-04T08:30:34Z</time>
      </trkpt>
      <trkpt lat="45.94295" lon="4.82714">
        <ele>265</ele>
        <time>2018-09-04T08:30:35Z</time>
      </trkpt>
      <trkpt lat="45.94294" lon="4.82722">
        <ele>265</ele>
        <time>2018-09-04T08:30:36Z</time>
      </trkpt>
      <trkpt lat="45.94295" lon="4.8273">
        <ele>265</ele>
        <time>2018-09-04T08:30:37Z</time>
      </trkpt>
      <trkpt lat="45.94295" lon="4.82737">
        <ele>265</ele>
        <time>2018-09-04T08:30:38Z</time>
      </trkpt>
      <trkpt lat="45.94295" lon="4.82744">
        <ele>265</ele>
        <time>2018-09-04T08:30:39Z</time>
      </trkpt>
      <trkpt lat="45.94295" lon="4.82751">
        <ele>265</ele>
        <time>2018-09-04T08:30:40Z</time>
      </trkpt>
      <trkpt lat="45.94294" lon="4.82758">
        <ele>265</ele>
        <time>2018-09-04T08:30:41Z</time>
      </trkpt>
      <trkpt lat="45.94294" lon="4.82765">
        <ele>265</ele>
        <time>2018-09-04T08:30:42Z</time>
      </trkpt>
      <trkpt lat="45.94294" lon="4.82771">
        <ele>265</ele>
        <time>2018-09-04T08:30:43Z</time>
      </trkpt>
      <trkpt lat="45.94294" lon="4.82778">
        <ele>265</ele>
        <time>2018-09-04T08:30:44Z</time>
      </trkpt>
      <trkpt lat="45.94294" lon="4.82784">
        <ele>265</ele>
        <time>2018-09-04T08:30:45Z</time>
      </trkpt>
      <trkpt lat="45.94292" lon="4.8279">
        <ele>265</ele>
        <time>2018-09-04T08:30:46Z</time>
      </trkpt>
      <trkpt lat="45.94293" lon="4.82798">
        <ele>265</ele>
        <time>2018-09-04T08:30:47Z</time>
      </trkpt>
      <trkpt lat="45.94294" lon="4.82805">
        <ele>265</ele>
        <time>2018-09-04T08:30:48Z</time>
      </trkpt>
      <trkpt lat="45.94295" lon="4.82812">
        <ele>265</ele>
        <time>2018-09-04T08:30:49Z</time>
      </trkpt>
      <trkpt lat="45.94295" lon="4.82819">
        <ele>265</ele>
        <time>2018-09-04T08:30:50Z</time>
      </trkpt>
      <trkpt lat="45.94295" lon="4.82831">
        <ele>265</ele>
        <time>2018-09-04T08:30:52Z</time>
      </trkpt>
      <trkpt lat="45.94295" lon="4.82836">
        <ele>265</ele>
        <time>2018-09-04T08:30:53Z</time>
      </trkpt>
      <trkpt lat="45.94293" lon="4.82849">
        <ele>265</ele>
        <time>2018-09-04T08:30:55Z</time>
      </trkpt>
      <trkpt lat="45.94293" lon="4.82855">
        <ele>265</ele>
        <time>2018-09-04T08:30:56Z</time>
      </trkpt>
      <trkpt lat="45.94292" lon="4.82863">
        <ele>265</ele>
        <time>2018-09-04T08:30:57Z</time>
      </trkpt>
      <trkpt lat="45.94291" lon="4.82869">
        <ele>265</ele>
        <time>2018-09-04T08:30:58Z</time>
      </trkpt>
      <trkpt lat="45.9429" lon="4.82882">
        <ele>265</ele>
        <time>2018-09-04T08:31:00Z</time>
      </trkpt>
      <trkpt lat="45.94289" lon="4.82888">
        <ele>265</ele>
        <time>2018-09-04T08:31:01Z</time>
      </trkpt>
      <trkpt lat="45.94289" lon="4.82899">
        <ele>265</ele>
        <time>2018-09-04T08:31:03Z</time>
      </trkpt>
      <trkpt lat="45.94289" lon="4.82901">
        <ele>265</ele>
        <time>2018-09-04T08:31:04Z</time>
      </trkpt>
      <trkpt lat="45.94289" lon="4.8291">
        <ele>265</ele>
        <time>2018-09-04T08:31:05Z</time>
      </trkpt>
      <trkpt lat="45.94288" lon="4.82916">
        <ele>265</ele>
        <time>2018-09-04T08:31:06Z</time>
      </trkpt>
      <trkpt lat="45.94287" lon="4.82928">
        <ele>265</ele>
        <time>2018-09-04T08:31:08Z</time>
      </trkpt>
      <trkpt lat="45.94286" lon="4.82935">
        <ele>265</ele>
        <time>2018-09-04T08:31:09Z</time>
      </trkpt>
      <trkpt lat="45.94285" lon="4.82942">
        <ele>265</ele>
        <time>2018-09-04T08:31:10Z</time>
      </trkpt>
      <trkpt lat="45.94286" lon="4.8295">
        <ele>265</ele>
        <time>2018-09-04T08:31:11Z</time>
      </trkpt>
      <trkpt lat="45.94287" lon="4.82956">
        <ele>265</ele>
        <time>2018-09-04T08:31:12Z</time>
      </trkpt>
      <trkpt lat="45.94287" lon="4.82964">
        <ele>265</ele>
        <time>2018-09-04T08:31:13Z</time>
      </trkpt>
      <trkpt lat="45.94288" lon="4.82971">
        <ele>265</ele>
        <time>2018-09-04T08:31:14Z</time>
      </trkpt>
      <trkpt lat="45.9429" lon="4.82978">
        <ele>265</ele>
        <time>2018-09-04T08:31:15Z</time>
      </trkpt>
      <trkpt lat="45.94291" lon="4.82985">
        <ele>265</ele>
        <time>2018-09-04T08:31:16Z</time>
      </trkpt>
      <trkpt lat="45.94292" lon="4.82991">
        <ele>265</ele>
        <time>2018-09-04T08:31:17Z</time>
      </trkpt>
      <trkpt lat="45.94294" lon="4.82998">
        <ele>265</ele>
        <time>2018-09-04T08:31:18Z</time>
      </trkpt>
      <trkpt lat="45.94295" lon="4.83005">
        <ele>266</ele>
        <time>2018-09-04T08:31:19Z</time>
      </trkpt>
      <trkpt lat="45.94299" lon="4.83016">
        <ele>266</ele>
        <time>2018-09-04T08:31:21Z</time>
      </trkpt>
      <trkpt lat="45.943" lon="4.83023">
        <ele>266</ele>
        <time>2018-09-04T08:31:22Z</time>
      </trkpt>
      <trkpt lat="45.94301" lon="4.8303">
        <ele>266</ele>
        <time>2018-09-04T08:31:23Z</time>
      </trkpt>
      <trkpt lat="45.94302" lon="4.83037">
        <ele>266</ele>
        <time>2018-09-04T08:31:24Z</time>
      </trkpt>
      <trkpt lat="45.94304" lon="4.83044">
        <ele>266</ele>
        <time>2018-09-04T08:31:25Z</time>
      </trkpt>
      <trkpt lat="45.94305" lon="4.83052">
        <ele>266</ele>
        <time>2018-09-04T08:31:26Z</time>
      </trkpt>
      <trkpt lat="45.94307" lon="4.83064">
        <ele>266</ele>
        <time>2018-09-04T08:31:28Z</time>
      </trkpt>
      <trkpt lat="45.94308" lon="4.83069">
        <ele>266</ele>
        <time>2018-09-04T08:31:29Z</time>
      </trkpt>
      <trkpt lat="45.94309" lon="4.83076">
        <ele>266</ele>
        <time>2018-09-04T08:31:30Z</time>
      </trkpt>
      <trkpt lat="45.94311" lon="4.83082">
        <ele>266</ele>
        <time>2018-09-04T08:31:31Z</time>
      </trkpt>
      <trkpt lat="45.94312" lon="4.83088">
        <ele>266</ele>
        <time>2018-09-04T08:31:32Z</time>
      </trkpt>
      <trkpt lat="45.94314" lon="4.83094">
        <ele>266</ele>
        <time>2018-09-04T08:31:33Z</time>
      </trkpt>
      <trkpt lat="45.94317" lon="4.83099">
        <ele>266</ele>
        <time>2018-09-04T08:31:34Z</time>
      </trkpt>
      <trkpt lat="45.94319" lon="4.83106">
        <ele>266</ele>
        <time>2018-09-04T08:31:35Z</time>
      </trkpt>
      <trkpt lat="45.94321" lon="4.83115">
        <ele>266</ele>
        <time>2018-09-04T08:31:36Z</time>
      </trkpt>
      <trkpt lat="45.94324" lon="4.83123">
        <ele>266</ele>
        <time>2018-09-04T08:31:37Z</time>
      </trkpt>
      <trkpt lat="45.94326" lon="4.8313">
        <ele>266</ele>
        <time>2018-09-04T08:31:38Z</time>
      </trkpt>
      <trkpt lat="45.94328" lon="4.83138">
        <ele>266</ele>
        <time>2018-09-04T08:31:39Z</time>
      </trkpt>
      <trkpt lat="45.9433" lon="4.83144">
        <ele>266</ele>
        <time>2018-09-04T08:31:40Z</time>
      </trkpt>
      <trkpt lat="45.94332" lon="4.83151">
        <ele>266</ele>
        <time>2018-09-04T08:31:41Z</time>
      </trkpt>
      <trkpt lat="45.94335" lon="4.83158">
        <ele>266</ele>
        <time>2018-09-04T08:31:42Z</time>
      </trkpt>
      <trkpt lat="45.94337" lon="4.83165">
        <ele>266</ele>
        <time>2018-09-04T08:31:43Z</time>
      </trkpt>
      <trkpt lat="45.9434" lon="4.83172">
        <ele>266</ele>
        <time>2018-09-04T08:31:44Z</time>
      </trkpt>
      <trkpt lat="45.94342" lon="4.83179">
        <ele>266</ele>
        <time>2018-09-04T08:31:45Z</time>
      </trkpt>
      <trkpt lat="45.94345" lon="4.83187">
        <ele>266</ele>
        <time>2018-09-04T08:31:46Z</time>
      </trkpt>
      <trkpt lat="45.94348" lon="4.83194">
        <ele>266</ele>
        <time>2018-09-04T08:31:47Z</time>
      </trkpt>
      <trkpt lat="45.94351" lon="4.83202">
        <ele>266</ele>
        <time>2018-09-04T08:31:48Z</time>
      </trkpt>
      <trkpt lat="45.94353" lon="4.8321">
        <ele>266</ele>
        <time>2018-09-04T08:31:49Z</time>
      </trkpt>
      <trkpt lat="45.94356" lon="4.83217">
        <ele>266</ele>
        <time>2018-09-04T08:31:50Z</time>
      </trkpt>
      <trkpt lat="45.94359" lon="4.83225">
        <ele>266</ele>
        <time>2018-09-04T08:31:51Z</time>
      </trkpt>
      <trkpt lat="45.94362" lon="4.83232">
        <ele>266</ele>
        <time>2018-09-04T08:31:52Z</time>
      </trkpt>
      <trkpt lat="45.94365" lon="4.8324">
        <ele>265</ele>
        <time>2018-09-04T08:31:53Z</time>
      </trkpt>
      <trkpt lat="45.94367" lon="4.83248">
        <ele>265</ele>
        <time>2018-09-04T08:31:54Z</time>
      </trkpt>
      <trkpt lat="45.9437" lon="4.83256">
        <ele>265</ele>
        <time>2018-09-04T08:31:55Z</time>
      </trkpt>
      <trkpt lat="45.94372" lon="4.83265">
        <ele>264</ele>
        <time>2018-09-04T08:31:56Z</time>
      </trkpt>
      <trkpt lat="45.94375" lon="4.83274">
        <ele>264</ele>
        <time>2018-09-04T08:31:57Z</time>
      </trkpt>
      <trkpt lat="45.94378" lon="4.83281">
        <ele>264</ele>
        <time>2018-09-04T08:31:58Z</time>
      </trkpt>
      <trkpt lat="45.94381" lon="4.8329">
        <ele>264</ele>
        <time>2018-09-04T08:31:59Z</time>
      </trkpt>
      <trkpt lat="45.94383" lon="4.83298">
        <ele>264</ele>
        <time>2018-09-04T08:32:00Z</time>
      </trkpt>
      <trkpt lat="45.94386" lon="4.83308">
        <ele>264</ele>
        <time>2018-09-04T08:32:01Z</time>
      </trkpt>
      <trkpt lat="45.94388" lon="4.83315">
        <ele>264</ele>
        <time>2018-09-04T08:32:02Z</time>
      </trkpt>
      <trkpt lat="45.94391" lon="4.83323">
        <ele>264</ele>
        <time>2018-09-04T08:32:03Z</time>
      </trkpt>
      <trkpt lat="45.94394" lon="4.8333">
        <ele>264</ele>
        <time>2018-09-04T08:32:04Z</time>
      </trkpt>
      <trkpt lat="45.94396" lon="4.83336">
        <ele>263</ele>
        <time>2018-09-04T08:32:05Z</time>
      </trkpt>
      <trkpt lat="45.94399" lon="4.83345">
        <ele>263</ele>
        <time>2018-09-04T08:32:06Z</time>
      </trkpt>
      <trkpt lat="45.94402" lon="4.83349">
        <ele>263</ele>
        <time>2018-09-04T08:32:07Z</time>
      </trkpt>
      <trkpt lat="45.94406" lon="4.8336">
        <ele>264</ele>
        <time>2018-09-04T08:32:09Z</time>
      </trkpt>
      <trkpt lat="45.94409" lon="4.83366">
        <ele>264</ele>
        <time>2018-09-04T08:32:10Z</time>
      </trkpt>
      <trkpt lat="45.94412" lon="4.83374">
        <ele>264</ele>
        <time>2018-09-04T08:32:11Z</time>
      </trkpt>
      <trkpt lat="45.94416" lon="4.83381">
        <ele>264</ele>
        <time>2018-09-04T08:32:12Z</time>
      </trkpt>
      <trkpt lat="45.9442" lon="4.83387">
        <ele>264</ele>
        <time>2018-09-04T08:32:13Z</time>
      </trkpt>
      <trkpt lat="45.94423" lon="4.83394">
        <ele>264</ele>
        <time>2018-09-04T08:32:14Z</time>
      </trkpt>
      <trkpt lat="45.94426" lon="4.83401">
        <ele>264</ele>
        <time>2018-09-04T08:32:15Z</time>
      </trkpt>
      <trkpt lat="45.94429" lon="4.83407">
        <ele>264</ele>
        <time>2018-09-04T08:32:16Z</time>
      </trkpt>
      <trkpt lat="45.94432" lon="4.83412">
        <ele>264</ele>
        <time>2018-09-04T08:32:17Z</time>
      </trkpt>
      <trkpt lat="45.94435" lon="4.83418">
        <ele>264</ele>
        <time>2018-09-04T08:32:18Z</time>
      </trkpt>
      <trkpt lat="45.94438" lon="4.83424">
        <ele>264</ele>
        <time>2018-09-04T08:32:19Z</time>
      </trkpt>
      <trkpt lat="45.94441" lon="4.83431">
        <ele>264</ele>
        <time>2018-09-04T08:32:20Z</time>
      </trkpt>
      <trkpt lat="45.94444" lon="4.83436">
        <ele>263</ele>
        <time>2018-09-04T08:32:21Z</time>
      </trkpt>
      <trkpt lat="45.94447" lon="4.83442">
        <ele>263</ele>
        <time>2018-09-04T08:32:22Z</time>
      </trkpt>
      <trkpt lat="45.9445" lon="4.83448">
        <ele>263</ele>
        <time>2018-09-04T08:32:23Z</time>
      </trkpt>
      <trkpt lat="45.94454" lon="4.83454">
        <ele>263</ele>
        <time>2018-09-04T08:32:24Z</time>
      </trkpt>
      <trkpt lat="45.94457" lon="4.83461">
        <ele>263</ele>
        <time>2018-09-04T08:32:25Z</time>
      </trkpt>
      <trkpt lat="45.94461" lon="4.83467">
        <ele>263</ele>
        <time>2018-09-04T08:32:26Z</time>
      </trkpt>
      <trkpt lat="45.94464" lon="4.83474">
        <ele>263</ele>
        <time>2018-09-04T08:32:27Z</time>
      </trkpt>
      <trkpt lat="45.94468" lon="4.83481">
        <ele>263</ele>
        <time>2018-09-04T08:32:28Z</time>
      </trkpt>
      <trkpt lat="45.94471" lon="4.83487">
        <ele>263</ele>
        <time>2018-09-04T08:32:29Z</time>
      </trkpt>
      <trkpt lat="45.94475" lon="4.83495">
        <ele>263</ele>
        <time>2018-09-04T08:32:30Z</time>
      </trkpt>
      <trkpt lat="45.94478" lon="4.835">
        <ele>262</ele>
        <time>2018-09-04T08:32:31Z</time>
      </trkpt>
      <trkpt lat="45.94483" lon="4.83506">
        <ele>262</ele>
        <time>2018-09-04T08:32:32Z</time>
      </trkpt>
      <trkpt lat="45.94488" lon="4.83511">
        <ele>262</ele>
        <time>2018-09-04T08:32:33Z</time>
      </trkpt>
      <trkpt lat="45.94492" lon="4.83516">
        <ele>262</ele>
        <time>2018-09-04T08:32:34Z</time>
      </trkpt>
      <trkpt lat="45.94495" lon="4.83523">
        <ele>262</ele>
        <time>2018-09-04T08:32:35Z</time>
      </trkpt>
      <trkpt lat="45.94498" lon="4.83529">
        <ele>262</ele>
        <time>2018-09-04T08:32:36Z</time>
      </trkpt>
      <trkpt lat="45.94502" lon="4.83535">
        <ele>262</ele>
        <time>2018-09-04T08:32:37Z</time>
      </trkpt>
      <trkpt lat="45.94505" lon="4.8354">
        <ele>262</ele>
        <time>2018-09-04T08:32:38Z</time>
      </trkpt>
      <trkpt lat="45.94508" lon="4.83546">
        <ele>261</ele>
        <time>2018-09-04T08:32:39Z</time>
      </trkpt>
      <trkpt lat="45.94511" lon="4.83551">
        <ele>261</ele>
        <time>2018-09-04T08:32:40Z</time>
      </trkpt>
      <trkpt lat="45.94514" lon="4.83558">
        <ele>261</ele>
        <time>2018-09-04T08:32:41Z</time>
      </trkpt>
      <trkpt lat="45.94516" lon="4.83565">
        <ele>261</ele>
        <time>2018-09-04T08:32:42Z</time>
      </trkpt>
      <trkpt lat="45.94519" lon="4.83572">
        <ele>261</ele>
        <time>2018-09-04T08:32:43Z</time>
      </trkpt>
      <trkpt lat="45.94522" lon="4.8358">
        <ele>261</ele>
        <time>2018-09-04T08:32:44Z</time>
      </trkpt>
      <trkpt lat="45.94524" lon="4.83587">
        <ele>261</ele>
        <time>2018-09-04T08:32:45Z</time>
      </trkpt>
      <trkpt lat="45.94526" lon="4.83595">
        <ele>261</ele>
        <time>2018-09-04T08:32:46Z</time>
      </trkpt>
      <trkpt lat="45.94528" lon="4.83603">
        <ele>261</ele>
        <time>2018-09-04T08:32:47Z</time>
      </trkpt>
      <trkpt lat="45.9453" lon="4.83611">
        <ele>261</ele>
        <time>2018-09-04T08:32:48Z</time>
      </trkpt>
      <trkpt lat="45.94531" lon="4.83619">
        <ele>261</ele>
        <time>2018-09-04T08:32:49Z</time>
      </trkpt>
      <trkpt lat="45.94533" lon="4.83627">
        <ele>261</ele>
        <time>2018-09-04T08:32:50Z</time>
      </trkpt>
      <trkpt lat="45.94534" lon="4.83636">
        <ele>261</ele>
        <time>2018-09-04T08:32:51Z</time>
      </trkpt>
      <trkpt lat="45.94537" lon="4.83644">
        <ele>261</ele>
        <time>2018-09-04T08:32:52Z</time>
      </trkpt>
      <trkpt lat="45.94536" lon="4.83651">
        <ele>261</ele>
        <time>2018-09-04T08:32:53Z</time>
      </trkpt>
      <trkpt lat="45.94538" lon="4.83659">
        <ele>261</ele>
        <time>2018-09-04T08:32:54Z</time>
      </trkpt>
      <trkpt lat="45.94539" lon="4.83667">
        <ele>262</ele>
        <time>2018-09-04T08:32:55Z</time>
      </trkpt>
      <trkpt lat="45.94541" lon="4.83675">
        <ele>262</ele>
        <time>2018-09-04T08:32:56Z</time>
      </trkpt>
      <trkpt lat="45.94542" lon="4.83683">
        <ele>262</ele>
        <time>2018-09-04T08:32:57Z</time>
      </trkpt>
      <trkpt lat="45.94543" lon="4.83691">
        <ele>262</ele>
        <time>2018-09-04T08:32:58Z</time>
      </trkpt>
      <trkpt lat="45.94544" lon="4.83698">
        <ele>262</ele>
        <time>2018-09-04T08:32:59Z</time>
      </trkpt>
      <trkpt lat="45.94546" lon="4.83705">
        <ele>262</ele>
        <time>2018-09-04T08:33:00Z</time>
      </trkpt>
      <trkpt lat="45.94547" lon="4.83718">
        <ele>262</ele>
        <time>2018-09-04T08:33:02Z</time>
      </trkpt>
      <trkpt lat="45.94547" lon="4.83723">
        <ele>262</ele>
        <time>2018-09-04T08:33:03Z</time>
      </trkpt>
      <trkpt lat="45.94548" lon="4.83734">
        <ele>262</ele>
        <time>2018-09-04T08:33:05Z</time>
      </trkpt>
      <trkpt lat="45.94548" lon="4.8374">
        <ele>262</ele>
        <time>2018-09-04T08:33:06Z</time>
      </trkpt>
      <trkpt lat="45.94549" lon="4.83746">
        <ele>262</ele>
        <time>2018-09-04T08:33:07Z</time>
      </trkpt>
      <trkpt lat="45.94553" lon="4.83751">
        <ele>263</ele>
        <time>2018-09-04T08:33:08Z</time>
      </trkpt>
      <trkpt lat="45.94553" lon="4.83757">
        <ele>263</ele>
        <time>2018-09-04T08:33:09Z</time>
      </trkpt>
      <trkpt lat="45.94553" lon="4.83765">
        <ele>263</ele>
        <time>2018-09-04T08:33:10Z</time>
      </trkpt>
      <trkpt lat="45.94554" lon="4.83772">
        <ele>264</ele>
        <time>2018-09-04T08:33:11Z</time>
      </trkpt>
      <trkpt lat="45.94555" lon="4.8378">
        <ele>264</ele>
        <time>2018-09-04T08:33:12Z</time>
      </trkpt>
      <trkpt lat="45.94556" lon="4.83788">
        <ele>264</ele>
        <time>2018-09-04T08:33:13Z</time>
      </trkpt>
      <trkpt lat="45.94557" lon="4.83796">
        <ele>264</ele>
        <time>2018-09-04T08:33:14Z</time>
      </trkpt>
      <trkpt lat="45.94559" lon="4.83803">
        <ele>264</ele>
        <time>2018-09-04T08:33:15Z</time>
      </trkpt>
      <trkpt lat="45.9456" lon="4.8381">
        <ele>264</ele>
        <time>2018-09-04T08:33:16Z</time>
      </trkpt>
      <trkpt lat="45.94562" lon="4.83821">
        <ele>264</ele>
        <time>2018-09-04T08:33:18Z</time>
      </trkpt>
      <trkpt lat="45.94563" lon="4.83826">
        <ele>264</ele>
        <time>2018-09-04T08:33:19Z</time>
      </trkpt>
      <trkpt lat="45.94565" lon="4.83838">
        <ele>266</ele>
        <time>2018-09-04T08:33:21Z</time>
      </trkpt>
      <trkpt lat="45.94566" lon="4.83844">
        <ele>266</ele>
        <time>2018-09-04T08:33:22Z</time>
      </trkpt>
      <trkpt lat="45.94567" lon="4.83856">
        <ele>267</ele>
        <time>2018-09-04T08:33:24Z</time>
      </trkpt>
      <trkpt lat="45.94567" lon="4.83862">
        <ele>267</ele>
        <time>2018-09-04T08:33:25Z</time>
      </trkpt>
      <trkpt lat="45.94569" lon="4.83874">
        <ele>267</ele>
        <time>2018-09-04T08:33:27Z</time>
      </trkpt>
      <trkpt lat="45.9457" lon="4.8388">
        <ele>267</ele>
        <time>2018-09-04T08:33:28Z</time>
      </trkpt>
      <trkpt lat="45.94572" lon="4.8389">
        <ele>267</ele>
        <time>2018-09-04T08:33:30Z</time>
      </trkpt>
      <trkpt lat="45.94573" lon="4.83897">
        <ele>268</ele>
        <time>2018-09-04T08:33:31Z</time>
      </trkpt>
      <trkpt lat="45.94574" lon="4.83903">
        <ele>268</ele>
        <time>2018-09-04T08:33:32Z</time>
      </trkpt>
      <trkpt lat="45.94575" lon="4.83909">
        <ele>268</ele>
        <time>2018-09-04T08:33:33Z</time>
      </trkpt>
      <trkpt lat="45.94578" lon="4.83921">
        <ele>268</ele>
        <time>2018-09-04T08:33:35Z</time>
      </trkpt>
      <trkpt lat="45.9458" lon="4.83928">
        <ele>268</ele>
        <time>2018-09-04T08:33:36Z</time>
      </trkpt>
      <trkpt lat="45.9458" lon="4.83934">
        <ele>269</ele>
        <time>2018-09-04T08:33:37Z</time>
      </trkpt>
      <trkpt lat="45.94582" lon="4.83941">
        <ele>269</ele>
        <time>2018-09-04T08:33:38Z</time>
      </trkpt>
      <trkpt lat="45.94583" lon="4.83948">
        <ele>269</ele>
        <time>2018-09-04T08:33:39Z</time>
      </trkpt>
      <trkpt lat="45.94584" lon="4.83956">
        <ele>268</ele>
        <time>2018-09-04T08:33:40Z</time>
      </trkpt>
      <trkpt lat="45.94586" lon="4.83968">
        <ele>268</ele>
        <time>2018-09-04T08:33:42Z</time>
      </trkpt>
      <trkpt lat="45.94586" lon="4.83974">
        <ele>268</ele>
        <time>2018-09-04T08:33:43Z</time>
      </trkpt>
      <trkpt lat="45.94588" lon="4.83987">
        <ele>269</ele>
        <time>2018-09-04T08:33:45Z</time>
      </trkpt>
      <trkpt lat="45.9459" lon="4.83996">
        <ele>269</ele>
        <time>2018-09-04T08:33:46Z</time>
      </trkpt>
      <trkpt lat="45.94593" lon="4.84007">
        <ele>269</ele>
        <time>2018-09-04T08:33:48Z</time>
      </trkpt>
      <trkpt lat="45.94594" lon="4.84014">
        <ele>269</ele>
        <time>2018-09-04T08:33:49Z</time>
      </trkpt>
      <trkpt lat="45.94594" lon="4.8402">
        <ele>269</ele>
        <time>2018-09-04T08:33:50Z</time>
      </trkpt>
      <trkpt lat="45.94596" lon="4.84028">
        <ele>269</ele>
        <time>2018-09-04T08:33:51Z</time>
      </trkpt>
      <trkpt lat="45.94597" lon="4.84036">
        <ele>269</ele>
        <time>2018-09-04T08:33:52Z</time>
      </trkpt>
      <trkpt lat="45.94599" lon="4.84043">
        <ele>269</ele>
        <time>2018-09-04T08:33:53Z</time>
      </trkpt>
      <trkpt lat="45.946" lon="4.8405">
        <ele>269</ele>
        <time>2018-09-04T08:33:54Z</time>
      </trkpt>
      <trkpt lat="45.94601" lon="4.84056">
        <ele>269</ele>
        <time>2018-09-04T08:33:55Z</time>
      </trkpt>
      <trkpt lat="45.94602" lon="4.84062">
        <ele>269</ele>
        <time>2018-09-04T08:33:56Z</time>
      </trkpt>
      <trkpt lat="45.94603" lon="4.84069">
        <ele>269</ele>
        <time>2018-09-04T08:33:57Z</time>
      </trkpt>
      <trkpt lat="45.94603" lon="4.84075">
        <ele>269</ele>
        <time>2018-09-04T08:33:58Z</time>
      </trkpt>
      <trkpt lat="45.94604" lon="4.84082">
        <ele>269</ele>
        <time>2018-09-04T08:33:59Z</time>
      </trkpt>
      <trkpt lat="45.94606" lon="4.84089">
        <ele>269</ele>
        <time>2018-09-04T08:34:00Z</time>
      </trkpt>
      <trkpt lat="45.94607" lon="4.84096">
        <ele>269</ele>
        <time>2018-09-04T08:34:01Z</time>
      </trkpt>
      <trkpt lat="45.94608" lon="4.84102">
        <ele>269</ele>
        <time>2018-09-04T08:34:02Z</time>
      </trkpt>
      <trkpt lat="45.94609" lon="4.84109">
        <ele>269</ele>
        <time>2018-09-04T08:34:03Z</time>
      </trkpt>
      <trkpt lat="45.9461" lon="4.84115">
        <ele>269</ele>
        <time>2018-09-04T08:34:04Z</time>
      </trkpt>
      <trkpt lat="45.94611" lon="4.84121">
        <ele>269</ele>
        <time>2018-09-04T08:34:05Z</time>
      </trkpt>
      <trkpt lat="45.94612" lon="4.84133">
        <ele>269</ele>
        <time>2018-09-04T08:34:07Z</time>
      </trkpt>
      <trkpt lat="45.94615" lon="4.84138">
        <ele>269</ele>
        <time>2018-09-04T08:34:08Z</time>
      </trkpt>
      <trkpt lat="45.94618" lon="4.8415">
        <ele>269</ele>
        <time>2018-09-04T08:34:10Z</time>
      </trkpt>
      <trkpt lat="45.94619" lon="4.84155">
        <ele>269</ele>
        <time>2018-09-04T08:34:11Z</time>
      </trkpt>
      <trkpt lat="45.94619" lon="4.84161">
        <ele>269</ele>
        <time>2018-09-04T08:34:12Z</time>
      </trkpt>
      <trkpt lat="45.94621" lon="4.84169">
        <ele>269</ele>
        <time>2018-09-04T08:34:13Z</time>
      </trkpt>
      <trkpt lat="45.94621" lon="4.84175">
        <ele>269</ele>
        <time>2018-09-04T08:34:14Z</time>
      </trkpt>
      <trkpt lat="45.94623" lon="4.84182">
        <ele>269</ele>
        <time>2018-09-04T08:34:15Z</time>
      </trkpt>
      <trkpt lat="45.94624" lon="4.84189">
        <ele>269</ele>
        <time>2018-09-04T08:34:16Z</time>
      </trkpt>
      <trkpt lat="45.94625" lon="4.84196">
        <ele>269</ele>
        <time>2018-09-04T08:34:17Z</time>
      </trkpt>
      <trkpt lat="45.94626" lon="4.84202">
        <ele>269</ele>
        <time>2018-09-04T08:34:18Z</time>
      </trkpt>
      <trkpt lat="45.94627" lon="4.84209">
        <ele>269</ele>
        <time>2018-09-04T08:34:19Z</time>
      </trkpt>
      <trkpt lat="45.94628" lon="4.84215">
        <ele>269</ele>
        <time>2018-09-04T08:34:20Z</time>
      </trkpt>
      <trkpt lat="45.94628" lon="4.84222">
        <ele>269</ele>
        <time>2018-09-04T08:34:21Z</time>
      </trkpt>
      <trkpt lat="45.9463" lon="4.84227">
        <ele>269</ele>
        <time>2018-09-04T08:34:22Z</time>
      </trkpt>
      <trkpt lat="45.94631" lon="4.84234">
        <ele>269</ele>
        <time>2018-09-04T08:34:23Z</time>
      </trkpt>
      <trkpt lat="45.94633" lon="4.84246">
        <ele>269</ele>
        <time>2018-09-04T08:34:25Z</time>
      </trkpt>
      <trkpt lat="45.94634" lon="4.84252">
        <ele>269</ele>
        <time>2018-09-04T08:34:26Z</time>
      </trkpt>
      <trkpt lat="45.94635" lon="4.84264">
        <ele>269</ele>
        <time>2018-09-04T08:34:28Z</time>
      </trkpt>
      <trkpt lat="45.94635" lon="4.8427">
        <ele>269</ele>
        <time>2018-09-04T08:34:29Z</time>
      </trkpt>
      <trkpt lat="45.94637" lon="4.84278">
        <ele>269</ele>
        <time>2018-09-04T08:34:30Z</time>
      </trkpt>
      <trkpt lat="45.94637" lon="4.84284">
        <ele>269</ele>
        <time>2018-09-04T08:34:31Z</time>
      </trkpt>
      <trkpt lat="45.94638" lon="4.84296">
        <ele>269</ele>
        <time>2018-09-04T08:34:33Z</time>
      </trkpt>
      <trkpt lat="45.9464" lon="4.84302">
        <ele>269</ele>
        <time>2018-09-04T08:34:34Z</time>
      </trkpt>
      <trkpt lat="45.9464" lon="4.84308">
        <ele>269</ele>
        <time>2018-09-04T08:34:35Z</time>
      </trkpt>
      <trkpt lat="45.94641" lon="4.84315">
        <ele>269</ele>
        <time>2018-09-04T08:34:36Z</time>
      </trkpt>
      <trkpt lat="45.94643" lon="4.84328">
        <ele>268</ele>
        <time>2018-09-04T08:34:38Z</time>
      </trkpt>
      <trkpt lat="45.94644" lon="4.84334">
        <ele>268</ele>
        <time>2018-09-04T08:34:39Z</time>
      </trkpt>
      <trkpt lat="45.94645" lon="4.84341">
        <ele>268</ele>
        <time>2018-09-04T08:34:40Z</time>
      </trkpt>
      <trkpt lat="45.94646" lon="4.84347">
        <ele>268</ele>
        <time>2018-09-04T08:34:41Z</time>
      </trkpt>
      <trkpt lat="45.94647" lon="4.84355">
        <ele>268</ele>
        <time>2018-09-04T08:34:42Z</time>
      </trkpt>
      <trkpt lat="45.94648" lon="4.84361">
        <ele>268</ele>
        <time>2018-09-04T08:34:43Z</time>
      </trkpt>
      <trkpt lat="45.94649" lon="4.84373">
        <ele>268</ele>
        <time>2018-09-04T08:34:45Z</time>
      </trkpt>
      <trkpt lat="45.9465" lon="4.8438">
        <ele>268</ele>
        <time>2018-09-04T08:34:46Z</time>
      </trkpt>
      <trkpt lat="45.94651" lon="4.84387">
        <ele>268</ele>
        <time>2018-09-04T08:34:47Z</time>
      </trkpt>
      <trkpt lat="45.94651" lon="4.84393">
        <ele>268</ele>
        <time>2018-09-04T08:34:48Z</time>
      </trkpt>
      <trkpt lat="45.94652" lon="4.84406">
        <ele>268</ele>
        <time>2018-09-04T08:34:50Z</time>
      </trkpt>
      <trkpt lat="45.94652" lon="4.84412">
        <ele>268</ele>
        <time>2018-09-04T08:34:51Z</time>
      </trkpt>
      <trkpt lat="45.94653" lon="4.84419">
        <ele>268</ele>
        <time>2018-09-04T08:34:52Z</time>
      </trkpt>
      <trkpt lat="45.94653" lon="4.84425">
        <ele>268</ele>
        <time>2018-09-04T08:34:53Z</time>
      </trkpt>
      <trkpt lat="45.94654" lon="4.84432">
        <ele>268</ele>
        <time>2018-09-04T08:34:54Z</time>
      </trkpt>
      <trkpt lat="45.94655" lon="4.84439">
        <ele>268</ele>
        <time>2018-09-04T08:34:55Z</time>
      </trkpt>
      <trkpt lat="45.94655" lon="4.84446">
        <ele>268</ele>
        <time>2018-09-04T08:34:56Z</time>
      </trkpt>
      <trkpt lat="45.94657" lon="4.84452">
        <ele>268</ele>
        <time>2018-09-04T08:34:57Z</time>
      </trkpt>
      <trkpt lat="45.94658" lon="4.84465">
        <ele>268</ele>
        <time>2018-09-04T08:34:59Z</time>
      </trkpt>
      <trkpt lat="45.94658" lon="4.84472">
        <ele>268</ele>
        <time>2018-09-04T08:35:00Z</time>
      </trkpt>
      <trkpt lat="45.94659" lon="4.84478">
        <ele>268</ele>
        <time>2018-09-04T08:35:01Z</time>
      </trkpt>
      <trkpt lat="45.9466" lon="4.84486">
        <ele>268</ele>
        <time>2018-09-04T08:35:02Z</time>
      </trkpt>
      <trkpt lat="45.9466" lon="4.84493">
        <ele>268</ele>
        <time>2018-09-04T08:35:03Z</time>
      </trkpt>
      <trkpt lat="45.94661" lon="4.845">
        <ele>268</ele>
        <time>2018-09-04T08:35:04Z</time>
      </trkpt>
      <trkpt lat="45.94661" lon="4.84508">
        <ele>268</ele>
        <time>2018-09-04T08:35:05Z</time>
      </trkpt>
      <trkpt lat="45.94662" lon="4.84516">
        <ele>268</ele>
        <time>2018-09-04T08:35:06Z</time>
      </trkpt>
      <trkpt lat="45.94663" lon="4.84527">
        <ele>268</ele>
        <time>2018-09-04T08:35:07Z</time>
      </trkpt>
      <trkpt lat="45.94664" lon="4.84535">
        <ele>268</ele>
        <time>2018-09-04T08:35:08Z</time>
      </trkpt>
      <trkpt lat="45.94665" lon="4.84544">
        <ele>268</ele>
        <time>2018-09-04T08:35:09Z</time>
      </trkpt>
      <trkpt lat="45.94666" lon="4.84552">
        <ele>268</ele>
        <time>2018-09-04T08:35:10Z</time>
      </trkpt>
      <trkpt lat="45.94666" lon="4.8456">
        <ele>268</ele>
        <time>2018-09-04T08:35:11Z</time>
      </trkpt>
      <trkpt lat="45.94667" lon="4.84567">
        <ele>268</ele>
        <time>2018-09-04T08:35:12Z</time>
      </trkpt>
      <trkpt lat="45.94667" lon="4.84575">
        <ele>268</ele>
        <time>2018-09-04T08:35:13Z</time>
      </trkpt>
      <trkpt lat="45.94668" lon="4.84582">
        <ele>268</ele>
        <time>2018-09-04T08:35:14Z</time>
      </trkpt>
      <trkpt lat="45.94668" lon="4.8459">
        <ele>268</ele>
        <time>2018-09-04T08:35:15Z</time>
      </trkpt>
      <trkpt lat="45.94667" lon="4.84598">
        <ele>268</ele>
        <time>2018-09-04T08:35:16Z</time>
      </trkpt>
      <trkpt lat="45.94667" lon="4.84606">
        <ele>268</ele>
        <time>2018-09-04T08:35:17Z</time>
      </trkpt>
      <trkpt lat="45.94666" lon="4.84612">
        <ele>268</ele>
        <time>2018-09-04T08:35:18Z</time>
      </trkpt>
      <trkpt lat="45.94666" lon="4.84619">
        <ele>268</ele>
        <time>2018-09-04T08:35:19Z</time>
      </trkpt>
      <trkpt lat="45.94666" lon="4.84627">
        <ele>268</ele>
        <time>2018-09-04T08:35:20Z</time>
      </trkpt>
      <trkpt lat="45.94666" lon="4.84635">
        <ele>268</ele>
        <time>2018-09-04T08:35:21Z</time>
      </trkpt>
      <trkpt lat="45.94667" lon="4.84642">
        <ele>268</ele>
        <time>2018-09-04T08:35:22Z</time>
      </trkpt>
      <trkpt lat="45.94668" lon="4.84652">
        <ele>268</ele>
        <time>2018-09-04T08:35:23Z</time>
      </trkpt>
      <trkpt lat="45.9467" lon="4.84663">
        <ele>269</ele>
        <time>2018-09-04T08:35:24Z</time>
      </trkpt>
      <trkpt lat="45.9467" lon="4.84671">
        <ele>269</ele>
        <time>2018-09-04T08:35:25Z</time>
      </trkpt>
      <trkpt lat="45.9467" lon="4.8468">
        <ele>269</ele>
        <time>2018-09-04T08:35:26Z</time>
      </trkpt>
      <trkpt lat="45.94672" lon="4.84689">
        <ele>269</ele>
        <time>2018-09-04T08:35:27Z</time>
      </trkpt>
      <trkpt lat="45.94672" lon="4.84697">
        <ele>269</ele>
        <time>2018-09-04T08:35:28Z</time>
      </trkpt>
      <trkpt lat="45.94672" lon="4.84705">
        <ele>269</ele>
        <time>2018-09-04T08:35:29Z</time>
      </trkpt>
      <trkpt lat="45.94672" lon="4.84712">
        <ele>269</ele>
        <time>2018-09-04T08:35:30Z</time>
      </trkpt>
      <trkpt lat="45.94672" lon="4.84719">
        <ele>269</ele>
        <time>2018-09-04T08:35:31Z</time>
      </trkpt>
      <trkpt lat="45.94674" lon="4.84728">
        <ele>269</ele>
        <time>2018-09-04T08:35:32Z</time>
      </trkpt>
      <trkpt lat="45.94674" lon="4.84735">
        <ele>269</ele>
        <time>2018-09-04T08:35:33Z</time>
      </trkpt>
      <trkpt lat="45.94675" lon="4.84742">
        <ele>269</ele>
        <time>2018-09-04T08:35:34Z</time>
      </trkpt>
      <trkpt lat="45.94675" lon="4.8475">
        <ele>269</ele>
        <time>2018-09-04T08:35:35Z</time>
      </trkpt>
      <trkpt lat="45.94675" lon="4.84758">
        <ele>269</ele>
        <time>2018-09-04T08:35:36Z</time>
      </trkpt>
      <trkpt lat="45.94675" lon="4.84765">
        <ele>269</ele>
        <time>2018-09-04T08:35:37Z</time>
      </trkpt>
      <trkpt lat="45.94675" lon="4.84773">
        <ele>269</ele>
        <time>2018-09-04T08:35:38Z</time>
      </trkpt>
      <trkpt lat="45.94678" lon="4.84783">
        <ele>269</ele>
        <time>2018-09-04T08:35:39Z</time>
      </trkpt>
      <trkpt lat="45.94679" lon="4.8479">
        <ele>269</ele>
        <time>2018-09-04T08:35:40Z</time>
      </trkpt>
      <trkpt lat="45.94679" lon="4.84797">
        <ele>268</ele>
        <time>2018-09-04T08:35:41Z</time>
      </trkpt>
      <trkpt lat="45.9468" lon="4.84804">
        <ele>268</ele>
        <time>2018-09-04T08:35:42Z</time>
      </trkpt>
      <trkpt lat="45.9468" lon="4.84811">
        <ele>268</ele>
        <time>2018-09-04T08:35:43Z</time>
      </trkpt>
      <trkpt lat="45.94681" lon="4.84818">
        <ele>268</ele>
        <time>2018-09-04T08:35:44Z</time>
      </trkpt>
      <trkpt lat="45.94682" lon="4.84826">
        <ele>268</ele>
        <time>2018-09-04T08:35:45Z</time>
      </trkpt>
      <trkpt lat="45.94682" lon="4.84833">
        <ele>268</ele>
        <time>2018-09-04T08:35:46Z</time>
      </trkpt>
      <trkpt lat="45.94683" lon="4.84841">
        <ele>268</ele>
        <time>2018-09-04T08:35:47Z</time>
      </trkpt>
      <trkpt lat="45.94683" lon="4.84849">
        <ele>268</ele>
        <time>2018-09-04T08:35:48Z</time>
      </trkpt>
      <trkpt lat="45.94684" lon="4.84857">
        <ele>268</ele>
        <time>2018-09-04T08:35:49Z</time>
      </trkpt>
      <trkpt lat="45.94684" lon="4.84865">
        <ele>268</ele>
        <time>2018-09-04T08:35:50Z</time>
      </trkpt>
      <trkpt lat="45.94686" lon="4.84873">
        <ele>268</ele>
        <time>2018-09-04T08:35:51Z</time>
      </trkpt>
      <trkpt lat="45.94686" lon="4.8488">
        <ele>268</ele>
        <time>2018-09-04T08:35:52Z</time>
      </trkpt>
      <trkpt lat="45.94688" lon="4.8489">
        <ele>268</ele>
        <time>2018-09-04T08:35:53Z</time>
      </trkpt>
      <trkpt lat="45.94689" lon="4.849">
        <ele>268</ele>
        <time>2018-09-04T08:35:54Z</time>
      </trkpt>
      <trkpt lat="45.9469" lon="4.84907">
        <ele>269</ele>
        <time>2018-09-04T08:35:55Z</time>
      </trkpt>
      <trkpt lat="45.9469" lon="4.84914">
        <ele>269</ele>
        <time>2018-09-04T08:35:56Z</time>
      </trkpt>
      <trkpt lat="45.94691" lon="4.84922">
        <ele>269</ele>
        <time>2018-09-04T08:35:57Z</time>
      </trkpt>
      <trkpt lat="45.94692" lon="4.8493">
        <ele>269</ele>
        <time>2018-09-04T08:35:58Z</time>
      </trkpt>
      <trkpt lat="45.94693" lon="4.84938">
        <ele>269</ele>
        <time>2018-09-04T08:35:59Z</time>
      </trkpt>
      <trkpt lat="45.94694" lon="4.84946">
        <ele>269</ele>
        <time>2018-09-04T08:36:00Z</time>
      </trkpt>
      <trkpt lat="45.94695" lon="4.84953">
        <ele>269</ele>
        <time>2018-09-04T08:36:01Z</time>
      </trkpt>
      <trkpt lat="45.94696" lon="4.84959">
        <ele>269</ele>
        <time>2018-09-04T08:36:02Z</time>
      </trkpt>
      <trkpt lat="45.94696" lon="4.84966">
        <ele>269</ele>
        <time>2018-09-04T08:36:03Z</time>
      </trkpt>
      <trkpt lat="45.94697" lon="4.84974">
        <ele>269</ele>
        <time>2018-09-04T08:36:04Z</time>
      </trkpt>
      <trkpt lat="45.94698" lon="4.84981">
        <ele>269</ele>
        <time>2018-09-04T08:36:05Z</time>
      </trkpt>
      <trkpt lat="45.94698" lon="4.84987">
        <ele>269</ele>
        <time>2018-09-04T08:36:06Z</time>
      </trkpt>
      <trkpt lat="45.94699" lon="4.84999">
        <ele>269</ele>
        <time>2018-09-04T08:36:08Z</time>
      </trkpt>
      <trkpt lat="45.947" lon="4.85006">
        <ele>269</ele>
        <time>2018-09-04T08:36:09Z</time>
      </trkpt>
      <trkpt lat="45.94701" lon="4.85014">
        <ele>269</ele>
        <time>2018-09-04T08:36:10Z</time>
      </trkpt>
      <trkpt lat="45.94701" lon="4.85021">
        <ele>269</ele>
        <time>2018-09-04T08:36:11Z</time>
      </trkpt>
      <trkpt lat="45.94702" lon="4.85028">
        <ele>269</ele>
        <time>2018-09-04T08:36:12Z</time>
      </trkpt>
      <trkpt lat="45.94703" lon="4.85036">
        <ele>269</ele>
        <time>2018-09-04T08:36:13Z</time>
      </trkpt>
      <trkpt lat="45.94703" lon="4.85045">
        <ele>269</ele>
        <time>2018-09-04T08:36:14Z</time>
      </trkpt>
      <trkpt lat="45.94704" lon="4.85054">
        <ele>269</ele>
        <time>2018-09-04T08:36:15Z</time>
      </trkpt>
      <trkpt lat="45.94707" lon="4.85064">
        <ele>269</ele>
        <time>2018-09-04T08:36:16Z</time>
      </trkpt>
      <trkpt lat="45.94707" lon="4.85069">
        <ele>269</ele>
        <time>2018-09-04T08:36:17Z</time>
      </trkpt>
      <trkpt lat="45.94708" lon="4.85076">
        <ele>269</ele>
        <time>2018-09-04T08:36:18Z</time>
      </trkpt>
      <trkpt lat="45.94708" lon="4.85084">
        <ele>269</ele>
        <time>2018-09-04T08:36:19Z</time>
      </trkpt>
      <trkpt lat="45.94709" lon="4.85092">
        <ele>269</ele>
        <time>2018-09-04T08:36:20Z</time>
      </trkpt>
      <trkpt lat="45.9471" lon="4.85099">
        <ele>269</ele>
        <time>2018-09-04T08:36:21Z</time>
      </trkpt>
      <trkpt lat="45.94711" lon="4.85107">
        <ele>269</ele>
        <time>2018-09-04T08:36:22Z</time>
      </trkpt>
      <trkpt lat="45.94711" lon="4.85115">
        <ele>269</ele>
        <time>2018-09-04T08:36:23Z</time>
      </trkpt>
      <trkpt lat="45.94711" lon="4.85121">
        <ele>269</ele>
        <time>2018-09-04T08:36:24Z</time>
      </trkpt>
      <trkpt lat="45.94712" lon="4.85129">
        <ele>269</ele>
        <time>2018-09-04T08:36:25Z</time>
      </trkpt>
      <trkpt lat="45.94712" lon="4.85136">
        <ele>269</ele>
        <time>2018-09-04T08:36:26Z</time>
      </trkpt>
      <trkpt lat="45.94713" lon="4.85143">
        <ele>269</ele>
        <time>2018-09-04T08:36:27Z</time>
      </trkpt>
      <trkpt lat="45.94714" lon="4.85151">
        <ele>269</ele>
        <time>2018-09-04T08:36:28Z</time>
      </trkpt>
      <trkpt lat="45.94715" lon="4.85158">
        <ele>269</ele>
        <time>2018-09-04T08:36:29Z</time>
      </trkpt>
      <trkpt lat="45.94716" lon="4.85166">
        <ele>269</ele>
        <time>2018-09-04T08:36:30Z</time>
      </trkpt>
      <trkpt lat="45.94716" lon="4.85174">
        <ele>269</ele>
        <time>2018-09-04T08:36:31Z</time>
      </trkpt>
      <trkpt lat="45.94717" lon="4.85181">
        <ele>269</ele>
        <time>2018-09-04T08:36:32Z</time>
      </trkpt>
      <trkpt lat="45.94718" lon="4.85188">
        <ele>269</ele>
        <time>2018-09-04T08:36:33Z</time>
      </trkpt>
      <trkpt lat="45.94719" lon="4.85195">
        <ele>269</ele>
        <time>2018-09-04T08:36:34Z</time>
      </trkpt>
      <trkpt lat="45.94719" lon="4.85203">
        <ele>269</ele>
        <time>2018-09-04T08:36:35Z</time>
      </trkpt>
      <trkpt lat="45.94719" lon="4.85216">
        <ele>269</ele>
        <time>2018-09-04T08:36:37Z</time>
      </trkpt>
      <trkpt lat="45.94721" lon="4.85224">
        <ele>269</ele>
        <time>2018-09-04T08:36:38Z</time>
      </trkpt>
      <trkpt lat="45.94722" lon="4.85236">
        <ele>269</ele>
        <time>2018-09-04T08:36:40Z</time>
      </trkpt>
      <trkpt lat="45.94724" lon="4.85242">
        <ele>269</ele>
        <time>2018-09-04T08:36:41Z</time>
      </trkpt>
      <trkpt lat="45.94725" lon="4.85249">
        <ele>269</ele>
        <time>2018-09-04T08:36:42Z</time>
      </trkpt>
      <trkpt lat="45.94726" lon="4.85258">
        <ele>269</ele>
        <time>2018-09-04T08:36:43Z</time>
      </trkpt>
      <trkpt lat="45.94727" lon="4.85265">
        <ele>269</ele>
        <time>2018-09-04T08:36:44Z</time>
      </trkpt>
      <trkpt lat="45.94728" lon="4.85272">
        <ele>269</ele>
        <time>2018-09-04T08:36:45Z</time>
      </trkpt>
      <trkpt lat="45.9473" lon="4.85279">
        <ele>269</ele>
        <time>2018-09-04T08:36:46Z</time>
      </trkpt>
      <trkpt lat="45.94732" lon="4.85287">
        <ele>269</ele>
        <time>2018-09-04T08:36:47Z</time>
      </trkpt>
      <trkpt lat="45.94732" lon="4.85295">
        <ele>270</ele>
        <time>2018-09-04T08:36:48Z</time>
      </trkpt>
      <trkpt lat="45.94733" lon="4.85303">
        <ele>270</ele>
        <time>2018-09-04T08:36:49Z</time>
      </trkpt>
      <trkpt lat="45.94733" lon="4.85311">
        <ele>270</ele>
        <time>2018-09-04T08:36:50Z</time>
      </trkpt>
      <trkpt lat="45.94734" lon="4.85318">
        <ele>270</ele>
        <time>2018-09-04T08:36:51Z</time>
      </trkpt>
      <trkpt lat="45.94735" lon="4.85326">
        <ele>270</ele>
        <time>2018-09-04T08:36:52Z</time>
      </trkpt>
      <trkpt lat="45.94736" lon="4.85334">
        <ele>271</ele>
        <time>2018-09-04T08:36:53Z</time>
      </trkpt>
      <trkpt lat="45.94736" lon="4.85341">
        <ele>271</ele>
        <time>2018-09-04T08:36:54Z</time>
      </trkpt>
      <trkpt lat="45.94737" lon="4.85348">
        <ele>271</ele>
        <time>2018-09-04T08:36:55Z</time>
      </trkpt>
      <trkpt lat="45.94738" lon="4.85355">
        <ele>271</ele>
        <time>2018-09-04T08:36:56Z</time>
      </trkpt>
      <trkpt lat="45.94739" lon="4.85362">
        <ele>271</ele>
        <time>2018-09-04T08:36:57Z</time>
      </trkpt>
      <trkpt lat="45.94739" lon="4.8537">
        <ele>271</ele>
        <time>2018-09-04T08:36:58Z</time>
      </trkpt>
      <trkpt lat="45.9474" lon="4.85378">
        <ele>271</ele>
        <time>2018-09-04T08:36:59Z</time>
      </trkpt>
      <trkpt lat="45.94741" lon="4.8539">
        <ele>272</ele>
        <time>2018-09-04T08:37:01Z</time>
      </trkpt>
      <trkpt lat="45.94742" lon="4.85398">
        <ele>272</ele>
        <time>2018-09-04T08:37:02Z</time>
      </trkpt>
      <trkpt lat="45.94743" lon="4.85406">
        <ele>272</ele>
        <time>2018-09-04T08:37:03Z</time>
      </trkpt>
      <trkpt lat="45.94743" lon="4.85412">
        <ele>273</ele>
        <time>2018-09-04T08:37:04Z</time>
      </trkpt>
      <trkpt lat="45.94744" lon="4.85419">
        <ele>273</ele>
        <time>2018-09-04T08:37:05Z</time>
      </trkpt>
      <trkpt lat="45.94745" lon="4.85426">
        <ele>273</ele>
        <time>2018-09-04T08:37:06Z</time>
      </trkpt>
      <trkpt lat="45.94746" lon="4.85435">
        <ele>273</ele>
        <time>2018-09-04T08:37:07Z</time>
      </trkpt>
      <trkpt lat="45.94747" lon="4.85442">
        <ele>274</ele>
        <time>2018-09-04T08:37:08Z</time>
      </trkpt>
      <trkpt lat="45.94747" lon="4.85448">
        <ele>274</ele>
        <time>2018-09-04T08:37:09Z</time>
      </trkpt>
      <trkpt lat="45.94748" lon="4.85455">
        <ele>274</ele>
        <time>2018-09-04T08:37:10Z</time>
      </trkpt>
      <trkpt lat="45.94749" lon="4.85467">
        <ele>274</ele>
        <time>2018-09-04T08:37:12Z</time>
      </trkpt>
      <trkpt lat="45.9475" lon="4.85473">
        <ele>274</ele>
        <time>2018-09-04T08:37:13Z</time>
      </trkpt>
      <trkpt lat="45.9475" lon="4.85484">
        <ele>275</ele>
        <time>2018-09-04T08:37:15Z</time>
      </trkpt>
      <trkpt lat="45.94751" lon="4.8549">
        <ele>276</ele>
        <time>2018-09-04T08:37:16Z</time>
      </trkpt>
      <trkpt lat="45.94753" lon="4.85502">
        <ele>276</ele>
        <time>2018-09-04T08:37:18Z</time>
      </trkpt>
      <trkpt lat="45.94754" lon="4.85509">
        <ele>277</ele>
        <time>2018-09-04T08:37:19Z</time>
      </trkpt>
      <trkpt lat="45.94755" lon="4.85522">
        <ele>277</ele>
        <time>2018-09-04T08:37:21Z</time>
      </trkpt>
      <trkpt lat="45.94756" lon="4.85528">
        <ele>278</ele>
        <time>2018-09-04T08:37:22Z</time>
      </trkpt>
      <trkpt lat="45.94758" lon="4.85535">
        <ele>278</ele>
        <time>2018-09-04T08:37:23Z</time>
      </trkpt>
      <trkpt lat="45.94759" lon="4.85541">
        <ele>278</ele>
        <time>2018-09-04T08:37:24Z</time>
      </trkpt>
      <trkpt lat="45.9476" lon="4.8555">
        <ele>278</ele>
        <time>2018-09-04T08:37:26Z</time>
      </trkpt>
      <trkpt lat="45.94761" lon="4.85555">
        <ele>278</ele>
        <time>2018-09-04T08:37:27Z</time>
      </trkpt>
      <trkpt lat="45.94762" lon="4.85565">
        <ele>279</ele>
        <time>2018-09-04T08:37:29Z</time>
      </trkpt>
      <trkpt lat="45.94764" lon="4.85571">
        <ele>279</ele>
        <time>2018-09-04T08:37:30Z</time>
      </trkpt>
      <trkpt lat="45.94765" lon="4.85583">
        <ele>279</ele>
        <time>2018-09-04T08:37:32Z</time>
      </trkpt>
      <trkpt lat="45.94766" lon="4.85591">
        <ele>280</ele>
        <time>2018-09-04T08:37:33Z</time>
      </trkpt>
      <trkpt lat="45.94768" lon="4.85601">
        <ele>280</ele>
        <time>2018-09-04T08:37:35Z</time>
      </trkpt>
      <trkpt lat="45.94769" lon="4.85606">
        <ele>280</ele>
        <time>2018-09-04T08:37:36Z</time>
      </trkpt>
      <trkpt lat="45.9477" lon="4.85613">
        <ele>280</ele>
        <time>2018-09-04T08:37:37Z</time>
      </trkpt>
      <trkpt lat="45.94772" lon="4.85619">
        <ele>280</ele>
        <time>2018-09-04T08:37:38Z</time>
      </trkpt>
      <trkpt lat="45.94771" lon="4.85624">
        <ele>280</ele>
        <time>2018-09-04T08:37:39Z</time>
      </trkpt>
      <trkpt lat="45.94774" lon="4.85632">
        <ele>280</ele>
        <time>2018-09-04T08:37:40Z</time>
      </trkpt>
      <trkpt lat="45.94775" lon="4.85639">
        <ele>281</ele>
        <time>2018-09-04T08:37:41Z</time>
      </trkpt>
      <trkpt lat="45.94777" lon="4.85644">
        <ele>281</ele>
        <time>2018-09-04T08:37:42Z</time>
      </trkpt>
      <trkpt lat="45.94779" lon="4.8565">
        <ele>281</ele>
        <time>2018-09-04T08:37:43Z</time>
      </trkpt>
      <trkpt lat="45.9478" lon="4.85656">
        <ele>281</ele>
        <time>2018-09-04T08:37:44Z</time>
      </trkpt>
      <trkpt lat="45.94781" lon="4.85667">
        <ele>280</ele>
        <time>2018-09-04T08:37:46Z</time>
      </trkpt>
      <trkpt lat="45.94783" lon="4.85674">
        <ele>280</ele>
        <time>2018-09-04T08:37:47Z</time>
      </trkpt>
      <trkpt lat="45.94785" lon="4.8568">
        <ele>280</ele>
        <time>2018-09-04T08:37:48Z</time>
      </trkpt>
      <trkpt lat="45.94787" lon="4.85687">
        <ele>280</ele>
        <time>2018-09-04T08:37:49Z</time>
      </trkpt>
      <trkpt lat="45.94788" lon="4.85693">
        <ele>280</ele>
        <time>2018-09-04T08:37:50Z</time>
      </trkpt>
      <trkpt lat="45.94789" lon="4.857">
        <ele>280</ele>
        <time>2018-09-04T08:37:51Z</time>
      </trkpt>
      <trkpt lat="45.94794" lon="4.85711">
        <ele>280</ele>
        <time>2018-09-04T08:37:53Z</time>
      </trkpt>
      <trkpt lat="45.94796" lon="4.85718">
        <ele>280</ele>
        <time>2018-09-04T08:37:54Z</time>
      </trkpt>
      <trkpt lat="45.94797" lon="4.85724">
        <ele>280</ele>
        <time>2018-09-04T08:37:55Z</time>
      </trkpt>
      <trkpt lat="45.94799" lon="4.85731">
        <ele>280</ele>
        <time>2018-09-04T08:37:56Z</time>
      </trkpt>
      <trkpt lat="45.94801" lon="4.85737">
        <ele>280</ele>
        <time>2018-09-04T08:37:57Z</time>
      </trkpt>
      <trkpt lat="45.94803" lon="4.85744">
        <ele>279</ele>
        <time>2018-09-04T08:37:58Z</time>
      </trkpt>
      <trkpt lat="45.94807" lon="4.85753">
        <ele>278</ele>
        <time>2018-09-04T08:37:59Z</time>
      </trkpt>
      <trkpt lat="45.94808" lon="4.85761">
        <ele>278</ele>
        <time>2018-09-04T08:38:00Z</time>
      </trkpt>
      <trkpt lat="45.94808" lon="4.85768">
        <ele>278</ele>
        <time>2018-09-04T08:38:01Z</time>
      </trkpt>
      <trkpt lat="45.94811" lon="4.85776">
        <ele>278</ele>
        <time>2018-09-04T08:38:02Z</time>
      </trkpt>
      <trkpt lat="45.94813" lon="4.85784">
        <ele>278</ele>
        <time>2018-09-04T08:38:03Z</time>
      </trkpt>
      <trkpt lat="45.94816" lon="4.85792">
        <ele>278</ele>
        <time>2018-09-04T08:38:04Z</time>
      </trkpt>
      <trkpt lat="45.94818" lon="4.858">
        <ele>278</ele>
        <time>2018-09-04T08:38:05Z</time>
      </trkpt>
      <trkpt lat="45.9482" lon="4.85808">
        <ele>278</ele>
        <time>2018-09-04T08:38:06Z</time>
      </trkpt>
      <trkpt lat="45.94822" lon="4.85816">
        <ele>278</ele>
        <time>2018-09-04T08:38:07Z</time>
      </trkpt>
      <trkpt lat="45.94824" lon="4.85824">
        <ele>278</ele>
        <time>2018-09-04T08:38:08Z</time>
      </trkpt>
      <trkpt lat="45.94826" lon="4.85832">
        <ele>277</ele>
        <time>2018-09-04T08:38:09Z</time>
      </trkpt>
      <trkpt lat="45.94827" lon="4.85839">
        <ele>277</ele>
        <time>2018-09-04T08:38:10Z</time>
      </trkpt>
      <trkpt lat="45.9483" lon="4.85847">
        <ele>277</ele>
        <time>2018-09-04T08:38:11Z</time>
      </trkpt>
      <trkpt lat="45.94832" lon="4.85855">
        <ele>277</ele>
        <time>2018-09-04T08:38:12Z</time>
      </trkpt>
      <trkpt lat="45.94835" lon="4.85864">
        <ele>276</ele>
        <time>2018-09-04T08:38:13Z</time>
      </trkpt>
      <trkpt lat="45.94837" lon="4.85871">
        <ele>276</ele>
        <time>2018-09-04T08:38:14Z</time>
      </trkpt>
      <trkpt lat="45.94839" lon="4.85879">
        <ele>276</ele>
        <time>2018-09-04T08:38:15Z</time>
      </trkpt>
      <trkpt lat="45.94842" lon="4.85887">
        <ele>276</ele>
        <time>2018-09-04T08:38:16Z</time>
      </trkpt>
      <trkpt lat="45.94844" lon="4.85895">
        <ele>276</ele>
        <time>2018-09-04T08:38:17Z</time>
      </trkpt>
      <trkpt lat="45.94846" lon="4.85903">
        <ele>276</ele>
        <time>2018-09-04T08:38:18Z</time>
      </trkpt>
      <trkpt lat="45.94848" lon="4.85911">
        <ele>275</ele>
        <time>2018-09-04T08:38:19Z</time>
      </trkpt>
      <trkpt lat="45.94849" lon="4.85918">
        <ele>275</ele>
        <time>2018-09-04T08:38:20Z</time>
      </trkpt>
      <trkpt lat="45.9485" lon="4.85925">
        <ele>275</ele>
        <time>2018-09-04T08:38:21Z</time>
      </trkpt>
      <trkpt lat="45.94852" lon="4.85932">
        <ele>275</ele>
        <time>2018-09-04T08:38:22Z</time>
      </trkpt>
      <trkpt lat="45.94855" lon="4.85941">
        <ele>275</ele>
        <time>2018-09-04T08:38:23Z</time>
      </trkpt>
      <trkpt lat="45.94856" lon="4.85949">
        <ele>275</ele>
        <time>2018-09-04T08:38:24Z</time>
      </trkpt>
      <trkpt lat="45.94859" lon="4.85956">
        <ele>275</ele>
        <time>2018-09-04T08:38:25Z</time>
      </trkpt>
      <trkpt lat="45.94861" lon="4.85964">
        <ele>275</ele>
        <time>2018-09-04T08:38:26Z</time>
      </trkpt>
      <trkpt lat="45.94865" lon="4.85975">
        <ele>275</ele>
        <time>2018-09-04T08:38:28Z</time>
      </trkpt>
      <trkpt lat="45.94867" lon="4.85983">
        <ele>275</ele>
        <time>2018-09-04T08:38:29Z</time>
      </trkpt>
      <trkpt lat="45.94869" lon="4.8599">
        <ele>275</ele>
        <time>2018-09-04T08:38:30Z</time>
      </trkpt>
      <trkpt lat="45.94871" lon="4.85999">
        <ele>275</ele>
        <time>2018-09-04T08:38:31Z</time>
      </trkpt>
      <trkpt lat="45.94874" lon="4.86005">
        <ele>274</ele>
        <time>2018-09-04T08:38:32Z</time>
      </trkpt>
      <trkpt lat="45.94877" lon="4.86011">
        <ele>274</ele>
        <time>2018-09-04T08:38:33Z</time>
      </trkpt>
      <trkpt lat="45.94879" lon="4.86019">
        <ele>274</ele>
        <time>2018-09-04T08:38:34Z</time>
      </trkpt>
      <trkpt lat="45.9488" lon="4.86026">
        <ele>274</ele>
        <time>2018-09-04T08:38:35Z</time>
      </trkpt>
      <trkpt lat="45.94882" lon="4.86034">
        <ele>274</ele>
        <time>2018-09-04T08:38:36Z</time>
      </trkpt>
      <trkpt lat="45.94884" lon="4.86041">
        <ele>274</ele>
        <time>2018-09-04T08:38:37Z</time>
      </trkpt>
      <trkpt lat="45.94886" lon="4.86047">
        <ele>274</ele>
        <time>2018-09-04T08:38:38Z</time>
      </trkpt>
      <trkpt lat="45.94888" lon="4.86054">
        <ele>274</ele>
        <time>2018-09-04T08:38:39Z</time>
      </trkpt>
      <trkpt lat="45.94889" lon="4.86061">
        <ele>274</ele>
        <time>2018-09-04T08:38:40Z</time>
      </trkpt>
      <trkpt lat="45.94891" lon="4.86067">
        <ele>274</ele>
        <time>2018-09-04T08:38:41Z</time>
      </trkpt>
      <trkpt lat="45.94894" lon="4.86073">
        <ele>274</ele>
        <time>2018-09-04T08:38:42Z</time>
      </trkpt>
      <trkpt lat="45.94897" lon="4.8608">
        <ele>274</ele>
        <time>2018-09-04T08:38:43Z</time>
      </trkpt>
      <trkpt lat="45.94899" lon="4.86088">
        <ele>274</ele>
        <time>2018-09-04T08:38:44Z</time>
      </trkpt>
      <trkpt lat="45.94901" lon="4.86096">
        <ele>274</ele>
        <time>2018-09-04T08:38:45Z</time>
      </trkpt>
      <trkpt lat="45.94905" lon="4.86103">
        <ele>274</ele>
        <time>2018-09-04T08:38:46Z</time>
      </trkpt>
      <trkpt lat="45.94909" lon="4.86111">
        <ele>274</ele>
        <time>2018-09-04T08:38:47Z</time>
      </trkpt>
      <trkpt lat="45.94911" lon="4.86118">
        <ele>274</ele>
        <time>2018-09-04T08:38:48Z</time>
      </trkpt>
      <trkpt lat="45.94916" lon="4.86124">
        <ele>274</ele>
        <time>2018-09-04T08:38:49Z</time>
      </trkpt>
      <trkpt lat="45.9492" lon="4.8613">
        <ele>273</ele>
        <time>2018-09-04T08:38:50Z</time>
      </trkpt>
      <trkpt lat="45.94923" lon="4.86136">
        <ele>273</ele>
        <time>2018-09-04T08:38:51Z</time>
      </trkpt>
      <trkpt lat="45.94928" lon="4.86142">
        <ele>273</ele>
        <time>2018-09-04T08:38:52Z</time>
      </trkpt>
      <trkpt lat="45.94932" lon="4.86147">
        <ele>273</ele>
        <time>2018-09-04T08:38:53Z</time>
      </trkpt>
      <trkpt lat="45.94936" lon="4.86152">
        <ele>273</ele>
        <time>2018-09-04T08:38:54Z</time>
      </trkpt>
      <trkpt lat="45.9494" lon="4.86157">
        <ele>273</ele>
        <time>2018-09-04T08:38:55Z</time>
      </trkpt>
      <trkpt lat="45.94944" lon="4.86162">
        <ele>273</ele>
        <time>2018-09-04T08:38:56Z</time>
      </trkpt>
      <trkpt lat="45.94949" lon="4.86168">
        <ele>273</ele>
        <time>2018-09-04T08:38:57Z</time>
      </trkpt>
      <trkpt lat="45.94953" lon="4.86174">
        <ele>273</ele>
        <time>2018-09-04T08:38:58Z</time>
      </trkpt>
      <trkpt lat="45.94957" lon="4.8618">
        <ele>273</ele>
        <time>2018-09-04T08:38:59Z</time>
      </trkpt>
      <trkpt lat="45.94961" lon="4.86187">
        <ele>272</ele>
        <time>2018-09-04T08:39:00Z</time>
      </trkpt>
      <trkpt lat="45.94965" lon="4.86192">
        <ele>272</ele>
        <time>2018-09-04T08:39:01Z</time>
      </trkpt>
      <trkpt lat="45.9497" lon="4.86198">
        <ele>272</ele>
        <time>2018-09-04T08:39:02Z</time>
      </trkpt>
      <trkpt lat="45.94974" lon="4.86202">
        <ele>272</ele>
        <time>2018-09-04T08:39:03Z</time>
      </trkpt>
      <trkpt lat="45.94979" lon="4.86207">
        <ele>272</ele>
        <time>2018-09-04T08:39:04Z</time>
      </trkpt>
      <trkpt lat="45.94985" lon="4.8621">
        <ele>272</ele>
        <time>2018-09-04T08:39:05Z</time>
      </trkpt>
      <trkpt lat="45.94989" lon="4.86213">
        <ele>272</ele>
        <time>2018-09-04T08:39:06Z</time>
      </trkpt>
      <trkpt lat="45.94993" lon="4.86219">
        <ele>272</ele>
        <time>2018-09-04T08:39:07Z</time>
      </trkpt>
      <trkpt lat="45.94999" lon="4.8622">
        <ele>272</ele>
        <time>2018-09-04T08:39:08Z</time>
      </trkpt>
      <trkpt lat="45.95004" lon="4.86225">
        <ele>271</ele>
        <time>2018-09-04T08:39:09Z</time>
      </trkpt>
      <trkpt lat="45.95009" lon="4.86232">
        <ele>271</ele>
        <time>2018-09-04T08:39:10Z</time>
      </trkpt>
      <trkpt lat="45.95014" lon="4.86238">
        <ele>271</ele>
        <time>2018-09-04T08:39:11Z</time>
      </trkpt>
      <trkpt lat="45.95018" lon="4.86244">
        <ele>271</ele>
        <time>2018-09-04T08:39:12Z</time>
      </trkpt>
      <trkpt lat="45.95021" lon="4.86253">
        <ele>271</ele>
        <time>2018-09-04T08:39:13Z</time>
      </trkpt>
      <trkpt lat="45.95026" lon="4.86259">
        <ele>271</ele>
        <time>2018-09-04T08:39:14Z</time>
      </trkpt>
      <trkpt lat="45.95032" lon="4.86265">
        <ele>271</ele>
        <time>2018-09-04T08:39:15Z</time>
      </trkpt>
      <trkpt lat="45.95036" lon="4.8627">
        <ele>271</ele>
        <time>2018-09-04T08:39:16Z</time>
      </trkpt>
      <trkpt lat="45.95041" lon="4.86277">
        <ele>271</ele>
        <time>2018-09-04T08:39:17Z</time>
      </trkpt>
      <trkpt lat="45.95046" lon="4.86284">
        <ele>271</ele>
        <time>2018-09-04T08:39:18Z</time>
      </trkpt>
      <trkpt lat="45.9505" lon="4.8629">
        <ele>271</ele>
        <time>2018-09-04T08:39:19Z</time>
      </trkpt>
      <trkpt lat="45.95053" lon="4.86301">
        <ele>271</ele>
        <time>2018-09-04T08:39:20Z</time>
      </trkpt>
      <trkpt lat="45.95058" lon="4.86307">
        <ele>271</ele>
        <time>2018-09-04T08:39:21Z</time>
      </trkpt>
      <trkpt lat="45.95062" lon="4.86312">
        <ele>270</ele>
        <time>2018-09-04T08:39:22Z</time>
      </trkpt>
      <trkpt lat="45.95066" lon="4.86321">
        <ele>270</ele>
        <time>2018-09-04T08:39:23Z</time>
      </trkpt>
      <trkpt lat="45.95071" lon="4.86326">
        <ele>270</ele>
        <time>2018-09-04T08:39:24Z</time>
      </trkpt>
      <trkpt lat="45.95074" lon="4.86333">
        <ele>270</ele>
        <time>2018-09-04T08:39:25Z</time>
      </trkpt>
      <trkpt lat="45.95079" lon="4.86338">
        <ele>270</ele>
        <time>2018-09-04T08:39:26Z</time>
      </trkpt>
      <trkpt lat="45.95083" lon="4.86344">
        <ele>270</ele>
        <time>2018-09-04T08:39:27Z</time>
      </trkpt>
      <trkpt lat="45.95088" lon="4.86347">
        <ele>269</ele>
        <time>2018-09-04T08:39:28Z</time>
      </trkpt>
      <trkpt lat="45.95093" lon="4.86352">
        <ele>269</ele>
        <time>2018-09-04T08:39:29Z</time>
      </trkpt>
      <trkpt lat="45.95099" lon="4.86358">
        <ele>269</ele>
        <time>2018-09-04T08:39:30Z</time>
      </trkpt>
      <trkpt lat="45.95104" lon="4.86364">
        <ele>269</ele>
        <time>2018-09-04T08:39:31Z</time>
      </trkpt>
      <trkpt lat="45.95108" lon="4.86372">
        <ele>269</ele>
        <time>2018-09-04T08:39:32Z</time>
      </trkpt>
      <trkpt lat="45.95113" lon="4.86378">
        <ele>269</ele>
        <time>2018-09-04T08:39:33Z</time>
      </trkpt>
      <trkpt lat="45.95118" lon="4.86384">
        <ele>269</ele>
        <time>2018-09-04T08:39:34Z</time>
      </trkpt>
      <trkpt lat="45.95124" lon="4.86392">
        <ele>269</ele>
        <time>2018-09-04T08:39:35Z</time>
      </trkpt>
      <trkpt lat="45.95129" lon="4.86398">
        <ele>268</ele>
        <time>2018-09-04T08:39:36Z</time>
      </trkpt>
      <trkpt lat="45.95134" lon="4.86404">
        <ele>268</ele>
        <time>2018-09-04T08:39:37Z</time>
      </trkpt>
      <trkpt lat="45.95138" lon="4.8641">
        <ele>268</ele>
        <time>2018-09-04T08:39:38Z</time>
      </trkpt>
      <trkpt lat="45.95143" lon="4.86416">
        <ele>268</ele>
        <time>2018-09-04T08:39:39Z</time>
      </trkpt>
      <trkpt lat="45.95148" lon="4.86419">
        <ele>268</ele>
        <time>2018-09-04T08:39:40Z</time>
      </trkpt>
      <trkpt lat="45.95152" lon="4.86426">
        <ele>268</ele>
        <time>2018-09-04T08:39:41Z</time>
      </trkpt>
      <trkpt lat="45.95156" lon="4.86432">
        <ele>268</ele>
        <time>2018-09-04T08:39:42Z</time>
      </trkpt>
      <trkpt lat="45.9516" lon="4.86436">
        <ele>268</ele>
        <time>2018-09-04T08:39:43Z</time>
      </trkpt>
      <trkpt lat="45.95164" lon="4.86442">
        <ele>268</ele>
        <time>2018-09-04T08:39:44Z</time>
      </trkpt>
      <trkpt lat="45.95167" lon="4.86447">
        <ele>268</ele>
        <time>2018-09-04T08:39:45Z</time>
      </trkpt>
      <trkpt lat="45.95171" lon="4.86452">
        <ele>268</ele>
        <time>2018-09-04T08:39:46Z</time>
      </trkpt>
      <trkpt lat="45.95175" lon="4.86456">
        <ele>268</ele>
        <time>2018-09-04T08:39:47Z</time>
      </trkpt>
      <trkpt lat="45.95179" lon="4.86461">
        <ele>268</ele>
        <time>2018-09-04T08:39:48Z</time>
      </trkpt>
      <trkpt lat="45.95183" lon="4.86465">
        <ele>268</ele>
        <time>2018-09-04T08:39:49Z</time>
      </trkpt>
      <trkpt lat="45.95187" lon="4.86471">
        <ele>268</ele>
        <time>2018-09-04T08:39:50Z</time>
      </trkpt>
      <trkpt lat="45.95192" lon="4.86476">
        <ele>268</ele>
        <time>2018-09-04T08:39:51Z</time>
      </trkpt>
      <trkpt lat="45.95196" lon="4.86481">
        <ele>268</ele>
        <time>2018-09-04T08:39:52Z</time>
      </trkpt>
      <trkpt lat="45.95201" lon="4.86487">
        <ele>268</ele>
        <time>2018-09-04T08:39:53Z</time>
      </trkpt>
      <trkpt lat="45.95207" lon="4.86492">
        <ele>268</ele>
        <time>2018-09-04T08:39:54Z</time>
      </trkpt>
      <trkpt lat="45.95212" lon="4.86498">
        <ele>268</ele>
        <time>2018-09-04T08:39:55Z</time>
      </trkpt>
      <trkpt lat="45.95216" lon="4.86505">
        <ele>268</ele>
        <time>2018-09-04T08:39:56Z</time>
      </trkpt>
      <trkpt lat="45.95222" lon="4.86512">
        <ele>268</ele>
        <time>2018-09-04T08:39:57Z</time>
      </trkpt>
      <trkpt lat="45.95227" lon="4.86517">
        <ele>268</ele>
        <time>2018-09-04T08:39:58Z</time>
      </trkpt>
      <trkpt lat="45.95233" lon="4.86524">
        <ele>268</ele>
        <time>2018-09-04T08:39:59Z</time>
      </trkpt>
      <trkpt lat="45.95238" lon="4.86531">
        <ele>268</ele>
        <time>2018-09-04T08:40:00Z</time>
      </trkpt>
      <trkpt lat="45.95244" lon="4.86535">
        <ele>268</ele>
        <time>2018-09-04T08:40:01Z</time>
      </trkpt>
      <trkpt lat="45.95249" lon="4.8654">
        <ele>268</ele>
        <time>2018-09-04T08:40:02Z</time>
      </trkpt>
      <trkpt lat="45.95252" lon="4.86543">
        <ele>267</ele>
        <time>2018-09-04T08:40:03Z</time>
      </trkpt>
      <trkpt lat="45.95255" lon="4.86549">
        <ele>267</ele>
        <time>2018-09-04T08:40:04Z</time>
      </trkpt>
      <trkpt lat="45.95257" lon="4.86556">
        <ele>267</ele>
        <time>2018-09-04T08:40:05Z</time>
      </trkpt>
      <trkpt lat="45.95258" lon="4.86563">
        <ele>267</ele>
        <time>2018-09-04T08:40:06Z</time>
      </trkpt>
      <trkpt lat="45.95257" lon="4.86572">
        <ele>267</ele>
        <time>2018-09-04T08:40:07Z</time>
      </trkpt>
      <trkpt lat="45.95253" lon="4.86582">
        <ele>268</ele>
        <time>2018-09-04T08:40:09Z</time>
      </trkpt>
      <trkpt lat="45.9525" lon="4.86584">
        <ele>268</ele>
        <time>2018-09-04T08:40:10Z</time>
      </trkpt>
      <trkpt lat="45.95244" lon="4.86583">
        <ele>268</ele>
        <time>2018-09-04T08:40:11Z</time>
      </trkpt>
      <trkpt lat="45.9524" lon="4.86582">
        <ele>268</ele>
        <time>2018-09-04T08:40:12Z</time>
      </trkpt>
      <trkpt lat="45.95231" lon="4.86579">
        <ele>268</ele>
        <time>2018-09-04T08:40:14Z</time>
      </trkpt>
      <trkpt lat="45.95227" lon="4.8658">
        <ele>268</ele>
        <time>2018-09-04T08:40:15Z</time>
      </trkpt>
      <trkpt lat="45.9522" lon="4.86579">
        <ele>268</ele>
        <time>2018-09-04T08:40:17Z</time>
      </trkpt>
      <trkpt lat="45.95217" lon="4.86579">
        <ele>268</ele>
        <time>2018-09-04T08:40:18Z</time>
      </trkpt>
      <trkpt lat="45.95211" lon="4.86577">
        <ele>268</ele>
        <time>2018-09-04T08:40:19Z</time>
      </trkpt>
      <trkpt lat="45.95207" lon="4.86576">
        <ele>268</ele>
        <time>2018-09-04T08:40:20Z</time>
      </trkpt>
      <trkpt lat="45.95198" lon="4.86575">
        <ele>268</ele>
        <time>2018-09-04T08:40:22Z</time>
      </trkpt>
      <trkpt lat="45.95193" lon="4.86575">
        <ele>268</ele>
        <time>2018-09-04T08:40:23Z</time>
      </trkpt>
      <trkpt lat="45.95186" lon="4.86578">
        <ele>269</ele>
        <time>2018-09-04T08:40:25Z</time>
      </trkpt>
      <trkpt lat="45.9518" lon="4.86579">
        <ele>269</ele>
        <time>2018-09-04T08:40:26Z</time>
      </trkpt>
      <trkpt lat="45.95173" lon="4.86579">
        <ele>269</ele>
        <time>2018-09-04T08:40:28Z</time>
      </trkpt>
      <trkpt lat="45.95169" lon="4.8658">
        <ele>269</ele>
        <time>2018-09-04T08:40:29Z</time>
      </trkpt>
      <trkpt lat="45.95162" lon="4.86581">
        <ele>269</ele>
        <time>2018-09-04T08:40:30Z</time>
      </trkpt>
      <trkpt lat="45.95158" lon="4.86581">
        <ele>269</ele>
        <time>2018-09-04T08:40:31Z</time>
      </trkpt>
      <trkpt lat="45.9515" lon="4.86582">
        <ele>270</ele>
        <time>2018-09-04T08:40:33Z</time>
      </trkpt>
      <trkpt lat="45.95145" lon="4.86583">
        <ele>270</ele>
        <time>2018-09-04T08:40:34Z</time>
      </trkpt>
      <trkpt lat="45.9514" lon="4.86581">
        <ele>270</ele>
        <time>2018-09-04T08:40:35Z</time>
      </trkpt>
      <trkpt lat="45.95136" lon="4.86581">
        <ele>270</ele>
        <time>2018-09-04T08:40:36Z</time>
      </trkpt>
      <trkpt lat="45.95129" lon="4.86582">
        <ele>270</ele>
        <time>2018-09-04T08:40:38Z</time>
      </trkpt>
      <trkpt lat="45.95124" lon="4.86584">
        <ele>270</ele>
        <time>2018-09-04T08:40:39Z</time>
      </trkpt>
      <trkpt lat="45.95119" lon="4.86585">
        <ele>270</ele>
        <time>2018-09-04T08:40:40Z</time>
      </trkpt>
      <trkpt lat="45.95114" lon="4.86587">
        <ele>270</ele>
        <time>2018-09-04T08:40:41Z</time>
      </trkpt>
      <trkpt lat="45.95106" lon="4.86594">
        <ele>271</ele>
        <time>2018-09-04T08:40:43Z</time>
      </trkpt>
      <trkpt lat="45.95101" lon="4.86595">
        <ele>271</ele>
        <time>2018-09-04T08:40:44Z</time>
      </trkpt>
      <trkpt lat="45.95094" lon="4.86602">
        <ele>271</ele>
        <time>2018-09-04T08:40:46Z</time>
      </trkpt>
      <trkpt lat="45.9509" lon="4.86603">
        <ele>271</ele>
        <time>2018-09-04T08:40:47Z</time>
      </trkpt>
      <trkpt lat="45.95085" lon="4.86604">
        <ele>271</ele>
        <time>2018-09-04T08:40:48Z</time>
      </trkpt>
      <trkpt lat="45.95079" lon="4.86606">
        <ele>272</ele>
        <time>2018-09-04T08:40:49Z</time>
      </trkpt>
      <trkpt lat="45.95073" lon="4.86612">
        <ele>272</ele>
        <time>2018-09-04T08:40:51Z</time>
      </trkpt>
      <trkpt lat="45.95068" lon="4.86614">
        <ele>272</ele>
        <time>2018-09-04T08:40:52Z</time>
      </trkpt>
      <trkpt lat="45.95063" lon="4.86617">
        <ele>272</ele>
        <time>2018-09-04T08:40:53Z</time>
      </trkpt>
      <trkpt lat="45.95058" lon="4.8662">
        <ele>272</ele>
        <time>2018-09-04T08:40:54Z</time>
      </trkpt>
      <trkpt lat="45.95051" lon="4.86625">
        <ele>272</ele>
        <time>2018-09-04T08:40:56Z</time>
      </trkpt>
      <trkpt lat="45.95046" lon="4.86627">
        <ele>272</ele>
        <time>2018-09-04T08:40:57Z</time>
      </trkpt>
      <trkpt lat="45.95038" lon="4.86628">
        <ele>273</ele>
        <time>2018-09-04T08:41:00Z</time>
      </trkpt>
      <trkpt lat="45.95036" lon="4.86627">
        <ele>273</ele>
        <time>2018-09-04T08:41:01Z</time>
      </trkpt>
      <trkpt lat="45.95033" lon="4.86626">
        <ele>273</ele>
        <time>2018-09-04T08:41:02Z</time>
      </trkpt>
      <trkpt lat="45.95024" lon="4.86626">
        <ele>273</ele>
        <time>2018-09-04T08:41:03Z</time>
      </trkpt>
      <trkpt lat="45.95016" lon="4.86628">
        <ele>273</ele>
        <time>2018-09-04T08:41:05Z</time>
      </trkpt>
      <trkpt lat="45.95011" lon="4.86627">
        <ele>273</ele>
        <time>2018-09-04T08:41:06Z</time>
      </trkpt>
      <trkpt lat="45.95004" lon="4.8663">
        <ele>273</ele>
        <time>2018-09-04T08:41:08Z</time>
      </trkpt>
      <trkpt lat="45.94999" lon="4.86631">
        <ele>275</ele>
        <time>2018-09-04T08:41:09Z</time>
      </trkpt>
      <trkpt lat="45.94993" lon="4.86631">
        <ele>275</ele>
        <time>2018-09-04T08:41:10Z</time>
      </trkpt>
      <trkpt lat="45.94987" lon="4.86631">
        <ele>275</ele>
        <time>2018-09-04T08:41:11Z</time>
      </trkpt>
      <trkpt lat="45.94982" lon="4.86632">
        <ele>275</ele>
        <time>2018-09-04T08:41:12Z</time>
      </trkpt>
      <trkpt lat="45.94977" lon="4.86634">
        <ele>275</ele>
        <time>2018-09-04T08:41:13Z</time>
      </trkpt>
      <trkpt lat="45.94969" lon="4.86639">
        <ele>275</ele>
        <time>2018-09-04T08:41:15Z</time>
      </trkpt>
      <trkpt lat="45.94968" lon="4.8664">
        <ele>275</ele>
        <time>2018-09-04T08:41:16Z</time>
      </trkpt>
      <trkpt lat="45.94962" lon="4.86646">
        <ele>275</ele>
        <time>2018-09-04T08:41:18Z</time>
      </trkpt>
      <trkpt lat="45.94959" lon="4.86651">
        <ele>275</ele>
        <time>2018-09-04T08:41:19Z</time>
      </trkpt>
      <trkpt lat="45.94953" lon="4.86659">
        <ele>276</ele>
        <time>2018-09-04T08:41:21Z</time>
      </trkpt>
      <trkpt lat="45.94952" lon="4.86666">
        <ele>276</ele>
        <time>2018-09-04T08:41:22Z</time>
      </trkpt>
      <trkpt lat="45.9495" lon="4.86676">
        <ele>276</ele>
        <time>2018-09-04T08:41:24Z</time>
      </trkpt>
      <trkpt lat="45.94949" lon="4.86681">
        <ele>276</ele>
        <time>2018-09-04T08:41:25Z</time>
      </trkpt>
      <trkpt lat="45.9495" lon="4.86692">
        <ele>275</ele>
        <time>2018-09-04T08:41:27Z</time>
      </trkpt>
      <trkpt lat="45.9495" lon="4.86697">
        <ele>275</ele>
        <time>2018-09-04T08:41:28Z</time>
      </trkpt>
      <trkpt lat="45.94952" lon="4.86709">
        <ele>275</ele>
        <time>2018-09-04T08:41:30Z</time>
      </trkpt>
      <trkpt lat="45.94953" lon="4.86716">
        <ele>275</ele>
        <time>2018-09-04T08:41:31Z</time>
      </trkpt>
      <trkpt lat="45.94954" lon="4.86723">
        <ele>275</ele>
        <time>2018-09-04T08:41:32Z</time>
      </trkpt>
      <trkpt lat="45.94956" lon="4.8673">
        <ele>275</ele>
        <time>2018-09-04T08:41:33Z</time>
      </trkpt>
      <trkpt lat="45.94959" lon="4.86736">
        <ele>275</ele>
        <time>2018-09-04T08:41:34Z</time>
      </trkpt>
      <trkpt lat="45.94961" lon="4.86742">
        <ele>275</ele>
        <time>2018-09-04T08:41:35Z</time>
      </trkpt>
      <trkpt lat="45.94963" lon="4.86747">
        <ele>275</ele>
        <time>2018-09-04T08:41:36Z</time>
      </trkpt>
      <trkpt lat="45.94966" lon="4.86752">
        <ele>275</ele>
        <time>2018-09-04T08:41:37Z</time>
      </trkpt>
      <trkpt lat="45.94973" lon="4.86759">
        <ele>275</ele>
        <time>2018-09-04T08:41:39Z</time>
      </trkpt>
      <trkpt lat="45.94974" lon="4.86763">
        <ele>275</ele>
        <time>2018-09-04T08:41:40Z</time>
      </trkpt>
      <trkpt lat="45.9498" lon="4.86771">
        <ele>275</ele>
        <time>2018-09-04T08:41:42Z</time>
      </trkpt>
      <trkpt lat="45.94984" lon="4.86776">
        <ele>275</ele>
        <time>2018-09-04T08:41:43Z</time>
      </trkpt>
      <trkpt lat="45.94988" lon="4.86782">
        <ele>275</ele>
        <time>2018-09-04T08:41:44Z</time>
      </trkpt>
      <trkpt lat="45.9499" lon="4.86788">
        <ele>275</ele>
        <time>2018-09-04T08:41:45Z</time>
      </trkpt>
      <trkpt lat="45.94993" lon="4.86794">
        <ele>276</ele>
        <time>2018-09-04T08:41:46Z</time>
      </trkpt>
      <trkpt lat="45.94996" lon="4.86799">
        <ele>276</ele>
        <time>2018-09-04T08:41:47Z</time>
      </trkpt>
      <trkpt lat="45.94999" lon="4.86805">
        <ele>276</ele>
        <time>2018-09-04T08:41:48Z</time>
      </trkpt>
      <trkpt lat="45.95001" lon="4.86811">
        <ele>275</ele>
        <time>2018-09-04T08:41:49Z</time>
      </trkpt>
      <trkpt lat="45.95004" lon="4.86816">
        <ele>275</ele>
        <time>2018-09-04T08:41:50Z</time>
      </trkpt>
      <trkpt lat="45.95007" lon="4.86823">
        <ele>275</ele>
        <time>2018-09-04T08:41:51Z</time>
      </trkpt>
      <trkpt lat="45.95012" lon="4.86832">
        <ele>275</ele>
        <time>2018-09-04T08:41:53Z</time>
      </trkpt>
      <trkpt lat="45.95014" lon="4.86838">
        <ele>276</ele>
        <time>2018-09-04T08:41:54Z</time>
      </trkpt>
      <trkpt lat="45.9502" lon="4.86846">
        <ele>275</ele>
        <time>2018-09-04T08:41:56Z</time>
      </trkpt>
      <trkpt lat="45.95023" lon="4.86852">
        <ele>275</ele>
        <time>2018-09-04T08:41:57Z</time>
      </trkpt>
      <trkpt lat="45.95026" lon="4.86859">
        <ele>275</ele>
        <time>2018-09-04T08:41:58Z</time>
      </trkpt>
      <trkpt lat="45.95028" lon="4.86867">
        <ele>275</ele>
        <time>2018-09-04T08:41:59Z</time>
      </trkpt>
      <trkpt lat="45.95029" lon="4.86875">
        <ele>275</ele>
        <time>2018-09-04T08:42:00Z</time>
      </trkpt>
      <trkpt lat="45.9503" lon="4.86882">
        <ele>275</ele>
        <time>2018-09-04T08:42:01Z</time>
      </trkpt>
      <trkpt lat="45.95032" lon="4.86888">
        <ele>275</ele>
        <time>2018-09-04T08:42:02Z</time>
      </trkpt>
      <trkpt lat="45.95033" lon="4.86896">
        <ele>275</ele>
        <time>2018-09-04T08:42:03Z</time>
      </trkpt>
      <trkpt lat="45.95036" lon="4.86904">
        <ele>275</ele>
        <time>2018-09-04T08:42:04Z</time>
      </trkpt>
      <trkpt lat="45.95038" lon="4.8691">
        <ele>275</ele>
        <time>2018-09-04T08:42:05Z</time>
      </trkpt>
      <trkpt lat="45.95039" lon="4.86916">
        <ele>275</ele>
        <time>2018-09-04T08:42:06Z</time>
      </trkpt>
      <trkpt lat="45.95042" lon="4.86923">
        <ele>276</ele>
        <time>2018-09-04T08:42:07Z</time>
      </trkpt>
      <trkpt lat="45.95043" lon="4.86929">
        <ele>276</ele>
        <time>2018-09-04T08:42:08Z</time>
      </trkpt>
      <trkpt lat="45.95043" lon="4.86938">
        <ele>276</ele>
        <time>2018-09-04T08:42:09Z</time>
      </trkpt>
      <trkpt lat="45.95045" lon="4.86944">
        <ele>276</ele>
        <time>2018-09-04T08:42:10Z</time>
      </trkpt>
      <trkpt lat="45.95048" lon="4.86951">
        <ele>276</ele>
        <time>2018-09-04T08:42:11Z</time>
      </trkpt>
      <trkpt lat="45.95049" lon="4.86955">
        <ele>276</ele>
        <time>2018-09-04T08:42:12Z</time>
      </trkpt>
      <trkpt lat="45.95051" lon="4.86964">
        <ele>276</ele>
        <time>2018-09-04T08:42:13Z</time>
      </trkpt>
      <trkpt lat="45.95054" lon="4.86974">
        <ele>276</ele>
        <time>2018-09-04T08:42:15Z</time>
      </trkpt>
      <trkpt lat="45.95056" lon="4.86981">
        <ele>276</ele>
        <time>2018-09-04T08:42:16Z</time>
      </trkpt>
      <trkpt lat="45.9506" lon="4.86987">
        <ele>276</ele>
        <time>2018-09-04T08:42:17Z</time>
      </trkpt>
      <trkpt lat="45.95062" lon="4.86992">
        <ele>276</ele>
        <time>2018-09-04T08:42:18Z</time>
      </trkpt>
      <trkpt lat="45.95064" lon="4.86998">
        <ele>277</ele>
        <time>2018-09-04T08:42:19Z</time>
      </trkpt>
      <trkpt lat="45.95066" lon="4.87004">
        <ele>277</ele>
        <time>2018-09-04T08:42:20Z</time>
      </trkpt>
      <trkpt lat="45.95071" lon="4.87014">
        <ele>277</ele>
        <time>2018-09-04T08:42:22Z</time>
      </trkpt>
      <trkpt lat="45.95074" lon="4.8702">
        <ele>277</ele>
        <time>2018-09-04T08:42:23Z</time>
      </trkpt>
      <trkpt lat="45.95079" lon="4.87028">
        <ele>277</ele>
        <time>2018-09-04T08:42:25Z</time>
      </trkpt>
      <trkpt lat="45.95081" lon="4.87032">
        <ele>277</ele>
        <time>2018-09-04T08:42:26Z</time>
      </trkpt>
      <trkpt lat="45.95086" lon="4.87038">
        <ele>277</ele>
        <time>2018-09-04T08:42:27Z</time>
      </trkpt>
      <trkpt lat="45.95088" lon="4.87043">
        <ele>277</ele>
        <time>2018-09-04T08:42:28Z</time>
      </trkpt>
      <trkpt lat="45.95093" lon="4.87052">
        <ele>277</ele>
        <time>2018-09-04T08:42:30Z</time>
      </trkpt>
      <trkpt lat="45.95095" lon="4.87059">
        <ele>277</ele>
        <time>2018-09-04T08:42:31Z</time>
      </trkpt>
      <trkpt lat="45.95098" lon="4.87066">
        <ele>277</ele>
        <time>2018-09-04T08:42:32Z</time>
      </trkpt>
      <trkpt lat="45.95101" lon="4.87072">
        <ele>277</ele>
        <time>2018-09-04T08:42:33Z</time>
      </trkpt>
      <trkpt lat="45.95103" lon="4.8708">
        <ele>277</ele>
        <time>2018-09-04T08:42:34Z</time>
      </trkpt>
      <trkpt lat="45.95105" lon="4.87087">
        <ele>277</ele>
        <time>2018-09-04T08:42:35Z</time>
      </trkpt>
      <trkpt lat="45.95106" lon="4.87091">
        <ele>277</ele>
        <time>2018-09-04T08:42:36Z</time>
      </trkpt>
      <trkpt lat="45.95108" lon="4.87099">
        <ele>277</ele>
        <time>2018-09-04T08:42:37Z</time>
      </trkpt>
      <trkpt lat="45.95109" lon="4.87108">
        <ele>277</ele>
        <time>2018-09-04T08:42:38Z</time>
      </trkpt>
      <trkpt lat="45.9511" lon="4.87113">
        <ele>277</ele>
        <time>2018-09-04T08:42:39Z</time>
      </trkpt>
      <trkpt lat="45.9511" lon="4.87118">
        <ele>277</ele>
        <time>2018-09-04T08:42:40Z</time>
      </trkpt>
      <trkpt lat="45.95112" lon="4.87126">
        <ele>277</ele>
        <time>2018-09-04T08:42:41Z</time>
      </trkpt>
      <trkpt lat="45.95114" lon="4.87138">
        <ele>277</ele>
        <time>2018-09-04T08:42:43Z</time>
      </trkpt>
      <trkpt lat="45.95115" lon="4.87145">
        <ele>277</ele>
        <time>2018-09-04T08:42:44Z</time>
      </trkpt>
      <trkpt lat="45.95116" lon="4.8715">
        <ele>277</ele>
        <time>2018-09-04T08:42:45Z</time>
      </trkpt>
      <trkpt lat="45.95118" lon="4.87158">
        <ele>277</ele>
        <time>2018-09-04T08:42:46Z</time>
      </trkpt>
      <trkpt lat="45.95119" lon="4.87165">
        <ele>277</ele>
        <time>2018-09-04T08:42:47Z</time>
      </trkpt>
      <trkpt lat="45.95121" lon="4.87172">
        <ele>277</ele>
        <time>2018-09-04T08:42:48Z</time>
      </trkpt>
      <trkpt lat="45.95122" lon="4.8718">
        <ele>276</ele>
        <time>2018-09-04T08:42:49Z</time>
      </trkpt>
      <trkpt lat="45.95124" lon="4.87186">
        <ele>276</ele>
        <time>2018-09-04T08:42:50Z</time>
      </trkpt>
      <trkpt lat="45.95128" lon="4.87195">
        <ele>276</ele>
        <time>2018-09-04T08:42:51Z</time>
      </trkpt>
      <trkpt lat="45.95129" lon="4.87203">
        <ele>276</ele>
        <time>2018-09-04T08:42:52Z</time>
      </trkpt>
      <trkpt lat="45.95131" lon="4.87211">
        <ele>276</ele>
        <time>2018-09-04T08:42:53Z</time>
      </trkpt>
      <trkpt lat="45.95133" lon="4.87221">
        <ele>276</ele>
        <time>2018-09-04T08:42:54Z</time>
      </trkpt>
      <trkpt lat="45.95136" lon="4.8723">
        <ele>276</ele>
        <time>2018-09-04T08:42:55Z</time>
      </trkpt>
      <trkpt lat="45.95141" lon="4.87245">
        <ele>275</ele>
        <time>2018-09-04T08:42:56Z</time>
      </trkpt>
      <trkpt lat="45.95143" lon="4.87256">
        <ele>274</ele>
        <time>2018-09-04T08:42:57Z</time>
      </trkpt>
      <trkpt lat="45.95146" lon="4.87266">
        <ele>274</ele>
        <time>2018-09-04T08:42:58Z</time>
      </trkpt>
      <trkpt lat="45.95149" lon="4.87278">
        <ele>274</ele>
        <time>2018-09-04T08:42:59Z</time>
      </trkpt>
      <trkpt lat="45.95151" lon="4.87287">
        <ele>274</ele>
        <time>2018-09-04T08:43:00Z</time>
      </trkpt>
      <trkpt lat="45.95153" lon="4.87297">
        <ele>274</ele>
        <time>2018-09-04T08:43:01Z</time>
      </trkpt>
      <trkpt lat="45.95157" lon="4.87307">
        <ele>273</ele>
        <time>2018-09-04T08:43:02Z</time>
      </trkpt>
      <trkpt lat="45.95159" lon="4.87318">
        <ele>273</ele>
        <time>2018-09-04T08:43:03Z</time>
      </trkpt>
      <trkpt lat="45.95162" lon="4.87329">
        <ele>272</ele>
        <time>2018-09-04T08:43:04Z</time>
      </trkpt>
      <trkpt lat="45.95164" lon="4.87338">
        <ele>271</ele>
        <time>2018-09-04T08:43:05Z</time>
      </trkpt>
      <trkpt lat="45.95165" lon="4.87348">
        <ele>272</ele>
        <time>2018-09-04T08:43:06Z</time>
      </trkpt>
      <trkpt lat="45.95167" lon="4.87357">
        <ele>271</ele>
        <time>2018-09-04T08:43:07Z</time>
      </trkpt>
      <trkpt lat="45.95168" lon="4.87366">
        <ele>271</ele>
        <time>2018-09-04T08:43:08Z</time>
      </trkpt>
      <trkpt lat="45.9517" lon="4.87374">
        <ele>271</ele>
        <time>2018-09-04T08:43:09Z</time>
      </trkpt>
      <trkpt lat="45.95171" lon="4.8738">
        <ele>271</ele>
        <time>2018-09-04T08:43:10Z</time>
      </trkpt>
      <trkpt lat="45.95173" lon="4.87388">
        <ele>271</ele>
        <time>2018-09-04T08:43:11Z</time>
      </trkpt>
      <trkpt lat="45.95175" lon="4.87397">
        <ele>271</ele>
        <time>2018-09-04T08:43:12Z</time>
      </trkpt>
      <trkpt lat="45.95177" lon="4.87405">
        <ele>271</ele>
        <time>2018-09-04T08:43:13Z</time>
      </trkpt>
      <trkpt lat="45.95179" lon="4.87414">
        <ele>271</ele>
        <time>2018-09-04T08:43:14Z</time>
      </trkpt>
      <trkpt lat="45.9518" lon="4.87422">
        <ele>271</ele>
        <time>2018-09-04T08:43:15Z</time>
      </trkpt>
      <trkpt lat="45.95183" lon="4.87431">
        <ele>271</ele>
        <time>2018-09-04T08:43:16Z</time>
      </trkpt>
      <trkpt lat="45.95185" lon="4.8744">
        <ele>272</ele>
        <time>2018-09-04T08:43:17Z</time>
      </trkpt>
      <trkpt lat="45.95186" lon="4.87447">
        <ele>272</ele>
        <time>2018-09-04T08:43:18Z</time>
      </trkpt>
      <trkpt lat="45.95188" lon="4.87454">
        <ele>272</ele>
        <time>2018-09-04T08:43:19Z</time>
      </trkpt>
      <trkpt lat="45.95192" lon="4.87461">
        <ele>272</ele>
        <time>2018-09-04T08:43:20Z</time>
      </trkpt>
      <trkpt lat="45.95194" lon="4.87468">
        <ele>272</ele>
        <time>2018-09-04T08:43:21Z</time>
      </trkpt>
      <trkpt lat="45.95196" lon="4.87475">
        <ele>272</ele>
        <time>2018-09-04T08:43:22Z</time>
      </trkpt>
      <trkpt lat="45.95196" lon="4.87484">
        <ele>272</ele>
        <time>2018-09-04T08:43:23Z</time>
      </trkpt>
      <trkpt lat="45.95198" lon="4.87492">
        <ele>272</ele>
        <time>2018-09-04T08:43:24Z</time>
      </trkpt>
      <trkpt lat="45.952" lon="4.875">
        <ele>272</ele>
        <time>2018-09-04T08:43:25Z</time>
      </trkpt>
      <trkpt lat="45.95203" lon="4.87509">
        <ele>273</ele>
        <time>2018-09-04T08:43:26Z</time>
      </trkpt>
      <trkpt lat="45.95204" lon="4.87516">
        <ele>273</ele>
        <time>2018-09-04T08:43:27Z</time>
      </trkpt>
      <trkpt lat="45.95206" lon="4.87524">
        <ele>274</ele>
        <time>2018-09-04T08:43:28Z</time>
      </trkpt>
      <trkpt lat="45.95205" lon="4.87531">
        <ele>274</ele>
        <time>2018-09-04T08:43:29Z</time>
      </trkpt>
      <trkpt lat="45.95207" lon="4.87539">
        <ele>274</ele>
        <time>2018-09-04T08:43:30Z</time>
      </trkpt>
      <trkpt lat="45.95208" lon="4.87547">
        <ele>274</ele>
        <time>2018-09-04T08:43:31Z</time>
      </trkpt>
      <trkpt lat="45.95209" lon="4.87555">
        <ele>274</ele>
        <time>2018-09-04T08:43:32Z</time>
      </trkpt>
      <trkpt lat="45.9521" lon="4.87563">
        <ele>274</ele>
        <time>2018-09-04T08:43:33Z</time>
      </trkpt>
      <trkpt lat="45.95212" lon="4.87571">
        <ele>274</ele>
        <time>2018-09-04T08:43:34Z</time>
      </trkpt>
      <trkpt lat="45.95213" lon="4.87578">
        <ele>274</ele>
        <time>2018-09-04T08:43:35Z</time>
      </trkpt>
      <trkpt lat="45.95213" lon="4.87586">
        <ele>276</ele>
        <time>2018-09-04T08:43:36Z</time>
      </trkpt>
      <trkpt lat="45.95213" lon="4.87593">
        <ele>276</ele>
        <time>2018-09-04T08:43:37Z</time>
      </trkpt>
      <trkpt lat="45.95213" lon="4.876">
        <ele>276</ele>
        <time>2018-09-04T08:43:38Z</time>
      </trkpt>
      <trkpt lat="45.95213" lon="4.87613">
        <ele>276</ele>
        <time>2018-09-04T08:43:40Z</time>
      </trkpt>
      <trkpt lat="45.95214" lon="4.87618">
        <ele>276</ele>
        <time>2018-09-04T08:43:41Z</time>
      </trkpt>
      <trkpt lat="45.95214" lon="4.87624">
        <ele>276</ele>
        <time>2018-09-04T08:43:42Z</time>
      </trkpt>
      <trkpt lat="45.95215" lon="4.87631">
        <ele>276</ele>
        <time>2018-09-04T08:43:43Z</time>
      </trkpt>
      <trkpt lat="45.95216" lon="4.87637">
        <ele>276</ele>
        <time>2018-09-04T08:43:44Z</time>
      </trkpt>
      <trkpt lat="45.95221" lon="4.87646">
        <ele>276</ele>
        <time>2018-09-04T08:43:45Z</time>
      </trkpt>
      <trkpt lat="45.95223" lon="4.87657">
        <ele>276</ele>
        <time>2018-09-04T08:43:47Z</time>
      </trkpt>
      <trkpt lat="45.95223" lon="4.8766">
        <ele>276</ele>
        <time>2018-09-04T08:43:48Z</time>
      </trkpt>
      <trkpt lat="45.95223" lon="4.87667">
        <ele>276</ele>
        <time>2018-09-04T08:43:49Z</time>
      </trkpt>
      <trkpt lat="45.95224" lon="4.87673">
        <ele>278</ele>
        <time>2018-09-04T08:43:50Z</time>
      </trkpt>
      <trkpt lat="45.95226" lon="4.87679">
        <ele>278</ele>
        <time>2018-09-04T08:43:51Z</time>
      </trkpt>
      <trkpt lat="45.95228" lon="4.87685">
        <ele>278</ele>
        <time>2018-09-04T08:43:52Z</time>
      </trkpt>
      <trkpt lat="45.95226" lon="4.87695">
        <ele>279</ele>
        <time>2018-09-04T08:43:54Z</time>
      </trkpt>
      <trkpt lat="45.95227" lon="4.877">
        <ele>279</ele>
        <time>2018-09-04T08:43:55Z</time>
      </trkpt>
      <trkpt lat="45.95231" lon="4.8771">
        <ele>279</ele>
        <time>2018-09-04T08:43:57Z</time>
      </trkpt>
      <trkpt lat="45.95232" lon="4.87715">
        <ele>279</ele>
        <time>2018-09-04T08:43:58Z</time>
      </trkpt>
      <trkpt lat="45.95233" lon="4.87722">
        <ele>279</ele>
        <time>2018-09-04T08:44:00Z</time>
      </trkpt>
      <trkpt lat="45.95234" lon="4.87729">
        <ele>280</ele>
        <time>2018-09-04T08:44:01Z</time>
      </trkpt>
      <trkpt lat="45.95234" lon="4.87734">
        <ele>280</ele>
        <time>2018-09-04T08:44:02Z</time>
      </trkpt>
      <trkpt lat="45.95238" lon="4.8774">
        <ele>280</ele>
        <time>2018-09-04T08:44:03Z</time>
      </trkpt>
      <trkpt lat="45.95239" lon="4.8775">
        <ele>280</ele>
        <time>2018-09-04T08:44:05Z</time>
      </trkpt>
      <trkpt lat="45.95241" lon="4.87757">
        <ele>281</ele>
        <time>2018-09-04T08:44:06Z</time>
      </trkpt>
      <trkpt lat="45.95241" lon="4.87764">
        <ele>281</ele>
        <time>2018-09-04T08:44:07Z</time>
      </trkpt>
      <trkpt lat="45.95245" lon="4.87771">
        <ele>282</ele>
        <time>2018-09-04T08:44:08Z</time>
      </trkpt>
      <trkpt lat="45.95248" lon="4.87779">
        <ele>282</ele>
        <time>2018-09-04T08:44:09Z</time>
      </trkpt>
      <trkpt lat="45.9525" lon="4.87784">
        <ele>282</ele>
        <time>2018-09-04T08:44:10Z</time>
      </trkpt>
      <trkpt lat="45.95251" lon="4.87794">
        <ele>280</ele>
        <time>2018-09-04T08:44:12Z</time>
      </trkpt>
      <trkpt lat="45.95252" lon="4.878">
        <ele>280</ele>
        <time>2018-09-04T08:44:13Z</time>
      </trkpt>
      <trkpt lat="45.95254" lon="4.87812">
        <ele>280</ele>
        <time>2018-09-04T08:44:15Z</time>
      </trkpt>
      <trkpt lat="45.95255" lon="4.87818">
        <ele>280</ele>
        <time>2018-09-04T08:44:16Z</time>
      </trkpt>
      <trkpt lat="45.95256" lon="4.8783">
        <ele>281</ele>
        <time>2018-09-04T08:44:20Z</time>
      </trkpt>
      <trkpt lat="45.95256" lon="4.87834">
        <ele>281</ele>
        <time>2018-09-04T08:44:21Z</time>
      </trkpt>
      <trkpt lat="45.95256" lon="4.87841">
        <ele>281</ele>
        <time>2018-09-04T08:44:23Z</time>
      </trkpt>
      <trkpt lat="45.95256" lon="4.87853">
        <ele>281</ele>
        <time>2018-09-04T08:44:24Z</time>
      </trkpt>
      <trkpt lat="45.95256" lon="4.87864">
        <ele>281</ele>
        <time>2018-09-04T08:44:26Z</time>
      </trkpt>
      <trkpt lat="45.95257" lon="4.8787">
        <ele>281</ele>
        <time>2018-09-04T08:44:27Z</time>
      </trkpt>
      <trkpt lat="45.95259" lon="4.8788">
        <ele>281</ele>
        <time>2018-09-04T08:44:29Z</time>
      </trkpt>
      <trkpt lat="45.95261" lon="4.87885">
        <ele>281</ele>
        <time>2018-09-04T08:44:30Z</time>
      </trkpt>
      <trkpt lat="45.95263" lon="4.87897">
        <ele>281</ele>
        <time>2018-09-04T08:44:34Z</time>
      </trkpt>
      <trkpt lat="45.95264" lon="4.87901">
        <ele>281</ele>
        <time>2018-09-04T08:44:35Z</time>
      </trkpt>
      <trkpt lat="45.95265" lon="4.87905">
        <ele>281</ele>
        <time>2018-09-04T08:44:36Z</time>
      </trkpt>
      <trkpt lat="45.95267" lon="4.87917">
        <ele>281</ele>
        <time>2018-09-04T08:44:37Z</time>
      </trkpt>
      <trkpt lat="45.95267" lon="4.87928">
        <ele>281</ele>
        <time>2018-09-04T08:44:39Z</time>
      </trkpt>
      <trkpt lat="45.95266" lon="4.87933">
        <ele>280</ele>
        <time>2018-09-04T08:44:40Z</time>
      </trkpt>
      <trkpt lat="45.95264" lon="4.87944">
        <ele>280</ele>
        <time>2018-09-04T08:44:42Z</time>
      </trkpt>
      <trkpt lat="45.95262" lon="4.87949">
        <ele>280</ele>
        <time>2018-09-04T08:44:43Z</time>
      </trkpt>
      <trkpt lat="45.95256" lon="4.87959">
        <ele>280</ele>
        <time>2018-09-04T08:44:45Z</time>
      </trkpt>
      <trkpt lat="45.95254" lon="4.87964">
        <ele>280</ele>
        <time>2018-09-04T08:44:46Z</time>
      </trkpt>
      <trkpt lat="45.9525" lon="4.8797">
        <ele>280</ele>
        <time>2018-09-04T08:44:47Z</time>
      </trkpt>
      <trkpt lat="45.95248" lon="4.87975">
        <ele>282</ele>
        <time>2018-09-04T08:44:48Z</time>
      </trkpt>
      <trkpt lat="45.95245" lon="4.87981">
        <ele>281</ele>
        <time>2018-09-04T08:44:49Z</time>
      </trkpt>
      <trkpt lat="45.95242" lon="4.87986">
        <ele>281</ele>
        <time>2018-09-04T08:44:50Z</time>
      </trkpt>
      <trkpt lat="45.95236" lon="4.87996">
        <ele>281</ele>
        <time>2018-09-04T08:44:52Z</time>
      </trkpt>
      <trkpt lat="45.95233" lon="4.87999">
        <ele>281</ele>
        <time>2018-09-04T08:44:53Z</time>
      </trkpt>
      <trkpt lat="45.95229" lon="4.88004">
        <ele>280</ele>
        <time>2018-09-04T08:44:54Z</time>
      </trkpt>
      <trkpt lat="45.95229" lon="4.88013">
        <ele>280</ele>
        <time>2018-09-04T08:44:55Z</time>
      </trkpt>
      <trkpt lat="45.95226" lon="4.88019">
        <ele>281</ele>
        <time>2018-09-04T08:44:56Z</time>
      </trkpt>
      <trkpt lat="45.9522" lon="4.88022">
        <ele>281</ele>
        <time>2018-09-04T08:44:57Z</time>
      </trkpt>
      <trkpt lat="45.95217" lon="4.88026">
        <ele>281</ele>
        <time>2018-09-04T08:44:58Z</time>
      </trkpt>
      <trkpt lat="45.95212" lon="4.88031">
        <ele>281</ele>
        <time>2018-09-04T08:44:59Z</time>
      </trkpt>
      <trkpt lat="45.95208" lon="4.88035">
        <ele>281</ele>
        <time>2018-09-04T08:45:00Z</time>
      </trkpt>
      <trkpt lat="45.95204" lon="4.88039">
        <ele>281</ele>
        <time>2018-09-04T08:45:01Z</time>
      </trkpt>
      <trkpt lat="45.95201" lon="4.88046">
        <ele>281</ele>
        <time>2018-09-04T08:45:02Z</time>
      </trkpt>
      <trkpt lat="45.95198" lon="4.88052">
        <ele>281</ele>
        <time>2018-09-04T08:45:03Z</time>
      </trkpt>
      <trkpt lat="45.95194" lon="4.88055">
        <ele>281</ele>
        <time>2018-09-04T08:45:04Z</time>
      </trkpt>
      <trkpt lat="45.95193" lon="4.88063">
        <ele>281</ele>
        <time>2018-09-04T08:45:05Z</time>
      </trkpt>
      <trkpt lat="45.95189" lon="4.88073">
        <ele>281</ele>
        <time>2018-09-04T08:45:07Z</time>
      </trkpt>
      <trkpt lat="45.95188" lon="4.88079">
        <ele>281</ele>
        <time>2018-09-04T08:45:08Z</time>
      </trkpt>
      <trkpt lat="45.95186" lon="4.88084">
        <ele>282</ele>
        <time>2018-09-04T08:45:09Z</time>
      </trkpt>
      <trkpt lat="45.95185" lon="4.88092">
        <ele>282</ele>
        <time>2018-09-04T08:45:10Z</time>
      </trkpt>
      <trkpt lat="45.95183" lon="4.88102">
        <ele>282</ele>
        <time>2018-09-04T08:45:12Z</time>
      </trkpt>
      <trkpt lat="45.95185" lon="4.88112">
        <ele>282</ele>
        <time>2018-09-04T08:45:13Z</time>
      </trkpt>
      <trkpt lat="45.95183" lon="4.88118">
        <ele>282</ele>
        <time>2018-09-04T08:45:14Z</time>
      </trkpt>
      <trkpt lat="45.95183" lon="4.88126">
        <ele>282</ele>
        <time>2018-09-04T08:45:15Z</time>
      </trkpt>
      <trkpt lat="45.95182" lon="4.88137">
        <ele>283</ele>
        <time>2018-09-04T08:45:17Z</time>
      </trkpt>
      <trkpt lat="45.9518" lon="4.88142">
        <ele>283</ele>
        <time>2018-09-04T08:45:18Z</time>
      </trkpt>
      <trkpt lat="45.95177" lon="4.88153">
        <ele>283</ele>
        <time>2018-09-04T08:45:20Z</time>
      </trkpt>
      <trkpt lat="45.95176" lon="4.88159">
        <ele>284</ele>
        <time>2018-09-04T08:45:21Z</time>
      </trkpt>
      <trkpt lat="45.95177" lon="4.88169">
        <ele>285</ele>
        <time>2018-09-04T08:45:23Z</time>
      </trkpt>
      <trkpt lat="45.95179" lon="4.88172">
        <ele>285</ele>
        <time>2018-09-04T08:45:24Z</time>
      </trkpt>
      <trkpt lat="45.95186" lon="4.88172">
        <ele>285</ele>
        <time>2018-09-04T08:45:26Z</time>
      </trkpt>
      <trkpt lat="45.9519" lon="4.8817">
        <ele>285</ele>
        <time>2018-09-04T08:45:27Z</time>
      </trkpt>
      <trkpt lat="45.95195" lon="4.88169">
        <ele>285</ele>
        <time>2018-09-04T08:45:28Z</time>
      </trkpt>
      <trkpt lat="45.952" lon="4.88169">
        <ele>285</ele>
        <time>2018-09-04T08:45:29Z</time>
      </trkpt>
      <trkpt lat="45.95206" lon="4.88169">
        <ele>284</ele>
        <time>2018-09-04T08:45:30Z</time>
      </trkpt>
      <trkpt lat="45.95211" lon="4.88168">
        <ele>284</ele>
        <time>2018-09-04T08:45:31Z</time>
      </trkpt>
      <trkpt lat="45.95216" lon="4.88168">
        <ele>284</ele>
        <time>2018-09-04T08:45:32Z</time>
      </trkpt>
      <trkpt lat="45.95223" lon="4.88167">
        <ele>284</ele>
        <time>2018-09-04T08:45:33Z</time>
      </trkpt>
      <trkpt lat="45.95229" lon="4.88167">
        <ele>283</ele>
        <time>2018-09-04T08:45:34Z</time>
      </trkpt>
      <trkpt lat="45.95233" lon="4.88167">
        <ele>283</ele>
        <time>2018-09-04T08:45:35Z</time>
      </trkpt>
      <trkpt lat="45.95239" lon="4.88167">
        <ele>283</ele>
        <time>2018-09-04T08:45:36Z</time>
      </trkpt>
      <trkpt lat="45.95246" lon="4.88165">
        <ele>281</ele>
        <time>2018-09-04T08:45:37Z</time>
      </trkpt>
      <trkpt lat="45.95253" lon="4.88165">
        <ele>281</ele>
        <time>2018-09-04T08:45:38Z</time>
      </trkpt>
      <trkpt lat="45.95259" lon="4.88165">
        <ele>280</ele>
        <time>2018-09-04T08:45:39Z</time>
      </trkpt>
      <trkpt lat="45.95265" lon="4.88165">
        <ele>280</ele>
        <time>2018-09-04T08:45:40Z</time>
      </trkpt>
      <trkpt lat="45.95271" lon="4.88167">
        <ele>279</ele>
        <time>2018-09-04T08:45:41Z</time>
      </trkpt>
      <trkpt lat="45.95279" lon="4.88166">
        <ele>279</ele>
        <time>2018-09-04T08:45:42Z</time>
      </trkpt>
      <trkpt lat="45.95286" lon="4.88167">
        <ele>281</ele>
        <time>2018-09-04T08:45:43Z</time>
      </trkpt>
      <trkpt lat="45.95292" lon="4.88171">
        <ele>281</ele>
        <time>2018-09-04T08:45:44Z</time>
      </trkpt>
      <trkpt lat="45.953" lon="4.8817">
        <ele>281</ele>
        <time>2018-09-04T08:45:45Z</time>
      </trkpt>
      <trkpt lat="45.95306" lon="4.8817">
        <ele>280</ele>
        <time>2018-09-04T08:45:46Z</time>
      </trkpt>
      <trkpt lat="45.95313" lon="4.88171">
        <ele>280</ele>
        <time>2018-09-04T08:45:47Z</time>
      </trkpt>
      <trkpt lat="45.95323" lon="4.88168">
        <ele>279</ele>
        <time>2018-09-04T08:45:48Z</time>
      </trkpt>
      <trkpt lat="45.9533" lon="4.88168">
        <ele>279</ele>
        <time>2018-09-04T08:45:49Z</time>
      </trkpt>
      <trkpt lat="45.95337" lon="4.88168">
        <ele>278</ele>
        <time>2018-09-04T08:45:50Z</time>
      </trkpt>
      <trkpt lat="45.95344" lon="4.88168">
        <ele>278</ele>
        <time>2018-09-04T08:45:51Z</time>
      </trkpt>
      <trkpt lat="45.95351" lon="4.88168">
        <ele>278</ele>
        <time>2018-09-04T08:45:52Z</time>
      </trkpt>
      <trkpt lat="45.95357" lon="4.88166">
        <ele>277</ele>
        <time>2018-09-04T08:45:53Z</time>
      </trkpt>
      <trkpt lat="45.95363" lon="4.88164">
        <ele>276</ele>
        <time>2018-09-04T08:45:54Z</time>
      </trkpt>
      <trkpt lat="45.95371" lon="4.88162">
        <ele>276</ele>
        <time>2018-09-04T08:45:55Z</time>
      </trkpt>
      <trkpt lat="45.95378" lon="4.88161">
        <ele>276</ele>
        <time>2018-09-04T08:45:56Z</time>
      </trkpt>
      <trkpt lat="45.95385" lon="4.8816">
        <ele>276</ele>
        <time>2018-09-04T08:45:57Z</time>
      </trkpt>
      <trkpt lat="45.9539" lon="4.88159">
        <ele>276</ele>
        <time>2018-09-04T08:45:58Z</time>
      </trkpt>
      <trkpt lat="45.95397" lon="4.88157">
        <ele>276</ele>
        <time>2018-09-04T08:45:59Z</time>
      </trkpt>
      <trkpt lat="45.95402" lon="4.88153">
        <ele>276</ele>
        <time>2018-09-04T08:46:00Z</time>
      </trkpt>
      <trkpt lat="45.95408" lon="4.88153">
        <ele>276</ele>
        <time>2018-09-04T08:46:01Z</time>
      </trkpt>
      <trkpt lat="45.95413" lon="4.88152">
        <ele>276</ele>
        <time>2018-09-04T08:46:02Z</time>
      </trkpt>
      <trkpt lat="45.95418" lon="4.88151">
        <ele>276</ele>
        <time>2018-09-04T08:46:03Z</time>
      </trkpt>
      <trkpt lat="45.95423" lon="4.88148">
        <ele>276</ele>
        <time>2018-09-04T08:46:04Z</time>
      </trkpt>
      <trkpt lat="45.95431" lon="4.88144">
        <ele>276</ele>
        <time>2018-09-04T08:46:06Z</time>
      </trkpt>
      <trkpt lat="45.95435" lon="4.88142">
        <ele>276</ele>
        <time>2018-09-04T08:46:07Z</time>
      </trkpt>
      <trkpt lat="45.95441" lon="4.88139">
        <ele>276</ele>
        <time>2018-09-04T08:46:08Z</time>
      </trkpt>
      <trkpt lat="45.9545" lon="4.88136">
        <ele>276</ele>
        <time>2018-09-04T08:46:09Z</time>
      </trkpt>
      <trkpt lat="45.95454" lon="4.88133">
        <ele>276</ele>
        <time>2018-09-04T08:46:10Z</time>
      </trkpt>
      <trkpt lat="45.95459" lon="4.8813">
        <ele>276</ele>
        <time>2018-09-04T08:46:11Z</time>
      </trkpt>
      <trkpt lat="45.95466" lon="4.88125">
        <ele>276</ele>
        <time>2018-09-04T08:46:12Z</time>
      </trkpt>
      <trkpt lat="45.9547" lon="4.88122">
        <ele>276</ele>
        <time>2018-09-04T08:46:13Z</time>
      </trkpt>
      <trkpt lat="45.95475" lon="4.88121">
        <ele>276</ele>
        <time>2018-09-04T08:46:14Z</time>
      </trkpt>
      <trkpt lat="45.9548" lon="4.88119">
        <ele>276</ele>
        <time>2018-09-04T08:46:15Z</time>
      </trkpt>
      <trkpt lat="45.95485" lon="4.88116">
        <ele>276</ele>
        <time>2018-09-04T08:46:16Z</time>
      </trkpt>
      <trkpt lat="45.95488" lon="4.88111">
        <ele>276</ele>
        <time>2018-09-04T08:46:17Z</time>
      </trkpt>
      <trkpt lat="45.95493" lon="4.88109">
        <ele>276</ele>
        <time>2018-09-04T08:46:18Z</time>
      </trkpt>
      <trkpt lat="45.95498" lon="4.88106">
        <ele>276</ele>
        <time>2018-09-04T08:46:19Z</time>
      </trkpt>
      <trkpt lat="45.95503" lon="4.88104">
        <ele>276</ele>
        <time>2018-09-04T08:46:20Z</time>
      </trkpt>
      <trkpt lat="45.95507" lon="4.88101">
        <ele>276</ele>
        <time>2018-09-04T08:46:21Z</time>
      </trkpt>
      <trkpt lat="45.95513" lon="4.88098">
        <ele>276</ele>
        <time>2018-09-04T08:46:22Z</time>
      </trkpt>
      <trkpt lat="45.95517" lon="4.88093">
        <ele>276</ele>
        <time>2018-09-04T08:46:23Z</time>
      </trkpt>
      <trkpt lat="45.95521" lon="4.8809">
        <ele>276</ele>
        <time>2018-09-04T08:46:24Z</time>
      </trkpt>
      <trkpt lat="45.95526" lon="4.88087">
        <ele>276</ele>
        <time>2018-09-04T08:46:25Z</time>
      </trkpt>
      <trkpt lat="45.95531" lon="4.88085">
        <ele>277</ele>
        <time>2018-09-04T08:46:26Z</time>
      </trkpt>
      <trkpt lat="45.95536" lon="4.88082">
        <ele>276</ele>
        <time>2018-09-04T08:46:27Z</time>
      </trkpt>
      <trkpt lat="45.95541" lon="4.88079">
        <ele>276</ele>
        <time>2018-09-04T08:46:28Z</time>
      </trkpt>
      <trkpt lat="45.95545" lon="4.88077">
        <ele>276</ele>
        <time>2018-09-04T08:46:29Z</time>
      </trkpt>
      <trkpt lat="45.95553" lon="4.88072">
        <ele>276</ele>
        <time>2018-09-04T08:46:31Z</time>
      </trkpt>
      <trkpt lat="45.95558" lon="4.8807">
        <ele>276</ele>
        <time>2018-09-04T08:46:32Z</time>
      </trkpt>
      <trkpt lat="45.95566" lon="4.88067">
        <ele>276</ele>
        <time>2018-09-04T08:46:34Z</time>
      </trkpt>
      <trkpt lat="45.95571" lon="4.88065">
        <ele>276</ele>
        <time>2018-09-04T08:46:35Z</time>
      </trkpt>
      <trkpt lat="45.95575" lon="4.8806">
        <ele>276</ele>
        <time>2018-09-04T08:46:36Z</time>
      </trkpt>
      <trkpt lat="45.9558" lon="4.88055">
        <ele>276</ele>
        <time>2018-09-04T08:46:37Z</time>
      </trkpt>
      <trkpt lat="45.95588" lon="4.88051">
        <ele>278</ele>
        <time>2018-09-04T08:46:39Z</time>
      </trkpt>
      <trkpt lat="45.95593" lon="4.88042">
        <ele>278</ele>
        <time>2018-09-04T08:46:40Z</time>
      </trkpt>
      <trkpt lat="45.95597" lon="4.88038">
        <ele>278</ele>
        <time>2018-09-04T08:46:41Z</time>
      </trkpt>
      <trkpt lat="45.95603" lon="4.88033">
        <ele>278</ele>
        <time>2018-09-04T08:46:42Z</time>
      </trkpt>
      <trkpt lat="45.95607" lon="4.88029">
        <ele>278</ele>
        <time>2018-09-04T08:46:43Z</time>
      </trkpt>
      <trkpt lat="45.95611" lon="4.88022">
        <ele>278</ele>
        <time>2018-09-04T08:46:44Z</time>
      </trkpt>
      <trkpt lat="45.95619" lon="4.88016">
        <ele>278</ele>
        <time>2018-09-04T08:46:46Z</time>
      </trkpt>
      <trkpt lat="45.95623" lon="4.88012">
        <ele>278</ele>
        <time>2018-09-04T08:46:47Z</time>
      </trkpt>
      <trkpt lat="45.95626" lon="4.88008">
        <ele>279</ele>
        <time>2018-09-04T08:46:48Z</time>
      </trkpt>
      <trkpt lat="45.9563" lon="4.88002">
        <ele>279</ele>
        <time>2018-09-04T08:46:49Z</time>
      </trkpt>
      <trkpt lat="45.95637" lon="4.87996">
        <ele>279</ele>
        <time>2018-09-04T08:46:51Z</time>
      </trkpt>
      <trkpt lat="45.9564" lon="4.87993">
        <ele>279</ele>
        <time>2018-09-04T08:46:52Z</time>
      </trkpt>
      <trkpt lat="45.95645" lon="4.87987">
        <ele>279</ele>
        <time>2018-09-04T08:46:53Z</time>
      </trkpt>
      <trkpt lat="45.95649" lon="4.87984">
        <ele>279</ele>
        <time>2018-09-04T08:46:54Z</time>
      </trkpt>
      <trkpt lat="45.95656" lon="4.87977">
        <ele>279</ele>
        <time>2018-09-04T08:46:56Z</time>
      </trkpt>
      <trkpt lat="45.95659" lon="4.87975">
        <ele>279</ele>
        <time>2018-09-04T08:46:57Z</time>
      </trkpt>
      <trkpt lat="45.95666" lon="4.8797">
        <ele>279</ele>
        <time>2018-09-04T08:46:59Z</time>
      </trkpt>
      <trkpt lat="45.95669" lon="4.87967">
        <ele>282</ele>
        <time>2018-09-04T08:47:00Z</time>
      </trkpt>
      <trkpt lat="45.95675" lon="4.87962">
        <ele>282</ele>
        <time>2018-09-04T08:47:02Z</time>
      </trkpt>
      <trkpt lat="45.95678" lon="4.8796">
        <ele>282</ele>
        <time>2018-09-04T08:47:03Z</time>
      </trkpt>
      <trkpt lat="45.95684" lon="4.87956">
        <ele>282</ele>
        <time>2018-09-04T08:47:05Z</time>
      </trkpt>
      <trkpt lat="45.95687" lon="4.87953">
        <ele>282</ele>
        <time>2018-09-04T08:47:06Z</time>
      </trkpt>
      <trkpt lat="45.95693" lon="4.87948">
        <ele>282</ele>
        <time>2018-09-04T08:47:08Z</time>
      </trkpt>
      <trkpt lat="45.95696" lon="4.87945">
        <ele>282</ele>
        <time>2018-09-04T08:47:09Z</time>
      </trkpt>
      <trkpt lat="45.95704" lon="4.87939">
        <ele>282</ele>
        <time>2018-09-04T08:47:12Z</time>
      </trkpt>
      <trkpt lat="45.95706" lon="4.87938">
        <ele>282</ele>
        <time>2018-09-04T08:47:13Z</time>
      </trkpt>
      <trkpt lat="45.95713" lon="4.87934">
        <ele>283</ele>
        <time>2018-09-04T08:47:16Z</time>
      </trkpt>
      <trkpt lat="45.95715" lon="4.87933">
        <ele>283</ele>
        <time>2018-09-04T08:47:17Z</time>
      </trkpt>
      <trkpt lat="45.95722" lon="4.87928">
        <ele>283</ele>
        <time>2018-09-04T08:47:20Z</time>
      </trkpt>
      <trkpt lat="45.95725" lon="4.87926">
        <ele>283</ele>
        <time>2018-09-04T08:47:21Z</time>
      </trkpt>
      <trkpt lat="45.95733" lon="4.87921">
        <ele>284</ele>
        <time>2018-09-04T08:47:24Z</time>
      </trkpt>
      <trkpt lat="45.95736" lon="4.8792">
        <ele>284</ele>
        <time>2018-09-04T08:47:25Z</time>
      </trkpt>
      <trkpt lat="45.95742" lon="4.87915">
        <ele>284</ele>
        <time>2018-09-04T08:47:27Z</time>
      </trkpt>
      <trkpt lat="45.95744" lon="4.87913">
        <ele>284</ele>
        <time>2018-09-04T08:47:28Z</time>
      </trkpt>
      <trkpt lat="45.9575" lon="4.87907">
        <ele>285</ele>
        <time>2018-09-04T08:47:30Z</time>
      </trkpt>
      <trkpt lat="45.95753" lon="4.87905">
        <ele>285</ele>
        <time>2018-09-04T08:47:31Z</time>
      </trkpt>
      <trkpt lat="45.95758" lon="4.879">
        <ele>286</ele>
        <time>2018-09-04T08:47:33Z</time>
      </trkpt>
      <trkpt lat="45.95761" lon="4.87898">
        <ele>286</ele>
        <time>2018-09-04T08:47:34Z</time>
      </trkpt>
      <trkpt lat="45.95769" lon="4.87893">
        <ele>286</ele>
        <time>2018-09-04T08:47:37Z</time>
      </trkpt>
      <trkpt lat="45.95772" lon="4.87891">
        <ele>286</ele>
        <time>2018-09-04T08:47:38Z</time>
      </trkpt>
      <trkpt lat="45.95776" lon="4.8789">
        <ele>286</ele>
        <time>2018-09-04T08:47:39Z</time>
      </trkpt>
      <trkpt lat="45.95786" lon="4.87884">
        <ele>286</ele>
        <time>2018-09-04T08:47:40Z</time>
      </trkpt>
      <trkpt lat="45.9579" lon="4.87881">
        <ele>286</ele>
        <time>2018-09-04T08:47:42Z</time>
      </trkpt>
      <trkpt lat="45.95796" lon="4.87878">
        <ele>286</ele>
        <time>2018-09-04T08:47:43Z</time>
      </trkpt>
      <trkpt lat="45.95803" lon="4.87873">
        <ele>287</ele>
        <time>2018-09-04T08:47:46Z</time>
      </trkpt>
      <trkpt lat="45.95805" lon="4.87872">
        <ele>287</ele>
        <time>2018-09-04T08:47:47Z</time>
      </trkpt>
      <trkpt lat="45.95812" lon="4.87868">
        <ele>287</ele>
        <time>2018-09-04T08:47:50Z</time>
      </trkpt>
      <trkpt lat="45.95815" lon="4.87867">
        <ele>287</ele>
        <time>2018-09-04T08:47:51Z</time>
      </trkpt>
      <trkpt lat="45.95821" lon="4.87864">
        <ele>287</ele>
        <time>2018-09-04T08:47:53Z</time>
      </trkpt>
      <trkpt lat="45.95825" lon="4.87863">
        <ele>287</ele>
        <time>2018-09-04T08:47:54Z</time>
      </trkpt>
      <trkpt lat="45.95833" lon="4.87862">
        <ele>287</ele>
        <time>2018-09-04T08:47:57Z</time>
      </trkpt>
      <trkpt lat="45.95835" lon="4.87862">
        <ele>289</ele>
        <time>2018-09-04T08:47:58Z</time>
      </trkpt>
      <trkpt lat="45.95841" lon="4.8786">
        <ele>289</ele>
        <time>2018-09-04T08:48:00Z</time>
      </trkpt>
      <trkpt lat="45.95844" lon="4.87859">
        <ele>289</ele>
        <time>2018-09-04T08:48:01Z</time>
      </trkpt>
      <trkpt lat="45.95851" lon="4.87852">
        <ele>289</ele>
        <time>2018-09-04T08:48:02Z</time>
      </trkpt>
      <trkpt lat="45.95854" lon="4.87848">
        <ele>289</ele>
        <time>2018-09-04T08:48:03Z</time>
      </trkpt>
      <trkpt lat="45.95859" lon="4.8784">
        <ele>289</ele>
        <time>2018-09-04T08:48:05Z</time>
      </trkpt>
      <trkpt lat="45.95862" lon="4.87837">
        <ele>289</ele>
        <time>2018-09-04T08:48:06Z</time>
      </trkpt>
      <trkpt lat="45.95868" lon="4.87831">
        <ele>288</ele>
        <time>2018-09-04T08:48:09Z</time>
      </trkpt>
      <trkpt lat="45.9587" lon="4.87829">
        <ele>288</ele>
        <time>2018-09-04T08:48:10Z</time>
      </trkpt>
      <trkpt lat="45.95873" lon="4.87826">
        <ele>288</ele>
        <time>2018-09-04T08:48:12Z</time>
      </trkpt>
      <trkpt lat="45.9588" lon="4.87821">
        <ele>288</ele>
        <time>2018-09-04T08:48:13Z</time>
      </trkpt>
      <trkpt lat="45.95886" lon="4.87815">
        <ele>288</ele>
        <time>2018-09-04T08:48:15Z</time>
      </trkpt>
      <trkpt lat="45.95889" lon="4.87812">
        <ele>288</ele>
        <time>2018-09-04T08:48:16Z</time>
      </trkpt>
      <trkpt lat="45.95895" lon="4.87803">
        <ele>288</ele>
        <time>2018-09-04T08:48:18Z</time>
      </trkpt>
      <trkpt lat="45.95898" lon="4.87798">
        <ele>288</ele>
        <time>2018-09-04T08:48:19Z</time>
      </trkpt>
      <trkpt lat="45.95902" lon="4.8779">
        <ele>288</ele>
        <time>2018-09-04T08:48:21Z</time>
      </trkpt>
      <trkpt lat="45.95903" lon="4.87788">
        <ele>288</ele>
        <time>2018-09-04T08:48:22Z</time>
      </trkpt>
      <trkpt lat="45.95907" lon="4.87781">
        <ele>288</ele>
        <time>2018-09-04T08:48:23Z</time>
      </trkpt>
      <trkpt lat="45.95909" lon="4.87775">
        <ele>288</ele>
        <time>2018-09-04T08:48:24Z</time>
      </trkpt>
      <trkpt lat="45.95916" lon="4.87769">
        <ele>288</ele>
        <time>2018-09-04T08:48:26Z</time>
      </trkpt>
      <trkpt lat="45.95921" lon="4.87762">
        <ele>288</ele>
        <time>2018-09-04T08:48:27Z</time>
      </trkpt>
      <trkpt lat="45.95924" lon="4.87758">
        <ele>288</ele>
        <time>2018-09-04T08:48:28Z</time>
      </trkpt>
      <trkpt lat="45.95926" lon="4.87752">
        <ele>288</ele>
        <time>2018-09-04T08:48:29Z</time>
      </trkpt>
      <trkpt lat="45.95933" lon="4.87744">
        <ele>288</ele>
        <time>2018-09-04T08:48:31Z</time>
      </trkpt>
      <trkpt lat="45.95935" lon="4.87739">
        <ele>288</ele>
        <time>2018-09-04T08:48:32Z</time>
      </trkpt>
      <trkpt lat="45.95941" lon="4.87731">
        <ele>289</ele>
        <time>2018-09-04T08:48:34Z</time>
      </trkpt>
      <trkpt lat="45.95943" lon="4.87727">
        <ele>289</ele>
        <time>2018-09-04T08:48:35Z</time>
      </trkpt>
      <trkpt lat="45.95949" lon="4.8772">
        <ele>289</ele>
        <time>2018-09-04T08:48:37Z</time>
      </trkpt>
      <trkpt lat="45.95952" lon="4.87716">
        <ele>289</ele>
        <time>2018-09-04T08:48:38Z</time>
      </trkpt>
      <trkpt lat="45.95956" lon="4.87713">
        <ele>289</ele>
        <time>2018-09-04T08:48:39Z</time>
      </trkpt>
      <trkpt lat="45.9596" lon="4.87708">
        <ele>289</ele>
        <time>2018-09-04T08:48:40Z</time>
      </trkpt>
      <trkpt lat="45.95963" lon="4.87703">
        <ele>289</ele>
        <time>2018-09-04T08:48:41Z</time>
      </trkpt>
      <trkpt lat="45.95967" lon="4.87699">
        <ele>289</ele>
        <time>2018-09-04T08:48:42Z</time>
      </trkpt>
      <trkpt lat="45.95971" lon="4.87693">
        <ele>289</ele>
        <time>2018-09-04T08:48:43Z</time>
      </trkpt>
      <trkpt lat="45.95974" lon="4.87688">
        <ele>289</ele>
        <time>2018-09-04T08:48:44Z</time>
      </trkpt>
      <trkpt lat="45.9598" lon="4.87681">
        <ele>289</ele>
        <time>2018-09-04T08:48:46Z</time>
      </trkpt>
      <trkpt lat="45.95983" lon="4.87677">
        <ele>289</ele>
        <time>2018-09-04T08:48:47Z</time>
      </trkpt>
      <trkpt lat="45.95988" lon="4.87668">
        <ele>290</ele>
        <time>2018-09-04T08:48:49Z</time>
      </trkpt>
      <trkpt lat="45.95993" lon="4.87663">
        <ele>290</ele>
        <time>2018-09-04T08:48:50Z</time>
      </trkpt>
      <trkpt lat="45.95996" lon="4.8766">
        <ele>290</ele>
        <time>2018-09-04T08:48:51Z</time>
      </trkpt>
      <trkpt lat="45.96" lon="4.87655">
        <ele>290</ele>
        <time>2018-09-04T08:48:52Z</time>
      </trkpt>
      <trkpt lat="45.96004" lon="4.87649">
        <ele>289</ele>
        <time>2018-09-04T08:48:53Z</time>
      </trkpt>
      <trkpt lat="45.96006" lon="4.87644">
        <ele>289</ele>
        <time>2018-09-04T08:48:54Z</time>
      </trkpt>
      <trkpt lat="45.96011" lon="4.87639">
        <ele>289</ele>
        <time>2018-09-04T08:48:55Z</time>
      </trkpt>
      <trkpt lat="45.96015" lon="4.87635">
        <ele>289</ele>
        <time>2018-09-04T08:48:56Z</time>
      </trkpt>
      <trkpt lat="45.96019" lon="4.87631">
        <ele>289</ele>
        <time>2018-09-04T08:48:57Z</time>
      </trkpt>
      <trkpt lat="45.96023" lon="4.87626">
        <ele>289</ele>
        <time>2018-09-04T08:48:58Z</time>
      </trkpt>
      <trkpt lat="45.96027" lon="4.87623">
        <ele>289</ele>
        <time>2018-09-04T08:48:59Z</time>
      </trkpt>
      <trkpt lat="45.96031" lon="4.87619">
        <ele>289</ele>
        <time>2018-09-04T08:49:00Z</time>
      </trkpt>
      <trkpt lat="45.96035" lon="4.87614">
        <ele>289</ele>
        <time>2018-09-04T08:49:01Z</time>
      </trkpt>
      <trkpt lat="45.96039" lon="4.87612">
        <ele>289</ele>
        <time>2018-09-04T08:49:02Z</time>
      </trkpt>
      <trkpt lat="45.96044" lon="4.87608">
        <ele>289</ele>
        <time>2018-09-04T08:49:03Z</time>
      </trkpt>
      <trkpt lat="45.96047" lon="4.87602">
        <ele>289</ele>
        <time>2018-09-04T08:49:04Z</time>
      </trkpt>
      <trkpt lat="45.96053" lon="4.87595">
        <ele>288</ele>
        <time>2018-09-04T08:49:05Z</time>
      </trkpt>
      <trkpt lat="45.96058" lon="4.8759">
        <ele>288</ele>
        <time>2018-09-04T08:49:06Z</time>
      </trkpt>
      <trkpt lat="45.96061" lon="4.87585">
        <ele>288</ele>
        <time>2018-09-04T08:49:07Z</time>
      </trkpt>
      <trkpt lat="45.96066" lon="4.8758">
        <ele>288</ele>
        <time>2018-09-04T08:49:08Z</time>
      </trkpt>
      <trkpt lat="45.9607" lon="4.87575">
        <ele>288</ele>
        <time>2018-09-04T08:49:09Z</time>
      </trkpt>
      <trkpt lat="45.96075" lon="4.87571">
        <ele>288</ele>
        <time>2018-09-04T08:49:10Z</time>
      </trkpt>
      <trkpt lat="45.96078" lon="4.87564">
        <ele>288</ele>
        <time>2018-09-04T08:49:11Z</time>
      </trkpt>
      <trkpt lat="45.96083" lon="4.8756">
        <ele>288</ele>
        <time>2018-09-04T08:49:12Z</time>
      </trkpt>
      <trkpt lat="45.96087" lon="4.87555">
        <ele>287</ele>
        <time>2018-09-04T08:49:13Z</time>
      </trkpt>
      <trkpt lat="45.96091" lon="4.8755">
        <ele>287</ele>
        <time>2018-09-04T08:49:14Z</time>
      </trkpt>
      <trkpt lat="45.96098" lon="4.87542">
        <ele>287</ele>
        <time>2018-09-04T08:49:16Z</time>
      </trkpt>
      <trkpt lat="45.96102" lon="4.87539">
        <ele>287</ele>
        <time>2018-09-04T08:49:17Z</time>
      </trkpt>
      <trkpt lat="45.96106" lon="4.87535">
        <ele>287</ele>
        <time>2018-09-04T08:49:18Z</time>
      </trkpt>
      <trkpt lat="45.96111" lon="4.87531">
        <ele>287</ele>
        <time>2018-09-04T08:49:19Z</time>
      </trkpt>
      <trkpt lat="45.96115" lon="4.87527">
        <ele>287</ele>
        <time>2018-09-04T08:49:20Z</time>
      </trkpt>
      <trkpt lat="45.96119" lon="4.87523">
        <ele>286</ele>
        <time>2018-09-04T08:49:21Z</time>
      </trkpt>
      <trkpt lat="45.96123" lon="4.87518">
        <ele>286</ele>
        <time>2018-09-04T08:49:22Z</time>
      </trkpt>
      <trkpt lat="45.96127" lon="4.87514">
        <ele>286</ele>
        <time>2018-09-04T08:49:23Z</time>
      </trkpt>
      <trkpt lat="45.96131" lon="4.87509">
        <ele>286</ele>
        <time>2018-09-04T08:49:24Z</time>
      </trkpt>
      <trkpt lat="45.96135" lon="4.87505">
        <ele>286</ele>
        <time>2018-09-04T08:49:25Z</time>
      </trkpt>
      <trkpt lat="45.96139" lon="4.87498">
        <ele>285</ele>
        <time>2018-09-04T08:49:26Z</time>
      </trkpt>
      <trkpt lat="45.96142" lon="4.87493">
        <ele>285</ele>
        <time>2018-09-04T08:49:27Z</time>
      </trkpt>
      <trkpt lat="45.96147" lon="4.87486">
        <ele>285</ele>
        <time>2018-09-04T08:49:28Z</time>
      </trkpt>
      <trkpt lat="45.96153" lon="4.87482">
        <ele>285</ele>
        <time>2018-09-04T08:49:29Z</time>
      </trkpt>
      <trkpt lat="45.96157" lon="4.87476">
        <ele>285</ele>
        <time>2018-09-04T08:49:30Z</time>
      </trkpt>
      <trkpt lat="45.96162" lon="4.87471">
        <ele>285</ele>
        <time>2018-09-04T08:49:31Z</time>
      </trkpt>
      <trkpt lat="45.96167" lon="4.87467">
        <ele>284</ele>
        <time>2018-09-04T08:49:32Z</time>
      </trkpt>
      <trkpt lat="45.96172" lon="4.87462">
        <ele>284</ele>
        <time>2018-09-04T08:49:33Z</time>
      </trkpt>
      <trkpt lat="45.96177" lon="4.87457">
        <ele>284</ele>
        <time>2018-09-04T08:49:34Z</time>
      </trkpt>
      <trkpt lat="45.96181" lon="4.8745">
        <ele>284</ele>
        <time>2018-09-04T08:49:35Z</time>
      </trkpt>
      <trkpt lat="45.96186" lon="4.87444">
        <ele>284</ele>
        <time>2018-09-04T08:49:36Z</time>
      </trkpt>
      <trkpt lat="45.96191" lon="4.87439">
        <ele>284</ele>
        <time>2018-09-04T08:49:37Z</time>
      </trkpt>
      <trkpt lat="45.96195" lon="4.87433">
        <ele>284</ele>
        <time>2018-09-04T08:49:38Z</time>
      </trkpt>
      <trkpt lat="45.962" lon="4.87428">
        <ele>284</ele>
        <time>2018-09-04T08:49:39Z</time>
      </trkpt>
      <trkpt lat="45.96205" lon="4.87425">
        <ele>284</ele>
        <time>2018-09-04T08:49:40Z</time>
      </trkpt>
      <trkpt lat="45.96208" lon="4.87418">
        <ele>284</ele>
        <time>2018-09-04T08:49:41Z</time>
      </trkpt>
      <trkpt lat="45.96213" lon="4.87412">
        <ele>283</ele>
        <time>2018-09-04T08:49:42Z</time>
      </trkpt>
      <trkpt lat="45.9622" lon="4.87407">
        <ele>283</ele>
        <time>2018-09-04T08:49:43Z</time>
      </trkpt>
      <trkpt lat="45.96225" lon="4.87401">
        <ele>283</ele>
        <time>2018-09-04T08:49:44Z</time>
      </trkpt>
      <trkpt lat="45.96229" lon="4.87397">
        <ele>283</ele>
        <time>2018-09-04T08:49:45Z</time>
      </trkpt>
      <trkpt lat="45.96233" lon="4.87391">
        <ele>283</ele>
        <time>2018-09-04T08:49:46Z</time>
      </trkpt>
      <trkpt lat="45.96237" lon="4.87386">
        <ele>283</ele>
        <time>2018-09-04T08:49:47Z</time>
      </trkpt>
      <trkpt lat="45.96242" lon="4.8738">
        <ele>283</ele>
        <time>2018-09-04T08:49:48Z</time>
      </trkpt>
      <trkpt lat="45.96245" lon="4.87374">
        <ele>283</ele>
        <time>2018-09-04T08:49:49Z</time>
      </trkpt>
      <trkpt lat="45.9625" lon="4.87369">
        <ele>283</ele>
        <time>2018-09-04T08:49:50Z</time>
      </trkpt>
      <trkpt lat="45.96254" lon="4.87365">
        <ele>283</ele>
        <time>2018-09-04T08:49:51Z</time>
      </trkpt>
      <trkpt lat="45.96259" lon="4.8736">
        <ele>283</ele>
        <time>2018-09-04T08:49:52Z</time>
      </trkpt>
      <trkpt lat="45.96263" lon="4.87354">
        <ele>283</ele>
        <time>2018-09-04T08:49:53Z</time>
      </trkpt>
      <trkpt lat="45.96267" lon="4.8735">
        <ele>283</ele>
        <time>2018-09-04T08:49:54Z</time>
      </trkpt>
      <trkpt lat="45.96271" lon="4.87346">
        <ele>283</ele>
        <time>2018-09-04T08:49:55Z</time>
      </trkpt>
      <trkpt lat="45.96275" lon="4.87344">
        <ele>283</ele>
        <time>2018-09-04T08:49:56Z</time>
      </trkpt>
      <trkpt lat="45.96279" lon="4.87339">
        <ele>284</ele>
        <time>2018-09-04T08:49:57Z</time>
      </trkpt>
      <trkpt lat="45.96281" lon="4.87333">
        <ele>283</ele>
        <time>2018-09-04T08:49:58Z</time>
      </trkpt>
      <trkpt lat="45.96285" lon="4.87328">
        <ele>283</ele>
        <time>2018-09-04T08:49:59Z</time>
      </trkpt>
      <trkpt lat="45.96289" lon="4.87323">
        <ele>283</ele>
        <time>2018-09-04T08:50:00Z</time>
      </trkpt>
      <trkpt lat="45.96292" lon="4.87317">
        <ele>283</ele>
        <time>2018-09-04T08:50:01Z</time>
      </trkpt>
      <trkpt lat="45.96297" lon="4.87313">
        <ele>283</ele>
        <time>2018-09-04T08:50:02Z</time>
      </trkpt>
      <trkpt lat="45.96302" lon="4.87307">
        <ele>283</ele>
        <time>2018-09-04T08:50:03Z</time>
      </trkpt>
      <trkpt lat="45.96306" lon="4.87301">
        <ele>283</ele>
        <time>2018-09-04T08:50:04Z</time>
      </trkpt>
      <trkpt lat="45.9631" lon="4.87296">
        <ele>283</ele>
        <time>2018-09-04T08:50:05Z</time>
      </trkpt>
      <trkpt lat="45.96314" lon="4.87288">
        <ele>283</ele>
        <time>2018-09-04T08:50:06Z</time>
      </trkpt>
      <trkpt lat="45.96318" lon="4.87282">
        <ele>283</ele>
        <time>2018-09-04T08:50:07Z</time>
      </trkpt>
      <trkpt lat="45.96321" lon="4.87277">
        <ele>283</ele>
        <time>2018-09-04T08:50:08Z</time>
      </trkpt>
      <trkpt lat="45.96325" lon="4.87273">
        <ele>283</ele>
        <time>2018-09-04T08:50:09Z</time>
      </trkpt>
      <trkpt lat="45.96329" lon="4.87269">
        <ele>283</ele>
        <time>2018-09-04T08:50:10Z</time>
      </trkpt>
      <trkpt lat="45.96335" lon="4.87262">
        <ele>283</ele>
        <time>2018-09-04T08:50:11Z</time>
      </trkpt>
      <trkpt lat="45.96339" lon="4.87256">
        <ele>283</ele>
        <time>2018-09-04T08:50:12Z</time>
      </trkpt>
      <trkpt lat="45.96345" lon="4.87252">
        <ele>283</ele>
        <time>2018-09-04T08:50:13Z</time>
      </trkpt>
      <trkpt lat="45.9635" lon="4.87246">
        <ele>283</ele>
        <time>2018-09-04T08:50:14Z</time>
      </trkpt>
      <trkpt lat="45.96354" lon="4.8724">
        <ele>282</ele>
        <time>2018-09-04T08:50:15Z</time>
      </trkpt>
      <trkpt lat="45.96359" lon="4.87234">
        <ele>282</ele>
        <time>2018-09-04T08:50:16Z</time>
      </trkpt>
      <trkpt lat="45.96362" lon="4.87227">
        <ele>282</ele>
        <time>2018-09-04T08:50:17Z</time>
      </trkpt>
      <trkpt lat="45.96367" lon="4.87222">
        <ele>282</ele>
        <time>2018-09-04T08:50:18Z</time>
      </trkpt>
      <trkpt lat="45.96371" lon="4.87215">
        <ele>282</ele>
        <time>2018-09-04T08:50:19Z</time>
      </trkpt>
      <trkpt lat="45.96375" lon="4.8721">
        <ele>282</ele>
        <time>2018-09-04T08:50:20Z</time>
      </trkpt>
      <trkpt lat="45.96379" lon="4.87205">
        <ele>282</ele>
        <time>2018-09-04T08:50:21Z</time>
      </trkpt>
      <trkpt lat="45.96383" lon="4.87198">
        <ele>282</ele>
        <time>2018-09-04T08:50:22Z</time>
      </trkpt>
      <trkpt lat="45.96387" lon="4.87192">
        <ele>282</ele>
        <time>2018-09-04T08:50:23Z</time>
      </trkpt>
      <trkpt lat="45.96391" lon="4.87187">
        <ele>282</ele>
        <time>2018-09-04T08:50:24Z</time>
      </trkpt>
      <trkpt lat="45.96395" lon="4.8718">
        <ele>282</ele>
        <time>2018-09-04T08:50:25Z</time>
      </trkpt>
      <trkpt lat="45.96398" lon="4.87176">
        <ele>282</ele>
        <time>2018-09-04T08:50:26Z</time>
      </trkpt>
      <trkpt lat="45.96402" lon="4.8717">
        <ele>281</ele>
        <time>2018-09-04T08:50:27Z</time>
      </trkpt>
      <trkpt lat="45.96405" lon="4.87166">
        <ele>281</ele>
        <time>2018-09-04T08:50:28Z</time>
      </trkpt>
      <trkpt lat="45.96409" lon="4.8716">
        <ele>281</ele>
        <time>2018-09-04T08:50:29Z</time>
      </trkpt>
      <trkpt lat="45.96414" lon="4.87156">
        <ele>281</ele>
        <time>2018-09-04T08:50:30Z</time>
      </trkpt>
      <trkpt lat="45.96417" lon="4.87151">
        <ele>281</ele>
        <time>2018-09-04T08:50:31Z</time>
      </trkpt>
      <trkpt lat="45.96421" lon="4.87146">
        <ele>281</ele>
        <time>2018-09-04T08:50:32Z</time>
      </trkpt>
      <trkpt lat="45.96423" lon="4.87141">
        <ele>281</ele>
        <time>2018-09-04T08:50:33Z</time>
      </trkpt>
      <trkpt lat="45.96427" lon="4.87137">
        <ele>281</ele>
        <time>2018-09-04T08:50:34Z</time>
      </trkpt>
      <trkpt lat="45.9643" lon="4.87132">
        <ele>281</ele>
        <time>2018-09-04T08:50:35Z</time>
      </trkpt>
      <trkpt lat="45.96434" lon="4.87129">
        <ele>281</ele>
        <time>2018-09-04T08:50:36Z</time>
      </trkpt>
      <trkpt lat="45.96438" lon="4.87124">
        <ele>281</ele>
        <time>2018-09-04T08:50:37Z</time>
      </trkpt>
      <trkpt lat="45.96442" lon="4.8712">
        <ele>281</ele>
        <time>2018-09-04T08:50:38Z</time>
      </trkpt>
      <trkpt lat="45.96446" lon="4.87117">
        <ele>281</ele>
        <time>2018-09-04T08:50:39Z</time>
      </trkpt>
      <trkpt lat="45.9645" lon="4.87112">
        <ele>281</ele>
        <time>2018-09-04T08:50:40Z</time>
      </trkpt>
      <trkpt lat="45.96453" lon="4.87107">
        <ele>281</ele>
        <time>2018-09-04T08:50:41Z</time>
      </trkpt>
      <trkpt lat="45.96457" lon="4.87104">
        <ele>281</ele>
        <time>2018-09-04T08:50:42Z</time>
      </trkpt>
      <trkpt lat="45.96461" lon="4.87099">
        <ele>282</ele>
        <time>2018-09-04T08:50:43Z</time>
      </trkpt>
      <trkpt lat="45.96465" lon="4.87096">
        <ele>282</ele>
        <time>2018-09-04T08:50:44Z</time>
      </trkpt>
      <trkpt lat="45.96469" lon="4.87091">
        <ele>282</ele>
        <time>2018-09-04T08:50:45Z</time>
      </trkpt>
      <trkpt lat="45.96475" lon="4.87083">
        <ele>282</ele>
        <time>2018-09-04T08:50:47Z</time>
      </trkpt>
      <trkpt lat="45.96478" lon="4.87078">
        <ele>282</ele>
        <time>2018-09-04T08:50:48Z</time>
      </trkpt>
      <trkpt lat="45.96482" lon="4.87074">
        <ele>282</ele>
        <time>2018-09-04T08:50:49Z</time>
      </trkpt>
      <trkpt lat="45.96486" lon="4.87069">
        <ele>282</ele>
        <time>2018-09-04T08:50:50Z</time>
      </trkpt>
      <trkpt lat="45.96491" lon="4.87059">
        <ele>281</ele>
        <time>2018-09-04T08:50:52Z</time>
      </trkpt>
      <trkpt lat="45.96493" lon="4.87055">
        <ele>281</ele>
        <time>2018-09-04T08:50:53Z</time>
      </trkpt>
      <trkpt lat="45.96498" lon="4.87044">
        <ele>281</ele>
        <time>2018-09-04T08:50:55Z</time>
      </trkpt>
      <trkpt lat="45.96501" lon="4.8704">
        <ele>282</ele>
        <time>2018-09-04T08:50:56Z</time>
      </trkpt>
      <trkpt lat="45.96507" lon="4.87043">
        <ele>282</ele>
        <time>2018-09-04T08:51:02Z</time>
      </trkpt>
      <trkpt lat="45.96509" lon="4.87046">
        <ele>283</ele>
        <time>2018-09-04T08:51:03Z</time>
      </trkpt>
      <trkpt lat="45.96514" lon="4.87052">
        <ele>283</ele>
        <time>2018-09-04T08:51:05Z</time>
      </trkpt>
      <trkpt lat="45.96516" lon="4.87056">
        <ele>283</ele>
        <time>2018-09-04T08:51:06Z</time>
      </trkpt>
      <trkpt lat="45.96521" lon="4.87061">
        <ele>283</ele>
        <time>2018-09-04T08:51:08Z</time>
      </trkpt>
      <trkpt lat="45.96524" lon="4.87062">
        <ele>283</ele>
        <time>2018-09-04T08:51:09Z</time>
      </trkpt>
      <trkpt lat="45.96531" lon="4.87064">
        <ele>283</ele>
        <time>2018-09-04T08:51:12Z</time>
      </trkpt>
      <trkpt lat="45.96533" lon="4.87064">
        <ele>283</ele>
        <time>2018-09-04T08:51:13Z</time>
      </trkpt>
      <trkpt lat="45.9654" lon="4.87067">
        <ele>283</ele>
        <time>2018-09-04T08:51:17Z</time>
      </trkpt>
      <trkpt lat="45.96542" lon="4.8707">
        <ele>283</ele>
        <time>2018-09-04T08:51:18Z</time>
      </trkpt>
      <trkpt lat="45.96549" lon="4.87074">
        <ele>283</ele>
        <time>2018-09-04T08:51:22Z</time>
      </trkpt>
      <trkpt lat="45.96551" lon="4.87074">
        <ele>283</ele>
        <time>2018-09-04T08:51:23Z</time>
      </trkpt>
      <trkpt lat="45.96558" lon="4.87074">
        <ele>283</ele>
        <time>2018-09-04T08:51:26Z</time>
      </trkpt>
      <trkpt lat="45.9656" lon="4.87073">
        <ele>283</ele>
        <time>2018-09-04T08:51:27Z</time>
      </trkpt>
      <trkpt lat="45.96563" lon="4.87067">
        <ele>283</ele>
        <time>2018-09-04T08:51:29Z</time>
      </trkpt>
      <trkpt lat="45.96565" lon="4.87056">
        <ele>283</ele>
        <time>2018-09-04T08:51:30Z</time>
      </trkpt>
      <trkpt lat="45.96563" lon="4.87045">
        <ele>283</ele>
        <time>2018-09-04T08:51:33Z</time>
      </trkpt>
      <trkpt lat="45.96563" lon="4.87041">
        <ele>283</ele>
        <time>2018-09-04T08:51:34Z</time>
      </trkpt>
      <trkpt lat="45.9656" lon="4.87033">
        <ele>283</ele>
        <time>2018-09-04T08:51:36Z</time>
      </trkpt>
      <trkpt lat="45.96558" lon="4.8703">
        <ele>283</ele>
        <time>2018-09-04T08:51:37Z</time>
      </trkpt>
      <trkpt lat="45.96551" lon="4.87023">
        <ele>283</ele>
        <time>2018-09-04T08:51:40Z</time>
      </trkpt>
      <trkpt lat="45.96548" lon="4.87023">
        <ele>283</ele>
        <time>2018-09-04T08:51:41Z</time>
      </trkpt>
      <trkpt lat="45.96541" lon="4.87024">
        <ele>283</ele>
        <time>2018-09-04T08:51:44Z</time>
      </trkpt>
      <trkpt lat="45.96539" lon="4.87025">
        <ele>283</ele>
        <time>2018-09-04T08:51:45Z</time>
      </trkpt>
      <trkpt lat="45.9653" lon="4.87027">
        <ele>283</ele>
        <time>2018-09-04T08:51:50Z</time>
      </trkpt>
      <trkpt lat="45.9653" lon="4.87027">
        <ele>283</ele>
        <time>2018-09-04T08:51:51Z</time>
      </trkpt>
      <trkpt lat="45.96529" lon="4.87028">
        <ele>283</ele>
        <time>2018-09-04T08:51:56Z</time>
      </trkpt>
      <trkpt lat="45.96528" lon="4.87027">
        <ele>283</ele>
        <time>2018-09-04T08:51:57Z</time>
      </trkpt>
      <trkpt lat="45.96528" lon="4.87027">
        <ele>283</ele>
        <time>2018-09-04T08:51:58Z</time>
      </trkpt>
      <trkpt lat="45.96528" lon="4.87027">
        <ele>283</ele>
        <time>2018-09-04T08:51:59Z</time>
      </trkpt>
      <trkpt lat="45.96528" lon="4.87027">
        <ele>283</ele>
        <time>2018-09-04T08:52:00Z</time>
      </trkpt>
      <trkpt lat="45.96526" lon="4.87024">
        <ele>283</ele>
        <time>2018-09-04T08:52:28Z</time>
      </trkpt>
      <trkpt lat="45.96526" lon="4.87024">
        <ele>283</ele>
        <time>2018-09-04T08:52:29Z</time>
      </trkpt>
      <trkpt lat="45.96534" lon="4.87025">
        <ele>283</ele>
        <time>2018-09-04T09:04:21Z</time>
      </trkpt>
      <trkpt lat="45.96535" lon="4.87023">
        <ele>283</ele>
        <time>2018-09-04T09:04:22Z</time>
      </trkpt>
      <trkpt lat="45.96541" lon="4.87018">
        <ele>283</ele>
        <time>2018-09-04T09:04:26Z</time>
      </trkpt>
      <trkpt lat="45.96543" lon="4.87016">
        <ele>283</ele>
        <time>2018-09-04T09:04:27Z</time>
      </trkpt>
      <trkpt lat="45.96545" lon="4.8701">
        <ele>283</ele>
        <time>2018-09-04T09:04:29Z</time>
      </trkpt>
      <trkpt lat="45.96546" lon="4.86998">
        <ele>283</ele>
        <time>2018-09-04T09:04:30Z</time>
      </trkpt>
      <trkpt lat="45.96549" lon="4.86986">
        <ele>283</ele>
        <time>2018-09-04T09:04:34Z</time>
      </trkpt>
      <trkpt lat="45.96551" lon="4.86984">
        <ele>283</ele>
        <time>2018-09-04T09:04:35Z</time>
      </trkpt>
      <trkpt lat="45.96557" lon="4.86976">
        <ele>283</ele>
        <time>2018-09-04T09:04:38Z</time>
      </trkpt>
      <trkpt lat="45.96559" lon="4.86973">
        <ele>283</ele>
        <time>2018-09-04T09:04:39Z</time>
      </trkpt>
      <trkpt lat="45.96563" lon="4.86967">
        <ele>283</ele>
        <time>2018-09-04T09:04:41Z</time>
      </trkpt>
      <trkpt lat="45.96565" lon="4.86963">
        <ele>284</ele>
        <time>2018-09-04T09:04:42Z</time>
      </trkpt>
      <trkpt lat="45.96569" lon="4.86957">
        <ele>284</ele>
        <time>2018-09-04T09:04:44Z</time>
      </trkpt>
      <trkpt lat="45.96572" lon="4.86953">
        <ele>284</ele>
        <time>2018-09-04T09:04:45Z</time>
      </trkpt>
      <trkpt lat="45.96577" lon="4.86945">
        <ele>284</ele>
        <time>2018-09-04T09:04:47Z</time>
      </trkpt>
      <trkpt lat="45.96578" lon="4.86943">
        <ele>284</ele>
        <time>2018-09-04T09:04:48Z</time>
      </trkpt>
      <trkpt lat="45.96585" lon="4.86931">
        <ele>286</ele>
        <time>2018-09-04T09:04:49Z</time>
      </trkpt>
      <trkpt lat="45.96588" lon="4.86926">
        <ele>285</ele>
        <time>2018-09-04T09:04:52Z</time>
      </trkpt>
      <trkpt lat="45.96594" lon="4.86916">
        <ele>286</ele>
        <time>2018-09-04T09:04:53Z</time>
      </trkpt>
      <trkpt lat="45.96596" lon="4.86909">
        <ele>286</ele>
        <time>2018-09-04T09:04:54Z</time>
      </trkpt>
      <trkpt lat="45.966" lon="4.86906">
        <ele>286</ele>
        <time>2018-09-04T09:04:55Z</time>
      </trkpt>
      <trkpt lat="45.96606" lon="4.86896">
        <ele>286</ele>
        <time>2018-09-04T09:04:59Z</time>
      </trkpt>
      <trkpt lat="45.96607" lon="4.86894">
        <ele>287</ele>
        <time>2018-09-04T09:05:00Z</time>
      </trkpt>
      <trkpt lat="45.96611" lon="4.86883">
        <ele>287</ele>
        <time>2018-09-04T09:05:04Z</time>
      </trkpt>
      <trkpt lat="45.96614" lon="4.8688">
        <ele>287</ele>
        <time>2018-09-04T09:05:05Z</time>
      </trkpt>
      <trkpt lat="45.96619" lon="4.86873">
        <ele>287</ele>
        <time>2018-09-04T09:05:07Z</time>
      </trkpt>
      <trkpt lat="45.96626" lon="4.86863">
        <ele>287</ele>
        <time>2018-09-04T09:05:08Z</time>
      </trkpt>
      <trkpt lat="45.96632" lon="4.86855">
        <ele>287</ele>
        <time>2018-09-04T09:05:10Z</time>
      </trkpt>
      <trkpt lat="45.96633" lon="4.86854">
        <ele>287</ele>
        <time>2018-09-04T09:05:11Z</time>
      </trkpt>
      <trkpt lat="45.96638" lon="4.86846">
        <ele>287</ele>
        <time>2018-09-04T09:05:13Z</time>
      </trkpt>
      <trkpt lat="45.9664" lon="4.86843">
        <ele>287</ele>
        <time>2018-09-04T09:05:14Z</time>
      </trkpt>
      <trkpt lat="45.96646" lon="4.86835">
        <ele>287</ele>
        <time>2018-09-04T09:05:17Z</time>
      </trkpt>
      <trkpt lat="45.96648" lon="4.86831">
        <ele>288</ele>
        <time>2018-09-04T09:05:18Z</time>
      </trkpt>
      <trkpt lat="45.96654" lon="4.8682">
        <ele>288</ele>
        <time>2018-09-04T09:05:19Z</time>
      </trkpt>
      <trkpt lat="45.96659" lon="4.86811">
        <ele>288</ele>
        <time>2018-09-04T09:05:21Z</time>
      </trkpt>
      <trkpt lat="45.96661" lon="4.86806">
        <ele>288</ele>
        <time>2018-09-04T09:05:22Z</time>
      </trkpt>
      <trkpt lat="45.96665" lon="4.86799">
        <ele>288</ele>
        <time>2018-09-04T09:05:24Z</time>
      </trkpt>
      <trkpt lat="45.96669" lon="4.86792">
        <ele>289</ele>
        <time>2018-09-04T09:05:25Z</time>
      </trkpt>
      <trkpt lat="45.96671" lon="4.86786">
        <ele>289</ele>
        <time>2018-09-04T09:05:26Z</time>
      </trkpt>
      <trkpt lat="45.96674" lon="4.86781">
        <ele>289</ele>
        <time>2018-09-04T09:05:27Z</time>
      </trkpt>
      <trkpt lat="45.96678" lon="4.86772">
        <ele>289</ele>
        <time>2018-09-04T09:05:29Z</time>
      </trkpt>
      <trkpt lat="45.96681" lon="4.86768">
        <ele>289</ele>
        <time>2018-09-04T09:05:30Z</time>
      </trkpt>
      <trkpt lat="45.96686" lon="4.86759">
        <ele>289</ele>
        <time>2018-09-04T09:05:32Z</time>
      </trkpt>
      <trkpt lat="45.96688" lon="4.86754">
        <ele>289</ele>
        <time>2018-09-04T09:05:33Z</time>
      </trkpt>
      <trkpt lat="45.96692" lon="4.86743">
        <ele>289</ele>
        <time>2018-09-04T09:05:35Z</time>
      </trkpt>
      <trkpt lat="45.96695" lon="4.86738">
        <ele>289</ele>
        <time>2018-09-04T09:05:36Z</time>
      </trkpt>
      <trkpt lat="45.96701" lon="4.8673">
        <ele>289</ele>
        <time>2018-09-04T09:05:38Z</time>
      </trkpt>
      <trkpt lat="45.96703" lon="4.86725">
        <ele>289</ele>
        <time>2018-09-04T09:05:39Z</time>
      </trkpt>
      <trkpt lat="45.96709" lon="4.86716">
        <ele>289</ele>
        <time>2018-09-04T09:05:41Z</time>
      </trkpt>
      <trkpt lat="45.96711" lon="4.86712">
        <ele>289</ele>
        <time>2018-09-04T09:05:42Z</time>
      </trkpt>
      <trkpt lat="45.96717" lon="4.86704">
        <ele>289</ele>
        <time>2018-09-04T09:05:44Z</time>
      </trkpt>
      <trkpt lat="45.9672" lon="4.867">
        <ele>289</ele>
        <time>2018-09-04T09:05:45Z</time>
      </trkpt>
      <trkpt lat="45.96724" lon="4.86691">
        <ele>289</ele>
        <time>2018-09-04T09:05:47Z</time>
      </trkpt>
      <trkpt lat="45.96727" lon="4.86686">
        <ele>289</ele>
        <time>2018-09-04T09:05:48Z</time>
      </trkpt>
      <trkpt lat="45.96732" lon="4.86678">
        <ele>290</ele>
        <time>2018-09-04T09:05:50Z</time>
      </trkpt>
      <trkpt lat="45.96735" lon="4.86674">
        <ele>290</ele>
        <time>2018-09-04T09:05:51Z</time>
      </trkpt>
      <trkpt lat="45.9674" lon="4.86666">
        <ele>290</ele>
        <time>2018-09-04T09:05:53Z</time>
      </trkpt>
      <trkpt lat="45.96742" lon="4.86661">
        <ele>290</ele>
        <time>2018-09-04T09:05:54Z</time>
      </trkpt>
      <trkpt lat="45.96745" lon="4.86657">
        <ele>290</ele>
        <time>2018-09-04T09:05:56Z</time>
      </trkpt>
      <trkpt lat="45.96748" lon="4.8665">
        <ele>290</ele>
        <time>2018-09-04T09:05:57Z</time>
      </trkpt>
      <trkpt lat="45.96754" lon="4.86642">
        <ele>290</ele>
        <time>2018-09-04T09:05:59Z</time>
      </trkpt>
      <trkpt lat="45.96757" lon="4.86637">
        <ele>290</ele>
        <time>2018-09-04T09:06:00Z</time>
      </trkpt>
      <trkpt lat="45.96762" lon="4.86628">
        <ele>289</ele>
        <time>2018-09-04T09:06:02Z</time>
      </trkpt>
      <trkpt lat="45.96765" lon="4.86623">
        <ele>289</ele>
        <time>2018-09-04T09:06:03Z</time>
      </trkpt>
      <trkpt lat="45.96768" lon="4.86618">
        <ele>289</ele>
        <time>2018-09-04T09:06:04Z</time>
      </trkpt>
      <trkpt lat="45.96771" lon="4.86612">
        <ele>289</ele>
        <time>2018-09-04T09:06:05Z</time>
      </trkpt>
      <trkpt lat="45.96777" lon="4.86603">
        <ele>289</ele>
        <time>2018-09-04T09:06:07Z</time>
      </trkpt>
      <trkpt lat="45.96779" lon="4.86599">
        <ele>289</ele>
        <time>2018-09-04T09:06:08Z</time>
      </trkpt>
      <trkpt lat="45.96785" lon="4.8659">
        <ele>289</ele>
        <time>2018-09-04T09:06:10Z</time>
      </trkpt>
      <trkpt lat="45.96788" lon="4.86585">
        <ele>289</ele>
        <time>2018-09-04T09:06:11Z</time>
      </trkpt>
      <trkpt lat="45.96795" lon="4.86577">
        <ele>290</ele>
        <time>2018-09-04T09:06:13Z</time>
      </trkpt>
      <trkpt lat="45.96798" lon="4.86572">
        <ele>290</ele>
        <time>2018-09-04T09:06:14Z</time>
      </trkpt>
      <trkpt lat="45.96804" lon="4.86564">
        <ele>290</ele>
        <time>2018-09-04T09:06:16Z</time>
      </trkpt>
      <trkpt lat="45.96807" lon="4.86558">
        <ele>290</ele>
        <time>2018-09-04T09:06:17Z</time>
      </trkpt>
      <trkpt lat="45.96812" lon="4.86548">
        <ele>290</ele>
        <time>2018-09-04T09:06:19Z</time>
      </trkpt>
      <trkpt lat="45.96814" lon="4.86544">
        <ele>290</ele>
        <time>2018-09-04T09:06:20Z</time>
      </trkpt>
      <trkpt lat="45.96819" lon="4.86533">
        <ele>290</ele>
        <time>2018-09-04T09:06:22Z</time>
      </trkpt>
      <trkpt lat="45.96822" lon="4.8653">
        <ele>289</ele>
        <time>2018-09-04T09:06:23Z</time>
      </trkpt>
      <trkpt lat="45.96827" lon="4.86521">
        <ele>289</ele>
        <time>2018-09-04T09:06:25Z</time>
      </trkpt>
      <trkpt lat="45.96829" lon="4.86516">
        <ele>289</ele>
        <time>2018-09-04T09:06:26Z</time>
      </trkpt>
      <trkpt lat="45.96834" lon="4.86506">
        <ele>289</ele>
        <time>2018-09-04T09:06:28Z</time>
      </trkpt>
      <trkpt lat="45.96837" lon="4.865">
        <ele>289</ele>
        <time>2018-09-04T09:06:29Z</time>
      </trkpt>
      <trkpt lat="45.96841" lon="4.86489">
        <ele>289</ele>
        <time>2018-09-04T09:06:31Z</time>
      </trkpt>
      <trkpt lat="45.96844" lon="4.86484">
        <ele>289</ele>
        <time>2018-09-04T09:06:32Z</time>
      </trkpt>
      <trkpt lat="45.96846" lon="4.86475">
        <ele>289</ele>
        <time>2018-09-04T09:06:34Z</time>
      </trkpt>
      <trkpt lat="45.96848" lon="4.8647">
        <ele>289</ele>
        <time>2018-09-04T09:06:35Z</time>
      </trkpt>
      <trkpt lat="45.96849" lon="4.86458">
        <ele>289</ele>
        <time>2018-09-04T09:06:37Z</time>
      </trkpt>
      <trkpt lat="45.9685" lon="4.86452">
        <ele>289</ele>
        <time>2018-09-04T09:06:38Z</time>
      </trkpt>
      <trkpt lat="45.96852" lon="4.86445">
        <ele>290</ele>
        <time>2018-09-04T09:06:39Z</time>
      </trkpt>
      <trkpt lat="45.96853" lon="4.86439">
        <ele>290</ele>
        <time>2018-09-04T09:06:40Z</time>
      </trkpt>
      <trkpt lat="45.96856" lon="4.86428">
        <ele>290</ele>
        <time>2018-09-04T09:06:42Z</time>
      </trkpt>
      <trkpt lat="45.96857" lon="4.86422">
        <ele>290</ele>
        <time>2018-09-04T09:06:43Z</time>
      </trkpt>
      <trkpt lat="45.96857" lon="4.86415">
        <ele>291</ele>
        <time>2018-09-04T09:06:44Z</time>
      </trkpt>
      <trkpt lat="45.96859" lon="4.86409">
        <ele>290</ele>
        <time>2018-09-04T09:06:45Z</time>
      </trkpt>
      <trkpt lat="45.96861" lon="4.86403">
        <ele>290</ele>
        <time>2018-09-04T09:06:46Z</time>
      </trkpt>
      <trkpt lat="45.96862" lon="4.86395">
        <ele>290</ele>
        <time>2018-09-04T09:06:47Z</time>
      </trkpt>
      <trkpt lat="45.96863" lon="4.86388">
        <ele>290</ele>
        <time>2018-09-04T09:06:48Z</time>
      </trkpt>
      <trkpt lat="45.96863" lon="4.86381">
        <ele>290</ele>
        <time>2018-09-04T09:06:49Z</time>
      </trkpt>
      <trkpt lat="45.96864" lon="4.86374">
        <ele>290</ele>
        <time>2018-09-04T09:06:50Z</time>
      </trkpt>
      <trkpt lat="45.96864" lon="4.86365">
        <ele>290</ele>
        <time>2018-09-04T09:06:51Z</time>
      </trkpt>
      <trkpt lat="45.96867" lon="4.86354">
        <ele>290</ele>
        <time>2018-09-04T09:06:53Z</time>
      </trkpt>
      <trkpt lat="45.96868" lon="4.86347">
        <ele>290</ele>
        <time>2018-09-04T09:06:54Z</time>
      </trkpt>
      <trkpt lat="45.96871" lon="4.86337">
        <ele>290</ele>
        <time>2018-09-04T09:06:56Z</time>
      </trkpt>
      <trkpt lat="45.96873" lon="4.86332">
        <ele>289</ele>
        <time>2018-09-04T09:06:57Z</time>
      </trkpt>
      <trkpt lat="45.96874" lon="4.86325">
        <ele>289</ele>
        <time>2018-09-04T09:06:58Z</time>
      </trkpt>
      <trkpt lat="45.96874" lon="4.86318">
        <ele>289</ele>
        <time>2018-09-04T09:06:59Z</time>
      </trkpt>
      <trkpt lat="45.96875" lon="4.86313">
        <ele>289</ele>
        <time>2018-09-04T09:07:00Z</time>
      </trkpt>
      <trkpt lat="45.96876" lon="4.86305">
        <ele>289</ele>
        <time>2018-09-04T09:07:01Z</time>
      </trkpt>
      <trkpt lat="45.96876" lon="4.86299">
        <ele>289</ele>
        <time>2018-09-04T09:07:02Z</time>
      </trkpt>
      <trkpt lat="45.96877" lon="4.86292">
        <ele>289</ele>
        <time>2018-09-04T09:07:03Z</time>
      </trkpt>
      <trkpt lat="45.96878" lon="4.86286">
        <ele>289</ele>
        <time>2018-09-04T09:07:04Z</time>
      </trkpt>
      <trkpt lat="45.96879" lon="4.86279">
        <ele>289</ele>
        <time>2018-09-04T09:07:05Z</time>
      </trkpt>
      <trkpt lat="45.96879" lon="4.86272">
        <ele>289</ele>
        <time>2018-09-04T09:07:06Z</time>
      </trkpt>
      <trkpt lat="45.96881" lon="4.86266">
        <ele>288</ele>
        <time>2018-09-04T09:07:07Z</time>
      </trkpt>
      <trkpt lat="45.96884" lon="4.86254">
        <ele>288</ele>
        <time>2018-09-04T09:07:09Z</time>
      </trkpt>
      <trkpt lat="45.96885" lon="4.86247">
        <ele>288</ele>
        <time>2018-09-04T09:07:10Z</time>
      </trkpt>
      <trkpt lat="45.96886" lon="4.86238">
        <ele>288</ele>
        <time>2018-09-04T09:07:11Z</time>
      </trkpt>
      <trkpt lat="45.96888" lon="4.86231">
        <ele>288</ele>
        <time>2018-09-04T09:07:12Z</time>
      </trkpt>
      <trkpt lat="45.96888" lon="4.86224">
        <ele>289</ele>
        <time>2018-09-04T09:07:13Z</time>
      </trkpt>
      <trkpt lat="45.9689" lon="4.86219">
        <ele>289</ele>
        <time>2018-09-04T09:07:14Z</time>
      </trkpt>
      <trkpt lat="45.96892" lon="4.86212">
        <ele>289</ele>
        <time>2018-09-04T09:07:15Z</time>
      </trkpt>
      <trkpt lat="45.96892" lon="4.86206">
        <ele>289</ele>
        <time>2018-09-04T09:07:16Z</time>
      </trkpt>
      <trkpt lat="45.96892" lon="4.86199">
        <ele>289</ele>
        <time>2018-09-04T09:07:17Z</time>
      </trkpt>
      <trkpt lat="45.96893" lon="4.86192">
        <ele>289</ele>
        <time>2018-09-04T09:07:18Z</time>
      </trkpt>
      <trkpt lat="45.96893" lon="4.86184">
        <ele>289</ele>
        <time>2018-09-04T09:07:19Z</time>
      </trkpt>
      <trkpt lat="45.96894" lon="4.86177">
        <ele>288</ele>
        <time>2018-09-04T09:07:20Z</time>
      </trkpt>
      <trkpt lat="45.96895" lon="4.8617">
        <ele>288</ele>
        <time>2018-09-04T09:07:21Z</time>
      </trkpt>
      <trkpt lat="45.96896" lon="4.86162">
        <ele>289</ele>
        <time>2018-09-04T09:07:22Z</time>
      </trkpt>
      <trkpt lat="45.96897" lon="4.86154">
        <ele>289</ele>
        <time>2018-09-04T09:07:23Z</time>
      </trkpt>
      <trkpt lat="45.96897" lon="4.86145">
        <ele>289</ele>
        <time>2018-09-04T09:07:24Z</time>
      </trkpt>
      <trkpt lat="45.96898" lon="4.86136">
        <ele>289</ele>
        <time>2018-09-04T09:07:25Z</time>
      </trkpt>
      <trkpt lat="45.969" lon="4.86129">
        <ele>289</ele>
        <time>2018-09-04T09:07:26Z</time>
      </trkpt>
      <trkpt lat="45.969" lon="4.86119">
        <ele>289</ele>
        <time>2018-09-04T09:07:27Z</time>
      </trkpt>
      <trkpt lat="45.96901" lon="4.86111">
        <ele>289</ele>
        <time>2018-09-04T09:07:28Z</time>
      </trkpt>
      <trkpt lat="45.96903" lon="4.86105">
        <ele>289</ele>
        <time>2018-09-04T09:07:29Z</time>
      </trkpt>
      <trkpt lat="45.96904" lon="4.86098">
        <ele>288</ele>
        <time>2018-09-04T09:07:30Z</time>
      </trkpt>
      <trkpt lat="45.96904" lon="4.8609">
        <ele>288</ele>
        <time>2018-09-04T09:07:31Z</time>
      </trkpt>
      <trkpt lat="45.96906" lon="4.86083">
        <ele>288</ele>
        <time>2018-09-04T09:07:32Z</time>
      </trkpt>
      <trkpt lat="45.96907" lon="4.86075">
        <ele>288</ele>
        <time>2018-09-04T09:07:33Z</time>
      </trkpt>
      <trkpt lat="45.96907" lon="4.86067">
        <ele>288</ele>
        <time>2018-09-04T09:07:34Z</time>
      </trkpt>
      <trkpt lat="45.96908" lon="4.86059">
        <ele>288</ele>
        <time>2018-09-04T09:07:35Z</time>
      </trkpt>
      <trkpt lat="45.96909" lon="4.8605">
        <ele>289</ele>
        <time>2018-09-04T09:07:36Z</time>
      </trkpt>
      <trkpt lat="45.96909" lon="4.86042">
        <ele>289</ele>
        <time>2018-09-04T09:07:37Z</time>
      </trkpt>
      <trkpt lat="45.96911" lon="4.86034">
        <ele>289</ele>
        <time>2018-09-04T09:07:38Z</time>
      </trkpt>
      <trkpt lat="45.96912" lon="4.86027">
        <ele>289</ele>
        <time>2018-09-04T09:07:39Z</time>
      </trkpt>
      <trkpt lat="45.96914" lon="4.8602">
        <ele>289</ele>
        <time>2018-09-04T09:07:40Z</time>
      </trkpt>
      <trkpt lat="45.96915" lon="4.86011">
        <ele>288</ele>
        <time>2018-09-04T09:07:41Z</time>
      </trkpt>
      <trkpt lat="45.96918" lon="4.86004">
        <ele>288</ele>
        <time>2018-09-04T09:07:42Z</time>
      </trkpt>
      <trkpt lat="45.9692" lon="4.85997">
        <ele>288</ele>
        <time>2018-09-04T09:07:43Z</time>
      </trkpt>
      <trkpt lat="45.96923" lon="4.85991">
        <ele>287</ele>
        <time>2018-09-04T09:07:44Z</time>
      </trkpt>
      <trkpt lat="45.96926" lon="4.85985">
        <ele>287</ele>
        <time>2018-09-04T09:07:45Z</time>
      </trkpt>
      <trkpt lat="45.96928" lon="4.85978">
        <ele>287</ele>
        <time>2018-09-04T09:07:46Z</time>
      </trkpt>
      <trkpt lat="45.96929" lon="4.85971">
        <ele>287</ele>
        <time>2018-09-04T09:07:47Z</time>
      </trkpt>
      <trkpt lat="45.96931" lon="4.85963">
        <ele>287</ele>
        <time>2018-09-04T09:07:48Z</time>
      </trkpt>
      <trkpt lat="45.96933" lon="4.85955">
        <ele>287</ele>
        <time>2018-09-04T09:07:49Z</time>
      </trkpt>
      <trkpt lat="45.96934" lon="4.85947">
        <ele>286</ele>
        <time>2018-09-04T09:07:50Z</time>
      </trkpt>
      <trkpt lat="45.96936" lon="4.85939">
        <ele>286</ele>
        <time>2018-09-04T09:07:51Z</time>
      </trkpt>
      <trkpt lat="45.96938" lon="4.8593">
        <ele>286</ele>
        <time>2018-09-04T09:07:52Z</time>
      </trkpt>
      <trkpt lat="45.9694" lon="4.8592">
        <ele>286</ele>
        <time>2018-09-04T09:07:53Z</time>
      </trkpt>
      <trkpt lat="45.96942" lon="4.85909">
        <ele>285</ele>
        <time>2018-09-04T09:07:54Z</time>
      </trkpt>
      <trkpt lat="45.96944" lon="4.85899">
        <ele>285</ele>
        <time>2018-09-04T09:07:55Z</time>
      </trkpt>
      <trkpt lat="45.96947" lon="4.85891">
        <ele>285</ele>
        <time>2018-09-04T09:07:56Z</time>
      </trkpt>
      <trkpt lat="45.96949" lon="4.85882">
        <ele>285</ele>
        <time>2018-09-04T09:07:57Z</time>
      </trkpt>
      <trkpt lat="45.9695" lon="4.85871">
        <ele>285</ele>
        <time>2018-09-04T09:07:58Z</time>
      </trkpt>
      <trkpt lat="45.96952" lon="4.85863">
        <ele>285</ele>
        <time>2018-09-04T09:07:59Z</time>
      </trkpt>
      <trkpt lat="45.96955" lon="4.85854">
        <ele>285</ele>
        <time>2018-09-04T09:08:00Z</time>
      </trkpt>
      <trkpt lat="45.96957" lon="4.85845">
        <ele>285</ele>
        <time>2018-09-04T09:08:01Z</time>
      </trkpt>
      <trkpt lat="45.96959" lon="4.85837">
        <ele>285</ele>
        <time>2018-09-04T09:08:02Z</time>
      </trkpt>
      <trkpt lat="45.96961" lon="4.8583">
        <ele>285</ele>
        <time>2018-09-04T09:08:03Z</time>
      </trkpt>
      <trkpt lat="45.96963" lon="4.85821">
        <ele>285</ele>
        <time>2018-09-04T09:08:04Z</time>
      </trkpt>
      <trkpt lat="45.96966" lon="4.85811">
        <ele>285</ele>
        <time>2018-09-04T09:08:05Z</time>
      </trkpt>
      <trkpt lat="45.96967" lon="4.85804">
        <ele>285</ele>
        <time>2018-09-04T09:08:06Z</time>
      </trkpt>
      <trkpt lat="45.96969" lon="4.85797">
        <ele>285</ele>
        <time>2018-09-04T09:08:07Z</time>
      </trkpt>
      <trkpt lat="45.96971" lon="4.85789">
        <ele>285</ele>
        <time>2018-09-04T09:08:08Z</time>
      </trkpt>
      <trkpt lat="45.96973" lon="4.85781">
        <ele>285</ele>
        <time>2018-09-04T09:08:09Z</time>
      </trkpt>
      <trkpt lat="45.96976" lon="4.85773">
        <ele>285</ele>
        <time>2018-09-04T09:08:10Z</time>
      </trkpt>
      <trkpt lat="45.96978" lon="4.85766">
        <ele>285</ele>
        <time>2018-09-04T09:08:11Z</time>
      </trkpt>
      <trkpt lat="45.9698" lon="4.85759">
        <ele>285</ele>
        <time>2018-09-04T09:08:12Z</time>
      </trkpt>
      <trkpt lat="45.96983" lon="4.85751">
        <ele>285</ele>
        <time>2018-09-04T09:08:13Z</time>
      </trkpt>
      <trkpt lat="45.96986" lon="4.85743">
        <ele>285</ele>
        <time>2018-09-04T09:08:14Z</time>
      </trkpt>
      <trkpt lat="45.96987" lon="4.85735">
        <ele>285</ele>
        <time>2018-09-04T09:08:15Z</time>
      </trkpt>
      <trkpt lat="45.96989" lon="4.85725">
        <ele>285</ele>
        <time>2018-09-04T09:08:16Z</time>
      </trkpt>
      <trkpt lat="45.96991" lon="4.85717">
        <ele>285</ele>
        <time>2018-09-04T09:08:17Z</time>
      </trkpt>
      <trkpt lat="45.96992" lon="4.85709">
        <ele>285</ele>
        <time>2018-09-04T09:08:18Z</time>
      </trkpt>
      <trkpt lat="45.96994" lon="4.85702">
        <ele>285</ele>
        <time>2018-09-04T09:08:19Z</time>
      </trkpt>
      <trkpt lat="45.96996" lon="4.85694">
        <ele>285</ele>
        <time>2018-09-04T09:08:20Z</time>
      </trkpt>
      <trkpt lat="45.96998" lon="4.85688">
        <ele>285</ele>
        <time>2018-09-04T09:08:21Z</time>
      </trkpt>
      <trkpt lat="45.97001" lon="4.85679">
        <ele>285</ele>
        <time>2018-09-04T09:08:22Z</time>
      </trkpt>
      <trkpt lat="45.97002" lon="4.85672">
        <ele>285</ele>
        <time>2018-09-04T09:08:23Z</time>
      </trkpt>
      <trkpt lat="45.97004" lon="4.85664">
        <ele>285</ele>
        <time>2018-09-04T09:08:24Z</time>
      </trkpt>
      <trkpt lat="45.97006" lon="4.85657">
        <ele>285</ele>
        <time>2018-09-04T09:08:25Z</time>
      </trkpt>
      <trkpt lat="45.97009" lon="4.8565">
        <ele>285</ele>
        <time>2018-09-04T09:08:26Z</time>
      </trkpt>
      <trkpt lat="45.97011" lon="4.85643">
        <ele>284</ele>
        <time>2018-09-04T09:08:27Z</time>
      </trkpt>
      <trkpt lat="45.97012" lon="4.85635">
        <ele>284</ele>
        <time>2018-09-04T09:08:28Z</time>
      </trkpt>
      <trkpt lat="45.97014" lon="4.85627">
        <ele>284</ele>
        <time>2018-09-04T09:08:29Z</time>
      </trkpt>
      <trkpt lat="45.97015" lon="4.85619">
        <ele>284</ele>
        <time>2018-09-04T09:08:30Z</time>
      </trkpt>
      <trkpt lat="45.97018" lon="4.85612">
        <ele>284</ele>
        <time>2018-09-04T09:08:31Z</time>
      </trkpt>
      <trkpt lat="45.97021" lon="4.85604">
        <ele>284</ele>
        <time>2018-09-04T09:08:32Z</time>
      </trkpt>
      <trkpt lat="45.97021" lon="4.85594">
        <ele>284</ele>
        <time>2018-09-04T09:08:33Z</time>
      </trkpt>
      <trkpt lat="45.97024" lon="4.85585">
        <ele>284</ele>
        <time>2018-09-04T09:08:34Z</time>
      </trkpt>
      <trkpt lat="45.97026" lon="4.85576">
        <ele>283</ele>
        <time>2018-09-04T09:08:35Z</time>
      </trkpt>
      <trkpt lat="45.97029" lon="4.85568">
        <ele>283</ele>
        <time>2018-09-04T09:08:36Z</time>
      </trkpt>
      <trkpt lat="45.97031" lon="4.85559">
        <ele>283</ele>
        <time>2018-09-04T09:08:37Z</time>
      </trkpt>
      <trkpt lat="45.97034" lon="4.85551">
        <ele>283</ele>
        <time>2018-09-04T09:08:38Z</time>
      </trkpt>
      <trkpt lat="45.97036" lon="4.85542">
        <ele>282</ele>
        <time>2018-09-04T09:08:39Z</time>
      </trkpt>
      <trkpt lat="45.97039" lon="4.85536">
        <ele>282</ele>
        <time>2018-09-04T09:08:40Z</time>
      </trkpt>
      <trkpt lat="45.97042" lon="4.85528">
        <ele>282</ele>
        <time>2018-09-04T09:08:41Z</time>
      </trkpt>
      <trkpt lat="45.97043" lon="4.85521">
        <ele>282</ele>
        <time>2018-09-04T09:08:42Z</time>
      </trkpt>
      <trkpt lat="45.97046" lon="4.85513">
        <ele>282</ele>
        <time>2018-09-04T09:08:43Z</time>
      </trkpt>
      <trkpt lat="45.97049" lon="4.85506">
        <ele>282</ele>
        <time>2018-09-04T09:08:44Z</time>
      </trkpt>
      <trkpt lat="45.97052" lon="4.85499">
        <ele>281</ele>
        <time>2018-09-04T09:08:45Z</time>
      </trkpt>
      <trkpt lat="45.97055" lon="4.85491">
        <ele>281</ele>
        <time>2018-09-04T09:08:46Z</time>
      </trkpt>
      <trkpt lat="45.97057" lon="4.8548">
        <ele>281</ele>
        <time>2018-09-04T09:08:47Z</time>
      </trkpt>
      <trkpt lat="45.9706" lon="4.8547">
        <ele>281</ele>
        <time>2018-09-04T09:08:48Z</time>
      </trkpt>
      <trkpt lat="45.97063" lon="4.85462">
        <ele>281</ele>
        <time>2018-09-04T09:08:49Z</time>
      </trkpt>
      <trkpt lat="45.97067" lon="4.85454">
        <ele>281</ele>
        <time>2018-09-04T09:08:50Z</time>
      </trkpt>
      <trkpt lat="45.9707" lon="4.85443">
        <ele>281</ele>
        <time>2018-09-04T09:08:51Z</time>
      </trkpt>
      <trkpt lat="45.97073" lon="4.85432">
        <ele>281</ele>
        <time>2018-09-04T09:08:52Z</time>
      </trkpt>
      <trkpt lat="45.97075" lon="4.8542">
        <ele>280</ele>
        <time>2018-09-04T09:08:53Z</time>
      </trkpt>
      <trkpt lat="45.97078" lon="4.8541">
        <ele>280</ele>
        <time>2018-09-04T09:08:54Z</time>
      </trkpt>
      <trkpt lat="45.97081" lon="4.85403">
        <ele>281</ele>
        <time>2018-09-04T09:08:55Z</time>
      </trkpt>
      <trkpt lat="45.97084" lon="4.85395">
        <ele>280</ele>
        <time>2018-09-04T09:08:56Z</time>
      </trkpt>
      <trkpt lat="45.97086" lon="4.85387">
        <ele>280</ele>
        <time>2018-09-04T09:08:57Z</time>
      </trkpt>
      <trkpt lat="45.9709" lon="4.85378">
        <ele>280</ele>
        <time>2018-09-04T09:08:58Z</time>
      </trkpt>
      <trkpt lat="45.97091" lon="4.8537">
        <ele>280</ele>
        <time>2018-09-04T09:08:59Z</time>
      </trkpt>
      <trkpt lat="45.97094" lon="4.85362">
        <ele>280</ele>
        <time>2018-09-04T09:09:00Z</time>
      </trkpt>
      <trkpt lat="45.97096" lon="4.85353">
        <ele>280</ele>
        <time>2018-09-04T09:09:01Z</time>
      </trkpt>
      <trkpt lat="45.97099" lon="4.85346">
        <ele>280</ele>
        <time>2018-09-04T09:09:02Z</time>
      </trkpt>
      <trkpt lat="45.97101" lon="4.85337">
        <ele>280</ele>
        <time>2018-09-04T09:09:03Z</time>
      </trkpt>
      <trkpt lat="45.97104" lon="4.85329">
        <ele>280</ele>
        <time>2018-09-04T09:09:04Z</time>
      </trkpt>
      <trkpt lat="45.97107" lon="4.85322">
        <ele>280</ele>
        <time>2018-09-04T09:09:05Z</time>
      </trkpt>
      <trkpt lat="45.97111" lon="4.85315">
        <ele>280</ele>
        <time>2018-09-04T09:09:06Z</time>
      </trkpt>
      <trkpt lat="45.97115" lon="4.85306">
        <ele>280</ele>
        <time>2018-09-04T09:09:07Z</time>
      </trkpt>
      <trkpt lat="45.97118" lon="4.85299">
        <ele>280</ele>
        <time>2018-09-04T09:09:08Z</time>
      </trkpt>
      <trkpt lat="45.97121" lon="4.8529">
        <ele>280</ele>
        <time>2018-09-04T09:09:09Z</time>
      </trkpt>
      <trkpt lat="45.97125" lon="4.85283">
        <ele>280</ele>
        <time>2018-09-04T09:09:10Z</time>
      </trkpt>
      <trkpt lat="45.97128" lon="4.85277">
        <ele>279</ele>
        <time>2018-09-04T09:09:11Z</time>
      </trkpt>
      <trkpt lat="45.97132" lon="4.8527">
        <ele>279</ele>
        <time>2018-09-04T09:09:12Z</time>
      </trkpt>
      <trkpt lat="45.97135" lon="4.85262">
        <ele>279</ele>
        <time>2018-09-04T09:09:13Z</time>
      </trkpt>
      <trkpt lat="45.97139" lon="4.85255">
        <ele>279</ele>
        <time>2018-09-04T09:09:14Z</time>
      </trkpt>
      <trkpt lat="45.97143" lon="4.85248">
        <ele>279</ele>
        <time>2018-09-04T09:09:15Z</time>
      </trkpt>
      <trkpt lat="45.97147" lon="4.85242">
        <ele>279</ele>
        <time>2018-09-04T09:09:16Z</time>
      </trkpt>
      <trkpt lat="45.9715" lon="4.85235">
        <ele>279</ele>
        <time>2018-09-04T09:09:17Z</time>
      </trkpt>
      <trkpt lat="45.97153" lon="4.85227">
        <ele>279</ele>
        <time>2018-09-04T09:09:18Z</time>
      </trkpt>
      <trkpt lat="45.97156" lon="4.85219">
        <ele>279</ele>
        <time>2018-09-04T09:09:19Z</time>
      </trkpt>
      <trkpt lat="45.97159" lon="4.85213">
        <ele>279</ele>
        <time>2018-09-04T09:09:20Z</time>
      </trkpt>
      <trkpt lat="45.97162" lon="4.85205">
        <ele>279</ele>
        <time>2018-09-04T09:09:21Z</time>
      </trkpt>
      <trkpt lat="45.97166" lon="4.85198">
        <ele>279</ele>
        <time>2018-09-04T09:09:22Z</time>
      </trkpt>
      <trkpt lat="45.9717" lon="4.85191">
        <ele>278</ele>
        <time>2018-09-04T09:09:23Z</time>
      </trkpt>
      <trkpt lat="45.97174" lon="4.85185">
        <ele>278</ele>
        <time>2018-09-04T09:09:24Z</time>
      </trkpt>
      <trkpt lat="45.97176" lon="4.85176">
        <ele>278</ele>
        <time>2018-09-04T09:09:25Z</time>
      </trkpt>
      <trkpt lat="45.97179" lon="4.8517">
        <ele>278</ele>
        <time>2018-09-04T09:09:26Z</time>
      </trkpt>
      <trkpt lat="45.97183" lon="4.85163">
        <ele>278</ele>
        <time>2018-09-04T09:09:27Z</time>
      </trkpt>
      <trkpt lat="45.97185" lon="4.85156">
        <ele>278</ele>
        <time>2018-09-04T09:09:28Z</time>
      </trkpt>
      <trkpt lat="45.97189" lon="4.85149">
        <ele>278</ele>
        <time>2018-09-04T09:09:29Z</time>
      </trkpt>
      <trkpt lat="45.97192" lon="4.85142">
        <ele>278</ele>
        <time>2018-09-04T09:09:30Z</time>
      </trkpt>
      <trkpt lat="45.97196" lon="4.85135">
        <ele>278</ele>
        <time>2018-09-04T09:09:31Z</time>
      </trkpt>
      <trkpt lat="45.97199" lon="4.85126">
        <ele>278</ele>
        <time>2018-09-04T09:09:32Z</time>
      </trkpt>
      <trkpt lat="45.97204" lon="4.85119">
        <ele>278</ele>
        <time>2018-09-04T09:09:33Z</time>
      </trkpt>
      <trkpt lat="45.97208" lon="4.85111">
        <ele>278</ele>
        <time>2018-09-04T09:09:34Z</time>
      </trkpt>
      <trkpt lat="45.97211" lon="4.85104">
        <ele>278</ele>
        <time>2018-09-04T09:09:35Z</time>
      </trkpt>
      <trkpt lat="45.97215" lon="4.85097">
        <ele>278</ele>
        <time>2018-09-04T09:09:36Z</time>
      </trkpt>
      <trkpt lat="45.97218" lon="4.85089">
        <ele>278</ele>
        <time>2018-09-04T09:09:37Z</time>
      </trkpt>
      <trkpt lat="45.97221" lon="4.85082">
        <ele>278</ele>
        <time>2018-09-04T09:09:38Z</time>
      </trkpt>
      <trkpt lat="45.97224" lon="4.85075">
        <ele>278</ele>
        <time>2018-09-04T09:09:39Z</time>
      </trkpt>
      <trkpt lat="45.97226" lon="4.85068">
        <ele>278</ele>
        <time>2018-09-04T09:09:40Z</time>
      </trkpt>
      <trkpt lat="45.97229" lon="4.85062">
        <ele>279</ele>
        <time>2018-09-04T09:09:41Z</time>
      </trkpt>
      <trkpt lat="45.97232" lon="4.85056">
        <ele>279</ele>
        <time>2018-09-04T09:09:42Z</time>
      </trkpt>
      <trkpt lat="45.97235" lon="4.8505">
        <ele>279</ele>
        <time>2018-09-04T09:09:43Z</time>
      </trkpt>
      <trkpt lat="45.97238" lon="4.85044">
        <ele>279</ele>
        <time>2018-09-04T09:09:44Z</time>
      </trkpt>
      <trkpt lat="45.97241" lon="4.85038">
        <ele>279</ele>
        <time>2018-09-04T09:09:45Z</time>
      </trkpt>
      <trkpt lat="45.97243" lon="4.85031">
        <ele>279</ele>
        <time>2018-09-04T09:09:46Z</time>
      </trkpt>
      <trkpt lat="45.97247" lon="4.85024">
        <ele>279</ele>
        <time>2018-09-04T09:09:47Z</time>
      </trkpt>
      <trkpt lat="45.9725" lon="4.85019">
        <ele>279</ele>
        <time>2018-09-04T09:09:48Z</time>
      </trkpt>
      <trkpt lat="45.97252" lon="4.85012">
        <ele>279</ele>
        <time>2018-09-04T09:09:49Z</time>
      </trkpt>
      <trkpt lat="45.97255" lon="4.85004">
        <ele>279</ele>
        <time>2018-09-04T09:09:50Z</time>
      </trkpt>
      <trkpt lat="45.97258" lon="4.84997">
        <ele>279</ele>
        <time>2018-09-04T09:09:51Z</time>
      </trkpt>
      <trkpt lat="45.97261" lon="4.84989">
        <ele>279</ele>
        <time>2018-09-04T09:09:52Z</time>
      </trkpt>
      <trkpt lat="45.97263" lon="4.84983">
        <ele>279</ele>
        <time>2018-09-04T09:09:53Z</time>
      </trkpt>
      <trkpt lat="45.97267" lon="4.84978">
        <ele>279</ele>
        <time>2018-09-04T09:09:54Z</time>
      </trkpt>
      <trkpt lat="45.9727" lon="4.84972">
        <ele>279</ele>
        <time>2018-09-04T09:09:55Z</time>
      </trkpt>
      <trkpt lat="45.97273" lon="4.84964">
        <ele>278</ele>
        <time>2018-09-04T09:09:56Z</time>
      </trkpt>
      <trkpt lat="45.97276" lon="4.84959">
        <ele>278</ele>
        <time>2018-09-04T09:09:57Z</time>
      </trkpt>
      <trkpt lat="45.9728" lon="4.84954">
        <ele>278</ele>
        <time>2018-09-04T09:09:58Z</time>
      </trkpt>
      <trkpt lat="45.97284" lon="4.84947">
        <ele>278</ele>
        <time>2018-09-04T09:09:59Z</time>
      </trkpt>
      <trkpt lat="45.97287" lon="4.84941">
        <ele>278</ele>
        <time>2018-09-04T09:10:00Z</time>
      </trkpt>
      <trkpt lat="45.97293" lon="4.84937">
        <ele>278</ele>
        <time>2018-09-04T09:10:01Z</time>
      </trkpt>
      <trkpt lat="45.97295" lon="4.8493">
        <ele>278</ele>
        <time>2018-09-04T09:10:02Z</time>
      </trkpt>
      <trkpt lat="45.973" lon="4.84923">
        <ele>278</ele>
        <time>2018-09-04T09:10:03Z</time>
      </trkpt>
      <trkpt lat="45.97304" lon="4.84917">
        <ele>278</ele>
        <time>2018-09-04T09:10:04Z</time>
      </trkpt>
      <trkpt lat="45.97306" lon="4.84911">
        <ele>278</ele>
        <time>2018-09-04T09:10:05Z</time>
      </trkpt>
      <trkpt lat="45.97309" lon="4.84905">
        <ele>278</ele>
        <time>2018-09-04T09:10:06Z</time>
      </trkpt>
      <trkpt lat="45.97313" lon="4.849">
        <ele>278</ele>
        <time>2018-09-04T09:10:07Z</time>
      </trkpt>
      <trkpt lat="45.97317" lon="4.84895">
        <ele>278</ele>
        <time>2018-09-04T09:10:08Z</time>
      </trkpt>
      <trkpt lat="45.97322" lon="4.84889">
        <ele>278</ele>
        <time>2018-09-04T09:10:09Z</time>
      </trkpt>
      <trkpt lat="45.97325" lon="4.84883">
        <ele>278</ele>
        <time>2018-09-04T09:10:10Z</time>
      </trkpt>
      <trkpt lat="45.9733" lon="4.84878">
        <ele>278</ele>
        <time>2018-09-04T09:10:11Z</time>
      </trkpt>
      <trkpt lat="45.97333" lon="4.84871">
        <ele>278</ele>
        <time>2018-09-04T09:10:12Z</time>
      </trkpt>
      <trkpt lat="45.97336" lon="4.84865">
        <ele>277</ele>
        <time>2018-09-04T09:10:13Z</time>
      </trkpt>
      <trkpt lat="45.9734" lon="4.84859">
        <ele>277</ele>
        <time>2018-09-04T09:10:14Z</time>
      </trkpt>
      <trkpt lat="45.97342" lon="4.84852">
        <ele>277</ele>
        <time>2018-09-04T09:10:15Z</time>
      </trkpt>
      <trkpt lat="45.97346" lon="4.84847">
        <ele>277</ele>
        <time>2018-09-04T09:10:16Z</time>
      </trkpt>
      <trkpt lat="45.97349" lon="4.84842">
        <ele>277</ele>
        <time>2018-09-04T09:10:17Z</time>
      </trkpt>
      <trkpt lat="45.97352" lon="4.84836">
        <ele>277</ele>
        <time>2018-09-04T09:10:18Z</time>
      </trkpt>
      <trkpt lat="45.97355" lon="4.84829">
        <ele>278</ele>
        <time>2018-09-04T09:10:19Z</time>
      </trkpt>
      <trkpt lat="45.97359" lon="4.84821">
        <ele>278</ele>
        <time>2018-09-04T09:10:20Z</time>
      </trkpt>
      <trkpt lat="45.97362" lon="4.84814">
        <ele>278</ele>
        <time>2018-09-04T09:10:21Z</time>
      </trkpt>
      <trkpt lat="45.97364" lon="4.84808">
        <ele>278</ele>
        <time>2018-09-04T09:10:22Z</time>
      </trkpt>
      <trkpt lat="45.97367" lon="4.84801">
        <ele>278</ele>
        <time>2018-09-04T09:10:23Z</time>
      </trkpt>
      <trkpt lat="45.9737" lon="4.84795">
        <ele>278</ele>
        <time>2018-09-04T09:10:24Z</time>
      </trkpt>
      <trkpt lat="45.97372" lon="4.84789">
        <ele>278</ele>
        <time>2018-09-04T09:10:25Z</time>
      </trkpt>
      <trkpt lat="45.97375" lon="4.84783">
        <ele>278</ele>
        <time>2018-09-04T09:10:26Z</time>
      </trkpt>
      <trkpt lat="45.97376" lon="4.84777">
        <ele>278</ele>
        <time>2018-09-04T09:10:27Z</time>
      </trkpt>
      <trkpt lat="45.97378" lon="4.8477">
        <ele>278</ele>
        <time>2018-09-04T09:10:28Z</time>
      </trkpt>
      <trkpt lat="45.97379" lon="4.84763">
        <ele>278</ele>
        <time>2018-09-04T09:10:29Z</time>
      </trkpt>
      <trkpt lat="45.97382" lon="4.84758">
        <ele>278</ele>
        <time>2018-09-04T09:10:30Z</time>
      </trkpt>
      <trkpt lat="45.97386" lon="4.84747">
        <ele>278</ele>
        <time>2018-09-04T09:10:32Z</time>
      </trkpt>
      <trkpt lat="45.97388" lon="4.84741">
        <ele>278</ele>
        <time>2018-09-04T09:10:33Z</time>
      </trkpt>
      <trkpt lat="45.9739" lon="4.84734">
        <ele>278</ele>
        <time>2018-09-04T09:10:34Z</time>
      </trkpt>
      <trkpt lat="45.97394" lon="4.84729">
        <ele>278</ele>
        <time>2018-09-04T09:10:35Z</time>
      </trkpt>
      <trkpt lat="45.97398" lon="4.84724">
        <ele>278</ele>
        <time>2018-09-04T09:10:36Z</time>
      </trkpt>
      <trkpt lat="45.97404" lon="4.8472">
        <ele>278</ele>
        <time>2018-09-04T09:10:37Z</time>
      </trkpt>
      <trkpt lat="45.9741" lon="4.84716">
        <ele>278</ele>
        <time>2018-09-04T09:10:38Z</time>
      </trkpt>
      <trkpt lat="45.97415" lon="4.84713">
        <ele>278</ele>
        <time>2018-09-04T09:10:39Z</time>
      </trkpt>
      <trkpt lat="45.97421" lon="4.84708">
        <ele>276</ele>
        <time>2018-09-04T09:10:40Z</time>
      </trkpt>
      <trkpt lat="45.97426" lon="4.84705">
        <ele>276</ele>
        <time>2018-09-04T09:10:41Z</time>
      </trkpt>
      <trkpt lat="45.9743" lon="4.847">
        <ele>276</ele>
        <time>2018-09-04T09:10:42Z</time>
      </trkpt>
      <trkpt lat="45.97435" lon="4.84697">
        <ele>276</ele>
        <time>2018-09-04T09:10:43Z</time>
      </trkpt>
      <trkpt lat="45.9744" lon="4.84691">
        <ele>276</ele>
        <time>2018-09-04T09:10:44Z</time>
      </trkpt>
      <trkpt lat="45.97444" lon="4.84688">
        <ele>276</ele>
        <time>2018-09-04T09:10:45Z</time>
      </trkpt>
      <trkpt lat="45.97449" lon="4.84685">
        <ele>276</ele>
        <time>2018-09-04T09:10:46Z</time>
      </trkpt>
      <trkpt lat="45.97454" lon="4.8468">
        <ele>276</ele>
        <time>2018-09-04T09:10:47Z</time>
      </trkpt>
      <trkpt lat="45.97459" lon="4.84677">
        <ele>276</ele>
        <time>2018-09-04T09:10:48Z</time>
      </trkpt>
      <trkpt lat="45.97464" lon="4.84674">
        <ele>276</ele>
        <time>2018-09-04T09:10:49Z</time>
      </trkpt>
      <trkpt lat="45.97468" lon="4.84672">
        <ele>276</ele>
        <time>2018-09-04T09:10:50Z</time>
      </trkpt>
      <trkpt lat="45.97473" lon="4.84668">
        <ele>276</ele>
        <time>2018-09-04T09:10:51Z</time>
      </trkpt>
      <trkpt lat="45.97478" lon="4.84664">
        <ele>276</ele>
        <time>2018-09-04T09:10:52Z</time>
      </trkpt>
      <trkpt lat="45.97483" lon="4.84662">
        <ele>276</ele>
        <time>2018-09-04T09:10:53Z</time>
      </trkpt>
      <trkpt lat="45.97488" lon="4.84659">
        <ele>275</ele>
        <time>2018-09-04T09:10:54Z</time>
      </trkpt>
      <trkpt lat="45.97492" lon="4.84656">
        <ele>275</ele>
        <time>2018-09-04T09:10:55Z</time>
      </trkpt>
      <trkpt lat="45.97496" lon="4.84653">
        <ele>275</ele>
        <time>2018-09-04T09:10:56Z</time>
      </trkpt>
      <trkpt lat="45.97501" lon="4.84651">
        <ele>275</ele>
        <time>2018-09-04T09:10:57Z</time>
      </trkpt>
      <trkpt lat="45.97506" lon="4.84648">
        <ele>275</ele>
        <time>2018-09-04T09:10:58Z</time>
      </trkpt>
      <trkpt lat="45.97511" lon="4.84642">
        <ele>275</ele>
        <time>2018-09-04T09:10:59Z</time>
      </trkpt>
      <trkpt lat="45.97517" lon="4.84638">
        <ele>275</ele>
        <time>2018-09-04T09:11:00Z</time>
      </trkpt>
      <trkpt lat="45.97521" lon="4.84636">
        <ele>275</ele>
        <time>2018-09-04T09:11:01Z</time>
      </trkpt>
      <trkpt lat="45.97527" lon="4.84626">
        <ele>275</ele>
        <time>2018-09-04T09:11:03Z</time>
      </trkpt>
      <trkpt lat="45.9753" lon="4.84623">
        <ele>275</ele>
        <time>2018-09-04T09:11:04Z</time>
      </trkpt>
      <trkpt lat="45.97538" lon="4.84617">
        <ele>275</ele>
        <time>2018-09-04T09:11:06Z</time>
      </trkpt>
      <trkpt lat="45.97541" lon="4.84612">
        <ele>275</ele>
        <time>2018-09-04T09:11:07Z</time>
      </trkpt>
      <trkpt lat="45.97547" lon="4.84607">
        <ele>274</ele>
        <time>2018-09-04T09:11:09Z</time>
      </trkpt>
      <trkpt lat="45.97551" lon="4.84602">
        <ele>274</ele>
        <time>2018-09-04T09:11:10Z</time>
      </trkpt>
      <trkpt lat="45.97555" lon="4.84599">
        <ele>274</ele>
        <time>2018-09-04T09:11:11Z</time>
      </trkpt>
      <trkpt lat="45.97559" lon="4.84595">
        <ele>274</ele>
        <time>2018-09-04T09:11:12Z</time>
      </trkpt>
      <trkpt lat="45.97563" lon="4.8459">
        <ele>274</ele>
        <time>2018-09-04T09:11:13Z</time>
      </trkpt>
      <trkpt lat="45.97566" lon="4.84586">
        <ele>274</ele>
        <time>2018-09-04T09:11:14Z</time>
      </trkpt>
      <trkpt lat="45.9757" lon="4.84581">
        <ele>274</ele>
        <time>2018-09-04T09:11:15Z</time>
      </trkpt>
      <trkpt lat="45.97575" lon="4.84577">
        <ele>274</ele>
        <time>2018-09-04T09:11:16Z</time>
      </trkpt>
      <trkpt lat="45.97582" lon="4.84569">
        <ele>274</ele>
        <time>2018-09-04T09:11:18Z</time>
      </trkpt>
      <trkpt lat="45.97587" lon="4.84565">
        <ele>274</ele>
        <time>2018-09-04T09:11:19Z</time>
      </trkpt>
      <trkpt lat="45.97591" lon="4.84559">
        <ele>274</ele>
        <time>2018-09-04T09:11:20Z</time>
      </trkpt>
      <trkpt lat="45.97595" lon="4.84553">
        <ele>275</ele>
        <time>2018-09-04T09:11:21Z</time>
      </trkpt>
      <trkpt lat="45.97601" lon="4.84544">
        <ele>275</ele>
        <time>2018-09-04T09:11:23Z</time>
      </trkpt>
      <trkpt lat="45.97604" lon="4.84539">
        <ele>275</ele>
        <time>2018-09-04T09:11:24Z</time>
      </trkpt>
      <trkpt lat="45.97607" lon="4.84534">
        <ele>275</ele>
        <time>2018-09-04T09:11:25Z</time>
      </trkpt>
      <trkpt lat="45.97611" lon="4.84529">
        <ele>275</ele>
        <time>2018-09-04T09:11:26Z</time>
      </trkpt>
      <trkpt lat="45.97614" lon="4.84525">
        <ele>275</ele>
        <time>2018-09-04T09:11:27Z</time>
      </trkpt>
      <trkpt lat="45.97618" lon="4.8452">
        <ele>275</ele>
        <time>2018-09-04T09:11:28Z</time>
      </trkpt>
      <trkpt lat="45.97622" lon="4.84515">
        <ele>275</ele>
        <time>2018-09-04T09:11:29Z</time>
      </trkpt>
      <trkpt lat="45.97626" lon="4.84509">
        <ele>275</ele>
        <time>2018-09-04T09:11:30Z</time>
      </trkpt>
      <trkpt lat="45.9763" lon="4.84504">
        <ele>275</ele>
        <time>2018-09-04T09:11:31Z</time>
      </trkpt>
      <trkpt lat="45.97635" lon="4.84502">
        <ele>275</ele>
        <time>2018-09-04T09:11:32Z</time>
      </trkpt>
      <trkpt lat="45.97639" lon="4.84497">
        <ele>275</ele>
        <time>2018-09-04T09:11:33Z</time>
      </trkpt>
      <trkpt lat="45.97643" lon="4.84492">
        <ele>275</ele>
        <time>2018-09-04T09:11:34Z</time>
      </trkpt>
      <trkpt lat="45.97647" lon="4.84489">
        <ele>275</ele>
        <time>2018-09-04T09:11:35Z</time>
      </trkpt>
      <trkpt lat="45.97651" lon="4.84484">
        <ele>276</ele>
        <time>2018-09-04T09:11:36Z</time>
      </trkpt>
      <trkpt lat="45.97656" lon="4.84481">
        <ele>276</ele>
        <time>2018-09-04T09:11:37Z</time>
      </trkpt>
      <trkpt lat="45.9766" lon="4.84477">
        <ele>276</ele>
        <time>2018-09-04T09:11:38Z</time>
      </trkpt>
      <trkpt lat="45.97664" lon="4.84474">
        <ele>276</ele>
        <time>2018-09-04T09:11:39Z</time>
      </trkpt>
      <trkpt lat="45.97668" lon="4.84468">
        <ele>277</ele>
        <time>2018-09-04T09:11:40Z</time>
      </trkpt>
      <trkpt lat="45.97672" lon="4.84464">
        <ele>277</ele>
        <time>2018-09-04T09:11:41Z</time>
      </trkpt>
      <trkpt lat="45.97677" lon="4.84463">
        <ele>277</ele>
        <time>2018-09-04T09:11:42Z</time>
      </trkpt>
      <trkpt lat="45.97684" lon="4.84456">
        <ele>277</ele>
        <time>2018-09-04T09:11:44Z</time>
      </trkpt>
      <trkpt lat="45.97689" lon="4.84454">
        <ele>277</ele>
        <time>2018-09-04T09:11:45Z</time>
      </trkpt>
      <trkpt lat="45.97694" lon="4.84451">
        <ele>277</ele>
        <time>2018-09-04T09:11:46Z</time>
      </trkpt>
      <trkpt lat="45.97699" lon="4.84449">
        <ele>277</ele>
        <time>2018-09-04T09:11:47Z</time>
      </trkpt>
      <trkpt lat="45.97703" lon="4.84445">
        <ele>277</ele>
        <time>2018-09-04T09:11:48Z</time>
      </trkpt>
      <trkpt lat="45.97708" lon="4.84443">
        <ele>277</ele>
        <time>2018-09-04T09:11:49Z</time>
      </trkpt>
      <trkpt lat="45.97716" lon="4.84441">
        <ele>277</ele>
        <time>2018-09-04T09:11:51Z</time>
      </trkpt>
      <trkpt lat="45.9772" lon="4.84439">
        <ele>277</ele>
        <time>2018-09-04T09:11:52Z</time>
      </trkpt>
      <trkpt lat="45.97725" lon="4.84438">
        <ele>277</ele>
        <time>2018-09-04T09:11:53Z</time>
      </trkpt>
      <trkpt lat="45.9773" lon="4.84438">
        <ele>277</ele>
        <time>2018-09-04T09:11:54Z</time>
      </trkpt>
      <trkpt lat="45.97735" lon="4.84436">
        <ele>277</ele>
        <time>2018-09-04T09:11:55Z</time>
      </trkpt>
      <trkpt lat="45.9774" lon="4.84434">
        <ele>277</ele>
        <time>2018-09-04T09:11:56Z</time>
      </trkpt>
      <trkpt lat="45.97745" lon="4.84432">
        <ele>278</ele>
        <time>2018-09-04T09:11:57Z</time>
      </trkpt>
      <trkpt lat="45.9775" lon="4.84432">
        <ele>277</ele>
        <time>2018-09-04T09:11:58Z</time>
      </trkpt>
      <trkpt lat="45.97756" lon="4.8443">
        <ele>277</ele>
        <time>2018-09-04T09:11:59Z</time>
      </trkpt>
      <trkpt lat="45.97761" lon="4.84429">
        <ele>277</ele>
        <time>2018-09-04T09:12:00Z</time>
      </trkpt>
      <trkpt lat="45.97767" lon="4.84428">
        <ele>277</ele>
        <time>2018-09-04T09:12:01Z</time>
      </trkpt>
      <trkpt lat="45.97773" lon="4.84423">
        <ele>277</ele>
        <time>2018-09-04T09:12:02Z</time>
      </trkpt>
      <trkpt lat="45.97778" lon="4.84423">
        <ele>277</ele>
        <time>2018-09-04T09:12:03Z</time>
      </trkpt>
      <trkpt lat="45.97785" lon="4.84422">
        <ele>277</ele>
        <time>2018-09-04T09:12:04Z</time>
      </trkpt>
      <trkpt lat="45.97791" lon="4.84419">
        <ele>277</ele>
        <time>2018-09-04T09:12:05Z</time>
      </trkpt>
      <trkpt lat="45.97795" lon="4.84415">
        <ele>277</ele>
        <time>2018-09-04T09:12:06Z</time>
      </trkpt>
      <trkpt lat="45.97801" lon="4.84413">
        <ele>277</ele>
        <time>2018-09-04T09:12:07Z</time>
      </trkpt>
      <trkpt lat="45.97806" lon="4.84412">
        <ele>277</ele>
        <time>2018-09-04T09:12:08Z</time>
      </trkpt>
      <trkpt lat="45.9781" lon="4.84409">
        <ele>277</ele>
        <time>2018-09-04T09:12:09Z</time>
      </trkpt>
      <trkpt lat="45.97814" lon="4.84406">
        <ele>276</ele>
        <time>2018-09-04T09:12:10Z</time>
      </trkpt>
      <trkpt lat="45.97819" lon="4.84402">
        <ele>276</ele>
        <time>2018-09-04T09:12:11Z</time>
      </trkpt>
      <trkpt lat="45.97823" lon="4.84399">
        <ele>276</ele>
        <time>2018-09-04T09:12:12Z</time>
      </trkpt>
      <trkpt lat="45.9783" lon="4.84393">
        <ele>276</ele>
        <time>2018-09-04T09:12:14Z</time>
      </trkpt>
      <trkpt lat="45.97834" lon="4.8439">
        <ele>276</ele>
        <time>2018-09-04T09:12:15Z</time>
      </trkpt>
      <trkpt lat="45.97841" lon="4.84384">
        <ele>276</ele>
        <time>2018-09-04T09:12:17Z</time>
      </trkpt>
      <trkpt lat="45.97845" lon="4.84381">
        <ele>276</ele>
        <time>2018-09-04T09:12:18Z</time>
      </trkpt>
      <trkpt lat="45.97849" lon="4.84376">
        <ele>276</ele>
        <time>2018-09-04T09:12:19Z</time>
      </trkpt>
      <trkpt lat="45.97853" lon="4.8437">
        <ele>276</ele>
        <time>2018-09-04T09:12:20Z</time>
      </trkpt>
      <trkpt lat="45.97857" lon="4.84366">
        <ele>276</ele>
        <time>2018-09-04T09:12:21Z</time>
      </trkpt>
      <trkpt lat="45.97861" lon="4.84361">
        <ele>276</ele>
        <time>2018-09-04T09:12:22Z</time>
      </trkpt>
      <trkpt lat="45.97865" lon="4.84353">
        <ele>276</ele>
        <time>2018-09-04T09:12:23Z</time>
      </trkpt>
      <trkpt lat="45.97868" lon="4.84348">
        <ele>276</ele>
        <time>2018-09-04T09:12:24Z</time>
      </trkpt>
      <trkpt lat="45.97872" lon="4.84342">
        <ele>276</ele>
        <time>2018-09-04T09:12:25Z</time>
      </trkpt>
      <trkpt lat="45.97875" lon="4.84337">
        <ele>275</ele>
        <time>2018-09-04T09:12:26Z</time>
      </trkpt>
      <trkpt lat="45.97882" lon="4.84329">
        <ele>275</ele>
        <time>2018-09-04T09:12:28Z</time>
      </trkpt>
      <trkpt lat="45.97885" lon="4.84324">
        <ele>275</ele>
        <time>2018-09-04T09:12:29Z</time>
      </trkpt>
      <trkpt lat="45.97891" lon="4.84315">
        <ele>275</ele>
        <time>2018-09-04T09:12:31Z</time>
      </trkpt>
      <trkpt lat="45.97893" lon="4.84311">
        <ele>275</ele>
        <time>2018-09-04T09:12:32Z</time>
      </trkpt>
      <trkpt lat="45.97896" lon="4.84305">
        <ele>275</ele>
        <time>2018-09-04T09:12:33Z</time>
      </trkpt>
      <trkpt lat="45.97899" lon="4.84301">
        <ele>275</ele>
        <time>2018-09-04T09:12:34Z</time>
      </trkpt>
      <trkpt lat="45.97903" lon="4.84295">
        <ele>275</ele>
        <time>2018-09-04T09:12:35Z</time>
      </trkpt>
      <trkpt lat="45.97906" lon="4.84291">
        <ele>275</ele>
        <time>2018-09-04T09:12:36Z</time>
      </trkpt>
      <trkpt lat="45.9791" lon="4.84286">
        <ele>275</ele>
        <time>2018-09-04T09:12:37Z</time>
      </trkpt>
      <trkpt lat="45.97914" lon="4.84279">
        <ele>275</ele>
        <time>2018-09-04T09:12:38Z</time>
      </trkpt>
      <trkpt lat="45.97918" lon="4.84275">
        <ele>275</ele>
        <time>2018-09-04T09:12:39Z</time>
      </trkpt>
      <trkpt lat="45.97922" lon="4.84269">
        <ele>275</ele>
        <time>2018-09-04T09:12:40Z</time>
      </trkpt>
      <trkpt lat="45.97926" lon="4.84265">
        <ele>275</ele>
        <time>2018-09-04T09:12:41Z</time>
      </trkpt>
      <trkpt lat="45.9793" lon="4.84261">
        <ele>275</ele>
        <time>2018-09-04T09:12:42Z</time>
      </trkpt>
      <trkpt lat="45.97933" lon="4.84258">
        <ele>275</ele>
        <time>2018-09-04T09:12:43Z</time>
      </trkpt>
      <trkpt lat="45.97938" lon="4.84252">
        <ele>275</ele>
        <time>2018-09-04T09:12:44Z</time>
      </trkpt>
      <trkpt lat="45.97942" lon="4.84247">
        <ele>275</ele>
        <time>2018-09-04T09:12:45Z</time>
      </trkpt>
      <trkpt lat="45.97946" lon="4.84243">
        <ele>275</ele>
        <time>2018-09-04T09:12:46Z</time>
      </trkpt>
      <trkpt lat="45.9795" lon="4.84238">
        <ele>275</ele>
        <time>2018-09-04T09:12:47Z</time>
      </trkpt>
      <trkpt lat="45.97954" lon="4.84234">
        <ele>275</ele>
        <time>2018-09-04T09:12:48Z</time>
      </trkpt>
      <trkpt lat="45.97958" lon="4.84229">
        <ele>274</ele>
        <time>2018-09-04T09:12:49Z</time>
      </trkpt>
      <trkpt lat="45.97963" lon="4.84225">
        <ele>274</ele>
        <time>2018-09-04T09:12:50Z</time>
      </trkpt>
      <trkpt lat="45.97968" lon="4.84222">
        <ele>274</ele>
        <time>2018-09-04T09:12:51Z</time>
      </trkpt>
      <trkpt lat="45.97972" lon="4.84217">
        <ele>274</ele>
        <time>2018-09-04T09:12:52Z</time>
      </trkpt>
      <trkpt lat="45.97977" lon="4.84214">
        <ele>274</ele>
        <time>2018-09-04T09:12:53Z</time>
      </trkpt>
      <trkpt lat="45.9798" lon="4.84209">
        <ele>274</ele>
        <time>2018-09-04T09:12:54Z</time>
      </trkpt>
      <trkpt lat="45.97985" lon="4.84206">
        <ele>274</ele>
        <time>2018-09-04T09:12:55Z</time>
      </trkpt>
      <trkpt lat="45.97988" lon="4.842">
        <ele>274</ele>
        <time>2018-09-04T09:12:56Z</time>
      </trkpt>
      <trkpt lat="45.97992" lon="4.84197">
        <ele>274</ele>
        <time>2018-09-04T09:12:57Z</time>
      </trkpt>
      <trkpt lat="45.97997" lon="4.84194">
        <ele>274</ele>
        <time>2018-09-04T09:12:58Z</time>
      </trkpt>
      <trkpt lat="45.98001" lon="4.8419">
        <ele>274</ele>
        <time>2018-09-04T09:12:59Z</time>
      </trkpt>
      <trkpt lat="45.98006" lon="4.84185">
        <ele>274</ele>
        <time>2018-09-04T09:13:00Z</time>
      </trkpt>
      <trkpt lat="45.98011" lon="4.84182">
        <ele>274</ele>
        <time>2018-09-04T09:13:01Z</time>
      </trkpt>
      <trkpt lat="45.98015" lon="4.84178">
        <ele>274</ele>
        <time>2018-09-04T09:13:02Z</time>
      </trkpt>
      <trkpt lat="45.9802" lon="4.84172">
        <ele>274</ele>
        <time>2018-09-04T09:13:03Z</time>
      </trkpt>
      <trkpt lat="45.98024" lon="4.84168">
        <ele>274</ele>
        <time>2018-09-04T09:13:04Z</time>
      </trkpt>
      <trkpt lat="45.98028" lon="4.84163">
        <ele>273</ele>
        <time>2018-09-04T09:13:05Z</time>
      </trkpt>
      <trkpt lat="45.98033" lon="4.84159">
        <ele>273</ele>
        <time>2018-09-04T09:13:06Z</time>
      </trkpt>
      <trkpt lat="45.98037" lon="4.84155">
        <ele>273</ele>
        <time>2018-09-04T09:13:07Z</time>
      </trkpt>
      <trkpt lat="45.98041" lon="4.8415">
        <ele>273</ele>
        <time>2018-09-04T09:13:08Z</time>
      </trkpt>
      <trkpt lat="45.98046" lon="4.84145">
        <ele>273</ele>
        <time>2018-09-04T09:13:09Z</time>
      </trkpt>
      <trkpt lat="45.9805" lon="4.84141">
        <ele>273</ele>
        <time>2018-09-04T09:13:10Z</time>
      </trkpt>
      <trkpt lat="45.98054" lon="4.84137">
        <ele>273</ele>
        <time>2018-09-04T09:13:11Z</time>
      </trkpt>
      <trkpt lat="45.98058" lon="4.84134">
        <ele>273</ele>
        <time>2018-09-04T09:13:12Z</time>
      </trkpt>
      <trkpt lat="45.98062" lon="4.8413">
        <ele>273</ele>
        <time>2018-09-04T09:13:13Z</time>
      </trkpt>
      <trkpt lat="45.98066" lon="4.84126">
        <ele>273</ele>
        <time>2018-09-04T09:13:14Z</time>
      </trkpt>
      <trkpt lat="45.9807" lon="4.84121">
        <ele>273</ele>
        <time>2018-09-04T09:13:15Z</time>
      </trkpt>
      <trkpt lat="45.98074" lon="4.84118">
        <ele>273</ele>
        <time>2018-09-04T09:13:16Z</time>
      </trkpt>
      <trkpt lat="45.98081" lon="4.84111">
        <ele>273</ele>
        <time>2018-09-04T09:13:18Z</time>
      </trkpt>
      <trkpt lat="45.98084" lon="4.84108">
        <ele>273</ele>
        <time>2018-09-04T09:13:19Z</time>
      </trkpt>
      <trkpt lat="45.98091" lon="4.84102">
        <ele>273</ele>
        <time>2018-09-04T09:13:21Z</time>
      </trkpt>
      <trkpt lat="45.98095" lon="4.84098">
        <ele>273</ele>
        <time>2018-09-04T09:13:22Z</time>
      </trkpt>
      <trkpt lat="45.981" lon="4.84095">
        <ele>273</ele>
        <time>2018-09-04T09:13:23Z</time>
      </trkpt>
      <trkpt lat="45.98105" lon="4.84091">
        <ele>273</ele>
        <time>2018-09-04T09:13:24Z</time>
      </trkpt>
      <trkpt lat="45.9811" lon="4.84087">
        <ele>273</ele>
        <time>2018-09-04T09:13:25Z</time>
      </trkpt>
      <trkpt lat="45.98113" lon="4.84084">
        <ele>273</ele>
        <time>2018-09-04T09:13:26Z</time>
      </trkpt>
      <trkpt lat="45.98118" lon="4.84081">
        <ele>273</ele>
        <time>2018-09-04T09:13:27Z</time>
      </trkpt>
      <trkpt lat="45.98123" lon="4.84077">
        <ele>273</ele>
        <time>2018-09-04T09:13:28Z</time>
      </trkpt>
      <trkpt lat="45.98126" lon="4.84072">
        <ele>273</ele>
        <time>2018-09-04T09:13:29Z</time>
      </trkpt>
      <trkpt lat="45.9813" lon="4.84068">
        <ele>273</ele>
        <time>2018-09-04T09:13:30Z</time>
      </trkpt>
      <trkpt lat="45.98134" lon="4.84064">
        <ele>273</ele>
        <time>2018-09-04T09:13:31Z</time>
      </trkpt>
      <trkpt lat="45.98138" lon="4.84059">
        <ele>273</ele>
        <time>2018-09-04T09:13:32Z</time>
      </trkpt>
      <trkpt lat="45.98141" lon="4.84053">
        <ele>273</ele>
        <time>2018-09-04T09:13:33Z</time>
      </trkpt>
      <trkpt lat="45.98145" lon="4.84049">
        <ele>273</ele>
        <time>2018-09-04T09:13:34Z</time>
      </trkpt>
      <trkpt lat="45.9815" lon="4.84045">
        <ele>273</ele>
        <time>2018-09-04T09:13:35Z</time>
      </trkpt>
      <trkpt lat="45.98153" lon="4.8404">
        <ele>273</ele>
        <time>2018-09-04T09:13:36Z</time>
      </trkpt>
      <trkpt lat="45.98156" lon="4.84034">
        <ele>273</ele>
        <time>2018-09-04T09:13:37Z</time>
      </trkpt>
      <trkpt lat="45.9816" lon="4.84027">
        <ele>273</ele>
        <time>2018-09-04T09:13:38Z</time>
      </trkpt>
      <trkpt lat="45.98163" lon="4.84022">
        <ele>273</ele>
        <time>2018-09-04T09:13:39Z</time>
      </trkpt>
      <trkpt lat="45.98167" lon="4.84016">
        <ele>273</ele>
        <time>2018-09-04T09:13:40Z</time>
      </trkpt>
      <trkpt lat="45.9817" lon="4.84011">
        <ele>273</ele>
        <time>2018-09-04T09:13:41Z</time>
      </trkpt>
      <trkpt lat="45.98174" lon="4.84004">
        <ele>273</ele>
        <time>2018-09-04T09:13:42Z</time>
      </trkpt>
      <trkpt lat="45.98177" lon="4.83998">
        <ele>273</ele>
        <time>2018-09-04T09:13:43Z</time>
      </trkpt>
      <trkpt lat="45.98179" lon="4.83991">
        <ele>273</ele>
        <time>2018-09-04T09:13:44Z</time>
      </trkpt>
      <trkpt lat="45.98185" lon="4.83982">
        <ele>273</ele>
        <time>2018-09-04T09:13:46Z</time>
      </trkpt>
      <trkpt lat="45.98187" lon="4.83976">
        <ele>273</ele>
        <time>2018-09-04T09:13:47Z</time>
      </trkpt>
      <trkpt lat="45.98189" lon="4.8397">
        <ele>273</ele>
        <time>2018-09-04T09:13:48Z</time>
      </trkpt>
      <trkpt lat="45.98191" lon="4.83963">
        <ele>273</ele>
        <time>2018-09-04T09:13:49Z</time>
      </trkpt>
      <trkpt lat="45.98194" lon="4.83957">
        <ele>273</ele>
        <time>2018-09-04T09:13:50Z</time>
      </trkpt>
      <trkpt lat="45.98196" lon="4.83951">
        <ele>273</ele>
        <time>2018-09-04T09:13:51Z</time>
      </trkpt>
      <trkpt lat="45.98199" lon="4.83944">
        <ele>273</ele>
        <time>2018-09-04T09:13:52Z</time>
      </trkpt>
      <trkpt lat="45.98202" lon="4.83936">
        <ele>273</ele>
        <time>2018-09-04T09:13:53Z</time>
      </trkpt>
      <trkpt lat="45.98205" lon="4.83928">
        <ele>273</ele>
        <time>2018-09-04T09:13:54Z</time>
      </trkpt>
      <trkpt lat="45.98208" lon="4.83921">
        <ele>273</ele>
        <time>2018-09-04T09:13:55Z</time>
      </trkpt>
      <trkpt lat="45.98211" lon="4.83914">
        <ele>273</ele>
        <time>2018-09-04T09:13:56Z</time>
      </trkpt>
      <trkpt lat="45.98212" lon="4.83907">
        <ele>273</ele>
        <time>2018-09-04T09:13:57Z</time>
      </trkpt>
      <trkpt lat="45.98215" lon="4.83901">
        <ele>273</ele>
        <time>2018-09-04T09:13:58Z</time>
      </trkpt>
      <trkpt lat="45.98218" lon="4.83894">
        <ele>273</ele>
        <time>2018-09-04T09:13:59Z</time>
      </trkpt>
      <trkpt lat="45.98221" lon="4.83886">
        <ele>272</ele>
        <time>2018-09-04T09:14:00Z</time>
      </trkpt>
      <trkpt lat="45.98223" lon="4.8388">
        <ele>272</ele>
        <time>2018-09-04T09:14:01Z</time>
      </trkpt>
      <trkpt lat="45.98226" lon="4.83873">
        <ele>272</ele>
        <time>2018-09-04T09:14:02Z</time>
      </trkpt>
      <trkpt lat="45.98229" lon="4.83864">
        <ele>272</ele>
        <time>2018-09-04T09:14:03Z</time>
      </trkpt>
      <trkpt lat="45.98232" lon="4.83857">
        <ele>272</ele>
        <time>2018-09-04T09:14:04Z</time>
      </trkpt>
      <trkpt lat="45.98234" lon="4.83849">
        <ele>272</ele>
        <time>2018-09-04T09:14:05Z</time>
      </trkpt>
      <trkpt lat="45.98236" lon="4.8384">
        <ele>272</ele>
        <time>2018-09-04T09:14:06Z</time>
      </trkpt>
      <trkpt lat="45.98239" lon="4.83832">
        <ele>272</ele>
        <time>2018-09-04T09:14:07Z</time>
      </trkpt>
      <trkpt lat="45.98242" lon="4.83823">
        <ele>272</ele>
        <time>2018-09-04T09:14:08Z</time>
      </trkpt>
      <trkpt lat="45.98244" lon="4.83815">
        <ele>272</ele>
        <time>2018-09-04T09:14:09Z</time>
      </trkpt>
      <trkpt lat="45.98246" lon="4.83808">
        <ele>272</ele>
        <time>2018-09-04T09:14:10Z</time>
      </trkpt>
      <trkpt lat="45.98249" lon="4.83801">
        <ele>272</ele>
        <time>2018-09-04T09:14:11Z</time>
      </trkpt>
      <trkpt lat="45.98252" lon="4.83794">
        <ele>272</ele>
        <time>2018-09-04T09:14:12Z</time>
      </trkpt>
      <trkpt lat="45.98254" lon="4.83785">
        <ele>272</ele>
        <time>2018-09-04T09:14:13Z</time>
      </trkpt>
      <trkpt lat="45.98256" lon="4.83778">
        <ele>272</ele>
        <time>2018-09-04T09:14:14Z</time>
      </trkpt>
      <trkpt lat="45.98259" lon="4.83772">
        <ele>272</ele>
        <time>2018-09-04T09:14:15Z</time>
      </trkpt>
      <trkpt lat="45.98261" lon="4.83767">
        <ele>272</ele>
        <time>2018-09-04T09:14:16Z</time>
      </trkpt>
      <trkpt lat="45.98263" lon="4.83761">
        <ele>272</ele>
        <time>2018-09-04T09:14:17Z</time>
      </trkpt>
      <trkpt lat="45.98266" lon="4.83756">
        <ele>272</ele>
        <time>2018-09-04T09:14:18Z</time>
      </trkpt>
      <trkpt lat="45.98268" lon="4.83749">
        <ele>272</ele>
        <time>2018-09-04T09:14:19Z</time>
      </trkpt>
      <trkpt lat="45.9827" lon="4.83742">
        <ele>272</ele>
        <time>2018-09-04T09:14:20Z</time>
      </trkpt>
      <trkpt lat="45.98272" lon="4.83735">
        <ele>272</ele>
        <time>2018-09-04T09:14:21Z</time>
      </trkpt>
      <trkpt lat="45.98274" lon="4.83728">
        <ele>272</ele>
        <time>2018-09-04T09:14:22Z</time>
      </trkpt>
      <trkpt lat="45.98277" lon="4.83722">
        <ele>272</ele>
        <time>2018-09-04T09:14:23Z</time>
      </trkpt>
      <trkpt lat="45.9828" lon="4.83715">
        <ele>272</ele>
        <time>2018-09-04T09:14:24Z</time>
      </trkpt>
      <trkpt lat="45.98283" lon="4.83707">
        <ele>272</ele>
        <time>2018-09-04T09:14:25Z</time>
      </trkpt>
      <trkpt lat="45.98284" lon="4.83698">
        <ele>272</ele>
        <time>2018-09-04T09:14:26Z</time>
      </trkpt>
      <trkpt lat="45.98288" lon="4.83692">
        <ele>272</ele>
        <time>2018-09-04T09:14:27Z</time>
      </trkpt>
      <trkpt lat="45.98289" lon="4.83684">
        <ele>272</ele>
        <time>2018-09-04T09:14:28Z</time>
      </trkpt>
      <trkpt lat="45.98292" lon="4.83679">
        <ele>272</ele>
        <time>2018-09-04T09:14:29Z</time>
      </trkpt>
      <trkpt lat="45.98295" lon="4.83672">
        <ele>272</ele>
        <time>2018-09-04T09:14:30Z</time>
      </trkpt>
      <trkpt lat="45.98298" lon="4.83667">
        <ele>272</ele>
        <time>2018-09-04T09:14:31Z</time>
      </trkpt>
      <trkpt lat="45.983" lon="4.83659">
        <ele>271</ele>
        <time>2018-09-04T09:14:32Z</time>
      </trkpt>
      <trkpt lat="45.98302" lon="4.83651">
        <ele>271</ele>
        <time>2018-09-04T09:14:33Z</time>
      </trkpt>
      <trkpt lat="45.98304" lon="4.83645">
        <ele>271</ele>
        <time>2018-09-04T09:14:34Z</time>
      </trkpt>
      <trkpt lat="45.98309" lon="4.8364">
        <ele>271</ele>
        <time>2018-09-04T09:14:35Z</time>
      </trkpt>
      <trkpt lat="45.98312" lon="4.83636">
        <ele>271</ele>
        <time>2018-09-04T09:14:36Z</time>
      </trkpt>
      <trkpt lat="45.98314" lon="4.83629">
        <ele>271</ele>
        <time>2018-09-04T09:14:37Z</time>
      </trkpt>
      <trkpt lat="45.98317" lon="4.83621">
        <ele>271</ele>
        <time>2018-09-04T09:14:38Z</time>
      </trkpt>
      <trkpt lat="45.98321" lon="4.83615">
        <ele>271</ele>
        <time>2018-09-04T09:14:39Z</time>
      </trkpt>
      <trkpt lat="45.98324" lon="4.8361">
        <ele>271</ele>
        <time>2018-09-04T09:14:40Z</time>
      </trkpt>
      <trkpt lat="45.98328" lon="4.83604">
        <ele>271</ele>
        <time>2018-09-04T09:14:41Z</time>
      </trkpt>
      <trkpt lat="45.98333" lon="4.83596">
        <ele>270</ele>
        <time>2018-09-04T09:14:43Z</time>
      </trkpt>
      <trkpt lat="45.98337" lon="4.8359">
        <ele>270</ele>
        <time>2018-09-04T09:14:44Z</time>
      </trkpt>
      <trkpt lat="45.9834" lon="4.83585">
        <ele>270</ele>
        <time>2018-09-04T09:14:45Z</time>
      </trkpt>
      <trkpt lat="45.98344" lon="4.8358">
        <ele>270</ele>
        <time>2018-09-04T09:14:46Z</time>
      </trkpt>
      <trkpt lat="45.98347" lon="4.83575">
        <ele>270</ele>
        <time>2018-09-04T09:14:47Z</time>
      </trkpt>
      <trkpt lat="45.9835" lon="4.8357">
        <ele>269</ele>
        <time>2018-09-04T09:14:48Z</time>
      </trkpt>
      <trkpt lat="45.98354" lon="4.83566">
        <ele>269</ele>
        <time>2018-09-04T09:14:49Z</time>
      </trkpt>
      <trkpt lat="45.9836" lon="4.83561">
        <ele>269</ele>
        <time>2018-09-04T09:14:50Z</time>
      </trkpt>
      <trkpt lat="45.98364" lon="4.83553">
        <ele>269</ele>
        <time>2018-09-04T09:14:51Z</time>
      </trkpt>
      <trkpt lat="45.98368" lon="4.83547">
        <ele>269</ele>
        <time>2018-09-04T09:14:52Z</time>
      </trkpt>
      <trkpt lat="45.98373" lon="4.83543">
        <ele>269</ele>
        <time>2018-09-04T09:14:53Z</time>
      </trkpt>
      <trkpt lat="45.98377" lon="4.83536">
        <ele>269</ele>
        <time>2018-09-04T09:14:54Z</time>
      </trkpt>
      <trkpt lat="45.9838" lon="4.83529">
        <ele>269</ele>
        <time>2018-09-04T09:14:55Z</time>
      </trkpt>
      <trkpt lat="45.98385" lon="4.83523">
        <ele>269</ele>
        <time>2018-09-04T09:14:56Z</time>
      </trkpt>
      <trkpt lat="45.9839" lon="4.83517">
        <ele>269</ele>
        <time>2018-09-04T09:14:57Z</time>
      </trkpt>
      <trkpt lat="45.98396" lon="4.83511">
        <ele>269</ele>
        <time>2018-09-04T09:14:58Z</time>
      </trkpt>
      <trkpt lat="45.984" lon="4.83505">
        <ele>269</ele>
        <time>2018-09-04T09:14:59Z</time>
      </trkpt>
      <trkpt lat="45.98404" lon="4.83498">
        <ele>269</ele>
        <time>2018-09-04T09:15:00Z</time>
      </trkpt>
      <trkpt lat="45.98408" lon="4.83493">
        <ele>268</ele>
        <time>2018-09-04T09:15:01Z</time>
      </trkpt>
      <trkpt lat="45.98412" lon="4.83487">
        <ele>269</ele>
        <time>2018-09-04T09:15:02Z</time>
      </trkpt>
      <trkpt lat="45.98416" lon="4.83482">
        <ele>269</ele>
        <time>2018-09-04T09:15:03Z</time>
      </trkpt>
      <trkpt lat="45.9842" lon="4.83477">
        <ele>268</ele>
        <time>2018-09-04T09:15:04Z</time>
      </trkpt>
      <trkpt lat="45.98424" lon="4.83471">
        <ele>268</ele>
        <time>2018-09-04T09:15:05Z</time>
      </trkpt>
      <trkpt lat="45.98427" lon="4.83467">
        <ele>268</ele>
        <time>2018-09-04T09:15:06Z</time>
      </trkpt>
      <trkpt lat="45.98431" lon="4.83462">
        <ele>268</ele>
        <time>2018-09-04T09:15:07Z</time>
      </trkpt>
      <trkpt lat="45.98434" lon="4.83458">
        <ele>268</ele>
        <time>2018-09-04T09:15:08Z</time>
      </trkpt>
      <trkpt lat="45.98436" lon="4.83451">
        <ele>268</ele>
        <time>2018-09-04T09:15:09Z</time>
      </trkpt>
      <trkpt lat="45.9844" lon="4.83446">
        <ele>268</ele>
        <time>2018-09-04T09:15:10Z</time>
      </trkpt>
      <trkpt lat="45.98444" lon="4.83441">
        <ele>268</ele>
        <time>2018-09-04T09:15:11Z</time>
      </trkpt>
      <trkpt lat="45.98446" lon="4.83435">
        <ele>268</ele>
        <time>2018-09-04T09:15:12Z</time>
      </trkpt>
      <trkpt lat="45.9845" lon="4.8343">
        <ele>268</ele>
        <time>2018-09-04T09:15:13Z</time>
      </trkpt>
      <trkpt lat="45.98454" lon="4.83425">
        <ele>269</ele>
        <time>2018-09-04T09:15:14Z</time>
      </trkpt>
      <trkpt lat="45.98458" lon="4.8342">
        <ele>269</ele>
        <time>2018-09-04T09:15:15Z</time>
      </trkpt>
      <trkpt lat="45.98461" lon="4.83414">
        <ele>269</ele>
        <time>2018-09-04T09:15:16Z</time>
      </trkpt>
      <trkpt lat="45.98465" lon="4.83408">
        <ele>269</ele>
        <time>2018-09-04T09:15:17Z</time>
      </trkpt>
      <trkpt lat="45.98469" lon="4.83403">
        <ele>269</ele>
        <time>2018-09-04T09:15:18Z</time>
      </trkpt>
      <trkpt lat="45.98473" lon="4.83399">
        <ele>269</ele>
        <time>2018-09-04T09:15:19Z</time>
      </trkpt>
      <trkpt lat="45.98476" lon="4.83395">
        <ele>269</ele>
        <time>2018-09-04T09:15:20Z</time>
      </trkpt>
      <trkpt lat="45.9848" lon="4.8339">
        <ele>269</ele>
        <time>2018-09-04T09:15:21Z</time>
      </trkpt>
      <trkpt lat="45.98484" lon="4.83384">
        <ele>269</ele>
        <time>2018-09-04T09:15:22Z</time>
      </trkpt>
      <trkpt lat="45.98488" lon="4.8338">
        <ele>269</ele>
        <time>2018-09-04T09:15:23Z</time>
      </trkpt>
      <trkpt lat="45.98492" lon="4.83374">
        <ele>270</ele>
        <time>2018-09-04T09:15:24Z</time>
      </trkpt>
      <trkpt lat="45.98495" lon="4.83369">
        <ele>270</ele>
        <time>2018-09-04T09:15:25Z</time>
      </trkpt>
      <trkpt lat="45.98499" lon="4.83365">
        <ele>270</ele>
        <time>2018-09-04T09:15:26Z</time>
      </trkpt>
      <trkpt lat="45.98503" lon="4.8336">
        <ele>269</ele>
        <time>2018-09-04T09:15:27Z</time>
      </trkpt>
      <trkpt lat="45.98508" lon="4.83355">
        <ele>270</ele>
        <time>2018-09-04T09:15:28Z</time>
      </trkpt>
      <trkpt lat="45.98515" lon="4.83348">
        <ele>270</ele>
        <time>2018-09-04T09:15:30Z</time>
      </trkpt>
      <trkpt lat="45.98519" lon="4.83342">
        <ele>270</ele>
        <time>2018-09-04T09:15:31Z</time>
      </trkpt>
      <trkpt lat="45.98522" lon="4.83337">
        <ele>270</ele>
        <time>2018-09-04T09:15:32Z</time>
      </trkpt>
      <trkpt lat="45.98526" lon="4.83332">
        <ele>270</ele>
        <time>2018-09-04T09:15:33Z</time>
      </trkpt>
      <trkpt lat="45.98529" lon="4.83327">
        <ele>269</ele>
        <time>2018-09-04T09:15:34Z</time>
      </trkpt>
      <trkpt lat="45.98532" lon="4.83322">
        <ele>269</ele>
        <time>2018-09-04T09:15:35Z</time>
      </trkpt>
      <trkpt lat="45.98536" lon="4.83316">
        <ele>269</ele>
        <time>2018-09-04T09:15:36Z</time>
      </trkpt>
      <trkpt lat="45.98539" lon="4.83311">
        <ele>269</ele>
        <time>2018-09-04T09:15:37Z</time>
      </trkpt>
      <trkpt lat="45.98543" lon="4.83307">
        <ele>269</ele>
        <time>2018-09-04T09:15:38Z</time>
      </trkpt>
      <trkpt lat="45.98547" lon="4.83302">
        <ele>269</ele>
        <time>2018-09-04T09:15:39Z</time>
      </trkpt>
      <trkpt lat="45.98551" lon="4.83298">
        <ele>269</ele>
        <time>2018-09-04T09:15:40Z</time>
      </trkpt>
      <trkpt lat="45.98555" lon="4.83291">
        <ele>269</ele>
        <time>2018-09-04T09:15:41Z</time>
      </trkpt>
      <trkpt lat="45.98559" lon="4.83286">
        <ele>269</ele>
        <time>2018-09-04T09:15:42Z</time>
      </trkpt>
      <trkpt lat="45.98564" lon="4.8328">
        <ele>269</ele>
        <time>2018-09-04T09:15:43Z</time>
      </trkpt>
      <trkpt lat="45.98568" lon="4.83275">
        <ele>269</ele>
        <time>2018-09-04T09:15:44Z</time>
      </trkpt>
      <trkpt lat="45.98572" lon="4.83269">
        <ele>269</ele>
        <time>2018-09-04T09:15:45Z</time>
      </trkpt>
      <trkpt lat="45.98577" lon="4.83263">
        <ele>269</ele>
        <time>2018-09-04T09:15:46Z</time>
      </trkpt>
      <trkpt lat="45.98581" lon="4.83258">
        <ele>268</ele>
        <time>2018-09-04T09:15:47Z</time>
      </trkpt>
      <trkpt lat="45.98584" lon="4.83252">
        <ele>268</ele>
        <time>2018-09-04T09:15:48Z</time>
      </trkpt>
      <trkpt lat="45.98588" lon="4.83246">
        <ele>268</ele>
        <time>2018-09-04T09:15:49Z</time>
      </trkpt>
      <trkpt lat="45.98592" lon="4.83241">
        <ele>268</ele>
        <time>2018-09-04T09:15:50Z</time>
      </trkpt>
      <trkpt lat="45.98596" lon="4.83236">
        <ele>268</ele>
        <time>2018-09-04T09:15:51Z</time>
      </trkpt>
      <trkpt lat="45.98599" lon="4.83231">
        <ele>268</ele>
        <time>2018-09-04T09:15:52Z</time>
      </trkpt>
      <trkpt lat="45.98603" lon="4.83226">
        <ele>267</ele>
        <time>2018-09-04T09:15:53Z</time>
      </trkpt>
      <trkpt lat="45.98607" lon="4.83221">
        <ele>267</ele>
        <time>2018-09-04T09:15:54Z</time>
      </trkpt>
      <trkpt lat="45.9861" lon="4.83216">
        <ele>267</ele>
        <time>2018-09-04T09:15:55Z</time>
      </trkpt>
      <trkpt lat="45.98614" lon="4.83211">
        <ele>267</ele>
        <time>2018-09-04T09:15:56Z</time>
      </trkpt>
      <trkpt lat="45.98618" lon="4.83206">
        <ele>267</ele>
        <time>2018-09-04T09:15:57Z</time>
      </trkpt>
      <trkpt lat="45.98621" lon="4.83201">
        <ele>267</ele>
        <time>2018-09-04T09:15:58Z</time>
      </trkpt>
      <trkpt lat="45.98625" lon="4.83196">
        <ele>267</ele>
        <time>2018-09-04T09:15:59Z</time>
      </trkpt>
      <trkpt lat="45.9863" lon="4.83193">
        <ele>267</ele>
        <time>2018-09-04T09:16:00Z</time>
      </trkpt>
      <trkpt lat="45.98634" lon="4.83188">
        <ele>267</ele>
        <time>2018-09-04T09:16:01Z</time>
      </trkpt>
      <trkpt lat="45.98639" lon="4.83182">
        <ele>267</ele>
        <time>2018-09-04T09:16:02Z</time>
      </trkpt>
      <trkpt lat="45.98644" lon="4.83178">
        <ele>267</ele>
        <time>2018-09-04T09:16:03Z</time>
      </trkpt>
      <trkpt lat="45.98648" lon="4.83174">
        <ele>267</ele>
        <time>2018-09-04T09:16:04Z</time>
      </trkpt>
      <trkpt lat="45.98654" lon="4.83171">
        <ele>267</ele>
        <time>2018-09-04T09:16:05Z</time>
      </trkpt>
      <trkpt lat="45.98659" lon="4.83167">
        <ele>266</ele>
        <time>2018-09-04T09:16:06Z</time>
      </trkpt>
      <trkpt lat="45.98664" lon="4.83163">
        <ele>266</ele>
        <time>2018-09-04T09:16:07Z</time>
      </trkpt>
      <trkpt lat="45.98669" lon="4.83159">
        <ele>266</ele>
        <time>2018-09-04T09:16:08Z</time>
      </trkpt>
      <trkpt lat="45.98674" lon="4.83155">
        <ele>266</ele>
        <time>2018-09-04T09:16:09Z</time>
      </trkpt>
      <trkpt lat="45.98679" lon="4.83152">
        <ele>266</ele>
        <time>2018-09-04T09:16:10Z</time>
      </trkpt>
      <trkpt lat="45.98683" lon="4.83149">
        <ele>266</ele>
        <time>2018-09-04T09:16:11Z</time>
      </trkpt>
      <trkpt lat="45.98687" lon="4.83143">
        <ele>266</ele>
        <time>2018-09-04T09:16:12Z</time>
      </trkpt>
      <trkpt lat="45.98692" lon="4.8314">
        <ele>266</ele>
        <time>2018-09-04T09:16:13Z</time>
      </trkpt>
      <trkpt lat="45.98697" lon="4.83135">
        <ele>266</ele>
        <time>2018-09-04T09:16:14Z</time>
      </trkpt>
      <trkpt lat="45.98702" lon="4.83132">
        <ele>266</ele>
        <time>2018-09-04T09:16:15Z</time>
      </trkpt>
      <trkpt lat="45.98707" lon="4.83128">
        <ele>266</ele>
        <time>2018-09-04T09:16:16Z</time>
      </trkpt>
      <trkpt lat="45.98712" lon="4.83126">
        <ele>266</ele>
        <time>2018-09-04T09:16:17Z</time>
      </trkpt>
      <trkpt lat="45.98717" lon="4.83122">
        <ele>266</ele>
        <time>2018-09-04T09:16:18Z</time>
      </trkpt>
      <trkpt lat="45.98722" lon="4.83117">
        <ele>267</ele>
        <time>2018-09-04T09:16:19Z</time>
      </trkpt>
      <trkpt lat="45.98727" lon="4.8311">
        <ele>267</ele>
        <time>2018-09-04T09:16:20Z</time>
      </trkpt>
      <trkpt lat="45.98731" lon="4.83105">
        <ele>267</ele>
        <time>2018-09-04T09:16:21Z</time>
      </trkpt>
      <trkpt lat="45.98736" lon="4.83101">
        <ele>267</ele>
        <time>2018-09-04T09:16:22Z</time>
      </trkpt>
      <trkpt lat="45.98742" lon="4.83095">
        <ele>267</ele>
        <time>2018-09-04T09:16:23Z</time>
      </trkpt>
      <trkpt lat="45.98747" lon="4.83089">
        <ele>267</ele>
        <time>2018-09-04T09:16:24Z</time>
      </trkpt>
      <trkpt lat="45.98751" lon="4.83085">
        <ele>267</ele>
        <time>2018-09-04T09:16:25Z</time>
      </trkpt>
      <trkpt lat="45.98756" lon="4.83082">
        <ele>267</ele>
        <time>2018-09-04T09:16:26Z</time>
      </trkpt>
      <trkpt lat="45.98761" lon="4.83077">
        <ele>266</ele>
        <time>2018-09-04T09:16:27Z</time>
      </trkpt>
      <trkpt lat="45.98766" lon="4.83073">
        <ele>266</ele>
        <time>2018-09-04T09:16:28Z</time>
      </trkpt>
      <trkpt lat="45.98771" lon="4.83068">
        <ele>265</ele>
        <time>2018-09-04T09:16:29Z</time>
      </trkpt>
      <trkpt lat="45.98777" lon="4.83065">
        <ele>265</ele>
        <time>2018-09-04T09:16:30Z</time>
      </trkpt>
      <trkpt lat="45.98782" lon="4.83059">
        <ele>265</ele>
        <time>2018-09-04T09:16:31Z</time>
      </trkpt>
      <trkpt lat="45.98788" lon="4.83055">
        <ele>265</ele>
        <time>2018-09-04T09:16:32Z</time>
      </trkpt>
      <trkpt lat="45.98793" lon="4.83051">
        <ele>265</ele>
        <time>2018-09-04T09:16:33Z</time>
      </trkpt>
      <trkpt lat="45.98799" lon="4.83045">
        <ele>264</ele>
        <time>2018-09-04T09:16:34Z</time>
      </trkpt>
      <trkpt lat="45.98806" lon="4.83037">
        <ele>264</ele>
        <time>2018-09-04T09:16:35Z</time>
      </trkpt>
      <trkpt lat="45.98813" lon="4.8303">
        <ele>264</ele>
        <time>2018-09-04T09:16:36Z</time>
      </trkpt>
      <trkpt lat="45.9882" lon="4.83024">
        <ele>264</ele>
        <time>2018-09-04T09:16:37Z</time>
      </trkpt>
      <trkpt lat="45.98827" lon="4.83019">
        <ele>264</ele>
        <time>2018-09-04T09:16:38Z</time>
      </trkpt>
      <trkpt lat="45.98834" lon="4.83014">
        <ele>262</ele>
        <time>2018-09-04T09:16:39Z</time>
      </trkpt>
      <trkpt lat="45.98841" lon="4.83008">
        <ele>262</ele>
        <time>2018-09-04T09:16:40Z</time>
      </trkpt>
      <trkpt lat="45.9885" lon="4.83002">
        <ele>261</ele>
        <time>2018-09-04T09:16:41Z</time>
      </trkpt>
      <trkpt lat="45.98856" lon="4.82996">
        <ele>261</ele>
        <time>2018-09-04T09:16:42Z</time>
      </trkpt>
      <trkpt lat="45.98864" lon="4.8299">
        <ele>260</ele>
        <time>2018-09-04T09:16:43Z</time>
      </trkpt>
      <trkpt lat="45.98873" lon="4.82987">
        <ele>260</ele>
        <time>2018-09-04T09:16:44Z</time>
      </trkpt>
      <trkpt lat="45.98882" lon="4.8298">
        <ele>259</ele>
        <time>2018-09-04T09:16:45Z</time>
      </trkpt>
      <trkpt lat="45.98891" lon="4.82973">
        <ele>259</ele>
        <time>2018-09-04T09:16:46Z</time>
      </trkpt>
      <trkpt lat="45.98901" lon="4.82966">
        <ele>259</ele>
        <time>2018-09-04T09:16:47Z</time>
      </trkpt>
      <trkpt lat="45.9891" lon="4.82958">
        <ele>258</ele>
        <time>2018-09-04T09:16:48Z</time>
      </trkpt>
      <trkpt lat="45.98918" lon="4.8295">
        <ele>255</ele>
        <time>2018-09-04T09:16:49Z</time>
      </trkpt>
      <trkpt lat="45.98924" lon="4.82938">
        <ele>255</ele>
        <time>2018-09-04T09:16:50Z</time>
      </trkpt>
      <trkpt lat="45.98929" lon="4.82924">
        <ele>255</ele>
        <time>2018-09-04T09:16:51Z</time>
      </trkpt>
      <trkpt lat="45.98935" lon="4.82909">
        <ele>254</ele>
        <time>2018-09-04T09:16:52Z</time>
      </trkpt>
      <trkpt lat="45.98941" lon="4.82896">
        <ele>253</ele>
        <time>2018-09-04T09:16:53Z</time>
      </trkpt>
      <trkpt lat="45.98947" lon="4.82882">
        <ele>253</ele>
        <time>2018-09-04T09:16:54Z</time>
      </trkpt>
      <trkpt lat="45.98953" lon="4.82868">
        <ele>253</ele>
        <time>2018-09-04T09:16:55Z</time>
      </trkpt>
      <trkpt lat="45.98959" lon="4.82855">
        <ele>252</ele>
        <time>2018-09-04T09:16:56Z</time>
      </trkpt>
      <trkpt lat="45.98964" lon="4.82838">
        <ele>252</ele>
        <time>2018-09-04T09:16:57Z</time>
      </trkpt>
      <trkpt lat="45.98971" lon="4.82824">
        <ele>249</ele>
        <time>2018-09-04T09:16:58Z</time>
      </trkpt>
      <trkpt lat="45.98979" lon="4.82811">
        <ele>248</ele>
        <time>2018-09-04T09:16:59Z</time>
      </trkpt>
      <trkpt lat="45.98986" lon="4.82795">
        <ele>247</ele>
        <time>2018-09-04T09:17:00Z</time>
      </trkpt>
      <trkpt lat="45.98993" lon="4.82779">
        <ele>246</ele>
        <time>2018-09-04T09:17:01Z</time>
      </trkpt>
      <trkpt lat="45.98999" lon="4.82763">
        <ele>244</ele>
        <time>2018-09-04T09:17:02Z</time>
      </trkpt>
      <trkpt lat="45.99006" lon="4.82748">
        <ele>240</ele>
        <time>2018-09-04T09:17:03Z</time>
      </trkpt>
      <trkpt lat="45.99012" lon="4.82732">
        <ele>239</ele>
        <time>2018-09-04T09:17:04Z</time>
      </trkpt>
      <trkpt lat="45.9902" lon="4.82718">
        <ele>239</ele>
        <time>2018-09-04T09:17:05Z</time>
      </trkpt>
      <trkpt lat="45.99026" lon="4.82703">
        <ele>238</ele>
        <time>2018-09-04T09:17:06Z</time>
      </trkpt>
      <trkpt lat="45.99032" lon="4.8269">
        <ele>238</ele>
        <time>2018-09-04T09:17:07Z</time>
      </trkpt>
      <trkpt lat="45.99037" lon="4.82676">
        <ele>238</ele>
        <time>2018-09-04T09:17:08Z</time>
      </trkpt>
      <trkpt lat="45.99042" lon="4.82664">
        <ele>236</ele>
        <time>2018-09-04T09:17:09Z</time>
      </trkpt>
      <trkpt lat="45.99047" lon="4.82653">
        <ele>236</ele>
        <time>2018-09-04T09:17:10Z</time>
      </trkpt>
      <trkpt lat="45.99052" lon="4.82641">
        <ele>236</ele>
        <time>2018-09-04T09:17:11Z</time>
      </trkpt>
      <trkpt lat="45.99056" lon="4.82631">
        <ele>236</ele>
        <time>2018-09-04T09:17:12Z</time>
      </trkpt>
      <trkpt lat="45.99059" lon="4.82623">
        <ele>236</ele>
        <time>2018-09-04T09:17:13Z</time>
      </trkpt>
      <trkpt lat="45.99063" lon="4.82614">
        <ele>236</ele>
        <time>2018-09-04T09:17:14Z</time>
      </trkpt>
      <trkpt lat="45.99066" lon="4.82605">
        <ele>236</ele>
        <time>2018-09-04T09:17:15Z</time>
      </trkpt>
      <trkpt lat="45.99071" lon="4.826">
        <ele>235</ele>
        <time>2018-09-04T09:17:16Z</time>
      </trkpt>
      <trkpt lat="45.99073" lon="4.82593">
        <ele>235</ele>
        <time>2018-09-04T09:17:17Z</time>
      </trkpt>
      <trkpt lat="45.99077" lon="4.82585">
        <ele>235</ele>
        <time>2018-09-04T09:17:18Z</time>
      </trkpt>
      <trkpt lat="45.99078" lon="4.8258">
        <ele>235</ele>
        <time>2018-09-04T09:17:19Z</time>
      </trkpt>
      <trkpt lat="45.99078" lon="4.82573">
        <ele>235</ele>
        <time>2018-09-04T09:17:20Z</time>
      </trkpt>
      <trkpt lat="45.99075" lon="4.82568">
        <ele>235</ele>
        <time>2018-09-04T09:17:21Z</time>
      </trkpt>
      <trkpt lat="45.99068" lon="4.82563">
        <ele>235</ele>
        <time>2018-09-04T09:17:23Z</time>
      </trkpt>
      <trkpt lat="45.99062" lon="4.82562">
        <ele>235</ele>
        <time>2018-09-04T09:17:24Z</time>
      </trkpt>
      <trkpt lat="45.99054" lon="4.82568">
        <ele>235</ele>
        <time>2018-09-04T09:17:26Z</time>
      </trkpt>
      <trkpt lat="45.99049" lon="4.82564">
        <ele>235</ele>
        <time>2018-09-04T09:17:27Z</time>
      </trkpt>
      <trkpt lat="45.99043" lon="4.8256">
        <ele>235</ele>
        <time>2018-09-04T09:17:29Z</time>
      </trkpt>
      <trkpt lat="45.99037" lon="4.82557">
        <ele>235</ele>
        <time>2018-09-04T09:17:30Z</time>
      </trkpt>
      <trkpt lat="45.99031" lon="4.82553">
        <ele>235</ele>
        <time>2018-09-04T09:17:31Z</time>
      </trkpt>
      <trkpt lat="45.99028" lon="4.8255">
        <ele>235</ele>
        <time>2018-09-04T09:17:32Z</time>
      </trkpt>
      <trkpt lat="45.99022" lon="4.82542">
        <ele>235</ele>
        <time>2018-09-04T09:17:34Z</time>
      </trkpt>
      <trkpt lat="45.99018" lon="4.82539">
        <ele>235</ele>
        <time>2018-09-04T09:17:35Z</time>
      </trkpt>
      <trkpt lat="45.99011" lon="4.82532">
        <ele>235</ele>
        <time>2018-09-04T09:17:37Z</time>
      </trkpt>
      <trkpt lat="45.99009" lon="4.82528">
        <ele>235</ele>
        <time>2018-09-04T09:17:38Z</time>
      </trkpt>
      <trkpt lat="45.99007" lon="4.82522">
        <ele>235</ele>
        <time>2018-09-04T09:17:39Z</time>
      </trkpt>
      <trkpt lat="45.99004" lon="4.82518">
        <ele>235</ele>
        <time>2018-09-04T09:17:40Z</time>
      </trkpt>
      <trkpt lat="45.99" lon="4.82507">
        <ele>235</ele>
        <time>2018-09-04T09:17:42Z</time>
      </trkpt>
      <trkpt lat="45.98998" lon="4.82502">
        <ele>235</ele>
        <time>2018-09-04T09:17:43Z</time>
      </trkpt>
      <trkpt lat="45.98996" lon="4.82496">
        <ele>235</ele>
        <time>2018-09-04T09:17:44Z</time>
      </trkpt>
      <trkpt lat="45.98993" lon="4.8249">
        <ele>236</ele>
        <time>2018-09-04T09:17:45Z</time>
      </trkpt>
      <trkpt lat="45.9899" lon="4.82485">
        <ele>236</ele>
        <time>2018-09-04T09:17:46Z</time>
      </trkpt>
      <trkpt lat="45.98987" lon="4.82479">
        <ele>236</ele>
        <time>2018-09-04T09:17:47Z</time>
      </trkpt>
      <trkpt lat="45.98986" lon="4.82473">
        <ele>236</ele>
        <time>2018-09-04T09:17:48Z</time>
      </trkpt>
      <trkpt lat="45.98984" lon="4.82466">
        <ele>236</ele>
        <time>2018-09-04T09:17:49Z</time>
      </trkpt>
      <trkpt lat="45.98981" lon="4.82454">
        <ele>236</ele>
        <time>2018-09-04T09:17:51Z</time>
      </trkpt>
      <trkpt lat="45.9898" lon="4.82448">
        <ele>236</ele>
        <time>2018-09-04T09:17:52Z</time>
      </trkpt>
      <trkpt lat="45.98978" lon="4.82441">
        <ele>236</ele>
        <time>2018-09-04T09:17:53Z</time>
      </trkpt>
      <trkpt lat="45.98977" lon="4.82433">
        <ele>236</ele>
        <time>2018-09-04T09:17:54Z</time>
      </trkpt>
      <trkpt lat="45.98975" lon="4.82427">
        <ele>236</ele>
        <time>2018-09-04T09:17:55Z</time>
      </trkpt>
      <trkpt lat="45.98974" lon="4.82418">
        <ele>236</ele>
        <time>2018-09-04T09:17:56Z</time>
      </trkpt>
      <trkpt lat="45.98973" lon="4.82411">
        <ele>235</ele>
        <time>2018-09-04T09:17:57Z</time>
      </trkpt>
      <trkpt lat="45.9897" lon="4.82402">
        <ele>235</ele>
        <time>2018-09-04T09:17:58Z</time>
      </trkpt>
      <trkpt lat="45.98968" lon="4.82395">
        <ele>235</ele>
        <time>2018-09-04T09:17:59Z</time>
      </trkpt>
      <trkpt lat="45.98966" lon="4.82388">
        <ele>235</ele>
        <time>2018-09-04T09:18:00Z</time>
      </trkpt>
      <trkpt lat="45.98964" lon="4.82382">
        <ele>235</ele>
        <time>2018-09-04T09:18:01Z</time>
      </trkpt>
      <trkpt lat="45.98962" lon="4.82374">
        <ele>235</ele>
        <time>2018-09-04T09:18:02Z</time>
      </trkpt>
      <trkpt lat="45.9896" lon="4.82368">
        <ele>235</ele>
        <time>2018-09-04T09:18:03Z</time>
      </trkpt>
      <trkpt lat="45.98958" lon="4.82361">
        <ele>235</ele>
        <time>2018-09-04T09:18:04Z</time>
      </trkpt>
      <trkpt lat="45.98957" lon="4.82356">
        <ele>235</ele>
        <time>2018-09-04T09:18:05Z</time>
      </trkpt>
      <trkpt lat="45.98954" lon="4.82349">
        <ele>235</ele>
        <time>2018-09-04T09:18:06Z</time>
      </trkpt>
      <trkpt lat="45.98951" lon="4.82343">
        <ele>235</ele>
        <time>2018-09-04T09:18:07Z</time>
      </trkpt>
      <trkpt lat="45.98946" lon="4.82337">
        <ele>235</ele>
        <time>2018-09-04T09:18:08Z</time>
      </trkpt>
      <trkpt lat="45.98941" lon="4.82328">
        <ele>234</ele>
        <time>2018-09-04T09:18:10Z</time>
      </trkpt>
      <trkpt lat="45.98937" lon="4.82322">
        <ele>235</ele>
        <time>2018-09-04T09:18:11Z</time>
      </trkpt>
      <trkpt lat="45.98933" lon="4.82318">
        <ele>235</ele>
        <time>2018-09-04T09:18:12Z</time>
      </trkpt>
      <trkpt lat="45.98927" lon="4.82316">
        <ele>235</ele>
        <time>2018-09-04T09:18:13Z</time>
      </trkpt>
      <trkpt lat="45.98923" lon="4.82311">
        <ele>235</ele>
        <time>2018-09-04T09:18:14Z</time>
      </trkpt>
      <trkpt lat="45.98917" lon="4.82306">
        <ele>235</ele>
        <time>2018-09-04T09:18:15Z</time>
      </trkpt>
      <trkpt lat="45.98913" lon="4.82302">
        <ele>237</ele>
        <time>2018-09-04T09:18:16Z</time>
      </trkpt>
      <trkpt lat="45.98909" lon="4.82297">
        <ele>237</ele>
        <time>2018-09-04T09:18:17Z</time>
      </trkpt>
      <trkpt lat="45.98903" lon="4.82291">
        <ele>237</ele>
        <time>2018-09-04T09:18:19Z</time>
      </trkpt>
      <trkpt lat="45.989" lon="4.82292">
        <ele>237</ele>
        <time>2018-09-04T09:18:20Z</time>
      </trkpt>
      <trkpt lat="45.98895" lon="4.82287">
        <ele>237</ele>
        <time>2018-09-04T09:18:21Z</time>
      </trkpt>
      <trkpt lat="45.98891" lon="4.8228">
        <ele>237</ele>
        <time>2018-09-04T09:18:22Z</time>
      </trkpt>
      <trkpt lat="45.98888" lon="4.82273">
        <ele>237</ele>
        <time>2018-09-04T09:18:23Z</time>
      </trkpt>
      <trkpt lat="45.98884" lon="4.82266">
        <ele>237</ele>
        <time>2018-09-04T09:18:24Z</time>
      </trkpt>
      <trkpt lat="45.98881" lon="4.82261">
        <ele>237</ele>
        <time>2018-09-04T09:18:25Z</time>
      </trkpt>
      <trkpt lat="45.98878" lon="4.82254">
        <ele>237</ele>
        <time>2018-09-04T09:18:26Z</time>
      </trkpt>
      <trkpt lat="45.98874" lon="4.82246">
        <ele>236</ele>
        <time>2018-09-04T09:18:27Z</time>
      </trkpt>
      <trkpt lat="45.98872" lon="4.82239">
        <ele>236</ele>
        <time>2018-09-04T09:18:28Z</time>
      </trkpt>
      <trkpt lat="45.98871" lon="4.82233">
        <ele>236</ele>
        <time>2018-09-04T09:18:29Z</time>
      </trkpt>
      <trkpt lat="45.98869" lon="4.82226">
        <ele>236</ele>
        <time>2018-09-04T09:18:30Z</time>
      </trkpt>
      <trkpt lat="45.98867" lon="4.8222">
        <ele>236</ele>
        <time>2018-09-04T09:18:31Z</time>
      </trkpt>
      <trkpt lat="45.98863" lon="4.82216">
        <ele>236</ele>
        <time>2018-09-04T09:18:32Z</time>
      </trkpt>
      <trkpt lat="45.98859" lon="4.82204">
        <ele>236</ele>
        <time>2018-09-04T09:18:34Z</time>
      </trkpt>
      <trkpt lat="45.98855" lon="4.82199">
        <ele>236</ele>
        <time>2018-09-04T09:18:35Z</time>
      </trkpt>
      <trkpt lat="45.98853" lon="4.82192">
        <ele>236</ele>
        <time>2018-09-04T09:18:36Z</time>
      </trkpt>
      <trkpt lat="45.9885" lon="4.82185">
        <ele>236</ele>
        <time>2018-09-04T09:18:37Z</time>
      </trkpt>
      <trkpt lat="45.98848" lon="4.82178">
        <ele>236</ele>
        <time>2018-09-04T09:18:38Z</time>
      </trkpt>
      <trkpt lat="45.98846" lon="4.8217">
        <ele>236</ele>
        <time>2018-09-04T09:18:39Z</time>
      </trkpt>
      <trkpt lat="45.98845" lon="4.82162">
        <ele>236</ele>
        <time>2018-09-04T09:18:40Z</time>
      </trkpt>
      <trkpt lat="45.98841" lon="4.82156">
        <ele>236</ele>
        <time>2018-09-04T09:18:41Z</time>
      </trkpt>
      <trkpt lat="45.9884" lon="4.82149">
        <ele>236</ele>
        <time>2018-09-04T09:18:42Z</time>
      </trkpt>
      <trkpt lat="45.98839" lon="4.82143">
        <ele>236</ele>
        <time>2018-09-04T09:18:43Z</time>
      </trkpt>
      <trkpt lat="45.98837" lon="4.82136">
        <ele>236</ele>
        <time>2018-09-04T09:18:44Z</time>
      </trkpt>
      <trkpt lat="45.98836" lon="4.82128">
        <ele>236</ele>
        <time>2018-09-04T09:18:45Z</time>
      </trkpt>
      <trkpt lat="45.98835" lon="4.82119">
        <ele>236</ele>
        <time>2018-09-04T09:18:46Z</time>
      </trkpt>
      <trkpt lat="45.98834" lon="4.82115">
        <ele>236</ele>
        <time>2018-09-04T09:18:47Z</time>
      </trkpt>
      <trkpt lat="45.98833" lon="4.82108">
        <ele>237</ele>
        <time>2018-09-04T09:18:48Z</time>
      </trkpt>
      <trkpt lat="45.98835" lon="4.821">
        <ele>236</ele>
        <time>2018-09-04T09:18:49Z</time>
      </trkpt>
      <trkpt lat="45.98833" lon="4.82093">
        <ele>237</ele>
        <time>2018-09-04T09:18:50Z</time>
      </trkpt>
      <trkpt lat="45.98832" lon="4.82087">
        <ele>236</ele>
        <time>2018-09-04T09:18:51Z</time>
      </trkpt>
      <trkpt lat="45.98831" lon="4.82077">
        <ele>236</ele>
        <time>2018-09-04T09:18:52Z</time>
      </trkpt>
      <trkpt lat="45.98831" lon="4.8207">
        <ele>237</ele>
        <time>2018-09-04T09:18:53Z</time>
      </trkpt>
      <trkpt lat="45.9883" lon="4.82061">
        <ele>237</ele>
        <time>2018-09-04T09:18:54Z</time>
      </trkpt>
      <trkpt lat="45.98829" lon="4.82056">
        <ele>237</ele>
        <time>2018-09-04T09:18:55Z</time>
      </trkpt>
      <trkpt lat="45.9883" lon="4.82047">
        <ele>238</ele>
        <time>2018-09-04T09:18:56Z</time>
      </trkpt>
      <trkpt lat="45.9883" lon="4.8204">
        <ele>238</ele>
        <time>2018-09-04T09:18:57Z</time>
      </trkpt>
      <trkpt lat="45.9883" lon="4.82028">
        <ele>238</ele>
        <time>2018-09-04T09:18:59Z</time>
      </trkpt>
      <trkpt lat="45.98829" lon="4.82021">
        <ele>238</ele>
        <time>2018-09-04T09:19:00Z</time>
      </trkpt>
      <trkpt lat="45.98824" lon="4.82012">
        <ele>238</ele>
        <time>2018-09-04T09:19:01Z</time>
      </trkpt>
      <trkpt lat="45.98823" lon="4.82004">
        <ele>238</ele>
        <time>2018-09-04T09:19:02Z</time>
      </trkpt>
      <trkpt lat="45.98822" lon="4.81996">
        <ele>238</ele>
        <time>2018-09-04T09:19:03Z</time>
      </trkpt>
      <trkpt lat="45.98821" lon="4.81989">
        <ele>238</ele>
        <time>2018-09-04T09:19:04Z</time>
      </trkpt>
      <trkpt lat="45.98818" lon="4.81982">
        <ele>238</ele>
        <time>2018-09-04T09:19:05Z</time>
      </trkpt>
      <trkpt lat="45.98817" lon="4.81975">
        <ele>239</ele>
        <time>2018-09-04T09:19:06Z</time>
      </trkpt>
      <trkpt lat="45.98815" lon="4.81969">
        <ele>239</ele>
        <time>2018-09-04T09:19:07Z</time>
      </trkpt>
      <trkpt lat="45.98813" lon="4.81961">
        <ele>239</ele>
        <time>2018-09-04T09:19:08Z</time>
      </trkpt>
      <trkpt lat="45.98813" lon="4.81953">
        <ele>239</ele>
        <time>2018-09-04T09:19:09Z</time>
      </trkpt>
      <trkpt lat="45.98811" lon="4.81945">
        <ele>239</ele>
        <time>2018-09-04T09:19:10Z</time>
      </trkpt>
      <trkpt lat="45.98811" lon="4.81938">
        <ele>239</ele>
        <time>2018-09-04T09:19:11Z</time>
      </trkpt>
      <trkpt lat="45.9881" lon="4.81931">
        <ele>239</ele>
        <time>2018-09-04T09:19:12Z</time>
      </trkpt>
      <trkpt lat="45.98809" lon="4.81922">
        <ele>239</ele>
        <time>2018-09-04T09:19:13Z</time>
      </trkpt>
      <trkpt lat="45.98807" lon="4.81916">
        <ele>239</ele>
        <time>2018-09-04T09:19:14Z</time>
      </trkpt>
      <trkpt lat="45.98806" lon="4.81908">
        <ele>239</ele>
        <time>2018-09-04T09:19:15Z</time>
      </trkpt>
      <trkpt lat="45.98805" lon="4.81902">
        <ele>239</ele>
        <time>2018-09-04T09:19:16Z</time>
      </trkpt>
      <trkpt lat="45.98804" lon="4.81895">
        <ele>239</ele>
        <time>2018-09-04T09:19:17Z</time>
      </trkpt>
      <trkpt lat="45.988" lon="4.81887">
        <ele>239</ele>
        <time>2018-09-04T09:19:18Z</time>
      </trkpt>
      <trkpt lat="45.98797" lon="4.8188">
        <ele>239</ele>
        <time>2018-09-04T09:19:19Z</time>
      </trkpt>
      <trkpt lat="45.98796" lon="4.81873">
        <ele>239</ele>
        <time>2018-09-04T09:19:20Z</time>
      </trkpt>
      <trkpt lat="45.98793" lon="4.81867">
        <ele>239</ele>
        <time>2018-09-04T09:19:21Z</time>
      </trkpt>
      <trkpt lat="45.98788" lon="4.8186">
        <ele>239</ele>
        <time>2018-09-04T09:19:22Z</time>
      </trkpt>
      <trkpt lat="45.98785" lon="4.81854">
        <ele>239</ele>
        <time>2018-09-04T09:19:23Z</time>
      </trkpt>
      <trkpt lat="45.98785" lon="4.81846">
        <ele>239</ele>
        <time>2018-09-04T09:19:24Z</time>
      </trkpt>
      <trkpt lat="45.98781" lon="4.81838">
        <ele>239</ele>
        <time>2018-09-04T09:19:25Z</time>
      </trkpt>
      <trkpt lat="45.98781" lon="4.81834">
        <ele>239</ele>
        <time>2018-09-04T09:19:26Z</time>
      </trkpt>
      <trkpt lat="45.98779" lon="4.81828">
        <ele>240</ele>
        <time>2018-09-04T09:19:27Z</time>
      </trkpt>
      <trkpt lat="45.98776" lon="4.81822">
        <ele>240</ele>
        <time>2018-09-04T09:19:28Z</time>
      </trkpt>
      <trkpt lat="45.9877" lon="4.81815">
        <ele>240</ele>
        <time>2018-09-04T09:19:29Z</time>
      </trkpt>
      <trkpt lat="45.98768" lon="4.81808">
        <ele>240</ele>
        <time>2018-09-04T09:19:30Z</time>
      </trkpt>
      <trkpt lat="45.98767" lon="4.81801">
        <ele>240</ele>
        <time>2018-09-04T09:19:31Z</time>
      </trkpt>
      <trkpt lat="45.98764" lon="4.81796">
        <ele>240</ele>
        <time>2018-09-04T09:19:32Z</time>
      </trkpt>
      <trkpt lat="45.98762" lon="4.81792">
        <ele>241</ele>
        <time>2018-09-04T09:19:33Z</time>
      </trkpt>
      <trkpt lat="45.98759" lon="4.81783">
        <ele>241</ele>
        <time>2018-09-04T09:19:34Z</time>
      </trkpt>
      <trkpt lat="45.98757" lon="4.81779">
        <ele>241</ele>
        <time>2018-09-04T09:19:36Z</time>
      </trkpt>
      <trkpt lat="45.98753" lon="4.8177">
        <ele>241</ele>
        <time>2018-09-04T09:19:37Z</time>
      </trkpt>
      <trkpt lat="45.9875" lon="4.81766">
        <ele>240</ele>
        <time>2018-09-04T09:19:38Z</time>
      </trkpt>
      <trkpt lat="45.98746" lon="4.81762">
        <ele>240</ele>
        <time>2018-09-04T09:19:39Z</time>
      </trkpt>
      <trkpt lat="45.98745" lon="4.81757">
        <ele>240</ele>
        <time>2018-09-04T09:19:40Z</time>
      </trkpt>
      <trkpt lat="45.98743" lon="4.81748">
        <ele>240</ele>
        <time>2018-09-04T09:19:41Z</time>
      </trkpt>
      <trkpt lat="45.9874" lon="4.81738">
        <ele>240</ele>
        <time>2018-09-04T09:19:43Z</time>
      </trkpt>
      <trkpt lat="45.98736" lon="4.81733">
        <ele>240</ele>
        <time>2018-09-04T09:19:44Z</time>
      </trkpt>
      <trkpt lat="45.98732" lon="4.81729">
        <ele>239</ele>
        <time>2018-09-04T09:19:45Z</time>
      </trkpt>
      <trkpt lat="45.98728" lon="4.81727">
        <ele>239</ele>
        <time>2018-09-04T09:19:46Z</time>
      </trkpt>
      <trkpt lat="45.9872" lon="4.81726">
        <ele>239</ele>
        <time>2018-09-04T09:19:48Z</time>
      </trkpt>
      <trkpt lat="45.98715" lon="4.81726">
        <ele>239</ele>
        <time>2018-09-04T09:19:49Z</time>
      </trkpt>
      <trkpt lat="45.98707" lon="4.81727">
        <ele>239</ele>
        <time>2018-09-04T09:19:51Z</time>
      </trkpt>
      <trkpt lat="45.98702" lon="4.81728">
        <ele>239</ele>
        <time>2018-09-04T09:19:52Z</time>
      </trkpt>
      <trkpt lat="45.98695" lon="4.81731">
        <ele>238</ele>
        <time>2018-09-04T09:19:55Z</time>
      </trkpt>
      <trkpt lat="45.98688" lon="4.81733">
        <ele>238</ele>
        <time>2018-09-04T09:19:56Z</time>
      </trkpt>
      <trkpt lat="45.98684" lon="4.81735">
        <ele>238</ele>
        <time>2018-09-04T09:19:57Z</time>
      </trkpt>
      <trkpt lat="45.98676" lon="4.81737">
        <ele>238</ele>
        <time>2018-09-04T09:19:58Z</time>
      </trkpt>
      <trkpt lat="45.98671" lon="4.81739">
        <ele>238</ele>
        <time>2018-09-04T09:19:59Z</time>
      </trkpt>
      <trkpt lat="45.98665" lon="4.81741">
        <ele>238</ele>
        <time>2018-09-04T09:20:00Z</time>
      </trkpt>
      <trkpt lat="45.9866" lon="4.81744">
        <ele>238</ele>
        <time>2018-09-04T09:20:01Z</time>
      </trkpt>
      <trkpt lat="45.98656" lon="4.81747">
        <ele>237</ele>
        <time>2018-09-04T09:20:02Z</time>
      </trkpt>
      <trkpt lat="45.98651" lon="4.81748">
        <ele>237</ele>
        <time>2018-09-04T09:20:03Z</time>
      </trkpt>
      <trkpt lat="45.98646" lon="4.81751">
        <ele>238</ele>
        <time>2018-09-04T09:20:04Z</time>
      </trkpt>
      <trkpt lat="45.98642" lon="4.81751">
        <ele>238</ele>
        <time>2018-09-04T09:20:05Z</time>
      </trkpt>
      <trkpt lat="45.98637" lon="4.81754">
        <ele>238</ele>
        <time>2018-09-04T09:20:06Z</time>
      </trkpt>
      <trkpt lat="45.98633" lon="4.81761">
        <ele>238</ele>
        <time>2018-09-04T09:20:07Z</time>
      </trkpt>
      <trkpt lat="45.98629" lon="4.81764">
        <ele>238</ele>
        <time>2018-09-04T09:20:08Z</time>
      </trkpt>
      <trkpt lat="45.9862" lon="4.81763">
        <ele>238</ele>
        <time>2018-09-04T09:20:09Z</time>
      </trkpt>
      <trkpt lat="45.98613" lon="4.81766">
        <ele>238</ele>
        <time>2018-09-04T09:20:10Z</time>
      </trkpt>
      <trkpt lat="45.98607" lon="4.81768">
        <ele>238</ele>
        <time>2018-09-04T09:20:11Z</time>
      </trkpt>
      <trkpt lat="45.98602" lon="4.81769">
        <ele>238</ele>
        <time>2018-09-04T09:20:12Z</time>
      </trkpt>
      <trkpt lat="45.98595" lon="4.81772">
        <ele>238</ele>
        <time>2018-09-04T09:20:13Z</time>
      </trkpt>
      <trkpt lat="45.9859" lon="4.81777">
        <ele>238</ele>
        <time>2018-09-04T09:20:14Z</time>
      </trkpt>
      <trkpt lat="45.98582" lon="4.8178">
        <ele>238</ele>
        <time>2018-09-04T09:20:16Z</time>
      </trkpt>
      <trkpt lat="45.98575" lon="4.81788">
        <ele>238</ele>
        <time>2018-09-04T09:20:17Z</time>
      </trkpt>
      <trkpt lat="45.98571" lon="4.81792">
        <ele>238</ele>
        <time>2018-09-04T09:20:18Z</time>
      </trkpt>
      <trkpt lat="45.98568" lon="4.81797">
        <ele>238</ele>
        <time>2018-09-04T09:20:19Z</time>
      </trkpt>
      <trkpt lat="45.98564" lon="4.81802">
        <ele>238</ele>
        <time>2018-09-04T09:20:20Z</time>
      </trkpt>
      <trkpt lat="45.9856" lon="4.81806">
        <ele>238</ele>
        <time>2018-09-04T09:20:21Z</time>
      </trkpt>
      <trkpt lat="45.98556" lon="4.81807">
        <ele>238</ele>
        <time>2018-09-04T09:20:22Z</time>
      </trkpt>
      <trkpt lat="45.9855" lon="4.81808">
        <ele>238</ele>
        <time>2018-09-04T09:20:23Z</time>
      </trkpt>
      <trkpt lat="45.98542" lon="4.81803">
        <ele>238</ele>
        <time>2018-09-04T09:20:25Z</time>
      </trkpt>
      <trkpt lat="45.98538" lon="4.81799">
        <ele>238</ele>
        <time>2018-09-04T09:20:26Z</time>
      </trkpt>
      <trkpt lat="45.98534" lon="4.81791">
        <ele>238</ele>
        <time>2018-09-04T09:20:27Z</time>
      </trkpt>
      <trkpt lat="45.9853" lon="4.81788">
        <ele>238</ele>
        <time>2018-09-04T09:20:28Z</time>
      </trkpt>
      <trkpt lat="45.98525" lon="4.81782">
        <ele>238</ele>
        <time>2018-09-04T09:20:29Z</time>
      </trkpt>
      <trkpt lat="45.98521" lon="4.81776">
        <ele>238</ele>
        <time>2018-09-04T09:20:30Z</time>
      </trkpt>
      <trkpt lat="45.98517" lon="4.81769">
        <ele>238</ele>
        <time>2018-09-04T09:20:31Z</time>
      </trkpt>
      <trkpt lat="45.98513" lon="4.81763">
        <ele>237</ele>
        <time>2018-09-04T09:20:32Z</time>
      </trkpt>
      <trkpt lat="45.98505" lon="4.81759">
        <ele>237</ele>
        <time>2018-09-04T09:20:34Z</time>
      </trkpt>
      <trkpt lat="45.98501" lon="4.81756">
        <ele>237</ele>
        <time>2018-09-04T09:20:35Z</time>
      </trkpt>
      <trkpt lat="45.98493" lon="4.81751">
        <ele>238</ele>
        <time>2018-09-04T09:20:37Z</time>
      </trkpt>
      <trkpt lat="45.98491" lon="4.81745">
        <ele>238</ele>
        <time>2018-09-04T09:20:38Z</time>
      </trkpt>
      <trkpt lat="45.98486" lon="4.81742">
        <ele>238</ele>
        <time>2018-09-04T09:20:39Z</time>
      </trkpt>
      <trkpt lat="45.98483" lon="4.81736">
        <ele>238</ele>
        <time>2018-09-04T09:20:40Z</time>
      </trkpt>
      <trkpt lat="45.98476" lon="4.8173">
        <ele>239</ele>
        <time>2018-09-04T09:20:42Z</time>
      </trkpt>
      <trkpt lat="45.98472" lon="4.81726">
        <ele>239</ele>
        <time>2018-09-04T09:20:43Z</time>
      </trkpt>
      <trkpt lat="45.98467" lon="4.81718">
        <ele>239</ele>
        <time>2018-09-04T09:20:45Z</time>
      </trkpt>
      <trkpt lat="45.98464" lon="4.81714">
        <ele>239</ele>
        <time>2018-09-04T09:20:46Z</time>
      </trkpt>
      <trkpt lat="45.98457" lon="4.81706">
        <ele>239</ele>
        <time>2018-09-04T09:20:48Z</time>
      </trkpt>
      <trkpt lat="45.98455" lon="4.81702">
        <ele>239</ele>
        <time>2018-09-04T09:20:49Z</time>
      </trkpt>
      <trkpt lat="45.98451" lon="4.81694">
        <ele>239</ele>
        <time>2018-09-04T09:20:51Z</time>
      </trkpt>
      <trkpt lat="45.98449" lon="4.81689">
        <ele>239</ele>
        <time>2018-09-04T09:20:52Z</time>
      </trkpt>
      <trkpt lat="45.98445" lon="4.81681">
        <ele>239</ele>
        <time>2018-09-04T09:20:54Z</time>
      </trkpt>
      <trkpt lat="45.98439" lon="4.81679">
        <ele>240</ele>
        <time>2018-09-04T09:20:55Z</time>
      </trkpt>
      <trkpt lat="45.98432" lon="4.81675">
        <ele>240</ele>
        <time>2018-09-04T09:20:56Z</time>
      </trkpt>
      <trkpt lat="45.98428" lon="4.81671">
        <ele>240</ele>
        <time>2018-09-04T09:20:57Z</time>
      </trkpt>
      <trkpt lat="45.98419" lon="4.81672">
        <ele>241</ele>
        <time>2018-09-04T09:20:59Z</time>
      </trkpt>
      <trkpt lat="45.98414" lon="4.81671">
        <ele>242</ele>
        <time>2018-09-04T09:21:00Z</time>
      </trkpt>
      <trkpt lat="45.98409" lon="4.81671">
        <ele>242</ele>
        <time>2018-09-04T09:21:01Z</time>
      </trkpt>
      <trkpt lat="45.98405" lon="4.81672">
        <ele>242</ele>
        <time>2018-09-04T09:21:02Z</time>
      </trkpt>
      <trkpt lat="45.98396" lon="4.81672">
        <ele>243</ele>
        <time>2018-09-04T09:21:04Z</time>
      </trkpt>
      <trkpt lat="45.98391" lon="4.81671">
        <ele>243</ele>
        <time>2018-09-04T09:21:05Z</time>
      </trkpt>
      <trkpt lat="45.98383" lon="4.81673">
        <ele>244</ele>
        <time>2018-09-04T09:21:07Z</time>
      </trkpt>
      <trkpt lat="45.98379" lon="4.81678">
        <ele>244</ele>
        <time>2018-09-04T09:21:08Z</time>
      </trkpt>
      <trkpt lat="45.98371" lon="4.8168">
        <ele>244</ele>
        <time>2018-09-04T09:21:10Z</time>
      </trkpt>
      <trkpt lat="45.98368" lon="4.81682">
        <ele>244</ele>
        <time>2018-09-04T09:21:11Z</time>
      </trkpt>
      <trkpt lat="45.98362" lon="4.81684">
        <ele>244</ele>
        <time>2018-09-04T09:21:12Z</time>
      </trkpt>
      <trkpt lat="45.98358" lon="4.81684">
        <ele>244</ele>
        <time>2018-09-04T09:21:13Z</time>
      </trkpt>
      <trkpt lat="45.98354" lon="4.81684">
        <ele>245</ele>
        <time>2018-09-04T09:21:14Z</time>
      </trkpt>
      <trkpt lat="45.98349" lon="4.81679">
        <ele>245</ele>
        <time>2018-09-04T09:21:15Z</time>
      </trkpt>
      <trkpt lat="45.98343" lon="4.8168">
        <ele>245</ele>
        <time>2018-09-04T09:21:17Z</time>
      </trkpt>
      <trkpt lat="45.98339" lon="4.81677">
        <ele>245</ele>
        <time>2018-09-04T09:21:18Z</time>
      </trkpt>
      <trkpt lat="45.98335" lon="4.81675">
        <ele>245</ele>
        <time>2018-09-04T09:21:19Z</time>
      </trkpt>
      <trkpt lat="45.98329" lon="4.81672">
        <ele>246</ele>
        <time>2018-09-04T09:21:20Z</time>
      </trkpt>
      <trkpt lat="45.98323" lon="4.81667">
        <ele>246</ele>
        <time>2018-09-04T09:21:22Z</time>
      </trkpt>
      <trkpt lat="45.98319" lon="4.81664">
        <ele>246</ele>
        <time>2018-09-04T09:21:23Z</time>
      </trkpt>
      <trkpt lat="45.98314" lon="4.8166">
        <ele>246</ele>
        <time>2018-09-04T09:21:24Z</time>
      </trkpt>
      <trkpt lat="45.98311" lon="4.81657">
        <ele>246</ele>
        <time>2018-09-04T09:21:25Z</time>
      </trkpt>
      <trkpt lat="45.98307" lon="4.81647">
        <ele>246</ele>
        <time>2018-09-04T09:21:27Z</time>
      </trkpt>
      <trkpt lat="45.98303" lon="4.81642">
        <ele>246</ele>
        <time>2018-09-04T09:21:28Z</time>
      </trkpt>
      <trkpt lat="45.98299" lon="4.81637">
        <ele>246</ele>
        <time>2018-09-04T09:21:29Z</time>
      </trkpt>
      <trkpt lat="45.98295" lon="4.81632">
        <ele>247</ele>
        <time>2018-09-04T09:21:30Z</time>
      </trkpt>
      <trkpt lat="45.98289" lon="4.81624">
        <ele>247</ele>
        <time>2018-09-04T09:21:32Z</time>
      </trkpt>
      <trkpt lat="45.98285" lon="4.81621">
        <ele>247</ele>
        <time>2018-09-04T09:21:33Z</time>
      </trkpt>
      <trkpt lat="45.9828" lon="4.8161">
        <ele>247</ele>
        <time>2018-09-04T09:21:35Z</time>
      </trkpt>
      <trkpt lat="45.98278" lon="4.81605">
        <ele>247</ele>
        <time>2018-09-04T09:21:36Z</time>
      </trkpt>
      <trkpt lat="45.98274" lon="4.81595">
        <ele>247</ele>
        <time>2018-09-04T09:21:38Z</time>
      </trkpt>
      <trkpt lat="45.98271" lon="4.81589">
        <ele>247</ele>
        <time>2018-09-04T09:21:39Z</time>
      </trkpt>
      <trkpt lat="45.98267" lon="4.81578">
        <ele>247</ele>
        <time>2018-09-04T09:21:41Z</time>
      </trkpt>
      <trkpt lat="45.98266" lon="4.81573">
        <ele>247</ele>
        <time>2018-09-04T09:21:42Z</time>
      </trkpt>
      <trkpt lat="45.98264" lon="4.81567">
        <ele>247</ele>
        <time>2018-09-04T09:21:43Z</time>
      </trkpt>
      <trkpt lat="45.98262" lon="4.81561">
        <ele>247</ele>
        <time>2018-09-04T09:21:44Z</time>
      </trkpt>
      <trkpt lat="45.98259" lon="4.81554">
        <ele>247</ele>
        <time>2018-09-04T09:21:45Z</time>
      </trkpt>
      <trkpt lat="45.98257" lon="4.81547">
        <ele>247</ele>
        <time>2018-09-04T09:21:46Z</time>
      </trkpt>
      <trkpt lat="45.98253" lon="4.81536">
        <ele>247</ele>
        <time>2018-09-04T09:21:48Z</time>
      </trkpt>
      <trkpt lat="45.98251" lon="4.81531">
        <ele>247</ele>
        <time>2018-09-04T09:21:49Z</time>
      </trkpt>
      <trkpt lat="45.98249" lon="4.81519">
        <ele>249</ele>
        <time>2018-09-04T09:21:51Z</time>
      </trkpt>
      <trkpt lat="45.98247" lon="4.81512">
        <ele>249</ele>
        <time>2018-09-04T09:21:52Z</time>
      </trkpt>
      <trkpt lat="45.98244" lon="4.81508">
        <ele>249</ele>
        <time>2018-09-04T09:21:53Z</time>
      </trkpt>
      <trkpt lat="45.98241" lon="4.815">
        <ele>249</ele>
        <time>2018-09-04T09:21:54Z</time>
      </trkpt>
      <trkpt lat="45.98239" lon="4.81493">
        <ele>249</ele>
        <time>2018-09-04T09:21:55Z</time>
      </trkpt>
      <trkpt lat="45.98237" lon="4.81487">
        <ele>249</ele>
        <time>2018-09-04T09:21:56Z</time>
      </trkpt>
      <trkpt lat="45.98233" lon="4.8148">
        <ele>249</ele>
        <time>2018-09-04T09:21:58Z</time>
      </trkpt>
      <trkpt lat="45.98231" lon="4.81475">
        <ele>249</ele>
        <time>2018-09-04T09:21:59Z</time>
      </trkpt>
      <trkpt lat="45.98228" lon="4.81464">
        <ele>249</ele>
        <time>2018-09-04T09:22:01Z</time>
      </trkpt>
      <trkpt lat="45.98226" lon="4.81458">
        <ele>249</ele>
        <time>2018-09-04T09:22:02Z</time>
      </trkpt>
      <trkpt lat="45.98226" lon="4.8145">
        <ele>249</ele>
        <time>2018-09-04T09:22:03Z</time>
      </trkpt>
      <trkpt lat="45.98224" lon="4.81444">
        <ele>249</ele>
        <time>2018-09-04T09:22:04Z</time>
      </trkpt>
      <trkpt lat="45.98222" lon="4.81438">
        <ele>249</ele>
        <time>2018-09-04T09:22:05Z</time>
      </trkpt>
      <trkpt lat="45.9822" lon="4.81432">
        <ele>249</ele>
        <time>2018-09-04T09:22:06Z</time>
      </trkpt>
      <trkpt lat="45.98217" lon="4.81421">
        <ele>249</ele>
        <time>2018-09-04T09:22:08Z</time>
      </trkpt>
      <trkpt lat="45.98216" lon="4.81414">
        <ele>248</ele>
        <time>2018-09-04T09:22:09Z</time>
      </trkpt>
      <trkpt lat="45.98215" lon="4.81402">
        <ele>248</ele>
        <time>2018-09-04T09:22:11Z</time>
      </trkpt>
      <trkpt lat="45.98214" lon="4.81394">
        <ele>248</ele>
        <time>2018-09-04T09:22:12Z</time>
      </trkpt>
      <trkpt lat="45.98213" lon="4.81388">
        <ele>248</ele>
        <time>2018-09-04T09:22:13Z</time>
      </trkpt>
      <trkpt lat="45.98208" lon="4.81382">
        <ele>248</ele>
        <time>2018-09-04T09:22:14Z</time>
      </trkpt>
      <trkpt lat="45.98208" lon="4.8137">
        <ele>248</ele>
        <time>2018-09-04T09:22:16Z</time>
      </trkpt>
      <trkpt lat="45.98203" lon="4.81362">
        <ele>248</ele>
        <time>2018-09-04T09:22:17Z</time>
      </trkpt>
      <trkpt lat="45.98201" lon="4.81357">
        <ele>248</ele>
        <time>2018-09-04T09:22:18Z</time>
      </trkpt>
      <trkpt lat="45.98199" lon="4.81349">
        <ele>248</ele>
        <time>2018-09-04T09:22:19Z</time>
      </trkpt>
      <trkpt lat="45.98197" lon="4.81341">
        <ele>248</ele>
        <time>2018-09-04T09:22:20Z</time>
      </trkpt>
      <trkpt lat="45.98195" lon="4.81334">
        <ele>248</ele>
        <time>2018-09-04T09:22:21Z</time>
      </trkpt>
      <trkpt lat="45.98192" lon="4.81325">
        <ele>247</ele>
        <time>2018-09-04T09:22:22Z</time>
      </trkpt>
      <trkpt lat="45.98192" lon="4.8132">
        <ele>247</ele>
        <time>2018-09-04T09:22:23Z</time>
      </trkpt>
      <trkpt lat="45.98192" lon="4.81315">
        <ele>247</ele>
        <time>2018-09-04T09:22:24Z</time>
      </trkpt>
      <trkpt lat="45.9819" lon="4.81306">
        <ele>247</ele>
        <time>2018-09-04T09:22:25Z</time>
      </trkpt>
      <trkpt lat="45.98189" lon="4.81298">
        <ele>247</ele>
        <time>2018-09-04T09:22:26Z</time>
      </trkpt>
      <trkpt lat="45.98187" lon="4.81289">
        <ele>247</ele>
        <time>2018-09-04T09:22:27Z</time>
      </trkpt>
      <trkpt lat="45.98185" lon="4.81281">
        <ele>247</ele>
        <time>2018-09-04T09:22:28Z</time>
      </trkpt>
      <trkpt lat="45.98182" lon="4.81271">
        <ele>247</ele>
        <time>2018-09-04T09:22:29Z</time>
      </trkpt>
      <trkpt lat="45.98181" lon="4.81263">
        <ele>247</ele>
        <time>2018-09-04T09:22:30Z</time>
      </trkpt>
      <trkpt lat="45.9818" lon="4.81257">
        <ele>247</ele>
        <time>2018-09-04T09:22:31Z</time>
      </trkpt>
      <trkpt lat="45.98179" lon="4.81249">
        <ele>247</ele>
        <time>2018-09-04T09:22:32Z</time>
      </trkpt>
      <trkpt lat="45.98177" lon="4.8124">
        <ele>247</ele>
        <time>2018-09-04T09:22:33Z</time>
      </trkpt>
      <trkpt lat="45.98176" lon="4.81231">
        <ele>246</ele>
        <time>2018-09-04T09:22:34Z</time>
      </trkpt>
      <trkpt lat="45.98173" lon="4.81222">
        <ele>246</ele>
        <time>2018-09-04T09:22:35Z</time>
      </trkpt>
      <trkpt lat="45.98171" lon="4.81213">
        <ele>246</ele>
        <time>2018-09-04T09:22:36Z</time>
      </trkpt>
      <trkpt lat="45.9817" lon="4.81205">
        <ele>245</ele>
        <time>2018-09-04T09:22:37Z</time>
      </trkpt>
      <trkpt lat="45.9817" lon="4.81196">
        <ele>245</ele>
        <time>2018-09-04T09:22:39Z</time>
      </trkpt>
      <trkpt lat="45.98168" lon="4.81188">
        <ele>245</ele>
        <time>2018-09-04T09:22:40Z</time>
      </trkpt>
      <trkpt lat="45.98165" lon="4.8118">
        <ele>246</ele>
        <time>2018-09-04T09:22:41Z</time>
      </trkpt>
      <trkpt lat="45.98163" lon="4.81172">
        <ele>245</ele>
        <time>2018-09-04T09:22:42Z</time>
      </trkpt>
      <trkpt lat="45.9816" lon="4.81164">
        <ele>245</ele>
        <time>2018-09-04T09:22:43Z</time>
      </trkpt>
      <trkpt lat="45.98157" lon="4.81155">
        <ele>245</ele>
        <time>2018-09-04T09:22:44Z</time>
      </trkpt>
      <trkpt lat="45.98154" lon="4.81148">
        <ele>245</ele>
        <time>2018-09-04T09:22:45Z</time>
      </trkpt>
      <trkpt lat="45.98149" lon="4.81139">
        <ele>245</ele>
        <time>2018-09-04T09:22:46Z</time>
      </trkpt>
      <trkpt lat="45.98144" lon="4.8113">
        <ele>245</ele>
        <time>2018-09-04T09:22:47Z</time>
      </trkpt>
      <trkpt lat="45.98142" lon="4.81121">
        <ele>245</ele>
        <time>2018-09-04T09:22:48Z</time>
      </trkpt>
      <trkpt lat="45.98139" lon="4.81113">
        <ele>245</ele>
        <time>2018-09-04T09:22:49Z</time>
      </trkpt>
      <trkpt lat="45.98136" lon="4.81105">
        <ele>245</ele>
        <time>2018-09-04T09:22:50Z</time>
      </trkpt>
      <trkpt lat="45.98134" lon="4.81099">
        <ele>245</ele>
        <time>2018-09-04T09:22:51Z</time>
      </trkpt>
      <trkpt lat="45.98131" lon="4.81089">
        <ele>245</ele>
        <time>2018-09-04T09:22:52Z</time>
      </trkpt>
      <trkpt lat="45.98128" lon="4.81082">
        <ele>243</ele>
        <time>2018-09-04T09:22:53Z</time>
      </trkpt>
      <trkpt lat="45.98124" lon="4.81072">
        <ele>243</ele>
        <time>2018-09-04T09:22:54Z</time>
      </trkpt>
      <trkpt lat="45.98122" lon="4.81064">
        <ele>243</ele>
        <time>2018-09-04T09:22:55Z</time>
      </trkpt>
      <trkpt lat="45.98118" lon="4.81057">
        <ele>243</ele>
        <time>2018-09-04T09:22:56Z</time>
      </trkpt>
      <trkpt lat="45.98115" lon="4.8105">
        <ele>243</ele>
        <time>2018-09-04T09:22:57Z</time>
      </trkpt>
      <trkpt lat="45.98113" lon="4.81044">
        <ele>242</ele>
        <time>2018-09-04T09:22:58Z</time>
      </trkpt>
      <trkpt lat="45.98111" lon="4.81039">
        <ele>242</ele>
        <time>2018-09-04T09:22:59Z</time>
      </trkpt>
      <trkpt lat="45.98107" lon="4.81032">
        <ele>242</ele>
        <time>2018-09-04T09:23:00Z</time>
      </trkpt>
      <trkpt lat="45.98105" lon="4.81025">
        <ele>242</ele>
        <time>2018-09-04T09:23:01Z</time>
      </trkpt>
      <trkpt lat="45.98103" lon="4.81018">
        <ele>242</ele>
        <time>2018-09-04T09:23:02Z</time>
      </trkpt>
      <trkpt lat="45.98099" lon="4.8101">
        <ele>242</ele>
        <time>2018-09-04T09:23:03Z</time>
      </trkpt>
      <trkpt lat="45.98097" lon="4.81003">
        <ele>242</ele>
        <time>2018-09-04T09:23:04Z</time>
      </trkpt>
      <trkpt lat="45.98095" lon="4.80996">
        <ele>240</ele>
        <time>2018-09-04T09:23:05Z</time>
      </trkpt>
      <trkpt lat="45.98093" lon="4.8099">
        <ele>240</ele>
        <time>2018-09-04T09:23:06Z</time>
      </trkpt>
      <trkpt lat="45.98093" lon="4.80984">
        <ele>240</ele>
        <time>2018-09-04T09:23:07Z</time>
      </trkpt>
      <trkpt lat="45.98091" lon="4.80977">
        <ele>239</ele>
        <time>2018-09-04T09:23:08Z</time>
      </trkpt>
      <trkpt lat="45.9809" lon="4.80968">
        <ele>239</ele>
        <time>2018-09-04T09:23:09Z</time>
      </trkpt>
      <trkpt lat="45.98088" lon="4.8096">
        <ele>239</ele>
        <time>2018-09-04T09:23:10Z</time>
      </trkpt>
      <trkpt lat="45.98086" lon="4.8095">
        <ele>238</ele>
        <time>2018-09-04T09:23:11Z</time>
      </trkpt>
      <trkpt lat="45.98084" lon="4.8094">
        <ele>238</ele>
        <time>2018-09-04T09:23:12Z</time>
      </trkpt>
      <trkpt lat="45.98081" lon="4.80929">
        <ele>240</ele>
        <time>2018-09-04T09:23:13Z</time>
      </trkpt>
      <trkpt lat="45.98078" lon="4.80918">
        <ele>239</ele>
        <time>2018-09-04T09:23:14Z</time>
      </trkpt>
      <trkpt lat="45.98076" lon="4.80906">
        <ele>238</ele>
        <time>2018-09-04T09:23:15Z</time>
      </trkpt>
      <trkpt lat="45.98073" lon="4.80894">
        <ele>238</ele>
        <time>2018-09-04T09:23:16Z</time>
      </trkpt>
      <trkpt lat="45.9807" lon="4.80882">
        <ele>237</ele>
        <time>2018-09-04T09:23:17Z</time>
      </trkpt>
      <trkpt lat="45.98067" lon="4.8087">
        <ele>237</ele>
        <time>2018-09-04T09:23:18Z</time>
      </trkpt>
      <trkpt lat="45.98064" lon="4.80858">
        <ele>236</ele>
        <time>2018-09-04T09:23:19Z</time>
      </trkpt>
      <trkpt lat="45.98061" lon="4.80845">
        <ele>236</ele>
        <time>2018-09-04T09:23:20Z</time>
      </trkpt>
      <trkpt lat="45.98059" lon="4.80832">
        <ele>234</ele>
        <time>2018-09-04T09:23:21Z</time>
      </trkpt>
      <trkpt lat="45.98055" lon="4.8082">
        <ele>234</ele>
        <time>2018-09-04T09:23:22Z</time>
      </trkpt>
      <trkpt lat="45.98051" lon="4.80809">
        <ele>234</ele>
        <time>2018-09-04T09:23:23Z</time>
      </trkpt>
      <trkpt lat="45.98048" lon="4.80798">
        <ele>234</ele>
        <time>2018-09-04T09:23:24Z</time>
      </trkpt>
      <trkpt lat="45.98043" lon="4.80787">
        <ele>233</ele>
        <time>2018-09-04T09:23:25Z</time>
      </trkpt>
      <trkpt lat="45.98041" lon="4.80776">
        <ele>233</ele>
        <time>2018-09-04T09:23:26Z</time>
      </trkpt>
      <trkpt lat="45.98039" lon="4.80766">
        <ele>233</ele>
        <time>2018-09-04T09:23:27Z</time>
      </trkpt>
      <trkpt lat="45.98038" lon="4.80755">
        <ele>233</ele>
        <time>2018-09-04T09:23:28Z</time>
      </trkpt>
      <trkpt lat="45.98037" lon="4.80746">
        <ele>231</ele>
        <time>2018-09-04T09:23:29Z</time>
      </trkpt>
      <trkpt lat="45.98035" lon="4.80739">
        <ele>231</ele>
        <time>2018-09-04T09:23:30Z</time>
      </trkpt>
      <trkpt lat="45.98033" lon="4.80731">
        <ele>231</ele>
        <time>2018-09-04T09:23:31Z</time>
      </trkpt>
      <trkpt lat="45.98031" lon="4.80721">
        <ele>231</ele>
        <time>2018-09-04T09:23:33Z</time>
      </trkpt>
      <trkpt lat="45.98029" lon="4.80716">
        <ele>231</ele>
        <time>2018-09-04T09:23:34Z</time>
      </trkpt>
      <trkpt lat="45.9803" lon="4.80712">
        <ele>231</ele>
        <time>2018-09-04T09:23:36Z</time>
      </trkpt>
      <trkpt lat="45.98034" lon="4.80704">
        <ele>231</ele>
        <time>2018-09-04T09:23:37Z</time>
      </trkpt>
      <trkpt lat="45.98038" lon="4.807">
        <ele>230</ele>
        <time>2018-09-04T09:23:38Z</time>
      </trkpt>
      <trkpt lat="45.98043" lon="4.807">
        <ele>230</ele>
        <time>2018-09-04T09:23:39Z</time>
      </trkpt>
      <trkpt lat="45.98048" lon="4.80699">
        <ele>230</ele>
        <time>2018-09-04T09:23:40Z</time>
      </trkpt>
      <trkpt lat="45.98053" lon="4.80699">
        <ele>230</ele>
        <time>2018-09-04T09:23:41Z</time>
      </trkpt>
      <trkpt lat="45.98058" lon="4.80698">
        <ele>230</ele>
        <time>2018-09-04T09:23:42Z</time>
      </trkpt>
      <trkpt lat="45.98063" lon="4.80697">
        <ele>230</ele>
        <time>2018-09-04T09:23:43Z</time>
      </trkpt>
      <trkpt lat="45.9807" lon="4.80695">
        <ele>230</ele>
        <time>2018-09-04T09:23:44Z</time>
      </trkpt>
      <trkpt lat="45.98075" lon="4.80694">
        <ele>230</ele>
        <time>2018-09-04T09:23:45Z</time>
      </trkpt>
      <trkpt lat="45.98083" lon="4.80695">
        <ele>230</ele>
        <time>2018-09-04T09:23:46Z</time>
      </trkpt>
      <trkpt lat="45.98089" lon="4.80694">
        <ele>228</ele>
        <time>2018-09-04T09:23:47Z</time>
      </trkpt>
      <trkpt lat="45.98096" lon="4.80695">
        <ele>228</ele>
        <time>2018-09-04T09:23:48Z</time>
      </trkpt>
      <trkpt lat="45.98103" lon="4.80694">
        <ele>228</ele>
        <time>2018-09-04T09:23:49Z</time>
      </trkpt>
      <trkpt lat="45.9811" lon="4.80695">
        <ele>228</ele>
        <time>2018-09-04T09:23:50Z</time>
      </trkpt>
      <trkpt lat="45.98118" lon="4.80696">
        <ele>228</ele>
        <time>2018-09-04T09:23:51Z</time>
      </trkpt>
      <trkpt lat="45.98125" lon="4.80695">
        <ele>228</ele>
        <time>2018-09-04T09:23:52Z</time>
      </trkpt>
      <trkpt lat="45.98133" lon="4.80695">
        <ele>228</ele>
        <time>2018-09-04T09:23:53Z</time>
      </trkpt>
      <trkpt lat="45.9814" lon="4.80695">
        <ele>228</ele>
        <time>2018-09-04T09:23:54Z</time>
      </trkpt>
      <trkpt lat="45.98148" lon="4.80694">
        <ele>228</ele>
        <time>2018-09-04T09:23:55Z</time>
      </trkpt>
      <trkpt lat="45.98156" lon="4.80694">
        <ele>228</ele>
        <time>2018-09-04T09:23:56Z</time>
      </trkpt>
      <trkpt lat="45.98162" lon="4.80694">
        <ele>227</ele>
        <time>2018-09-04T09:23:57Z</time>
      </trkpt>
      <trkpt lat="45.9817" lon="4.80692">
        <ele>225</ele>
        <time>2018-09-04T09:23:58Z</time>
      </trkpt>
      <trkpt lat="45.98176" lon="4.80691">
        <ele>225</ele>
        <time>2018-09-04T09:23:59Z</time>
      </trkpt>
      <trkpt lat="45.98183" lon="4.80689">
        <ele>225</ele>
        <time>2018-09-04T09:24:00Z</time>
      </trkpt>
      <trkpt lat="45.98189" lon="4.80688">
        <ele>225</ele>
        <time>2018-09-04T09:24:01Z</time>
      </trkpt>
      <trkpt lat="45.98196" lon="4.80686">
        <ele>225</ele>
        <time>2018-09-04T09:24:02Z</time>
      </trkpt>
      <trkpt lat="45.98202" lon="4.80683">
        <ele>225</ele>
        <time>2018-09-04T09:24:03Z</time>
      </trkpt>
      <trkpt lat="45.98208" lon="4.8068">
        <ele>224</ele>
        <time>2018-09-04T09:24:04Z</time>
      </trkpt>
      <trkpt lat="45.98214" lon="4.80675">
        <ele>224</ele>
        <time>2018-09-04T09:24:05Z</time>
      </trkpt>
      <trkpt lat="45.98219" lon="4.80669">
        <ele>224</ele>
        <time>2018-09-04T09:24:06Z</time>
      </trkpt>
      <trkpt lat="45.98224" lon="4.80663">
        <ele>223</ele>
        <time>2018-09-04T09:24:07Z</time>
      </trkpt>
      <trkpt lat="45.98228" lon="4.8065">
        <ele>223</ele>
        <time>2018-09-04T09:24:08Z</time>
      </trkpt>
      <trkpt lat="45.98232" lon="4.80641">
        <ele>224</ele>
        <time>2018-09-04T09:24:09Z</time>
      </trkpt>
      <trkpt lat="45.98235" lon="4.80631">
        <ele>224</ele>
        <time>2018-09-04T09:24:10Z</time>
      </trkpt>
      <trkpt lat="45.98239" lon="4.80624">
        <ele>224</ele>
        <time>2018-09-04T09:24:11Z</time>
      </trkpt>
      <trkpt lat="45.98241" lon="4.80614">
        <ele>224</ele>
        <time>2018-09-04T09:24:12Z</time>
      </trkpt>
      <trkpt lat="45.98244" lon="4.80607">
        <ele>224</ele>
        <time>2018-09-04T09:24:13Z</time>
      </trkpt>
      <trkpt lat="45.98246" lon="4.80599">
        <ele>224</ele>
        <time>2018-09-04T09:24:14Z</time>
      </trkpt>
      <trkpt lat="45.98249" lon="4.80589">
        <ele>224</ele>
        <time>2018-09-04T09:24:15Z</time>
      </trkpt>
      <trkpt lat="45.98252" lon="4.80579">
        <ele>224</ele>
        <time>2018-09-04T09:24:16Z</time>
      </trkpt>
      <trkpt lat="45.98256" lon="4.80569">
        <ele>224</ele>
        <time>2018-09-04T09:24:17Z</time>
      </trkpt>
      <trkpt lat="45.98258" lon="4.8056">
        <ele>224</ele>
        <time>2018-09-04T09:24:18Z</time>
      </trkpt>
      <trkpt lat="45.98261" lon="4.8055">
        <ele>224</ele>
        <time>2018-09-04T09:24:19Z</time>
      </trkpt>
      <trkpt lat="45.98263" lon="4.80542">
        <ele>224</ele>
        <time>2018-09-04T09:24:20Z</time>
      </trkpt>
      <trkpt lat="45.98266" lon="4.80534">
        <ele>224</ele>
        <time>2018-09-04T09:24:21Z</time>
      </trkpt>
      <trkpt lat="45.98267" lon="4.80526">
        <ele>224</ele>
        <time>2018-09-04T09:24:22Z</time>
      </trkpt>
      <trkpt lat="45.9827" lon="4.80517">
        <ele>223</ele>
        <time>2018-09-04T09:24:23Z</time>
      </trkpt>
      <trkpt lat="45.98272" lon="4.8051">
        <ele>223</ele>
        <time>2018-09-04T09:24:24Z</time>
      </trkpt>
      <trkpt lat="45.98274" lon="4.80502">
        <ele>223</ele>
        <time>2018-09-04T09:24:25Z</time>
      </trkpt>
      <trkpt lat="45.98277" lon="4.80495">
        <ele>223</ele>
        <time>2018-09-04T09:24:26Z</time>
      </trkpt>
      <trkpt lat="45.98278" lon="4.80487">
        <ele>223</ele>
        <time>2018-09-04T09:24:27Z</time>
      </trkpt>
      <trkpt lat="45.98281" lon="4.80479">
        <ele>223</ele>
        <time>2018-09-04T09:24:28Z</time>
      </trkpt>
      <trkpt lat="45.98281" lon="4.80471">
        <ele>223</ele>
        <time>2018-09-04T09:24:29Z</time>
      </trkpt>
      <trkpt lat="45.98283" lon="4.80464">
        <ele>223</ele>
        <time>2018-09-04T09:24:30Z</time>
      </trkpt>
      <trkpt lat="45.98284" lon="4.80456">
        <ele>224</ele>
        <time>2018-09-04T09:24:31Z</time>
      </trkpt>
      <trkpt lat="45.98286" lon="4.80449">
        <ele>224</ele>
        <time>2018-09-04T09:24:32Z</time>
      </trkpt>
      <trkpt lat="45.98287" lon="4.80441">
        <ele>224</ele>
        <time>2018-09-04T09:24:33Z</time>
      </trkpt>
      <trkpt lat="45.98288" lon="4.80431">
        <ele>224</ele>
        <time>2018-09-04T09:24:34Z</time>
      </trkpt>
      <trkpt lat="45.9829" lon="4.80425">
        <ele>224</ele>
        <time>2018-09-04T09:24:35Z</time>
      </trkpt>
      <trkpt lat="45.9829" lon="4.80418">
        <ele>224</ele>
        <time>2018-09-04T09:24:36Z</time>
      </trkpt>
      <trkpt lat="45.98294" lon="4.80407">
        <ele>224</ele>
        <time>2018-09-04T09:24:38Z</time>
      </trkpt>
      <trkpt lat="45.98296" lon="4.80401">
        <ele>224</ele>
        <time>2018-09-04T09:24:39Z</time>
      </trkpt>
      <trkpt lat="45.98297" lon="4.80395">
        <ele>225</ele>
        <time>2018-09-04T09:24:40Z</time>
      </trkpt>
      <trkpt lat="45.98297" lon="4.80388">
        <ele>224</ele>
        <time>2018-09-04T09:24:41Z</time>
      </trkpt>
      <trkpt lat="45.98299" lon="4.80376">
        <ele>225</ele>
        <time>2018-09-04T09:24:44Z</time>
      </trkpt>
      <trkpt lat="45.98302" lon="4.80367">
        <ele>225</ele>
        <time>2018-09-04T09:24:45Z</time>
      </trkpt>
      <trkpt lat="45.98304" lon="4.8036">
        <ele>225</ele>
        <time>2018-09-04T09:24:46Z</time>
      </trkpt>
      <trkpt lat="45.98306" lon="4.80354">
        <ele>225</ele>
        <time>2018-09-04T09:24:47Z</time>
      </trkpt>
      <trkpt lat="45.98308" lon="4.80344">
        <ele>226</ele>
        <time>2018-09-04T09:24:49Z</time>
      </trkpt>
      <trkpt lat="45.98309" lon="4.80338">
        <ele>226</ele>
        <time>2018-09-04T09:24:50Z</time>
      </trkpt>
      <trkpt lat="45.98312" lon="4.80327">
        <ele>227</ele>
        <time>2018-09-04T09:24:52Z</time>
      </trkpt>
      <trkpt lat="45.98314" lon="4.80321">
        <ele>227</ele>
        <time>2018-09-04T09:24:53Z</time>
      </trkpt>
      <trkpt lat="45.98317" lon="4.80314">
        <ele>227</ele>
        <time>2018-09-04T09:24:54Z</time>
      </trkpt>
      <trkpt lat="45.98317" lon="4.80306">
        <ele>227</ele>
        <time>2018-09-04T09:24:55Z</time>
      </trkpt>
      <trkpt lat="45.98318" lon="4.80299">
        <ele>226</ele>
        <time>2018-09-04T09:24:57Z</time>
      </trkpt>
      <trkpt lat="45.9832" lon="4.80292">
        <ele>227</ele>
        <time>2018-09-04T09:24:58Z</time>
      </trkpt>
      <trkpt lat="45.98324" lon="4.80283">
        <ele>227</ele>
        <time>2018-09-04T09:25:00Z</time>
      </trkpt>
      <trkpt lat="45.98325" lon="4.8028">
        <ele>227</ele>
        <time>2018-09-04T09:25:01Z</time>
      </trkpt>
      <trkpt lat="45.98326" lon="4.8027">
        <ele>227</ele>
        <time>2018-09-04T09:25:04Z</time>
      </trkpt>
      <trkpt lat="45.98326" lon="4.80265">
        <ele>228</ele>
        <time>2018-09-04T09:25:05Z</time>
      </trkpt>
      <trkpt lat="45.98328" lon="4.80259">
        <ele>228</ele>
        <time>2018-09-04T09:25:07Z</time>
      </trkpt>
      <trkpt lat="45.98331" lon="4.80242">
        <ele>229</ele>
        <time>2018-09-04T09:25:08Z</time>
      </trkpt>
      <trkpt lat="45.98333" lon="4.80231">
        <ele>228</ele>
        <time>2018-09-04T09:25:10Z</time>
      </trkpt>
      <trkpt lat="45.98333" lon="4.80229">
        <ele>228</ele>
        <time>2018-09-04T09:25:11Z</time>
      </trkpt>
      <trkpt lat="45.98334" lon="4.80216">
        <ele>230</ele>
        <time>2018-09-04T09:25:13Z</time>
      </trkpt>
      <trkpt lat="45.98333" lon="4.80213">
        <ele>227</ele>
        <time>2018-09-04T09:25:14Z</time>
      </trkpt>
      <trkpt lat="45.98331" lon="4.80203">
        <ele>227</ele>
        <time>2018-09-04T09:25:16Z</time>
      </trkpt>
      <trkpt lat="45.98329" lon="4.80196">
        <ele>227</ele>
        <time>2018-09-04T09:25:17Z</time>
      </trkpt>
      <trkpt lat="45.98326" lon="4.80189">
        <ele>227</ele>
        <time>2018-09-04T09:25:18Z</time>
      </trkpt>
      <trkpt lat="45.98324" lon="4.80184">
        <ele>227</ele>
        <time>2018-09-04T09:25:19Z</time>
      </trkpt>
      <trkpt lat="45.98322" lon="4.80179">
        <ele>227</ele>
        <time>2018-09-04T09:25:20Z</time>
      </trkpt>
      <trkpt lat="45.98321" lon="4.80172">
        <ele>227</ele>
        <time>2018-09-04T09:25:21Z</time>
      </trkpt>
      <trkpt lat="45.98318" lon="4.80165">
        <ele>228</ele>
        <time>2018-09-04T09:25:22Z</time>
      </trkpt>
      <trkpt lat="45.98316" lon="4.80158">
        <ele>228</ele>
        <time>2018-09-04T09:25:23Z</time>
      </trkpt>
      <trkpt lat="45.98311" lon="4.80152">
        <ele>228</ele>
        <time>2018-09-04T09:25:24Z</time>
      </trkpt>
      <trkpt lat="45.98307" lon="4.80145">
        <ele>228</ele>
        <time>2018-09-04T09:25:25Z</time>
      </trkpt>
      <trkpt lat="45.98305" lon="4.80139">
        <ele>228</ele>
        <time>2018-09-04T09:25:26Z</time>
      </trkpt>
      <trkpt lat="45.98302" lon="4.80134">
        <ele>228</ele>
        <time>2018-09-04T09:25:27Z</time>
      </trkpt>
      <trkpt lat="45.983" lon="4.80127">
        <ele>228</ele>
        <time>2018-09-04T09:25:28Z</time>
      </trkpt>
      <trkpt lat="45.98298" lon="4.80122">
        <ele>228</ele>
        <time>2018-09-04T09:25:29Z</time>
      </trkpt>
      <trkpt lat="45.98299" lon="4.80115">
        <ele>228</ele>
        <time>2018-09-04T09:25:30Z</time>
      </trkpt>
      <trkpt lat="45.98298" lon="4.80107">
        <ele>228</ele>
        <time>2018-09-04T09:25:31Z</time>
      </trkpt>
      <trkpt lat="45.98294" lon="4.80096">
        <ele>228</ele>
        <time>2018-09-04T09:25:33Z</time>
      </trkpt>
      <trkpt lat="45.98291" lon="4.80091">
        <ele>228</ele>
        <time>2018-09-04T09:25:34Z</time>
      </trkpt>
      <trkpt lat="45.98288" lon="4.80081">
        <ele>229</ele>
        <time>2018-09-04T09:25:36Z</time>
      </trkpt>
      <trkpt lat="45.98286" lon="4.80075">
        <ele>229</ele>
        <time>2018-09-04T09:25:37Z</time>
      </trkpt>
      <trkpt lat="45.98283" lon="4.8007">
        <ele>229</ele>
        <time>2018-09-04T09:25:38Z</time>
      </trkpt>
      <trkpt lat="45.98281" lon="4.80065">
        <ele>229</ele>
        <time>2018-09-04T09:25:39Z</time>
      </trkpt>
      <trkpt lat="45.98278" lon="4.80055">
        <ele>229</ele>
        <time>2018-09-04T09:25:41Z</time>
      </trkpt>
      <trkpt lat="45.98276" lon="4.80049">
        <ele>229</ele>
        <time>2018-09-04T09:25:42Z</time>
      </trkpt>
      <trkpt lat="45.98273" lon="4.80038">
        <ele>229</ele>
        <time>2018-09-04T09:25:44Z</time>
      </trkpt>
      <trkpt lat="45.98268" lon="4.8003">
        <ele>229</ele>
        <time>2018-09-04T09:25:45Z</time>
      </trkpt>
      <trkpt lat="45.98268" lon="4.80024">
        <ele>228</ele>
        <time>2018-09-04T09:25:46Z</time>
      </trkpt>
      <trkpt lat="45.98265" lon="4.80017">
        <ele>228</ele>
        <time>2018-09-04T09:25:47Z</time>
      </trkpt>
      <trkpt lat="45.98263" lon="4.80011">
        <ele>228</ele>
        <time>2018-09-04T09:25:48Z</time>
      </trkpt>
      <trkpt lat="45.9826" lon="4.80004">
        <ele>227</ele>
        <time>2018-09-04T09:25:49Z</time>
      </trkpt>
      <trkpt lat="45.98258" lon="4.79994">
        <ele>227</ele>
        <time>2018-09-04T09:25:51Z</time>
      </trkpt>
      <trkpt lat="45.98256" lon="4.79989">
        <ele>227</ele>
        <time>2018-09-04T09:25:52Z</time>
      </trkpt>
      <trkpt lat="45.98252" lon="4.79978">
        <ele>228</ele>
        <time>2018-09-04T09:25:54Z</time>
      </trkpt>
      <trkpt lat="45.9825" lon="4.79973">
        <ele>225</ele>
        <time>2018-09-04T09:25:55Z</time>
      </trkpt>
      <trkpt lat="45.98242" lon="4.79969">
        <ele>225</ele>
        <time>2018-09-04T09:25:56Z</time>
      </trkpt>
      <trkpt lat="45.9824" lon="4.79964">
        <ele>225</ele>
        <time>2018-09-04T09:25:57Z</time>
      </trkpt>
      <trkpt lat="45.98239" lon="4.79957">
        <ele>225</ele>
        <time>2018-09-04T09:25:58Z</time>
      </trkpt>
      <trkpt lat="45.98239" lon="4.79951">
        <ele>225</ele>
        <time>2018-09-04T09:25:59Z</time>
      </trkpt>
      <trkpt lat="45.98234" lon="4.7994">
        <ele>225</ele>
        <time>2018-09-04T09:26:01Z</time>
      </trkpt>
      <trkpt lat="45.98232" lon="4.79934">
        <ele>225</ele>
        <time>2018-09-04T09:26:02Z</time>
      </trkpt>
      <trkpt lat="45.98229" lon="4.79928">
        <ele>225</ele>
        <time>2018-09-04T09:26:03Z</time>
      </trkpt>
      <trkpt lat="45.98227" lon="4.79923">
        <ele>225</ele>
        <time>2018-09-04T09:26:04Z</time>
      </trkpt>
      <trkpt lat="45.98225" lon="4.79917">
        <ele>225</ele>
        <time>2018-09-04T09:26:05Z</time>
      </trkpt>
      <trkpt lat="45.98221" lon="4.79909">
        <ele>225</ele>
        <time>2018-09-04T09:26:06Z</time>
      </trkpt>
      <trkpt lat="45.9822" lon="4.79903">
        <ele>225</ele>
        <time>2018-09-04T09:26:08Z</time>
      </trkpt>
      <trkpt lat="45.98218" lon="4.79896">
        <ele>225</ele>
        <time>2018-09-04T09:26:09Z</time>
      </trkpt>
      <trkpt lat="45.98215" lon="4.79886">
        <ele>225</ele>
        <time>2018-09-04T09:26:11Z</time>
      </trkpt>
      <trkpt lat="45.98214" lon="4.79879">
        <ele>225</ele>
        <time>2018-09-04T09:26:12Z</time>
      </trkpt>
      <trkpt lat="45.98211" lon="4.79873">
        <ele>225</ele>
        <time>2018-09-04T09:26:13Z</time>
      </trkpt>
      <trkpt lat="45.98208" lon="4.79867">
        <ele>225</ele>
        <time>2018-09-04T09:26:14Z</time>
      </trkpt>
      <trkpt lat="45.98204" lon="4.79856">
        <ele>225</ele>
        <time>2018-09-04T09:26:16Z</time>
      </trkpt>
      <trkpt lat="45.98202" lon="4.79851">
        <ele>225</ele>
        <time>2018-09-04T09:26:17Z</time>
      </trkpt>
      <trkpt lat="45.98199" lon="4.79839">
        <ele>225</ele>
        <time>2018-09-04T09:26:19Z</time>
      </trkpt>
      <trkpt lat="45.98197" lon="4.79833">
        <ele>225</ele>
        <time>2018-09-04T09:26:20Z</time>
      </trkpt>
      <trkpt lat="45.98192" lon="4.79823">
        <ele>225</ele>
        <time>2018-09-04T09:26:22Z</time>
      </trkpt>
      <trkpt lat="45.9819" lon="4.79818">
        <ele>225</ele>
        <time>2018-09-04T09:26:23Z</time>
      </trkpt>
      <trkpt lat="45.98187" lon="4.79813">
        <ele>225</ele>
        <time>2018-09-04T09:26:24Z</time>
      </trkpt>
      <trkpt lat="45.98185" lon="4.79807">
        <ele>225</ele>
        <time>2018-09-04T09:26:25Z</time>
      </trkpt>
      <trkpt lat="45.98182" lon="4.79796">
        <ele>226</ele>
        <time>2018-09-04T09:26:27Z</time>
      </trkpt>
      <trkpt lat="45.98181" lon="4.79793">
        <ele>226</ele>
        <time>2018-09-04T09:26:28Z</time>
      </trkpt>
      <trkpt lat="45.9818" lon="4.79791">
        <ele>226</ele>
        <time>2018-09-04T09:26:29Z</time>
      </trkpt>
      <trkpt lat="45.98178" lon="4.7978">
        <ele>226</ele>
        <time>2018-09-04T09:26:30Z</time>
      </trkpt>
      <trkpt lat="45.9818" lon="4.79769">
        <ele>226</ele>
        <time>2018-09-04T09:26:34Z</time>
      </trkpt>
      <trkpt lat="45.98181" lon="4.79766">
        <ele>226</ele>
        <time>2018-09-04T09:26:35Z</time>
      </trkpt>
      <trkpt lat="45.98186" lon="4.7976">
        <ele>226</ele>
        <time>2018-09-04T09:26:37Z</time>
      </trkpt>
      <trkpt lat="45.98189" lon="4.79758">
        <ele>226</ele>
        <time>2018-09-04T09:26:38Z</time>
      </trkpt>
      <trkpt lat="45.98196" lon="4.79754">
        <ele>226</ele>
        <time>2018-09-04T09:26:40Z</time>
      </trkpt>
      <trkpt lat="45.982" lon="4.79753">
        <ele>226</ele>
        <time>2018-09-04T09:26:41Z</time>
      </trkpt>
      <trkpt lat="45.98207" lon="4.7975">
        <ele>226</ele>
        <time>2018-09-04T09:26:43Z</time>
      </trkpt>
      <trkpt lat="45.9821" lon="4.7975">
        <ele>228</ele>
        <time>2018-09-04T09:26:44Z</time>
      </trkpt>
      <trkpt lat="45.98217" lon="4.79748">
        <ele>228</ele>
        <time>2018-09-04T09:26:46Z</time>
      </trkpt>
      <trkpt lat="45.9822" lon="4.79747">
        <ele>228</ele>
        <time>2018-09-04T09:26:47Z</time>
      </trkpt>
      <trkpt lat="45.98227" lon="4.79747">
        <ele>228</ele>
        <time>2018-09-04T09:26:49Z</time>
      </trkpt>
      <trkpt lat="45.9823" lon="4.79746">
        <ele>228</ele>
        <time>2018-09-04T09:26:50Z</time>
      </trkpt>
      <trkpt lat="45.98237" lon="4.79746">
        <ele>228</ele>
        <time>2018-09-04T09:26:52Z</time>
      </trkpt>
      <trkpt lat="45.98241" lon="4.79746">
        <ele>228</ele>
        <time>2018-09-04T09:26:53Z</time>
      </trkpt>
      <trkpt lat="45.98247" lon="4.79746">
        <ele>228</ele>
        <time>2018-09-04T09:26:55Z</time>
      </trkpt>
      <trkpt lat="45.9825" lon="4.79745">
        <ele>229</ele>
        <time>2018-09-04T09:26:56Z</time>
      </trkpt>
      <trkpt lat="45.98257" lon="4.79745">
        <ele>230</ele>
        <time>2018-09-04T09:26:58Z</time>
      </trkpt>
      <trkpt lat="45.98261" lon="4.79745">
        <ele>231</ele>
        <time>2018-09-04T09:26:59Z</time>
      </trkpt>
      <trkpt lat="45.98268" lon="4.79745">
        <ele>232</ele>
        <time>2018-09-04T09:27:01Z</time>
      </trkpt>
      <trkpt lat="45.98279" lon="4.79745">
        <ele>233</ele>
        <time>2018-09-04T09:27:02Z</time>
      </trkpt>
      <trkpt lat="45.98287" lon="4.79744">
        <ele>234</ele>
        <time>2018-09-04T09:27:05Z</time>
      </trkpt>
      <trkpt lat="45.98289" lon="4.79743">
        <ele>234</ele>
        <time>2018-09-04T09:27:06Z</time>
      </trkpt>
      <trkpt lat="45.98296" lon="4.79742">
        <ele>235</ele>
        <time>2018-09-04T09:27:08Z</time>
      </trkpt>
      <trkpt lat="45.98299" lon="4.79741">
        <ele>235</ele>
        <time>2018-09-04T09:27:09Z</time>
      </trkpt>
      <trkpt lat="45.98306" lon="4.79741">
        <ele>235</ele>
        <time>2018-09-04T09:27:11Z</time>
      </trkpt>
      <trkpt lat="45.98316" lon="4.79739">
        <ele>236</ele>
        <time>2018-09-04T09:27:12Z</time>
      </trkpt>
      <trkpt lat="45.98324" lon="4.79737">
        <ele>236</ele>
        <time>2018-09-04T09:27:16Z</time>
      </trkpt>
      <trkpt lat="45.98327" lon="4.79737">
        <ele>236</ele>
        <time>2018-09-04T09:27:17Z</time>
      </trkpt>
      <trkpt lat="45.98333" lon="4.79735">
        <ele>236</ele>
        <time>2018-09-04T09:27:19Z</time>
      </trkpt>
      <trkpt lat="45.98336" lon="4.79735">
        <ele>239</ele>
        <time>2018-09-04T09:27:20Z</time>
      </trkpt>
      <trkpt lat="45.98342" lon="4.79734">
        <ele>239</ele>
        <time>2018-09-04T09:27:22Z</time>
      </trkpt>
      <trkpt lat="45.98345" lon="4.79735">
        <ele>239</ele>
        <time>2018-09-04T09:27:23Z</time>
      </trkpt>
      <trkpt lat="45.98355" lon="4.79735">
        <ele>240</ele>
        <time>2018-09-04T09:27:24Z</time>
      </trkpt>
      <trkpt lat="45.98362" lon="4.79733">
        <ele>240</ele>
        <time>2018-09-04T09:27:28Z</time>
      </trkpt>
      <trkpt lat="45.98364" lon="4.79732">
        <ele>240</ele>
        <time>2018-09-04T09:27:29Z</time>
      </trkpt>
      <trkpt lat="45.98373" lon="4.7973">
        <ele>240</ele>
        <time>2018-09-04T09:27:32Z</time>
      </trkpt>
      <trkpt lat="45.98375" lon="4.7973">
        <ele>241</ele>
        <time>2018-09-04T09:27:33Z</time>
      </trkpt>
      <trkpt lat="45.98384" lon="4.79729">
        <ele>241</ele>
        <time>2018-09-04T09:27:36Z</time>
      </trkpt>
      <trkpt lat="45.98387" lon="4.79729">
        <ele>241</ele>
        <time>2018-09-04T09:27:37Z</time>
      </trkpt>
      <trkpt lat="45.98394" lon="4.79728">
        <ele>241</ele>
        <time>2018-09-04T09:27:39Z</time>
      </trkpt>
      <trkpt lat="45.98398" lon="4.79728">
        <ele>241</ele>
        <time>2018-09-04T09:27:40Z</time>
      </trkpt>
      <trkpt lat="45.98404" lon="4.79727">
        <ele>241</ele>
        <time>2018-09-04T09:27:42Z</time>
      </trkpt>
      <trkpt lat="45.98408" lon="4.79726">
        <ele>241</ele>
        <time>2018-09-04T09:27:43Z</time>
      </trkpt>
      <trkpt lat="45.98415" lon="4.79725">
        <ele>241</ele>
        <time>2018-09-04T09:27:45Z</time>
      </trkpt>
      <trkpt lat="45.98418" lon="4.79725">
        <ele>242</ele>
        <time>2018-09-04T09:27:46Z</time>
      </trkpt>
      <trkpt lat="45.98425" lon="4.79723">
        <ele>242</ele>
        <time>2018-09-04T09:27:48Z</time>
      </trkpt>
      <trkpt lat="45.98428" lon="4.79723">
        <ele>242</ele>
        <time>2018-09-04T09:27:49Z</time>
      </trkpt>
      <trkpt lat="45.98435" lon="4.79722">
        <ele>242</ele>
        <time>2018-09-04T09:27:51Z</time>
      </trkpt>
      <trkpt lat="45.98439" lon="4.79722">
        <ele>242</ele>
        <time>2018-09-04T09:27:52Z</time>
      </trkpt>
      <trkpt lat="45.98446" lon="4.79722">
        <ele>242</ele>
        <time>2018-09-04T09:27:54Z</time>
      </trkpt>
      <trkpt lat="45.9845" lon="4.79722">
        <ele>243</ele>
        <time>2018-09-04T09:27:55Z</time>
      </trkpt>
      <trkpt lat="45.98457" lon="4.79722">
        <ele>243</ele>
        <time>2018-09-04T09:27:57Z</time>
      </trkpt>
      <trkpt lat="45.98461" lon="4.79721">
        <ele>243</ele>
        <time>2018-09-04T09:27:58Z</time>
      </trkpt>
      <trkpt lat="45.98468" lon="4.79721">
        <ele>243</ele>
        <time>2018-09-04T09:28:00Z</time>
      </trkpt>
      <trkpt lat="45.98471" lon="4.79721">
        <ele>243</ele>
        <time>2018-09-04T09:28:01Z</time>
      </trkpt>
      <trkpt lat="45.98478" lon="4.79721">
        <ele>243</ele>
        <time>2018-09-04T09:28:03Z</time>
      </trkpt>
      <trkpt lat="45.98481" lon="4.79721">
        <ele>243</ele>
        <time>2018-09-04T09:28:04Z</time>
      </trkpt>
      <trkpt lat="45.98487" lon="4.79721">
        <ele>243</ele>
        <time>2018-09-04T09:28:06Z</time>
      </trkpt>
      <trkpt lat="45.9849" lon="4.79722">
        <ele>243</ele>
        <time>2018-09-04T09:28:07Z</time>
      </trkpt>
      <trkpt lat="45.98496" lon="4.79723">
        <ele>243</ele>
        <time>2018-09-04T09:28:09Z</time>
      </trkpt>
      <trkpt lat="45.98499" lon="4.79723">
        <ele>243</ele>
        <time>2018-09-04T09:28:10Z</time>
      </trkpt>
      <trkpt lat="45.98507" lon="4.79723">
        <ele>244</ele>
        <time>2018-09-04T09:28:13Z</time>
      </trkpt>
      <trkpt lat="45.9851" lon="4.79724">
        <ele>244</ele>
        <time>2018-09-04T09:28:14Z</time>
      </trkpt>
      <trkpt lat="45.98516" lon="4.79723">
        <ele>244</ele>
        <time>2018-09-04T09:28:16Z</time>
      </trkpt>
      <trkpt lat="45.98519" lon="4.79723">
        <ele>244</ele>
        <time>2018-09-04T09:28:17Z</time>
      </trkpt>
      <trkpt lat="45.98525" lon="4.79721">
        <ele>244</ele>
        <time>2018-09-04T09:28:19Z</time>
      </trkpt>
      <trkpt lat="45.98529" lon="4.7972">
        <ele>244</ele>
        <time>2018-09-04T09:28:20Z</time>
      </trkpt>
      <trkpt lat="45.98535" lon="4.79717">
        <ele>244</ele>
        <time>2018-09-04T09:28:22Z</time>
      </trkpt>
      <trkpt lat="45.98538" lon="4.79715">
        <ele>244</ele>
        <time>2018-09-04T09:28:23Z</time>
      </trkpt>
      <trkpt lat="45.98544" lon="4.79711">
        <ele>244</ele>
        <time>2018-09-04T09:28:25Z</time>
      </trkpt>
      <trkpt lat="45.98547" lon="4.79709">
        <ele>244</ele>
        <time>2018-09-04T09:28:26Z</time>
      </trkpt>
      <trkpt lat="45.98552" lon="4.79704">
        <ele>244</ele>
        <time>2018-09-04T09:28:28Z</time>
      </trkpt>
      <trkpt lat="45.98555" lon="4.79701">
        <ele>244</ele>
        <time>2018-09-04T09:28:29Z</time>
      </trkpt>
      <trkpt lat="45.9856" lon="4.79695">
        <ele>244</ele>
        <time>2018-09-04T09:28:31Z</time>
      </trkpt>
      <trkpt lat="45.98563" lon="4.79692">
        <ele>244</ele>
        <time>2018-09-04T09:28:32Z</time>
      </trkpt>
      <trkpt lat="45.9857" lon="4.79682">
        <ele>244</ele>
        <time>2018-09-04T09:28:33Z</time>
      </trkpt>
      <trkpt lat="45.98576" lon="4.79672">
        <ele>245</ele>
        <time>2018-09-04T09:28:35Z</time>
      </trkpt>
      <trkpt lat="45.98578" lon="4.79667">
        <ele>245</ele>
        <time>2018-09-04T09:28:36Z</time>
      </trkpt>
      <trkpt lat="45.98582" lon="4.79657">
        <ele>245</ele>
        <time>2018-09-04T09:28:38Z</time>
      </trkpt>
      <trkpt lat="45.98584" lon="4.79654">
        <ele>245</ele>
        <time>2018-09-04T09:28:39Z</time>
      </trkpt>
      <trkpt lat="45.98587" lon="4.79648">
        <ele>245</ele>
        <time>2018-09-04T09:28:41Z</time>
      </trkpt>
      <trkpt lat="45.98592" lon="4.7964">
        <ele>245</ele>
        <time>2018-09-04T09:28:42Z</time>
      </trkpt>
      <trkpt lat="45.98598" lon="4.79632">
        <ele>245</ele>
        <time>2018-09-04T09:28:45Z</time>
      </trkpt>
      <trkpt lat="45.98604" lon="4.79628">
        <ele>245</ele>
        <time>2018-09-04T09:28:46Z</time>
      </trkpt>
      <trkpt lat="45.98611" lon="4.79625">
        <ele>245</ele>
        <time>2018-09-04T09:28:48Z</time>
      </trkpt>
      <trkpt lat="45.98613" lon="4.79624">
        <ele>245</ele>
        <time>2018-09-04T09:28:49Z</time>
      </trkpt>
      <trkpt lat="45.98621" lon="4.79619">
        <ele>245</ele>
        <time>2018-09-04T09:28:51Z</time>
      </trkpt>
      <trkpt lat="45.98623" lon="4.79617">
        <ele>245</ele>
        <time>2018-09-04T09:28:52Z</time>
      </trkpt>
      <trkpt lat="45.98629" lon="4.7961">
        <ele>245</ele>
        <time>2018-09-04T09:28:55Z</time>
      </trkpt>
      <trkpt lat="45.9863" lon="4.79607">
        <ele>245</ele>
        <time>2018-09-04T09:28:56Z</time>
      </trkpt>
      <trkpt lat="45.98631" lon="4.79604">
        <ele>245</ele>
        <time>2018-09-04T09:28:57Z</time>
      </trkpt>
      <trkpt lat="45.98632" lon="4.79593">
        <ele>245</ele>
        <time>2018-09-04T09:28:58Z</time>
      </trkpt>
      <trkpt lat="45.98623" lon="4.79586">
        <ele>245</ele>
        <time>2018-09-04T09:28:59Z</time>
      </trkpt>
      <trkpt lat="45.98615" lon="4.79581">
        <ele>245</ele>
        <time>2018-09-04T09:29:01Z</time>
      </trkpt>
      <trkpt lat="45.9861" lon="4.7958">
        <ele>245</ele>
        <time>2018-09-04T09:29:02Z</time>
      </trkpt>
      <trkpt lat="45.98601" lon="4.79579">
        <ele>245</ele>
        <time>2018-09-04T09:29:04Z</time>
      </trkpt>
      <trkpt lat="45.98596" lon="4.79578">
        <ele>245</ele>
        <time>2018-09-04T09:29:05Z</time>
      </trkpt>
      <trkpt lat="45.98591" lon="4.79578">
        <ele>245</ele>
        <time>2018-09-04T09:29:06Z</time>
      </trkpt>
      <trkpt lat="45.98586" lon="4.79578">
        <ele>245</ele>
        <time>2018-09-04T09:29:07Z</time>
      </trkpt>
      <trkpt lat="45.98579" lon="4.7958">
        <ele>245</ele>
        <time>2018-09-04T09:29:09Z</time>
      </trkpt>
      <trkpt lat="45.98574" lon="4.79577">
        <ele>245</ele>
        <time>2018-09-04T09:29:10Z</time>
      </trkpt>
      <trkpt lat="45.98569" lon="4.79573">
        <ele>244</ele>
        <time>2018-09-04T09:29:11Z</time>
      </trkpt>
      <trkpt lat="45.98565" lon="4.7957">
        <ele>244</ele>
        <time>2018-09-04T09:29:12Z</time>
      </trkpt>
      <trkpt lat="45.98562" lon="4.79568">
        <ele>244</ele>
        <time>2018-09-04T09:29:13Z</time>
      </trkpt>
      <trkpt lat="45.98556" lon="4.79565">
        <ele>244</ele>
        <time>2018-09-04T09:29:14Z</time>
      </trkpt>
      <trkpt lat="45.98552" lon="4.79559">
        <ele>244</ele>
        <time>2018-09-04T09:29:15Z</time>
      </trkpt>
      <trkpt lat="45.98548" lon="4.79553">
        <ele>244</ele>
        <time>2018-09-04T09:29:16Z</time>
      </trkpt>
      <trkpt lat="45.98544" lon="4.79548">
        <ele>244</ele>
        <time>2018-09-04T09:29:17Z</time>
      </trkpt>
      <trkpt lat="45.98541" lon="4.79543">
        <ele>244</ele>
        <time>2018-09-04T09:29:18Z</time>
      </trkpt>
      <trkpt lat="45.98536" lon="4.79537">
        <ele>244</ele>
        <time>2018-09-04T09:29:19Z</time>
      </trkpt>
      <trkpt lat="45.98531" lon="4.7953">
        <ele>244</ele>
        <time>2018-09-04T09:29:20Z</time>
      </trkpt>
      <trkpt lat="45.98527" lon="4.79525">
        <ele>244</ele>
        <time>2018-09-04T09:29:21Z</time>
      </trkpt>
      <trkpt lat="45.98524" lon="4.79516">
        <ele>244</ele>
        <time>2018-09-04T09:29:22Z</time>
      </trkpt>
      <trkpt lat="45.98523" lon="4.79508">
        <ele>244</ele>
        <time>2018-09-04T09:29:23Z</time>
      </trkpt>
      <trkpt lat="45.98525" lon="4.79499">
        <ele>243</ele>
        <time>2018-09-04T09:29:24Z</time>
      </trkpt>
      <trkpt lat="45.98523" lon="4.79492">
        <ele>243</ele>
        <time>2018-09-04T09:29:25Z</time>
      </trkpt>
      <trkpt lat="45.98522" lon="4.79484">
        <ele>244</ele>
        <time>2018-09-04T09:29:26Z</time>
      </trkpt>
      <trkpt lat="45.98521" lon="4.79475">
        <ele>244</ele>
        <time>2018-09-04T09:29:27Z</time>
      </trkpt>
      <trkpt lat="45.98522" lon="4.79466">
        <ele>244</ele>
        <time>2018-09-04T09:29:28Z</time>
      </trkpt>
      <trkpt lat="45.98523" lon="4.79457">
        <ele>244</ele>
        <time>2018-09-04T09:29:29Z</time>
      </trkpt>
      <trkpt lat="45.98523" lon="4.79449">
        <ele>244</ele>
        <time>2018-09-04T09:29:30Z</time>
      </trkpt>
      <trkpt lat="45.98523" lon="4.7944">
        <ele>244</ele>
        <time>2018-09-04T09:29:31Z</time>
      </trkpt>
      <trkpt lat="45.98521" lon="4.79429">
        <ele>244</ele>
        <time>2018-09-04T09:29:32Z</time>
      </trkpt>
      <trkpt lat="45.98518" lon="4.79421">
        <ele>244</ele>
        <time>2018-09-04T09:29:33Z</time>
      </trkpt>
      <trkpt lat="45.98517" lon="4.79413">
        <ele>244</ele>
        <time>2018-09-04T09:29:34Z</time>
      </trkpt>
      <trkpt lat="45.98517" lon="4.79405">
        <ele>244</ele>
        <time>2018-09-04T09:29:35Z</time>
      </trkpt>
      <trkpt lat="45.98516" lon="4.79397">
        <ele>244</ele>
        <time>2018-09-04T09:29:36Z</time>
      </trkpt>
      <trkpt lat="45.98515" lon="4.79389">
        <ele>244</ele>
        <time>2018-09-04T09:29:37Z</time>
      </trkpt>
      <trkpt lat="45.98514" lon="4.79381">
        <ele>244</ele>
        <time>2018-09-04T09:29:38Z</time>
      </trkpt>
      <trkpt lat="45.98512" lon="4.79372">
        <ele>243</ele>
        <time>2018-09-04T09:29:39Z</time>
      </trkpt>
      <trkpt lat="45.98511" lon="4.79365">
        <ele>243</ele>
        <time>2018-09-04T09:29:40Z</time>
      </trkpt>
      <trkpt lat="45.9851" lon="4.79358">
        <ele>243</ele>
        <time>2018-09-04T09:29:41Z</time>
      </trkpt>
      <trkpt lat="45.98508" lon="4.79352">
        <ele>243</ele>
        <time>2018-09-04T09:29:42Z</time>
      </trkpt>
      <trkpt lat="45.98506" lon="4.7934">
        <ele>243</ele>
        <time>2018-09-04T09:29:44Z</time>
      </trkpt>
      <trkpt lat="45.98503" lon="4.79332">
        <ele>243</ele>
        <time>2018-09-04T09:29:45Z</time>
      </trkpt>
      <trkpt lat="45.985" lon="4.79323">
        <ele>243</ele>
        <time>2018-09-04T09:29:46Z</time>
      </trkpt>
      <trkpt lat="45.98497" lon="4.79316">
        <ele>243</ele>
        <time>2018-09-04T09:29:47Z</time>
      </trkpt>
      <trkpt lat="45.98494" lon="4.79309">
        <ele>243</ele>
        <time>2018-09-04T09:29:48Z</time>
      </trkpt>
      <trkpt lat="45.98491" lon="4.79301">
        <ele>243</ele>
        <time>2018-09-04T09:29:49Z</time>
      </trkpt>
      <trkpt lat="45.98488" lon="4.79294">
        <ele>243</ele>
        <time>2018-09-04T09:29:50Z</time>
      </trkpt>
      <trkpt lat="45.98484" lon="4.79287">
        <ele>243</ele>
        <time>2018-09-04T09:29:51Z</time>
      </trkpt>
      <trkpt lat="45.9848" lon="4.79281">
        <ele>243</ele>
        <time>2018-09-04T09:29:52Z</time>
      </trkpt>
      <trkpt lat="45.98477" lon="4.79275">
        <ele>243</ele>
        <time>2018-09-04T09:29:53Z</time>
      </trkpt>
      <trkpt lat="45.98474" lon="4.79264">
        <ele>243</ele>
        <time>2018-09-04T09:29:55Z</time>
      </trkpt>
      <trkpt lat="45.9847" lon="4.79258">
        <ele>243</ele>
        <time>2018-09-04T09:29:56Z</time>
      </trkpt>
      <trkpt lat="45.98466" lon="4.7925">
        <ele>243</ele>
        <time>2018-09-04T09:29:57Z</time>
      </trkpt>
      <trkpt lat="45.98462" lon="4.79243">
        <ele>243</ele>
        <time>2018-09-04T09:29:58Z</time>
      </trkpt>
      <trkpt lat="45.98459" lon="4.79237">
        <ele>243</ele>
        <time>2018-09-04T09:29:59Z</time>
      </trkpt>
      <trkpt lat="45.98457" lon="4.79227">
        <ele>243</ele>
        <time>2018-09-04T09:30:00Z</time>
      </trkpt>
      <trkpt lat="45.98455" lon="4.79221">
        <ele>243</ele>
        <time>2018-09-04T09:30:01Z</time>
      </trkpt>
      <trkpt lat="45.98451" lon="4.79214">
        <ele>242</ele>
        <time>2018-09-04T09:30:02Z</time>
      </trkpt>
      <trkpt lat="45.98447" lon="4.79206">
        <ele>242</ele>
        <time>2018-09-04T09:30:03Z</time>
      </trkpt>
      <trkpt lat="45.98444" lon="4.79198">
        <ele>242</ele>
        <time>2018-09-04T09:30:04Z</time>
      </trkpt>
      <trkpt lat="45.98442" lon="4.79191">
        <ele>242</ele>
        <time>2018-09-04T09:30:05Z</time>
      </trkpt>
      <trkpt lat="45.98438" lon="4.79185">
        <ele>242</ele>
        <time>2018-09-04T09:30:06Z</time>
      </trkpt>
      <trkpt lat="45.98433" lon="4.79178">
        <ele>242</ele>
        <time>2018-09-04T09:30:07Z</time>
      </trkpt>
      <trkpt lat="45.9843" lon="4.79172">
        <ele>242</ele>
        <time>2018-09-04T09:30:08Z</time>
      </trkpt>
      <trkpt lat="45.98426" lon="4.79167">
        <ele>242</ele>
        <time>2018-09-04T09:30:09Z</time>
      </trkpt>
      <trkpt lat="45.98423" lon="4.7916">
        <ele>242</ele>
        <time>2018-09-04T09:30:10Z</time>
      </trkpt>
      <trkpt lat="45.98419" lon="4.79154">
        <ele>242</ele>
        <time>2018-09-04T09:30:11Z</time>
      </trkpt>
      <trkpt lat="45.98416" lon="4.79148">
        <ele>242</ele>
        <time>2018-09-04T09:30:12Z</time>
      </trkpt>
      <trkpt lat="45.98413" lon="4.79142">
        <ele>242</ele>
        <time>2018-09-04T09:30:13Z</time>
      </trkpt>
      <trkpt lat="45.98413" lon="4.79136">
        <ele>242</ele>
        <time>2018-09-04T09:30:14Z</time>
      </trkpt>
      <trkpt lat="45.98411" lon="4.7913">
        <ele>242</ele>
        <time>2018-09-04T09:30:15Z</time>
      </trkpt>
      <trkpt lat="45.98406" lon="4.79124">
        <ele>242</ele>
        <time>2018-09-04T09:30:16Z</time>
      </trkpt>
      <trkpt lat="45.98402" lon="4.79118">
        <ele>242</ele>
        <time>2018-09-04T09:30:17Z</time>
      </trkpt>
      <trkpt lat="45.98399" lon="4.79112">
        <ele>242</ele>
        <time>2018-09-04T09:30:18Z</time>
      </trkpt>
      <trkpt lat="45.98396" lon="4.79104">
        <ele>242</ele>
        <time>2018-09-04T09:30:19Z</time>
      </trkpt>
      <trkpt lat="45.98392" lon="4.79097">
        <ele>242</ele>
        <time>2018-09-04T09:30:20Z</time>
      </trkpt>
      <trkpt lat="45.98388" lon="4.79089">
        <ele>242</ele>
        <time>2018-09-04T09:30:21Z</time>
      </trkpt>
      <trkpt lat="45.98384" lon="4.79082">
        <ele>242</ele>
        <time>2018-09-04T09:30:22Z</time>
      </trkpt>
      <trkpt lat="45.98379" lon="4.79076">
        <ele>242</ele>
        <time>2018-09-04T09:30:23Z</time>
      </trkpt>
      <trkpt lat="45.98375" lon="4.79068">
        <ele>242</ele>
        <time>2018-09-04T09:30:24Z</time>
      </trkpt>
      <trkpt lat="45.98372" lon="4.79061">
        <ele>242</ele>
        <time>2018-09-04T09:30:25Z</time>
      </trkpt>
      <trkpt lat="45.98368" lon="4.79055">
        <ele>242</ele>
        <time>2018-09-04T09:30:26Z</time>
      </trkpt>
      <trkpt lat="45.98364" lon="4.79048">
        <ele>242</ele>
        <time>2018-09-04T09:30:27Z</time>
      </trkpt>
      <trkpt lat="45.98358" lon="4.79041">
        <ele>242</ele>
        <time>2018-09-04T09:30:28Z</time>
      </trkpt>
      <trkpt lat="45.98352" lon="4.79033">
        <ele>242</ele>
        <time>2018-09-04T09:30:29Z</time>
      </trkpt>
      <trkpt lat="45.98347" lon="4.79029">
        <ele>242</ele>
        <time>2018-09-04T09:30:30Z</time>
      </trkpt>
      <trkpt lat="45.98344" lon="4.79024">
        <ele>242</ele>
        <time>2018-09-04T09:30:31Z</time>
      </trkpt>
      <trkpt lat="45.98339" lon="4.79018">
        <ele>242</ele>
        <time>2018-09-04T09:30:32Z</time>
      </trkpt>
      <trkpt lat="45.98334" lon="4.79014">
        <ele>242</ele>
        <time>2018-09-04T09:30:33Z</time>
      </trkpt>
      <trkpt lat="45.98328" lon="4.79011">
        <ele>242</ele>
        <time>2018-09-04T09:30:34Z</time>
      </trkpt>
      <trkpt lat="45.98322" lon="4.79007">
        <ele>242</ele>
        <time>2018-09-04T09:30:35Z</time>
      </trkpt>
      <trkpt lat="45.98316" lon="4.79003">
        <ele>242</ele>
        <time>2018-09-04T09:30:36Z</time>
      </trkpt>
      <trkpt lat="45.98311" lon="4.78998">
        <ele>241</ele>
        <time>2018-09-04T09:30:37Z</time>
      </trkpt>
      <trkpt lat="45.98305" lon="4.78995">
        <ele>241</ele>
        <time>2018-09-04T09:30:38Z</time>
      </trkpt>
      <trkpt lat="45.98299" lon="4.78991">
        <ele>241</ele>
        <time>2018-09-04T09:30:39Z</time>
      </trkpt>
      <trkpt lat="45.98293" lon="4.78988">
        <ele>241</ele>
        <time>2018-09-04T09:30:40Z</time>
      </trkpt>
      <trkpt lat="45.98288" lon="4.78984">
        <ele>241</ele>
        <time>2018-09-04T09:30:41Z</time>
      </trkpt>
      <trkpt lat="45.98283" lon="4.78981">
        <ele>241</ele>
        <time>2018-09-04T09:30:42Z</time>
      </trkpt>
      <trkpt lat="45.98277" lon="4.78977">
        <ele>241</ele>
        <time>2018-09-04T09:30:43Z</time>
      </trkpt>
      <trkpt lat="45.9827" lon="4.78973">
        <ele>241</ele>
        <time>2018-09-04T09:30:44Z</time>
      </trkpt>
      <trkpt lat="45.98266" lon="4.78974">
        <ele>241</ele>
        <time>2018-09-04T09:30:45Z</time>
      </trkpt>
      <trkpt lat="45.98257" lon="4.7897">
        <ele>241</ele>
        <time>2018-09-04T09:30:46Z</time>
      </trkpt>
      <trkpt lat="45.98251" lon="4.78966">
        <ele>241</ele>
        <time>2018-09-04T09:30:47Z</time>
      </trkpt>
      <trkpt lat="45.98245" lon="4.78962">
        <ele>241</ele>
        <time>2018-09-04T09:30:48Z</time>
      </trkpt>
      <trkpt lat="45.9824" lon="4.78957">
        <ele>241</ele>
        <time>2018-09-04T09:30:49Z</time>
      </trkpt>
      <trkpt lat="45.98236" lon="4.78958">
        <ele>241</ele>
        <time>2018-09-04T09:30:50Z</time>
      </trkpt>
      <trkpt lat="45.98231" lon="4.78956">
        <ele>241</ele>
        <time>2018-09-04T09:30:51Z</time>
      </trkpt>
      <trkpt lat="45.98222" lon="4.7895">
        <ele>241</ele>
        <time>2018-09-04T09:30:52Z</time>
      </trkpt>
      <trkpt lat="45.98217" lon="4.78946">
        <ele>241</ele>
        <time>2018-09-04T09:30:53Z</time>
      </trkpt>
      <trkpt lat="45.98209" lon="4.78942">
        <ele>241</ele>
        <time>2018-09-04T09:30:54Z</time>
      </trkpt>
      <trkpt lat="45.98203" lon="4.78938">
        <ele>241</ele>
        <time>2018-09-04T09:30:55Z</time>
      </trkpt>
      <trkpt lat="45.98197" lon="4.78934">
        <ele>241</ele>
        <time>2018-09-04T09:30:56Z</time>
      </trkpt>
      <trkpt lat="45.9819" lon="4.78931">
        <ele>241</ele>
        <time>2018-09-04T09:30:57Z</time>
      </trkpt>
      <trkpt lat="45.98184" lon="4.78928">
        <ele>241</ele>
        <time>2018-09-04T09:30:58Z</time>
      </trkpt>
      <trkpt lat="45.98179" lon="4.78925">
        <ele>240</ele>
        <time>2018-09-04T09:30:59Z</time>
      </trkpt>
      <trkpt lat="45.98174" lon="4.78923">
        <ele>240</ele>
        <time>2018-09-04T09:31:00Z</time>
      </trkpt>
      <trkpt lat="45.98167" lon="4.78918">
        <ele>240</ele>
        <time>2018-09-04T09:31:01Z</time>
      </trkpt>
      <trkpt lat="45.98159" lon="4.78914">
        <ele>240</ele>
        <time>2018-09-04T09:31:02Z</time>
      </trkpt>
      <trkpt lat="45.98153" lon="4.78911">
        <ele>240</ele>
        <time>2018-09-04T09:31:03Z</time>
      </trkpt>
      <trkpt lat="45.98148" lon="4.78908">
        <ele>240</ele>
        <time>2018-09-04T09:31:04Z</time>
      </trkpt>
      <trkpt lat="45.98143" lon="4.78903">
        <ele>240</ele>
        <time>2018-09-04T09:31:05Z</time>
      </trkpt>
      <trkpt lat="45.98137" lon="4.789">
        <ele>240</ele>
        <time>2018-09-04T09:31:06Z</time>
      </trkpt>
      <trkpt lat="45.98132" lon="4.78896">
        <ele>240</ele>
        <time>2018-09-04T09:31:07Z</time>
      </trkpt>
      <trkpt lat="45.98126" lon="4.78897">
        <ele>240</ele>
        <time>2018-09-04T09:31:08Z</time>
      </trkpt>
      <trkpt lat="45.9812" lon="4.78893">
        <ele>240</ele>
        <time>2018-09-04T09:31:09Z</time>
      </trkpt>
      <trkpt lat="45.98113" lon="4.78892">
        <ele>240</ele>
        <time>2018-09-04T09:31:10Z</time>
      </trkpt>
      <trkpt lat="45.98107" lon="4.78889">
        <ele>240</ele>
        <time>2018-09-04T09:31:11Z</time>
      </trkpt>
      <trkpt lat="45.98099" lon="4.78884">
        <ele>240</ele>
        <time>2018-09-04T09:31:12Z</time>
      </trkpt>
      <trkpt lat="45.98094" lon="4.7888">
        <ele>240</ele>
        <time>2018-09-04T09:31:13Z</time>
      </trkpt>
      <trkpt lat="45.98088" lon="4.78876">
        <ele>240</ele>
        <time>2018-09-04T09:31:14Z</time>
      </trkpt>
      <trkpt lat="45.98082" lon="4.78872">
        <ele>239</ele>
        <time>2018-09-04T09:31:15Z</time>
      </trkpt>
      <trkpt lat="45.98076" lon="4.78867">
        <ele>239</ele>
        <time>2018-09-04T09:31:16Z</time>
      </trkpt>
      <trkpt lat="45.98071" lon="4.78862">
        <ele>239</ele>
        <time>2018-09-04T09:31:17Z</time>
      </trkpt>
      <trkpt lat="45.98065" lon="4.78859">
        <ele>239</ele>
        <time>2018-09-04T09:31:18Z</time>
      </trkpt>
      <trkpt lat="45.9806" lon="4.78854">
        <ele>239</ele>
        <time>2018-09-04T09:31:19Z</time>
      </trkpt>
      <trkpt lat="45.98055" lon="4.78849">
        <ele>239</ele>
        <time>2018-09-04T09:31:20Z</time>
      </trkpt>
      <trkpt lat="45.98049" lon="4.78844">
        <ele>239</ele>
        <time>2018-09-04T09:31:21Z</time>
      </trkpt>
      <trkpt lat="45.98044" lon="4.7884">
        <ele>238</ele>
        <time>2018-09-04T09:31:22Z</time>
      </trkpt>
      <trkpt lat="45.98038" lon="4.78836">
        <ele>238</ele>
        <time>2018-09-04T09:31:23Z</time>
      </trkpt>
      <trkpt lat="45.98033" lon="4.78829">
        <ele>238</ele>
        <time>2018-09-04T09:31:24Z</time>
      </trkpt>
      <trkpt lat="45.98025" lon="4.78825">
        <ele>238</ele>
        <time>2018-09-04T09:31:25Z</time>
      </trkpt>
      <trkpt lat="45.98019" lon="4.7882">
        <ele>238</ele>
        <time>2018-09-04T09:31:26Z</time>
      </trkpt>
      <trkpt lat="45.98012" lon="4.78816">
        <ele>238</ele>
        <time>2018-09-04T09:31:27Z</time>
      </trkpt>
      <trkpt lat="45.98005" lon="4.78811">
        <ele>238</ele>
        <time>2018-09-04T09:31:28Z</time>
      </trkpt>
      <trkpt lat="45.97999" lon="4.78806">
        <ele>238</ele>
        <time>2018-09-04T09:31:29Z</time>
      </trkpt>
      <trkpt lat="45.97993" lon="4.78802">
        <ele>238</ele>
        <time>2018-09-04T09:31:30Z</time>
      </trkpt>
      <trkpt lat="45.97987" lon="4.78798">
        <ele>238</ele>
        <time>2018-09-04T09:31:31Z</time>
      </trkpt>
      <trkpt lat="45.97981" lon="4.78793">
        <ele>238</ele>
        <time>2018-09-04T09:31:32Z</time>
      </trkpt>
      <trkpt lat="45.97975" lon="4.7879">
        <ele>238</ele>
        <time>2018-09-04T09:31:33Z</time>
      </trkpt>
      <trkpt lat="45.97969" lon="4.78786">
        <ele>238</ele>
        <time>2018-09-04T09:31:34Z</time>
      </trkpt>
      <trkpt lat="45.97963" lon="4.78781">
        <ele>238</ele>
        <time>2018-09-04T09:31:35Z</time>
      </trkpt>
      <trkpt lat="45.97957" lon="4.78777">
        <ele>238</ele>
        <time>2018-09-04T09:31:36Z</time>
      </trkpt>
      <trkpt lat="45.97952" lon="4.78773">
        <ele>238</ele>
        <time>2018-09-04T09:31:37Z</time>
      </trkpt>
      <trkpt lat="45.97947" lon="4.78769">
        <ele>238</ele>
        <time>2018-09-04T09:31:38Z</time>
      </trkpt>
      <trkpt lat="45.97941" lon="4.78764">
        <ele>238</ele>
        <time>2018-09-04T09:31:39Z</time>
      </trkpt>
      <trkpt lat="45.97936" lon="4.7876">
        <ele>238</ele>
        <time>2018-09-04T09:31:40Z</time>
      </trkpt>
      <trkpt lat="45.9793" lon="4.78756">
        <ele>237</ele>
        <time>2018-09-04T09:31:41Z</time>
      </trkpt>
      <trkpt lat="45.97924" lon="4.78751">
        <ele>237</ele>
        <time>2018-09-04T09:31:42Z</time>
      </trkpt>
      <trkpt lat="45.97918" lon="4.78747">
        <ele>237</ele>
        <time>2018-09-04T09:31:43Z</time>
      </trkpt>
      <trkpt lat="45.9791" lon="4.78742">
        <ele>237</ele>
        <time>2018-09-04T09:31:44Z</time>
      </trkpt>
      <trkpt lat="45.97903" lon="4.78735">
        <ele>237</ele>
        <time>2018-09-04T09:31:45Z</time>
      </trkpt>
      <trkpt lat="45.97897" lon="4.7873">
        <ele>237</ele>
        <time>2018-09-04T09:31:46Z</time>
      </trkpt>
      <trkpt lat="45.97889" lon="4.78725">
        <ele>236</ele>
        <time>2018-09-04T09:31:47Z</time>
      </trkpt>
      <trkpt lat="45.97883" lon="4.78724">
        <ele>236</ele>
        <time>2018-09-04T09:31:48Z</time>
      </trkpt>
      <trkpt lat="45.97877" lon="4.78719">
        <ele>236</ele>
        <time>2018-09-04T09:31:49Z</time>
      </trkpt>
      <trkpt lat="45.97871" lon="4.78715">
        <ele>236</ele>
        <time>2018-09-04T09:31:50Z</time>
      </trkpt>
      <trkpt lat="45.97866" lon="4.7871">
        <ele>236</ele>
        <time>2018-09-04T09:31:51Z</time>
      </trkpt>
      <trkpt lat="45.9786" lon="4.78707">
        <ele>236</ele>
        <time>2018-09-04T09:31:52Z</time>
      </trkpt>
      <trkpt lat="45.97854" lon="4.78701">
        <ele>236</ele>
        <time>2018-09-04T09:31:53Z</time>
      </trkpt>
      <trkpt lat="45.97848" lon="4.78697">
        <ele>236</ele>
        <time>2018-09-04T09:31:54Z</time>
      </trkpt>
      <trkpt lat="45.97841" lon="4.78693">
        <ele>236</ele>
        <time>2018-09-04T09:31:55Z</time>
      </trkpt>
      <trkpt lat="45.97836" lon="4.78689">
        <ele>236</ele>
        <time>2018-09-04T09:31:56Z</time>
      </trkpt>
      <trkpt lat="45.9783" lon="4.78685">
        <ele>235</ele>
        <time>2018-09-04T09:31:57Z</time>
      </trkpt>
      <trkpt lat="45.97824" lon="4.78684">
        <ele>235</ele>
        <time>2018-09-04T09:31:58Z</time>
      </trkpt>
      <trkpt lat="45.97819" lon="4.78682">
        <ele>235</ele>
        <time>2018-09-04T09:31:59Z</time>
      </trkpt>
      <trkpt lat="45.97812" lon="4.78677">
        <ele>235</ele>
        <time>2018-09-04T09:32:00Z</time>
      </trkpt>
      <trkpt lat="45.97804" lon="4.78673">
        <ele>235</ele>
        <time>2018-09-04T09:32:01Z</time>
      </trkpt>
      <trkpt lat="45.97796" lon="4.7867">
        <ele>235</ele>
        <time>2018-09-04T09:32:02Z</time>
      </trkpt>
      <trkpt lat="45.97789" lon="4.78666">
        <ele>235</ele>
        <time>2018-09-04T09:32:03Z</time>
      </trkpt>
      <trkpt lat="45.97782" lon="4.78663">
        <ele>235</ele>
        <time>2018-09-04T09:32:04Z</time>
      </trkpt>
      <trkpt lat="45.97776" lon="4.7866">
        <ele>235</ele>
        <time>2018-09-04T09:32:05Z</time>
      </trkpt>
      <trkpt lat="45.97769" lon="4.78657">
        <ele>235</ele>
        <time>2018-09-04T09:32:06Z</time>
      </trkpt>
      <trkpt lat="45.97762" lon="4.78654">
        <ele>235</ele>
        <time>2018-09-04T09:32:07Z</time>
      </trkpt>
      <trkpt lat="45.97755" lon="4.78651">
        <ele>235</ele>
        <time>2018-09-04T09:32:08Z</time>
      </trkpt>
      <trkpt lat="45.97749" lon="4.78649">
        <ele>234</ele>
        <time>2018-09-04T09:32:09Z</time>
      </trkpt>
      <trkpt lat="45.97744" lon="4.78646">
        <ele>234</ele>
        <time>2018-09-04T09:32:10Z</time>
      </trkpt>
      <trkpt lat="45.97738" lon="4.78643">
        <ele>234</ele>
        <time>2018-09-04T09:32:11Z</time>
      </trkpt>
      <trkpt lat="45.9773" lon="4.78641">
        <ele>234</ele>
        <time>2018-09-04T09:32:12Z</time>
      </trkpt>
      <trkpt lat="45.97725" lon="4.78638">
        <ele>234</ele>
        <time>2018-09-04T09:32:13Z</time>
      </trkpt>
      <trkpt lat="45.97719" lon="4.78635">
        <ele>234</ele>
        <time>2018-09-04T09:32:14Z</time>
      </trkpt>
      <trkpt lat="45.97713" lon="4.78632">
        <ele>234</ele>
        <time>2018-09-04T09:32:15Z</time>
      </trkpt>
      <trkpt lat="45.97702" lon="4.78628">
        <ele>234</ele>
        <time>2018-09-04T09:32:16Z</time>
      </trkpt>
      <trkpt lat="45.97696" lon="4.78625">
        <ele>234</ele>
        <time>2018-09-04T09:32:17Z</time>
      </trkpt>
      <trkpt lat="45.97691" lon="4.78623">
        <ele>234</ele>
        <time>2018-09-04T09:32:18Z</time>
      </trkpt>
      <trkpt lat="45.97685" lon="4.78621">
        <ele>234</ele>
        <time>2018-09-04T09:32:19Z</time>
      </trkpt>
      <trkpt lat="45.97678" lon="4.78616">
        <ele>234</ele>
        <time>2018-09-04T09:32:20Z</time>
      </trkpt>
      <trkpt lat="45.97674" lon="4.78617">
        <ele>234</ele>
        <time>2018-09-04T09:32:21Z</time>
      </trkpt>
      <trkpt lat="45.97668" lon="4.78614">
        <ele>234</ele>
        <time>2018-09-04T09:32:22Z</time>
      </trkpt>
      <trkpt lat="45.97662" lon="4.78612">
        <ele>233</ele>
        <time>2018-09-04T09:32:23Z</time>
      </trkpt>
      <trkpt lat="45.97657" lon="4.7861">
        <ele>233</ele>
        <time>2018-09-04T09:32:24Z</time>
      </trkpt>
      <trkpt lat="45.97649" lon="4.78607">
        <ele>233</ele>
        <time>2018-09-04T09:32:25Z</time>
      </trkpt>
      <trkpt lat="45.97642" lon="4.78604">
        <ele>233</ele>
        <time>2018-09-04T09:32:26Z</time>
      </trkpt>
      <trkpt lat="45.97636" lon="4.78601">
        <ele>233</ele>
        <time>2018-09-04T09:32:27Z</time>
      </trkpt>
      <trkpt lat="45.97629" lon="4.78599">
        <ele>233</ele>
        <time>2018-09-04T09:32:28Z</time>
      </trkpt>
      <trkpt lat="45.97623" lon="4.78597">
        <ele>233</ele>
        <time>2018-09-04T09:32:29Z</time>
      </trkpt>
      <trkpt lat="45.97618" lon="4.78593">
        <ele>233</ele>
        <time>2018-09-04T09:32:30Z</time>
      </trkpt>
      <trkpt lat="45.97612" lon="4.78591">
        <ele>233</ele>
        <time>2018-09-04T09:32:31Z</time>
      </trkpt>
      <trkpt lat="45.97607" lon="4.78589">
        <ele>233</ele>
        <time>2018-09-04T09:32:32Z</time>
      </trkpt>
      <trkpt lat="45.97601" lon="4.78586">
        <ele>233</ele>
        <time>2018-09-04T09:32:33Z</time>
      </trkpt>
      <trkpt lat="45.97594" lon="4.78584">
        <ele>233</ele>
        <time>2018-09-04T09:32:34Z</time>
      </trkpt>
      <trkpt lat="45.9759" lon="4.78583">
        <ele>233</ele>
        <time>2018-09-04T09:32:35Z</time>
      </trkpt>
      <trkpt lat="45.97585" lon="4.78581">
        <ele>233</ele>
        <time>2018-09-04T09:32:36Z</time>
      </trkpt>
      <trkpt lat="45.97579" lon="4.78579">
        <ele>233</ele>
        <time>2018-09-04T09:32:37Z</time>
      </trkpt>
      <trkpt lat="45.97575" lon="4.7858">
        <ele>233</ele>
        <time>2018-09-04T09:32:38Z</time>
      </trkpt>
      <trkpt lat="45.97569" lon="4.78577">
        <ele>233</ele>
        <time>2018-09-04T09:32:39Z</time>
      </trkpt>
      <trkpt lat="45.97564" lon="4.78576">
        <ele>233</ele>
        <time>2018-09-04T09:32:40Z</time>
      </trkpt>
      <trkpt lat="45.9756" lon="4.78574">
        <ele>233</ele>
        <time>2018-09-04T09:32:41Z</time>
      </trkpt>
      <trkpt lat="45.97553" lon="4.78571">
        <ele>234</ele>
        <time>2018-09-04T09:32:42Z</time>
      </trkpt>
      <trkpt lat="45.97549" lon="4.78571">
        <ele>234</ele>
        <time>2018-09-04T09:32:43Z</time>
      </trkpt>
      <trkpt lat="45.97543" lon="4.78569">
        <ele>234</ele>
        <time>2018-09-04T09:32:44Z</time>
      </trkpt>
      <trkpt lat="45.97537" lon="4.78566">
        <ele>234</ele>
        <time>2018-09-04T09:32:45Z</time>
      </trkpt>
      <trkpt lat="45.97531" lon="4.78563">
        <ele>234</ele>
        <time>2018-09-04T09:32:46Z</time>
      </trkpt>
      <trkpt lat="45.97526" lon="4.78559">
        <ele>234</ele>
        <time>2018-09-04T09:32:47Z</time>
      </trkpt>
      <trkpt lat="45.9752" lon="4.78557">
        <ele>234</ele>
        <time>2018-09-04T09:32:48Z</time>
      </trkpt>
      <trkpt lat="45.97515" lon="4.78553">
        <ele>234</ele>
        <time>2018-09-04T09:32:49Z</time>
      </trkpt>
      <trkpt lat="45.97509" lon="4.78548">
        <ele>234</ele>
        <time>2018-09-04T09:32:50Z</time>
      </trkpt>
      <trkpt lat="45.97503" lon="4.78543">
        <ele>234</ele>
        <time>2018-09-04T09:32:51Z</time>
      </trkpt>
      <trkpt lat="45.97498" lon="4.78538">
        <ele>233</ele>
        <time>2018-09-04T09:32:52Z</time>
      </trkpt>
      <trkpt lat="45.97492" lon="4.78532">
        <ele>233</ele>
        <time>2018-09-04T09:32:53Z</time>
      </trkpt>
      <trkpt lat="45.97485" lon="4.78528">
        <ele>233</ele>
        <time>2018-09-04T09:32:54Z</time>
      </trkpt>
      <trkpt lat="45.97479" lon="4.78523">
        <ele>233</ele>
        <time>2018-09-04T09:32:55Z</time>
      </trkpt>
      <trkpt lat="45.97474" lon="4.78519">
        <ele>233</ele>
        <time>2018-09-04T09:32:56Z</time>
      </trkpt>
      <trkpt lat="45.97468" lon="4.78514">
        <ele>233</ele>
        <time>2018-09-04T09:32:57Z</time>
      </trkpt>
      <trkpt lat="45.97463" lon="4.78512">
        <ele>233</ele>
        <time>2018-09-04T09:32:58Z</time>
      </trkpt>
      <trkpt lat="45.97456" lon="4.78508">
        <ele>234</ele>
        <time>2018-09-04T09:32:59Z</time>
      </trkpt>
      <trkpt lat="45.97451" lon="4.78503">
        <ele>234</ele>
        <time>2018-09-04T09:33:00Z</time>
      </trkpt>
      <trkpt lat="45.97446" lon="4.78499">
        <ele>234</ele>
        <time>2018-09-04T09:33:01Z</time>
      </trkpt>
      <trkpt lat="45.9744" lon="4.78494">
        <ele>234</ele>
        <time>2018-09-04T09:33:02Z</time>
      </trkpt>
      <trkpt lat="45.97435" lon="4.78489">
        <ele>234</ele>
        <time>2018-09-04T09:33:03Z</time>
      </trkpt>
      <trkpt lat="45.97429" lon="4.78485">
        <ele>234</ele>
        <time>2018-09-04T09:33:04Z</time>
      </trkpt>
      <trkpt lat="45.97423" lon="4.7848">
        <ele>234</ele>
        <time>2018-09-04T09:33:05Z</time>
      </trkpt>
      <trkpt lat="45.97418" lon="4.78475">
        <ele>234</ele>
        <time>2018-09-04T09:33:06Z</time>
      </trkpt>
      <trkpt lat="45.97413" lon="4.7847">
        <ele>233</ele>
        <time>2018-09-04T09:33:07Z</time>
      </trkpt>
      <trkpt lat="45.97408" lon="4.78465">
        <ele>233</ele>
        <time>2018-09-04T09:33:08Z</time>
      </trkpt>
      <trkpt lat="45.97403" lon="4.78461">
        <ele>233</ele>
        <time>2018-09-04T09:33:09Z</time>
      </trkpt>
      <trkpt lat="45.97399" lon="4.78456">
        <ele>233</ele>
        <time>2018-09-04T09:33:10Z</time>
      </trkpt>
      <trkpt lat="45.97394" lon="4.78452">
        <ele>233</ele>
        <time>2018-09-04T09:33:11Z</time>
      </trkpt>
      <trkpt lat="45.97389" lon="4.7845">
        <ele>233</ele>
        <time>2018-09-04T09:33:12Z</time>
      </trkpt>
      <trkpt lat="45.97385" lon="4.78444">
        <ele>233</ele>
        <time>2018-09-04T09:33:13Z</time>
      </trkpt>
      <trkpt lat="45.9738" lon="4.78438">
        <ele>233</ele>
        <time>2018-09-04T09:33:14Z</time>
      </trkpt>
      <trkpt lat="45.97377" lon="4.78433">
        <ele>233</ele>
        <time>2018-09-04T09:33:15Z</time>
      </trkpt>
      <trkpt lat="45.97371" lon="4.78428">
        <ele>233</ele>
        <time>2018-09-04T09:33:16Z</time>
      </trkpt>
      <trkpt lat="45.97366" lon="4.78423">
        <ele>233</ele>
        <time>2018-09-04T09:33:17Z</time>
      </trkpt>
      <trkpt lat="45.97361" lon="4.78418">
        <ele>233</ele>
        <time>2018-09-04T09:33:18Z</time>
      </trkpt>
      <trkpt lat="45.97356" lon="4.78413">
        <ele>232</ele>
        <time>2018-09-04T09:33:19Z</time>
      </trkpt>
      <trkpt lat="45.97351" lon="4.78408">
        <ele>232</ele>
        <time>2018-09-04T09:33:20Z</time>
      </trkpt>
      <trkpt lat="45.97347" lon="4.78403">
        <ele>232</ele>
        <time>2018-09-04T09:33:21Z</time>
      </trkpt>
      <trkpt lat="45.97342" lon="4.78398">
        <ele>232</ele>
        <time>2018-09-04T09:33:22Z</time>
      </trkpt>
      <trkpt lat="45.97336" lon="4.78391">
        <ele>233</ele>
        <time>2018-09-04T09:33:24Z</time>
      </trkpt>
      <trkpt lat="45.97334" lon="4.78384">
        <ele>233</ele>
        <time>2018-09-04T09:33:25Z</time>
      </trkpt>
      <trkpt lat="45.97325" lon="4.78377">
        <ele>232</ele>
        <time>2018-09-04T09:33:26Z</time>
      </trkpt>
      <trkpt lat="45.97318" lon="4.7837">
        <ele>232</ele>
        <time>2018-09-04T09:33:27Z</time>
      </trkpt>
      <trkpt lat="45.97314" lon="4.78365">
        <ele>232</ele>
        <time>2018-09-04T09:33:28Z</time>
      </trkpt>
      <trkpt lat="45.97308" lon="4.78358">
        <ele>232</ele>
        <time>2018-09-04T09:33:29Z</time>
      </trkpt>
      <trkpt lat="45.97303" lon="4.78351">
        <ele>232</ele>
        <time>2018-09-04T09:33:30Z</time>
      </trkpt>
      <trkpt lat="45.97298" lon="4.78344">
        <ele>232</ele>
        <time>2018-09-04T09:33:31Z</time>
      </trkpt>
      <trkpt lat="45.97293" lon="4.7834">
        <ele>232</ele>
        <time>2018-09-04T09:33:32Z</time>
      </trkpt>
      <trkpt lat="45.97289" lon="4.78333">
        <ele>232</ele>
        <time>2018-09-04T09:33:33Z</time>
      </trkpt>
      <trkpt lat="45.97284" lon="4.78326">
        <ele>232</ele>
        <time>2018-09-04T09:33:34Z</time>
      </trkpt>
      <trkpt lat="45.97278" lon="4.78317">
        <ele>232</ele>
        <time>2018-09-04T09:33:35Z</time>
      </trkpt>
      <trkpt lat="45.97274" lon="4.7831">
        <ele>232</ele>
        <time>2018-09-04T09:33:36Z</time>
      </trkpt>
      <trkpt lat="45.97271" lon="4.78306">
        <ele>232</ele>
        <time>2018-09-04T09:33:37Z</time>
      </trkpt>
      <trkpt lat="45.97266" lon="4.78299">
        <ele>232</ele>
        <time>2018-09-04T09:33:38Z</time>
      </trkpt>
      <trkpt lat="45.97261" lon="4.78292">
        <ele>232</ele>
        <time>2018-09-04T09:33:39Z</time>
      </trkpt>
      <trkpt lat="45.97259" lon="4.78286">
        <ele>232</ele>
        <time>2018-09-04T09:33:40Z</time>
      </trkpt>
      <trkpt lat="45.97254" lon="4.78279">
        <ele>232</ele>
        <time>2018-09-04T09:33:41Z</time>
      </trkpt>
      <trkpt lat="45.97251" lon="4.78274">
        <ele>232</ele>
        <time>2018-09-04T09:33:42Z</time>
      </trkpt>
      <trkpt lat="45.97247" lon="4.78267">
        <ele>231</ele>
        <time>2018-09-04T09:33:43Z</time>
      </trkpt>
      <trkpt lat="45.97243" lon="4.7826">
        <ele>231</ele>
        <time>2018-09-04T09:33:44Z</time>
      </trkpt>
      <trkpt lat="45.97239" lon="4.78253">
        <ele>231</ele>
        <time>2018-09-04T09:33:45Z</time>
      </trkpt>
      <trkpt lat="45.97235" lon="4.78245">
        <ele>231</ele>
        <time>2018-09-04T09:33:46Z</time>
      </trkpt>
      <trkpt lat="45.9723" lon="4.78238">
        <ele>231</ele>
        <time>2018-09-04T09:33:47Z</time>
      </trkpt>
      <trkpt lat="45.97225" lon="4.78231">
        <ele>231</ele>
        <time>2018-09-04T09:33:48Z</time>
      </trkpt>
      <trkpt lat="45.9722" lon="4.78224">
        <ele>231</ele>
        <time>2018-09-04T09:33:49Z</time>
      </trkpt>
      <trkpt lat="45.97216" lon="4.78217">
        <ele>231</ele>
        <time>2018-09-04T09:33:50Z</time>
      </trkpt>
      <trkpt lat="45.97212" lon="4.7821">
        <ele>231</ele>
        <time>2018-09-04T09:33:51Z</time>
      </trkpt>
      <trkpt lat="45.97209" lon="4.78202">
        <ele>231</ele>
        <time>2018-09-04T09:33:52Z</time>
      </trkpt>
      <trkpt lat="45.97205" lon="4.78196">
        <ele>231</ele>
        <time>2018-09-04T09:33:53Z</time>
      </trkpt>
      <trkpt lat="45.97202" lon="4.78189">
        <ele>231</ele>
        <time>2018-09-04T09:33:54Z</time>
      </trkpt>
      <trkpt lat="45.97198" lon="4.78181">
        <ele>231</ele>
        <time>2018-09-04T09:33:55Z</time>
      </trkpt>
      <trkpt lat="45.97196" lon="4.78175">
        <ele>231</ele>
        <time>2018-09-04T09:33:56Z</time>
      </trkpt>
      <trkpt lat="45.97193" lon="4.78168">
        <ele>231</ele>
        <time>2018-09-04T09:33:57Z</time>
      </trkpt>
      <trkpt lat="45.97189" lon="4.78161">
        <ele>231</ele>
        <time>2018-09-04T09:33:58Z</time>
      </trkpt>
      <trkpt lat="45.97187" lon="4.78155">
        <ele>231</ele>
        <time>2018-09-04T09:33:59Z</time>
      </trkpt>
      <trkpt lat="45.97184" lon="4.78148">
        <ele>231</ele>
        <time>2018-09-04T09:34:00Z</time>
      </trkpt>
      <trkpt lat="45.9718" lon="4.78142">
        <ele>231</ele>
        <time>2018-09-04T09:34:01Z</time>
      </trkpt>
      <trkpt lat="45.97176" lon="4.78137">
        <ele>231</ele>
        <time>2018-09-04T09:34:02Z</time>
      </trkpt>
      <trkpt lat="45.97174" lon="4.7813">
        <ele>231</ele>
        <time>2018-09-04T09:34:03Z</time>
      </trkpt>
      <trkpt lat="45.9717" lon="4.78124">
        <ele>231</ele>
        <time>2018-09-04T09:34:04Z</time>
      </trkpt>
      <trkpt lat="45.97167" lon="4.78118">
        <ele>231</ele>
        <time>2018-09-04T09:34:05Z</time>
      </trkpt>
      <trkpt lat="45.97164" lon="4.78111">
        <ele>230</ele>
        <time>2018-09-04T09:34:06Z</time>
      </trkpt>
      <trkpt lat="45.9716" lon="4.78105">
        <ele>230</ele>
        <time>2018-09-04T09:34:07Z</time>
      </trkpt>
      <trkpt lat="45.97157" lon="4.78098">
        <ele>230</ele>
        <time>2018-09-04T09:34:08Z</time>
      </trkpt>
      <trkpt lat="45.97152" lon="4.78091">
        <ele>230</ele>
        <time>2018-09-04T09:34:09Z</time>
      </trkpt>
      <trkpt lat="45.97148" lon="4.78085">
        <ele>230</ele>
        <time>2018-09-04T09:34:10Z</time>
      </trkpt>
      <trkpt lat="45.97142" lon="4.78078">
        <ele>230</ele>
        <time>2018-09-04T09:34:11Z</time>
      </trkpt>
      <trkpt lat="45.97138" lon="4.78071">
        <ele>230</ele>
        <time>2018-09-04T09:34:12Z</time>
      </trkpt>
      <trkpt lat="45.97132" lon="4.78064">
        <ele>230</ele>
        <time>2018-09-04T09:34:13Z</time>
      </trkpt>
      <trkpt lat="45.97124" lon="4.78062">
        <ele>229</ele>
        <time>2018-09-04T09:34:14Z</time>
      </trkpt>
      <trkpt lat="45.97119" lon="4.78057">
        <ele>229</ele>
        <time>2018-09-04T09:34:15Z</time>
      </trkpt>
      <trkpt lat="45.97112" lon="4.78052">
        <ele>229</ele>
        <time>2018-09-04T09:34:16Z</time>
      </trkpt>
      <trkpt lat="45.97107" lon="4.78044">
        <ele>229</ele>
        <time>2018-09-04T09:34:17Z</time>
      </trkpt>
      <trkpt lat="45.97104" lon="4.78039">
        <ele>229</ele>
        <time>2018-09-04T09:34:18Z</time>
      </trkpt>
      <trkpt lat="45.97097" lon="4.78038">
        <ele>229</ele>
        <time>2018-09-04T09:34:19Z</time>
      </trkpt>
      <trkpt lat="45.97091" lon="4.78032">
        <ele>229</ele>
        <time>2018-09-04T09:34:20Z</time>
      </trkpt>
      <trkpt lat="45.97085" lon="4.78025">
        <ele>229</ele>
        <time>2018-09-04T09:34:21Z</time>
      </trkpt>
      <trkpt lat="45.97081" lon="4.7802">
        <ele>229</ele>
        <time>2018-09-04T09:34:22Z</time>
      </trkpt>
      <trkpt lat="45.97074" lon="4.78014">
        <ele>229</ele>
        <time>2018-09-04T09:34:23Z</time>
      </trkpt>
      <trkpt lat="45.97068" lon="4.78008">
        <ele>229</ele>
        <time>2018-09-04T09:34:24Z</time>
      </trkpt>
      <trkpt lat="45.97063" lon="4.78004">
        <ele>229</ele>
        <time>2018-09-04T09:34:25Z</time>
      </trkpt>
      <trkpt lat="45.97058" lon="4.77999">
        <ele>229</ele>
        <time>2018-09-04T09:34:26Z</time>
      </trkpt>
      <trkpt lat="45.97053" lon="4.77993">
        <ele>229</ele>
        <time>2018-09-04T09:34:27Z</time>
      </trkpt>
      <trkpt lat="45.97047" lon="4.77987">
        <ele>229</ele>
        <time>2018-09-04T09:34:28Z</time>
      </trkpt>
      <trkpt lat="45.97042" lon="4.77981">
        <ele>229</ele>
        <time>2018-09-04T09:34:29Z</time>
      </trkpt>
      <trkpt lat="45.97036" lon="4.77975">
        <ele>229</ele>
        <time>2018-09-04T09:34:30Z</time>
      </trkpt>
      <trkpt lat="45.97031" lon="4.77969">
        <ele>229</ele>
        <time>2018-09-04T09:34:31Z</time>
      </trkpt>
      <trkpt lat="45.97025" lon="4.77963">
        <ele>228</ele>
        <time>2018-09-04T09:34:32Z</time>
      </trkpt>
      <trkpt lat="45.9702" lon="4.77956">
        <ele>228</ele>
        <time>2018-09-04T09:34:33Z</time>
      </trkpt>
      <trkpt lat="45.97014" lon="4.77949">
        <ele>228</ele>
        <time>2018-09-04T09:34:34Z</time>
      </trkpt>
      <trkpt lat="45.97009" lon="4.77942">
        <ele>228</ele>
        <time>2018-09-04T09:34:35Z</time>
      </trkpt>
      <trkpt lat="45.97004" lon="4.77935">
        <ele>228</ele>
        <time>2018-09-04T09:34:36Z</time>
      </trkpt>
      <trkpt lat="45.96999" lon="4.77928">
        <ele>227</ele>
        <time>2018-09-04T09:34:37Z</time>
      </trkpt>
      <trkpt lat="45.96994" lon="4.77921">
        <ele>227</ele>
        <time>2018-09-04T09:34:38Z</time>
      </trkpt>
      <trkpt lat="45.96989" lon="4.77915">
        <ele>227</ele>
        <time>2018-09-04T09:34:39Z</time>
      </trkpt>
      <trkpt lat="45.96983" lon="4.77908">
        <ele>227</ele>
        <time>2018-09-04T09:34:40Z</time>
      </trkpt>
      <trkpt lat="45.96978" lon="4.77901">
        <ele>227</ele>
        <time>2018-09-04T09:34:41Z</time>
      </trkpt>
      <trkpt lat="45.96973" lon="4.77895">
        <ele>228</ele>
        <time>2018-09-04T09:34:42Z</time>
      </trkpt>
      <trkpt lat="45.96968" lon="4.77888">
        <ele>228</ele>
        <time>2018-09-04T09:34:43Z</time>
      </trkpt>
      <trkpt lat="45.96962" lon="4.77882">
        <ele>228</ele>
        <time>2018-09-04T09:34:44Z</time>
      </trkpt>
      <trkpt lat="45.96958" lon="4.77874">
        <ele>228</ele>
        <time>2018-09-04T09:34:45Z</time>
      </trkpt>
      <trkpt lat="45.96953" lon="4.77867">
        <ele>228</ele>
        <time>2018-09-04T09:34:46Z</time>
      </trkpt>
      <trkpt lat="45.96947" lon="4.77859">
        <ele>228</ele>
        <time>2018-09-04T09:34:47Z</time>
      </trkpt>
      <trkpt lat="45.96941" lon="4.77852">
        <ele>228</ele>
        <time>2018-09-04T09:34:48Z</time>
      </trkpt>
      <trkpt lat="45.96935" lon="4.77847">
        <ele>228</ele>
        <time>2018-09-04T09:34:49Z</time>
      </trkpt>
      <trkpt lat="45.96928" lon="4.77842">
        <ele>228</ele>
        <time>2018-09-04T09:34:50Z</time>
      </trkpt>
      <trkpt lat="45.96921" lon="4.77835">
        <ele>228</ele>
        <time>2018-09-04T09:34:51Z</time>
      </trkpt>
      <trkpt lat="45.96913" lon="4.77829">
        <ele>228</ele>
        <time>2018-09-04T09:34:52Z</time>
      </trkpt>
      <trkpt lat="45.96907" lon="4.77822">
        <ele>228</ele>
        <time>2018-09-04T09:34:53Z</time>
      </trkpt>
      <trkpt lat="45.96901" lon="4.77816">
        <ele>228</ele>
        <time>2018-09-04T09:34:54Z</time>
      </trkpt>
      <trkpt lat="45.96894" lon="4.77809">
        <ele>228</ele>
        <time>2018-09-04T09:34:55Z</time>
      </trkpt>
      <trkpt lat="45.96888" lon="4.77804">
        <ele>228</ele>
        <time>2018-09-04T09:34:56Z</time>
      </trkpt>
      <trkpt lat="45.96882" lon="4.77798">
        <ele>228</ele>
        <time>2018-09-04T09:34:57Z</time>
      </trkpt>
      <trkpt lat="45.96875" lon="4.77791">
        <ele>228</ele>
        <time>2018-09-04T09:34:58Z</time>
      </trkpt>
      <trkpt lat="45.9687" lon="4.77786">
        <ele>228</ele>
        <time>2018-09-04T09:34:59Z</time>
      </trkpt>
      <trkpt lat="45.96863" lon="4.7778">
        <ele>228</ele>
        <time>2018-09-04T09:35:00Z</time>
      </trkpt>
      <trkpt lat="45.96856" lon="4.77773">
        <ele>228</ele>
        <time>2018-09-04T09:35:01Z</time>
      </trkpt>
      <trkpt lat="45.9685" lon="4.77767">
        <ele>228</ele>
        <time>2018-09-04T09:35:02Z</time>
      </trkpt>
      <trkpt lat="45.96844" lon="4.77759">
        <ele>228</ele>
        <time>2018-09-04T09:35:03Z</time>
      </trkpt>
      <trkpt lat="45.96837" lon="4.77752">
        <ele>228</ele>
        <time>2018-09-04T09:35:04Z</time>
      </trkpt>
      <trkpt lat="45.96831" lon="4.77745">
        <ele>228</ele>
        <time>2018-09-04T09:35:05Z</time>
      </trkpt>
      <trkpt lat="45.96825" lon="4.7774">
        <ele>228</ele>
        <time>2018-09-04T09:35:06Z</time>
      </trkpt>
      <trkpt lat="45.96819" lon="4.77733">
        <ele>228</ele>
        <time>2018-09-04T09:35:07Z</time>
      </trkpt>
      <trkpt lat="45.96813" lon="4.77726">
        <ele>228</ele>
        <time>2018-09-04T09:35:08Z</time>
      </trkpt>
      <trkpt lat="45.96807" lon="4.7772">
        <ele>228</ele>
        <time>2018-09-04T09:35:09Z</time>
      </trkpt>
      <trkpt lat="45.96802" lon="4.77713">
        <ele>228</ele>
        <time>2018-09-04T09:35:10Z</time>
      </trkpt>
      <trkpt lat="45.96796" lon="4.77705">
        <ele>228</ele>
        <time>2018-09-04T09:35:11Z</time>
      </trkpt>
      <trkpt lat="45.96791" lon="4.77697">
        <ele>227</ele>
        <time>2018-09-04T09:35:12Z</time>
      </trkpt>
      <trkpt lat="45.96785" lon="4.7769">
        <ele>227</ele>
        <time>2018-09-04T09:35:13Z</time>
      </trkpt>
      <trkpt lat="45.96779" lon="4.77685">
        <ele>227</ele>
        <time>2018-09-04T09:35:14Z</time>
      </trkpt>
      <trkpt lat="45.96774" lon="4.77678">
        <ele>227</ele>
        <time>2018-09-04T09:35:15Z</time>
      </trkpt>
      <trkpt lat="45.9677" lon="4.77672">
        <ele>227</ele>
        <time>2018-09-04T09:35:16Z</time>
      </trkpt>
      <trkpt lat="45.96765" lon="4.77665">
        <ele>227</ele>
        <time>2018-09-04T09:35:17Z</time>
      </trkpt>
      <trkpt lat="45.96759" lon="4.77659">
        <ele>227</ele>
        <time>2018-09-04T09:35:18Z</time>
      </trkpt>
      <trkpt lat="45.96755" lon="4.77651">
        <ele>227</ele>
        <time>2018-09-04T09:35:19Z</time>
      </trkpt>
      <trkpt lat="45.96751" lon="4.77647">
        <ele>227</ele>
        <time>2018-09-04T09:35:20Z</time>
      </trkpt>
      <trkpt lat="45.96746" lon="4.77642">
        <ele>227</ele>
        <time>2018-09-04T09:35:21Z</time>
      </trkpt>
      <trkpt lat="45.96741" lon="4.77636">
        <ele>227</ele>
        <time>2018-09-04T09:35:22Z</time>
      </trkpt>
      <trkpt lat="45.96736" lon="4.7763">
        <ele>226</ele>
        <time>2018-09-04T09:35:23Z</time>
      </trkpt>
      <trkpt lat="45.96731" lon="4.77624">
        <ele>226</ele>
        <time>2018-09-04T09:35:24Z</time>
      </trkpt>
      <trkpt lat="45.96727" lon="4.77617">
        <ele>226</ele>
        <time>2018-09-04T09:35:25Z</time>
      </trkpt>
      <trkpt lat="45.96723" lon="4.77611">
        <ele>226</ele>
        <time>2018-09-04T09:35:26Z</time>
      </trkpt>
      <trkpt lat="45.96714" lon="4.77604">
        <ele>226</ele>
        <time>2018-09-04T09:35:27Z</time>
      </trkpt>
      <trkpt lat="45.96708" lon="4.77598">
        <ele>226</ele>
        <time>2018-09-04T09:35:28Z</time>
      </trkpt>
      <trkpt lat="45.96702" lon="4.77592">
        <ele>226</ele>
        <time>2018-09-04T09:35:29Z</time>
      </trkpt>
      <trkpt lat="45.96698" lon="4.7759">
        <ele>226</ele>
        <time>2018-09-04T09:35:30Z</time>
      </trkpt>
      <trkpt lat="45.96691" lon="4.77584">
        <ele>226</ele>
        <time>2018-09-04T09:35:31Z</time>
      </trkpt>
      <trkpt lat="45.96686" lon="4.77578">
        <ele>225</ele>
        <time>2018-09-04T09:35:32Z</time>
      </trkpt>
      <trkpt lat="45.96679" lon="4.77573">
        <ele>225</ele>
        <time>2018-09-04T09:35:33Z</time>
      </trkpt>
      <trkpt lat="45.96673" lon="4.77568">
        <ele>225</ele>
        <time>2018-09-04T09:35:34Z</time>
      </trkpt>
      <trkpt lat="45.96667" lon="4.77562">
        <ele>225</ele>
        <time>2018-09-04T09:35:35Z</time>
      </trkpt>
      <trkpt lat="45.96662" lon="4.77555">
        <ele>224</ele>
        <time>2018-09-04T09:35:36Z</time>
      </trkpt>
      <trkpt lat="45.96655" lon="4.77552">
        <ele>224</ele>
        <time>2018-09-04T09:35:37Z</time>
      </trkpt>
      <trkpt lat="45.96649" lon="4.77549">
        <ele>224</ele>
        <time>2018-09-04T09:35:38Z</time>
      </trkpt>
      <trkpt lat="45.96642" lon="4.77545">
        <ele>224</ele>
        <time>2018-09-04T09:35:39Z</time>
      </trkpt>
      <trkpt lat="45.96636" lon="4.7754">
        <ele>224</ele>
        <time>2018-09-04T09:35:40Z</time>
      </trkpt>
      <trkpt lat="45.9663" lon="4.77537">
        <ele>224</ele>
        <time>2018-09-04T09:35:41Z</time>
      </trkpt>
      <trkpt lat="45.96624" lon="4.77533">
        <ele>224</ele>
        <time>2018-09-04T09:35:42Z</time>
      </trkpt>
      <trkpt lat="45.96618" lon="4.77529">
        <ele>224</ele>
        <time>2018-09-04T09:35:43Z</time>
      </trkpt>
      <trkpt lat="45.96612" lon="4.77524">
        <ele>224</ele>
        <time>2018-09-04T09:35:44Z</time>
      </trkpt>
      <trkpt lat="45.96606" lon="4.77519">
        <ele>224</ele>
        <time>2018-09-04T09:35:45Z</time>
      </trkpt>
      <trkpt lat="45.966" lon="4.77515">
        <ele>224</ele>
        <time>2018-09-04T09:35:46Z</time>
      </trkpt>
      <trkpt lat="45.96594" lon="4.7751">
        <ele>224</ele>
        <time>2018-09-04T09:35:47Z</time>
      </trkpt>
      <trkpt lat="45.96588" lon="4.77506">
        <ele>224</ele>
        <time>2018-09-04T09:35:48Z</time>
      </trkpt>
      <trkpt lat="45.96582" lon="4.77502">
        <ele>224</ele>
        <time>2018-09-04T09:35:49Z</time>
      </trkpt>
      <trkpt lat="45.96577" lon="4.77499">
        <ele>224</ele>
        <time>2018-09-04T09:35:50Z</time>
      </trkpt>
      <trkpt lat="45.96571" lon="4.77495">
        <ele>224</ele>
        <time>2018-09-04T09:35:51Z</time>
      </trkpt>
      <trkpt lat="45.96565" lon="4.7749">
        <ele>224</ele>
        <time>2018-09-04T09:35:52Z</time>
      </trkpt>
      <trkpt lat="45.9656" lon="4.7749">
        <ele>224</ele>
        <time>2018-09-04T09:35:53Z</time>
      </trkpt>
      <trkpt lat="45.96554" lon="4.77487">
        <ele>223</ele>
        <time>2018-09-04T09:35:54Z</time>
      </trkpt>
      <trkpt lat="45.96548" lon="4.77484">
        <ele>223</ele>
        <time>2018-09-04T09:35:55Z</time>
      </trkpt>
      <trkpt lat="45.96542" lon="4.77482">
        <ele>223</ele>
        <time>2018-09-04T09:35:56Z</time>
      </trkpt>
      <trkpt lat="45.96536" lon="4.77477">
        <ele>223</ele>
        <time>2018-09-04T09:35:57Z</time>
      </trkpt>
      <trkpt lat="45.9653" lon="4.77473">
        <ele>223</ele>
        <time>2018-09-04T09:35:58Z</time>
      </trkpt>
      <trkpt lat="45.96524" lon="4.77469">
        <ele>223</ele>
        <time>2018-09-04T09:35:59Z</time>
      </trkpt>
      <trkpt lat="45.96517" lon="4.77462">
        <ele>223</ele>
        <time>2018-09-04T09:36:00Z</time>
      </trkpt>
      <trkpt lat="45.96511" lon="4.77459">
        <ele>223</ele>
        <time>2018-09-04T09:36:01Z</time>
      </trkpt>
      <trkpt lat="45.96505" lon="4.77454">
        <ele>223</ele>
        <time>2018-09-04T09:36:02Z</time>
      </trkpt>
      <trkpt lat="45.96497" lon="4.7745">
        <ele>221</ele>
        <time>2018-09-04T09:36:03Z</time>
      </trkpt>
      <trkpt lat="45.9649" lon="4.77446">
        <ele>221</ele>
        <time>2018-09-04T09:36:04Z</time>
      </trkpt>
      <trkpt lat="45.96483" lon="4.77442">
        <ele>221</ele>
        <time>2018-09-04T09:36:05Z</time>
      </trkpt>
      <trkpt lat="45.96477" lon="4.77438">
        <ele>221</ele>
        <time>2018-09-04T09:36:06Z</time>
      </trkpt>
      <trkpt lat="45.96471" lon="4.77434">
        <ele>221</ele>
        <time>2018-09-04T09:36:07Z</time>
      </trkpt>
      <trkpt lat="45.96464" lon="4.77429">
        <ele>221</ele>
        <time>2018-09-04T09:36:08Z</time>
      </trkpt>
      <trkpt lat="45.96458" lon="4.77424">
        <ele>221</ele>
        <time>2018-09-04T09:36:09Z</time>
      </trkpt>
      <trkpt lat="45.96451" lon="4.7742">
        <ele>221</ele>
        <time>2018-09-04T09:36:10Z</time>
      </trkpt>
      <trkpt lat="45.96445" lon="4.77416">
        <ele>222</ele>
        <time>2018-09-04T09:36:11Z</time>
      </trkpt>
      <trkpt lat="45.96438" lon="4.77411">
        <ele>222</ele>
        <time>2018-09-04T09:36:12Z</time>
      </trkpt>
      <trkpt lat="45.96431" lon="4.77407">
        <ele>222</ele>
        <time>2018-09-04T09:36:13Z</time>
      </trkpt>
      <trkpt lat="45.96425" lon="4.77405">
        <ele>222</ele>
        <time>2018-09-04T09:36:14Z</time>
      </trkpt>
      <trkpt lat="45.96417" lon="4.77401">
        <ele>222</ele>
        <time>2018-09-04T09:36:15Z</time>
      </trkpt>
      <trkpt lat="45.96409" lon="4.77397">
        <ele>220</ele>
        <time>2018-09-04T09:36:16Z</time>
      </trkpt>
      <trkpt lat="45.96403" lon="4.77394">
        <ele>220</ele>
        <time>2018-09-04T09:36:17Z</time>
      </trkpt>
      <trkpt lat="45.96396" lon="4.7739">
        <ele>220</ele>
        <time>2018-09-04T09:36:18Z</time>
      </trkpt>
      <trkpt lat="45.9639" lon="4.77387">
        <ele>220</ele>
        <time>2018-09-04T09:36:19Z</time>
      </trkpt>
      <trkpt lat="45.96384" lon="4.77383">
        <ele>220</ele>
        <time>2018-09-04T09:36:20Z</time>
      </trkpt>
      <trkpt lat="45.96377" lon="4.7738">
        <ele>219</ele>
        <time>2018-09-04T09:36:21Z</time>
      </trkpt>
      <trkpt lat="45.9637" lon="4.77376">
        <ele>219</ele>
        <time>2018-09-04T09:36:22Z</time>
      </trkpt>
      <trkpt lat="45.96361" lon="4.7737">
        <ele>219</ele>
        <time>2018-09-04T09:36:23Z</time>
      </trkpt>
      <trkpt lat="45.96353" lon="4.77366">
        <ele>219</ele>
        <time>2018-09-04T09:36:24Z</time>
      </trkpt>
      <trkpt lat="45.96346" lon="4.77361">
        <ele>219</ele>
        <time>2018-09-04T09:36:25Z</time>
      </trkpt>
      <trkpt lat="45.96339" lon="4.77356">
        <ele>219</ele>
        <time>2018-09-04T09:36:26Z</time>
      </trkpt>
      <trkpt lat="45.96331" lon="4.77352">
        <ele>218</ele>
        <time>2018-09-04T09:36:27Z</time>
      </trkpt>
      <trkpt lat="45.96324" lon="4.77347">
        <ele>218</ele>
        <time>2018-09-04T09:36:28Z</time>
      </trkpt>
      <trkpt lat="45.96316" lon="4.77344">
        <ele>218</ele>
        <time>2018-09-04T09:36:29Z</time>
      </trkpt>
      <trkpt lat="45.96308" lon="4.7734">
        <ele>217</ele>
        <time>2018-09-04T09:36:30Z</time>
      </trkpt>
      <trkpt lat="45.96302" lon="4.77335">
        <ele>217</ele>
        <time>2018-09-04T09:36:31Z</time>
      </trkpt>
      <trkpt lat="45.96297" lon="4.77335">
        <ele>217</ele>
        <time>2018-09-04T09:36:32Z</time>
      </trkpt>
      <trkpt lat="45.96289" lon="4.77331">
        <ele>219</ele>
        <time>2018-09-04T09:36:33Z</time>
      </trkpt>
      <trkpt lat="45.96282" lon="4.77326">
        <ele>219</ele>
        <time>2018-09-04T09:36:34Z</time>
      </trkpt>
      <trkpt lat="45.96275" lon="4.77321">
        <ele>218</ele>
        <time>2018-09-04T09:36:35Z</time>
      </trkpt>
      <trkpt lat="45.96268" lon="4.77316">
        <ele>218</ele>
        <time>2018-09-04T09:36:36Z</time>
      </trkpt>
      <trkpt lat="45.9626" lon="4.7731">
        <ele>218</ele>
        <time>2018-09-04T09:36:37Z</time>
      </trkpt>
      <trkpt lat="45.96253" lon="4.77305">
        <ele>219</ele>
        <time>2018-09-04T09:36:38Z</time>
      </trkpt>
      <trkpt lat="45.96244" lon="4.77299">
        <ele>217</ele>
        <time>2018-09-04T09:36:39Z</time>
      </trkpt>
      <trkpt lat="45.96237" lon="4.77296">
        <ele>217</ele>
        <time>2018-09-04T09:36:40Z</time>
      </trkpt>
      <trkpt lat="45.9623" lon="4.77291">
        <ele>217</ele>
        <time>2018-09-04T09:36:41Z</time>
      </trkpt>
      <trkpt lat="45.96222" lon="4.77287">
        <ele>217</ele>
        <time>2018-09-04T09:36:42Z</time>
      </trkpt>
      <trkpt lat="45.96211" lon="4.77283">
        <ele>217</ele>
        <time>2018-09-04T09:36:43Z</time>
      </trkpt>
      <trkpt lat="45.96204" lon="4.77278">
        <ele>216</ele>
        <time>2018-09-04T09:36:44Z</time>
      </trkpt>
      <trkpt lat="45.96197" lon="4.77274">
        <ele>216</ele>
        <time>2018-09-04T09:36:45Z</time>
      </trkpt>
      <trkpt lat="45.9619" lon="4.77269">
        <ele>216</ele>
        <time>2018-09-04T09:36:46Z</time>
      </trkpt>
      <trkpt lat="45.96183" lon="4.77264">
        <ele>216</ele>
        <time>2018-09-04T09:36:47Z</time>
      </trkpt>
      <trkpt lat="45.96175" lon="4.77257">
        <ele>216</ele>
        <time>2018-09-04T09:36:48Z</time>
      </trkpt>
      <trkpt lat="45.96169" lon="4.77254">
        <ele>216</ele>
        <time>2018-09-04T09:36:49Z</time>
      </trkpt>
      <trkpt lat="45.96162" lon="4.7725">
        <ele>215</ele>
        <time>2018-09-04T09:36:50Z</time>
      </trkpt>
      <trkpt lat="45.96155" lon="4.77246">
        <ele>216</ele>
        <time>2018-09-04T09:36:51Z</time>
      </trkpt>
      <trkpt lat="45.96148" lon="4.77244">
        <ele>215</ele>
        <time>2018-09-04T09:36:52Z</time>
      </trkpt>
      <trkpt lat="45.96141" lon="4.77241">
        <ele>215</ele>
        <time>2018-09-04T09:36:53Z</time>
      </trkpt>
      <trkpt lat="45.96135" lon="4.77237">
        <ele>215</ele>
        <time>2018-09-04T09:36:54Z</time>
      </trkpt>
      <trkpt lat="45.96129" lon="4.77235">
        <ele>215</ele>
        <time>2018-09-04T09:36:55Z</time>
      </trkpt>
      <trkpt lat="45.96121" lon="4.77235">
        <ele>214</ele>
        <time>2018-09-04T09:36:56Z</time>
      </trkpt>
      <trkpt lat="45.96115" lon="4.77235">
        <ele>214</ele>
        <time>2018-09-04T09:36:57Z</time>
      </trkpt>
      <trkpt lat="45.96106" lon="4.77236">
        <ele>213</ele>
        <time>2018-09-04T09:36:58Z</time>
      </trkpt>
      <trkpt lat="45.96098" lon="4.77237">
        <ele>213</ele>
        <time>2018-09-04T09:36:59Z</time>
      </trkpt>
      <trkpt lat="45.9609" lon="4.77238">
        <ele>212</ele>
        <time>2018-09-04T09:37:00Z</time>
      </trkpt>
      <trkpt lat="45.96082" lon="4.77236">
        <ele>210</ele>
        <time>2018-09-04T09:37:01Z</time>
      </trkpt>
      <trkpt lat="45.96074" lon="4.77238">
        <ele>210</ele>
        <time>2018-09-04T09:37:02Z</time>
      </trkpt>
      <trkpt lat="45.96066" lon="4.77239">
        <ele>209</ele>
        <time>2018-09-04T09:37:03Z</time>
      </trkpt>
      <trkpt lat="45.96057" lon="4.7724">
        <ele>209</ele>
        <time>2018-09-04T09:37:04Z</time>
      </trkpt>
      <trkpt lat="45.96049" lon="4.77242">
        <ele>209</ele>
        <time>2018-09-04T09:37:05Z</time>
      </trkpt>
      <trkpt lat="45.96041" lon="4.77244">
        <ele>208</ele>
        <time>2018-09-04T09:37:06Z</time>
      </trkpt>
      <trkpt lat="45.96032" lon="4.77245">
        <ele>208</ele>
        <time>2018-09-04T09:37:07Z</time>
      </trkpt>
      <trkpt lat="45.96023" lon="4.77246">
        <ele>207</ele>
        <time>2018-09-04T09:37:08Z</time>
      </trkpt>
      <trkpt lat="45.96015" lon="4.77247">
        <ele>206</ele>
        <time>2018-09-04T09:37:09Z</time>
      </trkpt>
      <trkpt lat="45.96005" lon="4.77245">
        <ele>205</ele>
        <time>2018-09-04T09:37:10Z</time>
      </trkpt>
      <trkpt lat="45.95997" lon="4.77244">
        <ele>203</ele>
        <time>2018-09-04T09:37:11Z</time>
      </trkpt>
      <trkpt lat="45.95987" lon="4.77239">
        <ele>202</ele>
        <time>2018-09-04T09:37:12Z</time>
      </trkpt>
      <trkpt lat="45.9598" lon="4.77234">
        <ele>202</ele>
        <time>2018-09-04T09:37:13Z</time>
      </trkpt>
      <trkpt lat="45.95972" lon="4.77227">
        <ele>202</ele>
        <time>2018-09-04T09:37:14Z</time>
      </trkpt>
      <trkpt lat="45.95964" lon="4.77216">
        <ele>201</ele>
        <time>2018-09-04T09:37:15Z</time>
      </trkpt>
      <trkpt lat="45.95958" lon="4.77206">
        <ele>201</ele>
        <time>2018-09-04T09:37:16Z</time>
      </trkpt>
      <trkpt lat="45.95954" lon="4.77194">
        <ele>201</ele>
        <time>2018-09-04T09:37:17Z</time>
      </trkpt>
      <trkpt lat="45.9595" lon="4.77182">
        <ele>201</ele>
        <time>2018-09-04T09:37:18Z</time>
      </trkpt>
      <trkpt lat="45.95948" lon="4.77168">
        <ele>201</ele>
        <time>2018-09-04T09:37:19Z</time>
      </trkpt>
      <trkpt lat="45.95945" lon="4.77155">
        <ele>201</ele>
        <time>2018-09-04T09:37:20Z</time>
      </trkpt>
      <trkpt lat="45.95944" lon="4.77141">
        <ele>201</ele>
        <time>2018-09-04T09:37:21Z</time>
      </trkpt>
      <trkpt lat="45.95944" lon="4.77128">
        <ele>201</ele>
        <time>2018-09-04T09:37:22Z</time>
      </trkpt>
      <trkpt lat="45.95943" lon="4.77116">
        <ele>201</ele>
        <time>2018-09-04T09:37:23Z</time>
      </trkpt>
      <trkpt lat="45.95945" lon="4.77101">
        <ele>201</ele>
        <time>2018-09-04T09:37:24Z</time>
      </trkpt>
      <trkpt lat="45.95947" lon="4.77087">
        <ele>201</ele>
        <time>2018-09-04T09:37:25Z</time>
      </trkpt>
      <trkpt lat="45.95952" lon="4.77074">
        <ele>200</ele>
        <time>2018-09-04T09:37:26Z</time>
      </trkpt>
      <trkpt lat="45.95956" lon="4.77062">
        <ele>200</ele>
        <time>2018-09-04T09:37:27Z</time>
      </trkpt>
      <trkpt lat="45.95962" lon="4.77048">
        <ele>200</ele>
        <time>2018-09-04T09:37:28Z</time>
      </trkpt>
      <trkpt lat="45.95966" lon="4.77036">
        <ele>200</ele>
        <time>2018-09-04T09:37:29Z</time>
      </trkpt>
      <trkpt lat="45.9597" lon="4.77023">
        <ele>200</ele>
        <time>2018-09-04T09:37:30Z</time>
      </trkpt>
      <trkpt lat="45.95975" lon="4.77012">
        <ele>200</ele>
        <time>2018-09-04T09:37:31Z</time>
      </trkpt>
      <trkpt lat="45.95979" lon="4.77">
        <ele>198</ele>
        <time>2018-09-04T09:37:32Z</time>
      </trkpt>
      <trkpt lat="45.95982" lon="4.76987">
        <ele>198</ele>
        <time>2018-09-04T09:37:33Z</time>
      </trkpt>
      <trkpt lat="45.95983" lon="4.76973">
        <ele>197</ele>
        <time>2018-09-04T09:37:34Z</time>
      </trkpt>
      <trkpt lat="45.95983" lon="4.76959">
        <ele>196</ele>
        <time>2018-09-04T09:37:35Z</time>
      </trkpt>
      <trkpt lat="45.95979" lon="4.76945">
        <ele>196</ele>
        <time>2018-09-04T09:37:36Z</time>
      </trkpt>
      <trkpt lat="45.95973" lon="4.76931">
        <ele>195</ele>
        <time>2018-09-04T09:37:37Z</time>
      </trkpt>
      <trkpt lat="45.95961" lon="4.76922">
        <ele>195</ele>
        <time>2018-09-04T09:37:38Z</time>
      </trkpt>
      <trkpt lat="45.95953" lon="4.76912">
        <ele>193</ele>
        <time>2018-09-04T09:37:39Z</time>
      </trkpt>
      <trkpt lat="45.95944" lon="4.76904">
        <ele>192</ele>
        <time>2018-09-04T09:37:40Z</time>
      </trkpt>
      <trkpt lat="45.95936" lon="4.76894">
        <ele>192</ele>
        <time>2018-09-04T09:37:41Z</time>
      </trkpt>
      <trkpt lat="45.95927" lon="4.76887">
        <ele>192</ele>
        <time>2018-09-04T09:37:42Z</time>
      </trkpt>
      <trkpt lat="45.95918" lon="4.76879">
        <ele>192</ele>
        <time>2018-09-04T09:37:43Z</time>
      </trkpt>
      <trkpt lat="45.95911" lon="4.7687">
        <ele>191</ele>
        <time>2018-09-04T09:37:44Z</time>
      </trkpt>
      <trkpt lat="45.95903" lon="4.76861">
        <ele>191</ele>
        <time>2018-09-04T09:37:45Z</time>
      </trkpt>
      <trkpt lat="45.95896" lon="4.76854">
        <ele>191</ele>
        <time>2018-09-04T09:37:46Z</time>
      </trkpt>
      <trkpt lat="45.95888" lon="4.76845">
        <ele>191</ele>
        <time>2018-09-04T09:37:47Z</time>
      </trkpt>
      <trkpt lat="45.95879" lon="4.76836">
        <ele>191</ele>
        <time>2018-09-04T09:37:48Z</time>
      </trkpt>
      <trkpt lat="45.95871" lon="4.76828">
        <ele>191</ele>
        <time>2018-09-04T09:37:49Z</time>
      </trkpt>
      <trkpt lat="45.95864" lon="4.7682">
        <ele>191</ele>
        <time>2018-09-04T09:37:50Z</time>
      </trkpt>
      <trkpt lat="45.95858" lon="4.76811">
        <ele>191</ele>
        <time>2018-09-04T09:37:51Z</time>
      </trkpt>
      <trkpt lat="45.95851" lon="4.76804">
        <ele>191</ele>
        <time>2018-09-04T09:37:52Z</time>
      </trkpt>
      <trkpt lat="45.95844" lon="4.76796">
        <ele>191</ele>
        <time>2018-09-04T09:37:53Z</time>
      </trkpt>
      <trkpt lat="45.95834" lon="4.76789">
        <ele>191</ele>
        <time>2018-09-04T09:37:54Z</time>
      </trkpt>
      <trkpt lat="45.95829" lon="4.7678">
        <ele>190</ele>
        <time>2018-09-04T09:37:55Z</time>
      </trkpt>
      <trkpt lat="45.95825" lon="4.76769">
        <ele>190</ele>
        <time>2018-09-04T09:37:56Z</time>
      </trkpt>
      <trkpt lat="45.95822" lon="4.76758">
        <ele>190</ele>
        <time>2018-09-04T09:37:57Z</time>
      </trkpt>
      <trkpt lat="45.95819" lon="4.76746">
        <ele>190</ele>
        <time>2018-09-04T09:37:58Z</time>
      </trkpt>
      <trkpt lat="45.9582" lon="4.76734">
        <ele>190</ele>
        <time>2018-09-04T09:37:59Z</time>
      </trkpt>
      <trkpt lat="45.95819" lon="4.76722">
        <ele>189</ele>
        <time>2018-09-04T09:38:00Z</time>
      </trkpt>
      <trkpt lat="45.95817" lon="4.76711">
        <ele>189</ele>
        <time>2018-09-04T09:38:01Z</time>
      </trkpt>
      <trkpt lat="45.95816" lon="4.767">
        <ele>189</ele>
        <time>2018-09-04T09:38:02Z</time>
      </trkpt>
      <trkpt lat="45.95815" lon="4.76689">
        <ele>189</ele>
        <time>2018-09-04T09:38:03Z</time>
      </trkpt>
      <trkpt lat="45.95813" lon="4.7668">
        <ele>189</ele>
        <time>2018-09-04T09:38:04Z</time>
      </trkpt>
      <trkpt lat="45.95811" lon="4.7667">
        <ele>189</ele>
        <time>2018-09-04T09:38:05Z</time>
      </trkpt>
      <trkpt lat="45.95809" lon="4.76661">
        <ele>188</ele>
        <time>2018-09-04T09:38:06Z</time>
      </trkpt>
      <trkpt lat="45.95808" lon="4.76651">
        <ele>188</ele>
        <time>2018-09-04T09:38:07Z</time>
      </trkpt>
      <trkpt lat="45.95807" lon="4.76641">
        <ele>188</ele>
        <time>2018-09-04T09:38:08Z</time>
      </trkpt>
      <trkpt lat="45.95805" lon="4.76632">
        <ele>188</ele>
        <time>2018-09-04T09:38:09Z</time>
      </trkpt>
      <trkpt lat="45.95804" lon="4.76623">
        <ele>188</ele>
        <time>2018-09-04T09:38:10Z</time>
      </trkpt>
      <trkpt lat="45.95805" lon="4.76615">
        <ele>188</ele>
        <time>2018-09-04T09:38:11Z</time>
      </trkpt>
      <trkpt lat="45.95803" lon="4.76606">
        <ele>188</ele>
        <time>2018-09-04T09:38:12Z</time>
      </trkpt>
      <trkpt lat="45.95801" lon="4.76598">
        <ele>187</ele>
        <time>2018-09-04T09:38:13Z</time>
      </trkpt>
      <trkpt lat="45.958" lon="4.7659">
        <ele>187</ele>
        <time>2018-09-04T09:38:14Z</time>
      </trkpt>
      <trkpt lat="45.95801" lon="4.76584">
        <ele>187</ele>
        <time>2018-09-04T09:38:15Z</time>
      </trkpt>
      <trkpt lat="45.958" lon="4.76576">
        <ele>187</ele>
        <time>2018-09-04T09:38:16Z</time>
      </trkpt>
      <trkpt lat="45.95799" lon="4.76568">
        <ele>187</ele>
        <time>2018-09-04T09:38:17Z</time>
      </trkpt>
      <trkpt lat="45.95798" lon="4.7656">
        <ele>187</ele>
        <time>2018-09-04T09:38:18Z</time>
      </trkpt>
      <trkpt lat="45.95797" lon="4.76552">
        <ele>187</ele>
        <time>2018-09-04T09:38:19Z</time>
      </trkpt>
      <trkpt lat="45.95796" lon="4.76545">
        <ele>187</ele>
        <time>2018-09-04T09:38:20Z</time>
      </trkpt>
      <trkpt lat="45.95795" lon="4.76539">
        <ele>187</ele>
        <time>2018-09-04T09:38:21Z</time>
      </trkpt>
      <trkpt lat="45.95794" lon="4.76531">
        <ele>187</ele>
        <time>2018-09-04T09:38:22Z</time>
      </trkpt>
      <trkpt lat="45.95793" lon="4.76522">
        <ele>187</ele>
        <time>2018-09-04T09:38:23Z</time>
      </trkpt>
      <trkpt lat="45.95792" lon="4.76514">
        <ele>187</ele>
        <time>2018-09-04T09:38:24Z</time>
      </trkpt>
      <trkpt lat="45.95792" lon="4.76505">
        <ele>187</ele>
        <time>2018-09-04T09:38:25Z</time>
      </trkpt>
      <trkpt lat="45.95789" lon="4.76496">
        <ele>186</ele>
        <time>2018-09-04T09:38:26Z</time>
      </trkpt>
      <trkpt lat="45.95788" lon="4.76487">
        <ele>186</ele>
        <time>2018-09-04T09:38:27Z</time>
      </trkpt>
      <trkpt lat="45.95786" lon="4.76479">
        <ele>186</ele>
        <time>2018-09-04T09:38:28Z</time>
      </trkpt>
      <trkpt lat="45.95785" lon="4.7647">
        <ele>186</ele>
        <time>2018-09-04T09:38:29Z</time>
      </trkpt>
      <trkpt lat="45.95786" lon="4.76463">
        <ele>186</ele>
        <time>2018-09-04T09:38:30Z</time>
      </trkpt>
      <trkpt lat="45.95785" lon="4.76456">
        <ele>186</ele>
        <time>2018-09-04T09:38:31Z</time>
      </trkpt>
      <trkpt lat="45.95783" lon="4.76448">
        <ele>186</ele>
        <time>2018-09-04T09:38:32Z</time>
      </trkpt>
      <trkpt lat="45.95782" lon="4.76439">
        <ele>186</ele>
        <time>2018-09-04T09:38:33Z</time>
      </trkpt>
      <trkpt lat="45.95781" lon="4.76431">
        <ele>186</ele>
        <time>2018-09-04T09:38:34Z</time>
      </trkpt>
      <trkpt lat="45.9578" lon="4.76424">
        <ele>186</ele>
        <time>2018-09-04T09:38:35Z</time>
      </trkpt>
      <trkpt lat="45.95779" lon="4.76416">
        <ele>186</ele>
        <time>2018-09-04T09:38:36Z</time>
      </trkpt>
      <trkpt lat="45.95779" lon="4.76408">
        <ele>186</ele>
        <time>2018-09-04T09:38:37Z</time>
      </trkpt>
      <trkpt lat="45.9578" lon="4.76402">
        <ele>186</ele>
        <time>2018-09-04T09:38:38Z</time>
      </trkpt>
      <trkpt lat="45.95779" lon="4.76396">
        <ele>186</ele>
        <time>2018-09-04T09:38:39Z</time>
      </trkpt>
      <trkpt lat="45.95778" lon="4.76388">
        <ele>186</ele>
        <time>2018-09-04T09:38:40Z</time>
      </trkpt>
      <trkpt lat="45.95777" lon="4.76379">
        <ele>186</ele>
        <time>2018-09-04T09:38:41Z</time>
      </trkpt>
      <trkpt lat="45.95777" lon="4.7637">
        <ele>186</ele>
        <time>2018-09-04T09:38:42Z</time>
      </trkpt>
      <trkpt lat="45.95776" lon="4.76362">
        <ele>186</ele>
        <time>2018-09-04T09:38:43Z</time>
      </trkpt>
      <trkpt lat="45.95776" lon="4.76353">
        <ele>186</ele>
        <time>2018-09-04T09:38:44Z</time>
      </trkpt>
      <trkpt lat="45.95776" lon="4.76346">
        <ele>186</ele>
        <time>2018-09-04T09:38:45Z</time>
      </trkpt>
      <trkpt lat="45.95775" lon="4.76338">
        <ele>186</ele>
        <time>2018-09-04T09:38:46Z</time>
      </trkpt>
      <trkpt lat="45.95775" lon="4.7633">
        <ele>185</ele>
        <time>2018-09-04T09:38:47Z</time>
      </trkpt>
      <trkpt lat="45.95774" lon="4.76323">
        <ele>185</ele>
        <time>2018-09-04T09:38:48Z</time>
      </trkpt>
      <trkpt lat="45.95774" lon="4.76316">
        <ele>186</ele>
        <time>2018-09-04T09:38:49Z</time>
      </trkpt>
      <trkpt lat="45.95773" lon="4.76308">
        <ele>186</ele>
        <time>2018-09-04T09:38:50Z</time>
      </trkpt>
      <trkpt lat="45.95772" lon="4.763">
        <ele>186</ele>
        <time>2018-09-04T09:38:51Z</time>
      </trkpt>
      <trkpt lat="45.95771" lon="4.76293">
        <ele>186</ele>
        <time>2018-09-04T09:38:52Z</time>
      </trkpt>
      <trkpt lat="45.95771" lon="4.76285">
        <ele>186</ele>
        <time>2018-09-04T09:38:53Z</time>
      </trkpt>
      <trkpt lat="45.95771" lon="4.76278">
        <ele>186</ele>
        <time>2018-09-04T09:38:54Z</time>
      </trkpt>
      <trkpt lat="45.95771" lon="4.7627">
        <ele>186</ele>
        <time>2018-09-04T09:38:55Z</time>
      </trkpt>
      <trkpt lat="45.95769" lon="4.7626">
        <ele>185</ele>
        <time>2018-09-04T09:38:56Z</time>
      </trkpt>
      <trkpt lat="45.95767" lon="4.76253">
        <ele>185</ele>
        <time>2018-09-04T09:38:57Z</time>
      </trkpt>
      <trkpt lat="45.95765" lon="4.76246">
        <ele>185</ele>
        <time>2018-09-04T09:38:58Z</time>
      </trkpt>
      <trkpt lat="45.95765" lon="4.76237">
        <ele>186</ele>
        <time>2018-09-04T09:38:59Z</time>
      </trkpt>
      <trkpt lat="45.95763" lon="4.76229">
        <ele>186</ele>
        <time>2018-09-04T09:39:00Z</time>
      </trkpt>
      <trkpt lat="45.95763" lon="4.76221">
        <ele>186</ele>
        <time>2018-09-04T09:39:01Z</time>
      </trkpt>
      <trkpt lat="45.95762" lon="4.76212">
        <ele>186</ele>
        <time>2018-09-04T09:39:02Z</time>
      </trkpt>
      <trkpt lat="45.95761" lon="4.76204">
        <ele>186</ele>
        <time>2018-09-04T09:39:03Z</time>
      </trkpt>
      <trkpt lat="45.95761" lon="4.76196">
        <ele>186</ele>
        <time>2018-09-04T09:39:04Z</time>
      </trkpt>
      <trkpt lat="45.9576" lon="4.76189">
        <ele>186</ele>
        <time>2018-09-04T09:39:05Z</time>
      </trkpt>
      <trkpt lat="45.9576" lon="4.76181">
        <ele>185</ele>
        <time>2018-09-04T09:39:06Z</time>
      </trkpt>
      <trkpt lat="45.9576" lon="4.76173">
        <ele>185</ele>
        <time>2018-09-04T09:39:07Z</time>
      </trkpt>
      <trkpt lat="45.9576" lon="4.76165">
        <ele>185</ele>
        <time>2018-09-04T09:39:08Z</time>
      </trkpt>
      <trkpt lat="45.9576" lon="4.76157">
        <ele>186</ele>
        <time>2018-09-04T09:39:09Z</time>
      </trkpt>
      <trkpt lat="45.95759" lon="4.76149">
        <ele>186</ele>
        <time>2018-09-04T09:39:10Z</time>
      </trkpt>
      <trkpt lat="45.95758" lon="4.76139">
        <ele>186</ele>
        <time>2018-09-04T09:39:11Z</time>
      </trkpt>
      <trkpt lat="45.95759" lon="4.76132">
        <ele>186</ele>
        <time>2018-09-04T09:39:12Z</time>
      </trkpt>
      <trkpt lat="45.95758" lon="4.76124">
        <ele>186</ele>
        <time>2018-09-04T09:39:13Z</time>
      </trkpt>
      <trkpt lat="45.95757" lon="4.76116">
        <ele>186</ele>
        <time>2018-09-04T09:39:14Z</time>
      </trkpt>
      <trkpt lat="45.95756" lon="4.76108">
        <ele>186</ele>
        <time>2018-09-04T09:39:15Z</time>
      </trkpt>
      <trkpt lat="45.95756" lon="4.76099">
        <ele>186</ele>
        <time>2018-09-04T09:39:16Z</time>
      </trkpt>
      <trkpt lat="45.95753" lon="4.76091">
        <ele>185</ele>
        <time>2018-09-04T09:39:17Z</time>
      </trkpt>
      <trkpt lat="45.9575" lon="4.76083">
        <ele>185</ele>
        <time>2018-09-04T09:39:18Z</time>
      </trkpt>
      <trkpt lat="45.95747" lon="4.76076">
        <ele>185</ele>
        <time>2018-09-04T09:39:19Z</time>
      </trkpt>
      <trkpt lat="45.95745" lon="4.76069">
        <ele>185</ele>
        <time>2018-09-04T09:39:20Z</time>
      </trkpt>
      <trkpt lat="45.95742" lon="4.76063">
        <ele>184</ele>
        <time>2018-09-04T09:39:21Z</time>
      </trkpt>
      <trkpt lat="45.95739" lon="4.76056">
        <ele>184</ele>
        <time>2018-09-04T09:39:22Z</time>
      </trkpt>
      <trkpt lat="45.95735" lon="4.76049">
        <ele>184</ele>
        <time>2018-09-04T09:39:23Z</time>
      </trkpt>
      <trkpt lat="45.95728" lon="4.76043">
        <ele>184</ele>
        <time>2018-09-04T09:39:24Z</time>
      </trkpt>
      <trkpt lat="45.95726" lon="4.76038">
        <ele>184</ele>
        <time>2018-09-04T09:39:25Z</time>
      </trkpt>
      <trkpt lat="45.95722" lon="4.76032">
        <ele>184</ele>
        <time>2018-09-04T09:39:26Z</time>
      </trkpt>
      <trkpt lat="45.95718" lon="4.76026">
        <ele>184</ele>
        <time>2018-09-04T09:39:27Z</time>
      </trkpt>
      <trkpt lat="45.95715" lon="4.7602">
        <ele>184</ele>
        <time>2018-09-04T09:39:28Z</time>
      </trkpt>
      <trkpt lat="45.95712" lon="4.76015">
        <ele>184</ele>
        <time>2018-09-04T09:39:29Z</time>
      </trkpt>
      <trkpt lat="45.95709" lon="4.76008">
        <ele>184</ele>
        <time>2018-09-04T09:39:30Z</time>
      </trkpt>
      <trkpt lat="45.95706" lon="4.76002">
        <ele>184</ele>
        <time>2018-09-04T09:39:31Z</time>
      </trkpt>
      <trkpt lat="45.95703" lon="4.75997">
        <ele>185</ele>
        <time>2018-09-04T09:39:32Z</time>
      </trkpt>
      <trkpt lat="45.95699" lon="4.75989">
        <ele>185</ele>
        <time>2018-09-04T09:39:33Z</time>
      </trkpt>
      <trkpt lat="45.95696" lon="4.75983">
        <ele>185</ele>
        <time>2018-09-04T09:39:34Z</time>
      </trkpt>
      <trkpt lat="45.95693" lon="4.75975">
        <ele>185</ele>
        <time>2018-09-04T09:39:35Z</time>
      </trkpt>
      <trkpt lat="45.9569" lon="4.75968">
        <ele>185</ele>
        <time>2018-09-04T09:39:36Z</time>
      </trkpt>
      <trkpt lat="45.95685" lon="4.75959">
        <ele>185</ele>
        <time>2018-09-04T09:39:37Z</time>
      </trkpt>
      <trkpt lat="45.95681" lon="4.75952">
        <ele>185</ele>
        <time>2018-09-04T09:39:38Z</time>
      </trkpt>
      <trkpt lat="45.95679" lon="4.75944">
        <ele>185</ele>
        <time>2018-09-04T09:39:39Z</time>
      </trkpt>
      <trkpt lat="45.95676" lon="4.75938">
        <ele>185</ele>
        <time>2018-09-04T09:39:40Z</time>
      </trkpt>
      <trkpt lat="45.95674" lon="4.75931">
        <ele>185</ele>
        <time>2018-09-04T09:39:41Z</time>
      </trkpt>
      <trkpt lat="45.95671" lon="4.75926">
        <ele>184</ele>
        <time>2018-09-04T09:39:42Z</time>
      </trkpt>
      <trkpt lat="45.95669" lon="4.75918">
        <ele>184</ele>
        <time>2018-09-04T09:39:43Z</time>
      </trkpt>
      <trkpt lat="45.95667" lon="4.75909">
        <ele>185</ele>
        <time>2018-09-04T09:39:44Z</time>
      </trkpt>
      <trkpt lat="45.95665" lon="4.75902">
        <ele>184</ele>
        <time>2018-09-04T09:39:45Z</time>
      </trkpt>
      <trkpt lat="45.95663" lon="4.75895">
        <ele>184</ele>
        <time>2018-09-04T09:39:46Z</time>
      </trkpt>
      <trkpt lat="45.95659" lon="4.75889">
        <ele>184</ele>
        <time>2018-09-04T09:39:47Z</time>
      </trkpt>
      <trkpt lat="45.95655" lon="4.75881">
        <ele>184</ele>
        <time>2018-09-04T09:39:48Z</time>
      </trkpt>
      <trkpt lat="45.95653" lon="4.75874">
        <ele>184</ele>
        <time>2018-09-04T09:39:49Z</time>
      </trkpt>
      <trkpt lat="45.95651" lon="4.75866">
        <ele>184</ele>
        <time>2018-09-04T09:39:50Z</time>
      </trkpt>
      <trkpt lat="45.95649" lon="4.75859">
        <ele>184</ele>
        <time>2018-09-04T09:39:51Z</time>
      </trkpt>
      <trkpt lat="45.95648" lon="4.75853">
        <ele>184</ele>
        <time>2018-09-04T09:39:52Z</time>
      </trkpt>
      <trkpt lat="45.95647" lon="4.75847">
        <ele>184</ele>
        <time>2018-09-04T09:39:53Z</time>
      </trkpt>
      <trkpt lat="45.95645" lon="4.7584">
        <ele>184</ele>
        <time>2018-09-04T09:39:54Z</time>
      </trkpt>
      <trkpt lat="45.95643" lon="4.75833">
        <ele>185</ele>
        <time>2018-09-04T09:39:55Z</time>
      </trkpt>
      <trkpt lat="45.95643" lon="4.75826">
        <ele>185</ele>
        <time>2018-09-04T09:39:56Z</time>
      </trkpt>
      <trkpt lat="45.95644" lon="4.75818">
        <ele>185</ele>
        <time>2018-09-04T09:39:57Z</time>
      </trkpt>
      <trkpt lat="45.95642" lon="4.75811">
        <ele>185</ele>
        <time>2018-09-04T09:39:58Z</time>
      </trkpt>
      <trkpt lat="45.9564" lon="4.75803">
        <ele>185</ele>
        <time>2018-09-04T09:39:59Z</time>
      </trkpt>
      <trkpt lat="45.95638" lon="4.75796">
        <ele>185</ele>
        <time>2018-09-04T09:40:00Z</time>
      </trkpt>
      <trkpt lat="45.95639" lon="4.75789">
        <ele>185</ele>
        <time>2018-09-04T09:40:01Z</time>
      </trkpt>
      <trkpt lat="45.95639" lon="4.75783">
        <ele>185</ele>
        <time>2018-09-04T09:40:02Z</time>
      </trkpt>
      <trkpt lat="45.95639" lon="4.75776">
        <ele>186</ele>
        <time>2018-09-04T09:40:03Z</time>
      </trkpt>
      <trkpt lat="45.95638" lon="4.75769">
        <ele>186</ele>
        <time>2018-09-04T09:40:04Z</time>
      </trkpt>
      <trkpt lat="45.95637" lon="4.75762">
        <ele>186</ele>
        <time>2018-09-04T09:40:05Z</time>
      </trkpt>
      <trkpt lat="45.95636" lon="4.75755">
        <ele>186</ele>
        <time>2018-09-04T09:40:06Z</time>
      </trkpt>
      <trkpt lat="45.95636" lon="4.75747">
        <ele>187</ele>
        <time>2018-09-04T09:40:07Z</time>
      </trkpt>
      <trkpt lat="45.95637" lon="4.75741">
        <ele>187</ele>
        <time>2018-09-04T09:40:08Z</time>
      </trkpt>
      <trkpt lat="45.95633" lon="4.75733">
        <ele>187</ele>
        <time>2018-09-04T09:40:09Z</time>
      </trkpt>
      <trkpt lat="45.95631" lon="4.75727">
        <ele>187</ele>
        <time>2018-09-04T09:40:10Z</time>
      </trkpt>
      <trkpt lat="45.9563" lon="4.75719">
        <ele>187</ele>
        <time>2018-09-04T09:40:11Z</time>
      </trkpt>
      <trkpt lat="45.95629" lon="4.7571">
        <ele>187</ele>
        <time>2018-09-04T09:40:12Z</time>
      </trkpt>
      <trkpt lat="45.95629" lon="4.75703">
        <ele>187</ele>
        <time>2018-09-04T09:40:13Z</time>
      </trkpt>
      <trkpt lat="45.95627" lon="4.75695">
        <ele>187</ele>
        <time>2018-09-04T09:40:14Z</time>
      </trkpt>
      <trkpt lat="45.95626" lon="4.75687">
        <ele>187</ele>
        <time>2018-09-04T09:40:15Z</time>
      </trkpt>
      <trkpt lat="45.95626" lon="4.75679">
        <ele>187</ele>
        <time>2018-09-04T09:40:16Z</time>
      </trkpt>
      <trkpt lat="45.95625" lon="4.75673">
        <ele>187</ele>
        <time>2018-09-04T09:40:17Z</time>
      </trkpt>
      <trkpt lat="45.95622" lon="4.75666">
        <ele>188</ele>
        <time>2018-09-04T09:40:18Z</time>
      </trkpt>
      <trkpt lat="45.95621" lon="4.75659">
        <ele>188</ele>
        <time>2018-09-04T09:40:19Z</time>
      </trkpt>
      <trkpt lat="45.9562" lon="4.75652">
        <ele>188</ele>
        <time>2018-09-04T09:40:20Z</time>
      </trkpt>
      <trkpt lat="45.95618" lon="4.75646">
        <ele>188</ele>
        <time>2018-09-04T09:40:21Z</time>
      </trkpt>
      <trkpt lat="45.95617" lon="4.75639">
        <ele>188</ele>
        <time>2018-09-04T09:40:22Z</time>
      </trkpt>
      <trkpt lat="45.95609" lon="4.75631">
        <ele>188</ele>
        <time>2018-09-04T09:40:23Z</time>
      </trkpt>
      <trkpt lat="45.95607" lon="4.75624">
        <ele>188</ele>
        <time>2018-09-04T09:40:24Z</time>
      </trkpt>
      <trkpt lat="45.95605" lon="4.75617">
        <ele>188</ele>
        <time>2018-09-04T09:40:25Z</time>
      </trkpt>
      <trkpt lat="45.95604" lon="4.7561">
        <ele>187</ele>
        <time>2018-09-04T09:40:26Z</time>
      </trkpt>
      <trkpt lat="45.95602" lon="4.75604">
        <ele>187</ele>
        <time>2018-09-04T09:40:27Z</time>
      </trkpt>
      <trkpt lat="45.95598" lon="4.75597">
        <ele>187</ele>
        <time>2018-09-04T09:40:28Z</time>
      </trkpt>
      <trkpt lat="45.95596" lon="4.75592">
        <ele>187</ele>
        <time>2018-09-04T09:40:29Z</time>
      </trkpt>
      <trkpt lat="45.95593" lon="4.75585">
        <ele>187</ele>
        <time>2018-09-04T09:40:30Z</time>
      </trkpt>
      <trkpt lat="45.9559" lon="4.75576">
        <ele>187</ele>
        <time>2018-09-04T09:40:31Z</time>
      </trkpt>
      <trkpt lat="45.95587" lon="4.7557">
        <ele>187</ele>
        <time>2018-09-04T09:40:32Z</time>
      </trkpt>
      <trkpt lat="45.95585" lon="4.7556">
        <ele>188</ele>
        <time>2018-09-04T09:40:33Z</time>
      </trkpt>
      <trkpt lat="45.95583" lon="4.75555">
        <ele>186</ele>
        <time>2018-09-04T09:40:34Z</time>
      </trkpt>
      <trkpt lat="45.95578" lon="4.7555">
        <ele>186</ele>
        <time>2018-09-04T09:40:35Z</time>
      </trkpt>
      <trkpt lat="45.95574" lon="4.75544">
        <ele>186</ele>
        <time>2018-09-04T09:40:36Z</time>
      </trkpt>
      <trkpt lat="45.95566" lon="4.75538">
        <ele>186</ele>
        <time>2018-09-04T09:40:37Z</time>
      </trkpt>
      <trkpt lat="45.95559" lon="4.75534">
        <ele>186</ele>
        <time>2018-09-04T09:40:38Z</time>
      </trkpt>
      <trkpt lat="45.95555" lon="4.75529">
        <ele>186</ele>
        <time>2018-09-04T09:40:39Z</time>
      </trkpt>
      <trkpt lat="45.95549" lon="4.75526">
        <ele>186</ele>
        <time>2018-09-04T09:40:40Z</time>
      </trkpt>
      <trkpt lat="45.95545" lon="4.7552">
        <ele>186</ele>
        <time>2018-09-04T09:40:41Z</time>
      </trkpt>
      <trkpt lat="45.95541" lon="4.75515">
        <ele>186</ele>
        <time>2018-09-04T09:40:42Z</time>
      </trkpt>
      <trkpt lat="45.95538" lon="4.75509">
        <ele>186</ele>
        <time>2018-09-04T09:40:43Z</time>
      </trkpt>
      <trkpt lat="45.95533" lon="4.75502">
        <ele>186</ele>
        <time>2018-09-04T09:40:44Z</time>
      </trkpt>
      <trkpt lat="45.95532" lon="4.75494">
        <ele>187</ele>
        <time>2018-09-04T09:40:45Z</time>
      </trkpt>
      <trkpt lat="45.95532" lon="4.75486">
        <ele>187</ele>
        <time>2018-09-04T09:40:46Z</time>
      </trkpt>
      <trkpt lat="45.95531" lon="4.75478">
        <ele>187</ele>
        <time>2018-09-04T09:40:47Z</time>
      </trkpt>
      <trkpt lat="45.95531" lon="4.7547">
        <ele>187</ele>
        <time>2018-09-04T09:40:48Z</time>
      </trkpt>
      <trkpt lat="45.95529" lon="4.75461">
        <ele>187</ele>
        <time>2018-09-04T09:40:49Z</time>
      </trkpt>
      <trkpt lat="45.95525" lon="4.75454">
        <ele>187</ele>
        <time>2018-09-04T09:40:50Z</time>
      </trkpt>
      <trkpt lat="45.95522" lon="4.75448">
        <ele>187</ele>
        <time>2018-09-04T09:40:51Z</time>
      </trkpt>
      <trkpt lat="45.95517" lon="4.75441">
        <ele>187</ele>
        <time>2018-09-04T09:40:52Z</time>
      </trkpt>
      <trkpt lat="45.95513" lon="4.75434">
        <ele>186</ele>
        <time>2018-09-04T09:40:53Z</time>
      </trkpt>
      <trkpt lat="45.9551" lon="4.75429">
        <ele>186</ele>
        <time>2018-09-04T09:40:54Z</time>
      </trkpt>
      <trkpt lat="45.95508" lon="4.75423">
        <ele>186</ele>
        <time>2018-09-04T09:40:55Z</time>
      </trkpt>
      <trkpt lat="45.95505" lon="4.75416">
        <ele>186</ele>
        <time>2018-09-04T09:40:56Z</time>
      </trkpt>
      <trkpt lat="45.95502" lon="4.7541">
        <ele>186</ele>
        <time>2018-09-04T09:40:57Z</time>
      </trkpt>
      <trkpt lat="45.955" lon="4.75404">
        <ele>187</ele>
        <time>2018-09-04T09:40:58Z</time>
      </trkpt>
      <trkpt lat="45.95498" lon="4.75398">
        <ele>185</ele>
        <time>2018-09-04T09:40:59Z</time>
      </trkpt>
      <trkpt lat="45.95495" lon="4.75392">
        <ele>185</ele>
        <time>2018-09-04T09:41:00Z</time>
      </trkpt>
      <trkpt lat="45.95492" lon="4.75387">
        <ele>185</ele>
        <time>2018-09-04T09:41:01Z</time>
      </trkpt>
      <trkpt lat="45.95487" lon="4.75377">
        <ele>185</ele>
        <time>2018-09-04T09:41:03Z</time>
      </trkpt>
      <trkpt lat="45.95486" lon="4.75372">
        <ele>185</ele>
        <time>2018-09-04T09:41:04Z</time>
      </trkpt>
      <trkpt lat="45.95483" lon="4.7536">
        <ele>186</ele>
        <time>2018-09-04T09:41:06Z</time>
      </trkpt>
      <trkpt lat="45.9548" lon="4.75353">
        <ele>186</ele>
        <time>2018-09-04T09:41:07Z</time>
      </trkpt>
      <trkpt lat="45.95478" lon="4.75346">
        <ele>186</ele>
        <time>2018-09-04T09:41:08Z</time>
      </trkpt>
      <trkpt lat="45.95474" lon="4.7534">
        <ele>186</ele>
        <time>2018-09-04T09:41:09Z</time>
      </trkpt>
      <trkpt lat="45.9547" lon="4.75329">
        <ele>188</ele>
        <time>2018-09-04T09:41:11Z</time>
      </trkpt>
      <trkpt lat="45.95468" lon="4.75322">
        <ele>188</ele>
        <time>2018-09-04T09:41:12Z</time>
      </trkpt>
      <trkpt lat="45.95463" lon="4.75317">
        <ele>188</ele>
        <time>2018-09-04T09:41:13Z</time>
      </trkpt>
      <trkpt lat="45.9546" lon="4.75311">
        <ele>188</ele>
        <time>2018-09-04T09:41:14Z</time>
      </trkpt>
      <trkpt lat="45.95457" lon="4.75307">
        <ele>188</ele>
        <time>2018-09-04T09:41:15Z</time>
      </trkpt>
      <trkpt lat="45.95454" lon="4.75301">
        <ele>188</ele>
        <time>2018-09-04T09:41:16Z</time>
      </trkpt>
      <trkpt lat="45.9545" lon="4.75291">
        <ele>188</ele>
        <time>2018-09-04T09:41:18Z</time>
      </trkpt>
      <trkpt lat="45.95448" lon="4.75287">
        <ele>188</ele>
        <time>2018-09-04T09:41:19Z</time>
      </trkpt>
      <trkpt lat="45.95446" lon="4.75279">
        <ele>189</ele>
        <time>2018-09-04T09:41:20Z</time>
      </trkpt>
      <trkpt lat="45.95443" lon="4.75273">
        <ele>189</ele>
        <time>2018-09-04T09:41:21Z</time>
      </trkpt>
      <trkpt lat="45.9544" lon="4.75266">
        <ele>189</ele>
        <time>2018-09-04T09:41:22Z</time>
      </trkpt>
      <trkpt lat="45.95436" lon="4.7526">
        <ele>189</ele>
        <time>2018-09-04T09:41:23Z</time>
      </trkpt>
      <trkpt lat="45.95432" lon="4.75254">
        <ele>189</ele>
        <time>2018-09-04T09:41:24Z</time>
      </trkpt>
      <trkpt lat="45.95428" lon="4.75248">
        <ele>190</ele>
        <time>2018-09-04T09:41:25Z</time>
      </trkpt>
      <trkpt lat="45.95427" lon="4.75242">
        <ele>190</ele>
        <time>2018-09-04T09:41:26Z</time>
      </trkpt>
      <trkpt lat="45.95422" lon="4.75236">
        <ele>190</ele>
        <time>2018-09-04T09:41:27Z</time>
      </trkpt>
      <trkpt lat="45.95417" lon="4.75231">
        <ele>190</ele>
        <time>2018-09-04T09:41:28Z</time>
      </trkpt>
      <trkpt lat="45.95414" lon="4.75226">
        <ele>189</ele>
        <time>2018-09-04T09:41:29Z</time>
      </trkpt>
      <trkpt lat="45.9541" lon="4.7522">
        <ele>189</ele>
        <time>2018-09-04T09:41:30Z</time>
      </trkpt>
      <trkpt lat="45.95407" lon="4.75216">
        <ele>189</ele>
        <time>2018-09-04T09:41:31Z</time>
      </trkpt>
      <trkpt lat="45.95403" lon="4.75208">
        <ele>189</ele>
        <time>2018-09-04T09:41:33Z</time>
      </trkpt>
      <trkpt lat="45.95402" lon="4.75203">
        <ele>189</ele>
        <time>2018-09-04T09:41:34Z</time>
      </trkpt>
      <trkpt lat="45.95397" lon="4.75198">
        <ele>189</ele>
        <time>2018-09-04T09:41:35Z</time>
      </trkpt>
      <trkpt lat="45.95393" lon="4.75192">
        <ele>189</ele>
        <time>2018-09-04T09:41:36Z</time>
      </trkpt>
      <trkpt lat="45.95388" lon="4.75186">
        <ele>189</ele>
        <time>2018-09-04T09:41:37Z</time>
      </trkpt>
      <trkpt lat="45.95385" lon="4.75181">
        <ele>189</ele>
        <time>2018-09-04T09:41:38Z</time>
      </trkpt>
      <trkpt lat="45.95382" lon="4.75176">
        <ele>189</ele>
        <time>2018-09-04T09:41:39Z</time>
      </trkpt>
      <trkpt lat="45.95378" lon="4.7517">
        <ele>189</ele>
        <time>2018-09-04T09:41:40Z</time>
      </trkpt>
      <trkpt lat="45.95375" lon="4.75164">
        <ele>191</ele>
        <time>2018-09-04T09:41:41Z</time>
      </trkpt>
      <trkpt lat="45.95371" lon="4.7516">
        <ele>191</ele>
        <time>2018-09-04T09:41:42Z</time>
      </trkpt>
      <trkpt lat="45.95373" lon="4.75152">
        <ele>191</ele>
        <time>2018-09-04T09:41:43Z</time>
      </trkpt>
      <trkpt lat="45.95371" lon="4.75147">
        <ele>191</ele>
        <time>2018-09-04T09:41:44Z</time>
      </trkpt>
      <trkpt lat="45.95367" lon="4.75137">
        <ele>191</ele>
        <time>2018-09-04T09:41:46Z</time>
      </trkpt>
      <trkpt lat="45.95364" lon="4.75132">
        <ele>191</ele>
        <time>2018-09-04T09:41:47Z</time>
      </trkpt>
      <trkpt lat="45.95359" lon="4.75125">
        <ele>191</ele>
        <time>2018-09-04T09:41:48Z</time>
      </trkpt>
      <trkpt lat="45.95355" lon="4.7512">
        <ele>191</ele>
        <time>2018-09-04T09:41:49Z</time>
      </trkpt>
      <trkpt lat="45.95353" lon="4.75114">
        <ele>192</ele>
        <time>2018-09-04T09:41:50Z</time>
      </trkpt>
      <trkpt lat="45.9535" lon="4.75108">
        <ele>192</ele>
        <time>2018-09-04T09:41:51Z</time>
      </trkpt>
      <trkpt lat="45.95345" lon="4.75102">
        <ele>192</ele>
        <time>2018-09-04T09:41:52Z</time>
      </trkpt>
      <trkpt lat="45.9534" lon="4.75096">
        <ele>192</ele>
        <time>2018-09-04T09:41:53Z</time>
      </trkpt>
      <trkpt lat="45.95336" lon="4.75089">
        <ele>193</ele>
        <time>2018-09-04T09:41:54Z</time>
      </trkpt>
      <trkpt lat="45.95332" lon="4.75083">
        <ele>193</ele>
        <time>2018-09-04T09:41:55Z</time>
      </trkpt>
      <trkpt lat="45.95329" lon="4.75076">
        <ele>192</ele>
        <time>2018-09-04T09:41:56Z</time>
      </trkpt>
      <trkpt lat="45.95325" lon="4.7507">
        <ele>192</ele>
        <time>2018-09-04T09:41:57Z</time>
      </trkpt>
      <trkpt lat="45.95322" lon="4.75066">
        <ele>192</ele>
        <time>2018-09-04T09:41:58Z</time>
      </trkpt>
      <trkpt lat="45.95318" lon="4.75061">
        <ele>192</ele>
        <time>2018-09-04T09:41:59Z</time>
      </trkpt>
      <trkpt lat="45.95315" lon="4.75056">
        <ele>192</ele>
        <time>2018-09-04T09:42:00Z</time>
      </trkpt>
      <trkpt lat="45.95312" lon="4.75052">
        <ele>192</ele>
        <time>2018-09-04T09:42:01Z</time>
      </trkpt>
      <trkpt lat="45.95308" lon="4.75047">
        <ele>192</ele>
        <time>2018-09-04T09:42:02Z</time>
      </trkpt>
      <trkpt lat="45.95304" lon="4.75042">
        <ele>192</ele>
        <time>2018-09-04T09:42:03Z</time>
      </trkpt>
      <trkpt lat="45.953" lon="4.75037">
        <ele>191</ele>
        <time>2018-09-04T09:42:04Z</time>
      </trkpt>
      <trkpt lat="45.95298" lon="4.75031">
        <ele>191</ele>
        <time>2018-09-04T09:42:05Z</time>
      </trkpt>
      <trkpt lat="45.95296" lon="4.75026">
        <ele>191</ele>
        <time>2018-09-04T09:42:06Z</time>
      </trkpt>
      <trkpt lat="45.95292" lon="4.75019">
        <ele>191</ele>
        <time>2018-09-04T09:42:07Z</time>
      </trkpt>
      <trkpt lat="45.95289" lon="4.75013">
        <ele>191</ele>
        <time>2018-09-04T09:42:08Z</time>
      </trkpt>
      <trkpt lat="45.95285" lon="4.75008">
        <ele>191</ele>
        <time>2018-09-04T09:42:09Z</time>
      </trkpt>
      <trkpt lat="45.95282" lon="4.75003">
        <ele>191</ele>
        <time>2018-09-04T09:42:10Z</time>
      </trkpt>
      <trkpt lat="45.95277" lon="4.74998">
        <ele>192</ele>
        <time>2018-09-04T09:42:11Z</time>
      </trkpt>
      <trkpt lat="45.95275" lon="4.74993">
        <ele>192</ele>
        <time>2018-09-04T09:42:12Z</time>
      </trkpt>
      <trkpt lat="45.95272" lon="4.74987">
        <ele>192</ele>
        <time>2018-09-04T09:42:13Z</time>
      </trkpt>
      <trkpt lat="45.95268" lon="4.74982">
        <ele>192</ele>
        <time>2018-09-04T09:42:14Z</time>
      </trkpt>
      <trkpt lat="45.95264" lon="4.74976">
        <ele>192</ele>
        <time>2018-09-04T09:42:15Z</time>
      </trkpt>
      <trkpt lat="45.9526" lon="4.7497">
        <ele>192</ele>
        <time>2018-09-04T09:42:16Z</time>
      </trkpt>
      <trkpt lat="45.95257" lon="4.74965">
        <ele>192</ele>
        <time>2018-09-04T09:42:17Z</time>
      </trkpt>
      <trkpt lat="45.95253" lon="4.7496">
        <ele>192</ele>
        <time>2018-09-04T09:42:18Z</time>
      </trkpt>
      <trkpt lat="45.9525" lon="4.74954">
        <ele>192</ele>
        <time>2018-09-04T09:42:19Z</time>
      </trkpt>
      <trkpt lat="45.95247" lon="4.74948">
        <ele>192</ele>
        <time>2018-09-04T09:42:20Z</time>
      </trkpt>
      <trkpt lat="45.95244" lon="4.74942">
        <ele>192</ele>
        <time>2018-09-04T09:42:21Z</time>
      </trkpt>
      <trkpt lat="45.95242" lon="4.74937">
        <ele>192</ele>
        <time>2018-09-04T09:42:22Z</time>
      </trkpt>
      <trkpt lat="45.95237" lon="4.74932">
        <ele>192</ele>
        <time>2018-09-04T09:42:23Z</time>
      </trkpt>
      <trkpt lat="45.95235" lon="4.74928">
        <ele>192</ele>
        <time>2018-09-04T09:42:24Z</time>
      </trkpt>
      <trkpt lat="45.95229" lon="4.74923">
        <ele>192</ele>
        <time>2018-09-04T09:42:25Z</time>
      </trkpt>
      <trkpt lat="45.95225" lon="4.74914">
        <ele>193</ele>
        <time>2018-09-04T09:42:27Z</time>
      </trkpt>
      <trkpt lat="45.95222" lon="4.74909">
        <ele>193</ele>
        <time>2018-09-04T09:42:28Z</time>
      </trkpt>
      <trkpt lat="45.95218" lon="4.74904">
        <ele>193</ele>
        <time>2018-09-04T09:42:29Z</time>
      </trkpt>
      <trkpt lat="45.95213" lon="4.74898">
        <ele>193</ele>
        <time>2018-09-04T09:42:30Z</time>
      </trkpt>
      <trkpt lat="45.95209" lon="4.74891">
        <ele>193</ele>
        <time>2018-09-04T09:42:31Z</time>
      </trkpt>
      <trkpt lat="45.95206" lon="4.74886">
        <ele>194</ele>
        <time>2018-09-04T09:42:32Z</time>
      </trkpt>
      <trkpt lat="45.95203" lon="4.7488">
        <ele>194</ele>
        <time>2018-09-04T09:42:33Z</time>
      </trkpt>
      <trkpt lat="45.95199" lon="4.74875">
        <ele>194</ele>
        <time>2018-09-04T09:42:34Z</time>
      </trkpt>
      <trkpt lat="45.95193" lon="4.74866">
        <ele>194</ele>
        <time>2018-09-04T09:42:36Z</time>
      </trkpt>
      <trkpt lat="45.95186" lon="4.74861">
        <ele>194</ele>
        <time>2018-09-04T09:42:37Z</time>
      </trkpt>
      <trkpt lat="45.95182" lon="4.74854">
        <ele>194</ele>
        <time>2018-09-04T09:42:38Z</time>
      </trkpt>
      <trkpt lat="45.95179" lon="4.74849">
        <ele>194</ele>
        <time>2018-09-04T09:42:39Z</time>
      </trkpt>
      <trkpt lat="45.95175" lon="4.74843">
        <ele>194</ele>
        <time>2018-09-04T09:42:40Z</time>
      </trkpt>
      <trkpt lat="45.95171" lon="4.74837">
        <ele>194</ele>
        <time>2018-09-04T09:42:41Z</time>
      </trkpt>
      <trkpt lat="45.95169" lon="4.74832">
        <ele>194</ele>
        <time>2018-09-04T09:42:42Z</time>
      </trkpt>
      <trkpt lat="45.95165" lon="4.74827">
        <ele>194</ele>
        <time>2018-09-04T09:42:43Z</time>
      </trkpt>
      <trkpt lat="45.95162" lon="4.74821">
        <ele>194</ele>
        <time>2018-09-04T09:42:44Z</time>
      </trkpt>
      <trkpt lat="45.95158" lon="4.74817">
        <ele>194</ele>
        <time>2018-09-04T09:42:45Z</time>
      </trkpt>
      <trkpt lat="45.95155" lon="4.74811">
        <ele>194</ele>
        <time>2018-09-04T09:42:46Z</time>
      </trkpt>
      <trkpt lat="45.95152" lon="4.74805">
        <ele>194</ele>
        <time>2018-09-04T09:42:47Z</time>
      </trkpt>
      <trkpt lat="45.95149" lon="4.748">
        <ele>194</ele>
        <time>2018-09-04T09:42:48Z</time>
      </trkpt>
      <trkpt lat="45.95146" lon="4.74794">
        <ele>194</ele>
        <time>2018-09-04T09:42:49Z</time>
      </trkpt>
      <trkpt lat="45.95142" lon="4.74788">
        <ele>194</ele>
        <time>2018-09-04T09:42:50Z</time>
      </trkpt>
      <trkpt lat="45.95138" lon="4.74782">
        <ele>194</ele>
        <time>2018-09-04T09:42:51Z</time>
      </trkpt>
      <trkpt lat="45.95134" lon="4.74772">
        <ele>194</ele>
        <time>2018-09-04T09:42:53Z</time>
      </trkpt>
      <trkpt lat="45.95129" lon="4.74767">
        <ele>194</ele>
        <time>2018-09-04T09:42:54Z</time>
      </trkpt>
      <trkpt lat="45.95125" lon="4.7476">
        <ele>194</ele>
        <time>2018-09-04T09:42:55Z</time>
      </trkpt>
      <trkpt lat="45.95123" lon="4.74755">
        <ele>194</ele>
        <time>2018-09-04T09:42:56Z</time>
      </trkpt>
      <trkpt lat="45.9512" lon="4.74749">
        <ele>194</ele>
        <time>2018-09-04T09:42:57Z</time>
      </trkpt>
      <trkpt lat="45.95116" lon="4.74742">
        <ele>194</ele>
        <time>2018-09-04T09:42:58Z</time>
      </trkpt>
      <trkpt lat="45.95112" lon="4.74735">
        <ele>194</ele>
        <time>2018-09-04T09:42:59Z</time>
      </trkpt>
      <trkpt lat="45.95108" lon="4.74728">
        <ele>194</ele>
        <time>2018-09-04T09:43:00Z</time>
      </trkpt>
      <trkpt lat="45.95105" lon="4.74722">
        <ele>194</ele>
        <time>2018-09-04T09:43:01Z</time>
      </trkpt>
      <trkpt lat="45.95101" lon="4.74715">
        <ele>194</ele>
        <time>2018-09-04T09:43:02Z</time>
      </trkpt>
      <trkpt lat="45.95098" lon="4.74709">
        <ele>194</ele>
        <time>2018-09-04T09:43:03Z</time>
      </trkpt>
      <trkpt lat="45.95094" lon="4.74702">
        <ele>194</ele>
        <time>2018-09-04T09:43:04Z</time>
      </trkpt>
      <trkpt lat="45.95089" lon="4.74697">
        <ele>194</ele>
        <time>2018-09-04T09:43:05Z</time>
      </trkpt>
      <trkpt lat="45.95085" lon="4.74692">
        <ele>195</ele>
        <time>2018-09-04T09:43:06Z</time>
      </trkpt>
      <trkpt lat="45.95083" lon="4.74685">
        <ele>194</ele>
        <time>2018-09-04T09:43:07Z</time>
      </trkpt>
      <trkpt lat="45.95079" lon="4.74679">
        <ele>194</ele>
        <time>2018-09-04T09:43:08Z</time>
      </trkpt>
      <trkpt lat="45.95073" lon="4.74674">
        <ele>194</ele>
        <time>2018-09-04T09:43:09Z</time>
      </trkpt>
      <trkpt lat="45.9507" lon="4.74668">
        <ele>194</ele>
        <time>2018-09-04T09:43:10Z</time>
      </trkpt>
      <trkpt lat="45.95065" lon="4.74663">
        <ele>195</ele>
        <time>2018-09-04T09:43:11Z</time>
      </trkpt>
      <trkpt lat="45.95061" lon="4.74656">
        <ele>194</ele>
        <time>2018-09-04T09:43:12Z</time>
      </trkpt>
      <trkpt lat="45.95058" lon="4.7465">
        <ele>194</ele>
        <time>2018-09-04T09:43:13Z</time>
      </trkpt>
      <trkpt lat="45.95052" lon="4.74643">
        <ele>194</ele>
        <time>2018-09-04T09:43:14Z</time>
      </trkpt>
      <trkpt lat="45.95047" lon="4.74636">
        <ele>194</ele>
        <time>2018-09-04T09:43:15Z</time>
      </trkpt>
      <trkpt lat="45.95044" lon="4.7463">
        <ele>194</ele>
        <time>2018-09-04T09:43:16Z</time>
      </trkpt>
      <trkpt lat="45.9504" lon="4.74623">
        <ele>194</ele>
        <time>2018-09-04T09:43:17Z</time>
      </trkpt>
      <trkpt lat="45.95037" lon="4.74617">
        <ele>194</ele>
        <time>2018-09-04T09:43:18Z</time>
      </trkpt>
      <trkpt lat="45.95034" lon="4.7461">
        <ele>194</ele>
        <time>2018-09-04T09:43:19Z</time>
      </trkpt>
      <trkpt lat="45.95031" lon="4.74604">
        <ele>194</ele>
        <time>2018-09-04T09:43:20Z</time>
      </trkpt>
      <trkpt lat="45.95027" lon="4.74598">
        <ele>194</ele>
        <time>2018-09-04T09:43:21Z</time>
      </trkpt>
      <trkpt lat="45.95024" lon="4.74592">
        <ele>194</ele>
        <time>2018-09-04T09:43:22Z</time>
      </trkpt>
      <trkpt lat="45.9502" lon="4.74584">
        <ele>194</ele>
        <time>2018-09-04T09:43:23Z</time>
      </trkpt>
      <trkpt lat="45.95016" lon="4.74578">
        <ele>194</ele>
        <time>2018-09-04T09:43:24Z</time>
      </trkpt>
      <trkpt lat="45.95015" lon="4.74571">
        <ele>194</ele>
        <time>2018-09-04T09:43:25Z</time>
      </trkpt>
      <trkpt lat="45.9501" lon="4.74564">
        <ele>194</ele>
        <time>2018-09-04T09:43:26Z</time>
      </trkpt>
      <trkpt lat="45.95006" lon="4.74556">
        <ele>194</ele>
        <time>2018-09-04T09:43:27Z</time>
      </trkpt>
      <trkpt lat="45.95002" lon="4.74548">
        <ele>194</ele>
        <time>2018-09-04T09:43:28Z</time>
      </trkpt>
      <trkpt lat="45.94997" lon="4.7454">
        <ele>193</ele>
        <time>2018-09-04T09:43:29Z</time>
      </trkpt>
      <trkpt lat="45.94994" lon="4.7453">
        <ele>193</ele>
        <time>2018-09-04T09:43:30Z</time>
      </trkpt>
      <trkpt lat="45.94989" lon="4.74522">
        <ele>193</ele>
        <time>2018-09-04T09:43:31Z</time>
      </trkpt>
      <trkpt lat="45.94985" lon="4.74514">
        <ele>193</ele>
        <time>2018-09-04T09:43:32Z</time>
      </trkpt>
      <trkpt lat="45.94981" lon="4.74505">
        <ele>193</ele>
        <time>2018-09-04T09:43:33Z</time>
      </trkpt>
      <trkpt lat="45.94977" lon="4.74496">
        <ele>193</ele>
        <time>2018-09-04T09:43:34Z</time>
      </trkpt>
      <trkpt lat="45.94973" lon="4.74487">
        <ele>193</ele>
        <time>2018-09-04T09:43:35Z</time>
      </trkpt>
      <trkpt lat="45.94969" lon="4.74477">
        <ele>193</ele>
        <time>2018-09-04T09:43:36Z</time>
      </trkpt>
      <trkpt lat="45.94965" lon="4.74468">
        <ele>193</ele>
        <time>2018-09-04T09:43:37Z</time>
      </trkpt>
      <trkpt lat="45.94961" lon="4.7446">
        <ele>193</ele>
        <time>2018-09-04T09:43:38Z</time>
      </trkpt>
      <trkpt lat="45.94956" lon="4.74452">
        <ele>192</ele>
        <time>2018-09-04T09:43:39Z</time>
      </trkpt>
      <trkpt lat="45.94952" lon="4.74443">
        <ele>192</ele>
        <time>2018-09-04T09:43:40Z</time>
      </trkpt>
      <trkpt lat="45.94946" lon="4.74433">
        <ele>192</ele>
        <time>2018-09-04T09:43:41Z</time>
      </trkpt>
      <trkpt lat="45.9494" lon="4.74424">
        <ele>192</ele>
        <time>2018-09-04T09:43:42Z</time>
      </trkpt>
      <trkpt lat="45.94932" lon="4.74414">
        <ele>192</ele>
        <time>2018-09-04T09:43:43Z</time>
      </trkpt>
      <trkpt lat="45.94927" lon="4.74404">
        <ele>192</ele>
        <time>2018-09-04T09:43:44Z</time>
      </trkpt>
      <trkpt lat="45.94923" lon="4.74395">
        <ele>192</ele>
        <time>2018-09-04T09:43:45Z</time>
      </trkpt>
      <trkpt lat="45.94922" lon="4.74386">
        <ele>192</ele>
        <time>2018-09-04T09:43:46Z</time>
      </trkpt>
      <trkpt lat="45.94918" lon="4.74377">
        <ele>192</ele>
        <time>2018-09-04T09:43:47Z</time>
      </trkpt>
      <trkpt lat="45.94914" lon="4.74365">
        <ele>191</ele>
        <time>2018-09-04T09:43:48Z</time>
      </trkpt>
      <trkpt lat="45.9491" lon="4.74355">
        <ele>191</ele>
        <time>2018-09-04T09:43:49Z</time>
      </trkpt>
      <trkpt lat="45.94905" lon="4.74346">
        <ele>191</ele>
        <time>2018-09-04T09:43:50Z</time>
      </trkpt>
      <trkpt lat="45.949" lon="4.74337">
        <ele>191</ele>
        <time>2018-09-04T09:43:51Z</time>
      </trkpt>
      <trkpt lat="45.94895" lon="4.74329">
        <ele>191</ele>
        <time>2018-09-04T09:43:52Z</time>
      </trkpt>
      <trkpt lat="45.9489" lon="4.74322">
        <ele>191</ele>
        <time>2018-09-04T09:43:53Z</time>
      </trkpt>
      <trkpt lat="45.94886" lon="4.74314">
        <ele>191</ele>
        <time>2018-09-04T09:43:54Z</time>
      </trkpt>
      <trkpt lat="45.94883" lon="4.74308">
        <ele>191</ele>
        <time>2018-09-04T09:43:55Z</time>
      </trkpt>
      <trkpt lat="45.94879" lon="4.743">
        <ele>191</ele>
        <time>2018-09-04T09:43:56Z</time>
      </trkpt>
      <trkpt lat="45.94874" lon="4.74292">
        <ele>191</ele>
        <time>2018-09-04T09:43:57Z</time>
      </trkpt>
      <trkpt lat="45.94871" lon="4.74283">
        <ele>191</ele>
        <time>2018-09-04T09:43:58Z</time>
      </trkpt>
      <trkpt lat="45.94867" lon="4.74276">
        <ele>191</ele>
        <time>2018-09-04T09:43:59Z</time>
      </trkpt>
      <trkpt lat="45.94862" lon="4.74268">
        <ele>190</ele>
        <time>2018-09-04T09:44:00Z</time>
      </trkpt>
      <trkpt lat="45.94858" lon="4.74261">
        <ele>190</ele>
        <time>2018-09-04T09:44:01Z</time>
      </trkpt>
      <trkpt lat="45.94855" lon="4.74253">
        <ele>190</ele>
        <time>2018-09-04T09:44:02Z</time>
      </trkpt>
      <trkpt lat="45.94851" lon="4.74245">
        <ele>190</ele>
        <time>2018-09-04T09:44:03Z</time>
      </trkpt>
      <trkpt lat="45.94848" lon="4.74238">
        <ele>190</ele>
        <time>2018-09-04T09:44:04Z</time>
      </trkpt>
      <trkpt lat="45.94843" lon="4.74231">
        <ele>190</ele>
        <time>2018-09-04T09:44:05Z</time>
      </trkpt>
      <trkpt lat="45.9484" lon="4.74223">
        <ele>190</ele>
        <time>2018-09-04T09:44:06Z</time>
      </trkpt>
      <trkpt lat="45.94836" lon="4.74216">
        <ele>190</ele>
        <time>2018-09-04T09:44:07Z</time>
      </trkpt>
      <trkpt lat="45.94833" lon="4.7421">
        <ele>189</ele>
        <time>2018-09-04T09:44:08Z</time>
      </trkpt>
      <trkpt lat="45.94829" lon="4.74205">
        <ele>189</ele>
        <time>2018-09-04T09:44:09Z</time>
      </trkpt>
      <trkpt lat="45.94825" lon="4.74198">
        <ele>189</ele>
        <time>2018-09-04T09:44:10Z</time>
      </trkpt>
      <trkpt lat="45.94821" lon="4.74192">
        <ele>189</ele>
        <time>2018-09-04T09:44:11Z</time>
      </trkpt>
      <trkpt lat="45.94817" lon="4.74186">
        <ele>189</ele>
        <time>2018-09-04T09:44:12Z</time>
      </trkpt>
      <trkpt lat="45.94814" lon="4.74179">
        <ele>189</ele>
        <time>2018-09-04T09:44:13Z</time>
      </trkpt>
      <trkpt lat="45.94811" lon="4.74172">
        <ele>189</ele>
        <time>2018-09-04T09:44:14Z</time>
      </trkpt>
      <trkpt lat="45.94808" lon="4.74166">
        <ele>189</ele>
        <time>2018-09-04T09:44:15Z</time>
      </trkpt>
      <trkpt lat="45.94804" lon="4.74159">
        <ele>189</ele>
        <time>2018-09-04T09:44:16Z</time>
      </trkpt>
      <trkpt lat="45.948" lon="4.74155">
        <ele>189</ele>
        <time>2018-09-04T09:44:17Z</time>
      </trkpt>
      <trkpt lat="45.94796" lon="4.74147">
        <ele>189</ele>
        <time>2018-09-04T09:44:18Z</time>
      </trkpt>
      <trkpt lat="45.94795" lon="4.74141">
        <ele>189</ele>
        <time>2018-09-04T09:44:19Z</time>
      </trkpt>
      <trkpt lat="45.94791" lon="4.74135">
        <ele>189</ele>
        <time>2018-09-04T09:44:20Z</time>
      </trkpt>
      <trkpt lat="45.94787" lon="4.74127">
        <ele>189</ele>
        <time>2018-09-04T09:44:21Z</time>
      </trkpt>
      <trkpt lat="45.94783" lon="4.74121">
        <ele>189</ele>
        <time>2018-09-04T09:44:22Z</time>
      </trkpt>
      <trkpt lat="45.94779" lon="4.74115">
        <ele>189</ele>
        <time>2018-09-04T09:44:23Z</time>
      </trkpt>
      <trkpt lat="45.94775" lon="4.74108">
        <ele>189</ele>
        <time>2018-09-04T09:44:24Z</time>
      </trkpt>
      <trkpt lat="45.94764" lon="4.74103">
        <ele>189</ele>
        <time>2018-09-04T09:44:25Z</time>
      </trkpt>
      <trkpt lat="45.94758" lon="4.74097">
        <ele>189</ele>
        <time>2018-09-04T09:44:26Z</time>
      </trkpt>
      <trkpt lat="45.94754" lon="4.7409">
        <ele>189</ele>
        <time>2018-09-04T09:44:27Z</time>
      </trkpt>
      <trkpt lat="45.9475" lon="4.74083">
        <ele>189</ele>
        <time>2018-09-04T09:44:28Z</time>
      </trkpt>
      <trkpt lat="45.94749" lon="4.74077">
        <ele>189</ele>
        <time>2018-09-04T09:44:29Z</time>
      </trkpt>
      <trkpt lat="45.94744" lon="4.74071">
        <ele>188</ele>
        <time>2018-09-04T09:44:30Z</time>
      </trkpt>
      <trkpt lat="45.9474" lon="4.74064">
        <ele>188</ele>
        <time>2018-09-04T09:44:31Z</time>
      </trkpt>
      <trkpt lat="45.94734" lon="4.74059">
        <ele>188</ele>
        <time>2018-09-04T09:44:32Z</time>
      </trkpt>
      <trkpt lat="45.94731" lon="4.74055">
        <ele>188</ele>
        <time>2018-09-04T09:44:33Z</time>
      </trkpt>
      <trkpt lat="45.94726" lon="4.74048">
        <ele>188</ele>
        <time>2018-09-04T09:44:34Z</time>
      </trkpt>
      <trkpt lat="45.94718" lon="4.74043">
        <ele>187</ele>
        <time>2018-09-04T09:44:35Z</time>
      </trkpt>
      <trkpt lat="45.94714" lon="4.74037">
        <ele>187</ele>
        <time>2018-09-04T09:44:36Z</time>
      </trkpt>
      <trkpt lat="45.9471" lon="4.74033">
        <ele>187</ele>
        <time>2018-09-04T09:44:37Z</time>
      </trkpt>
      <trkpt lat="45.94706" lon="4.74028">
        <ele>187</ele>
        <time>2018-09-04T09:44:38Z</time>
      </trkpt>
      <trkpt lat="45.94702" lon="4.74022">
        <ele>187</ele>
        <time>2018-09-04T09:44:39Z</time>
      </trkpt>
      <trkpt lat="45.94697" lon="4.74015">
        <ele>187</ele>
        <time>2018-09-04T09:44:41Z</time>
      </trkpt>
      <trkpt lat="45.94694" lon="4.7401">
        <ele>187</ele>
        <time>2018-09-04T09:44:42Z</time>
      </trkpt>
      <trkpt lat="45.9469" lon="4.74004">
        <ele>187</ele>
        <time>2018-09-04T09:44:43Z</time>
      </trkpt>
      <trkpt lat="45.94685" lon="4.73999">
        <ele>187</ele>
        <time>2018-09-04T09:44:44Z</time>
      </trkpt>
      <trkpt lat="45.94682" lon="4.73993">
        <ele>187</ele>
        <time>2018-09-04T09:44:45Z</time>
      </trkpt>
      <trkpt lat="45.94679" lon="4.73988">
        <ele>187</ele>
        <time>2018-09-04T09:44:46Z</time>
      </trkpt>
      <trkpt lat="45.94675" lon="4.73982">
        <ele>187</ele>
        <time>2018-09-04T09:44:47Z</time>
      </trkpt>
      <trkpt lat="45.94672" lon="4.73977">
        <ele>187</ele>
        <time>2018-09-04T09:44:48Z</time>
      </trkpt>
      <trkpt lat="45.94669" lon="4.73972">
        <ele>187</ele>
        <time>2018-09-04T09:44:49Z</time>
      </trkpt>
      <trkpt lat="45.94666" lon="4.73967">
        <ele>187</ele>
        <time>2018-09-04T09:44:50Z</time>
      </trkpt>
      <trkpt lat="45.94662" lon="4.73962">
        <ele>187</ele>
        <time>2018-09-04T09:44:51Z</time>
      </trkpt>
      <trkpt lat="45.94658" lon="4.73956">
        <ele>187</ele>
        <time>2018-09-04T09:44:52Z</time>
      </trkpt>
      <trkpt lat="45.94654" lon="4.73951">
        <ele>187</ele>
        <time>2018-09-04T09:44:53Z</time>
      </trkpt>
      <trkpt lat="45.94647" lon="4.73946">
        <ele>187</ele>
        <time>2018-09-04T09:44:54Z</time>
      </trkpt>
      <trkpt lat="45.94641" lon="4.7394">
        <ele>187</ele>
        <time>2018-09-04T09:44:55Z</time>
      </trkpt>
      <trkpt lat="45.94639" lon="4.73933">
        <ele>187</ele>
        <time>2018-09-04T09:44:56Z</time>
      </trkpt>
      <trkpt lat="45.94634" lon="4.73927">
        <ele>187</ele>
        <time>2018-09-04T09:44:57Z</time>
      </trkpt>
      <trkpt lat="45.94629" lon="4.73921">
        <ele>187</ele>
        <time>2018-09-04T09:44:58Z</time>
      </trkpt>
      <trkpt lat="45.94624" lon="4.73915">
        <ele>187</ele>
        <time>2018-09-04T09:44:59Z</time>
      </trkpt>
      <trkpt lat="45.94618" lon="4.73909">
        <ele>187</ele>
        <time>2018-09-04T09:45:00Z</time>
      </trkpt>
      <trkpt lat="45.94613" lon="4.73903">
        <ele>187</ele>
        <time>2018-09-04T09:45:01Z</time>
      </trkpt>
      <trkpt lat="45.94609" lon="4.73898">
        <ele>187</ele>
        <time>2018-09-04T09:45:02Z</time>
      </trkpt>
      <trkpt lat="45.94603" lon="4.73892">
        <ele>187</ele>
        <time>2018-09-04T09:45:03Z</time>
      </trkpt>
      <trkpt lat="45.946" lon="4.73887">
        <ele>187</ele>
        <time>2018-09-04T09:45:04Z</time>
      </trkpt>
      <trkpt lat="45.94595" lon="4.73881">
        <ele>187</ele>
        <time>2018-09-04T09:45:05Z</time>
      </trkpt>
      <trkpt lat="45.94591" lon="4.73875">
        <ele>187</ele>
        <time>2018-09-04T09:45:06Z</time>
      </trkpt>
      <trkpt lat="45.94583" lon="4.7387">
        <ele>186</ele>
        <time>2018-09-04T09:45:07Z</time>
      </trkpt>
      <trkpt lat="45.9458" lon="4.73864">
        <ele>186</ele>
        <time>2018-09-04T09:45:08Z</time>
      </trkpt>
      <trkpt lat="45.94576" lon="4.73859">
        <ele>186</ele>
        <time>2018-09-04T09:45:09Z</time>
      </trkpt>
      <trkpt lat="45.94573" lon="4.73854">
        <ele>186</ele>
        <time>2018-09-04T09:45:10Z</time>
      </trkpt>
      <trkpt lat="45.9457" lon="4.73849">
        <ele>186</ele>
        <time>2018-09-04T09:45:11Z</time>
      </trkpt>
      <trkpt lat="45.94564" lon="4.73843">
        <ele>186</ele>
        <time>2018-09-04T09:45:12Z</time>
      </trkpt>
      <trkpt lat="45.94561" lon="4.73838">
        <ele>186</ele>
        <time>2018-09-04T09:45:13Z</time>
      </trkpt>
      <trkpt lat="45.94556" lon="4.73833">
        <ele>186</ele>
        <time>2018-09-04T09:45:14Z</time>
      </trkpt>
      <trkpt lat="45.9455" lon="4.73828">
        <ele>186</ele>
        <time>2018-09-04T09:45:15Z</time>
      </trkpt>
      <trkpt lat="45.94545" lon="4.73824">
        <ele>186</ele>
        <time>2018-09-04T09:45:16Z</time>
      </trkpt>
      <trkpt lat="45.94541" lon="4.73818">
        <ele>186</ele>
        <time>2018-09-04T09:45:17Z</time>
      </trkpt>
      <trkpt lat="45.9453" lon="4.7381">
        <ele>186</ele>
        <time>2018-09-04T09:45:18Z</time>
      </trkpt>
      <trkpt lat="45.94523" lon="4.73806">
        <ele>186</ele>
        <time>2018-09-04T09:45:19Z</time>
      </trkpt>
      <trkpt lat="45.94518" lon="4.73801">
        <ele>186</ele>
        <time>2018-09-04T09:45:20Z</time>
      </trkpt>
      <trkpt lat="45.94514" lon="4.73795">
        <ele>186</ele>
        <time>2018-09-04T09:45:21Z</time>
      </trkpt>
      <trkpt lat="45.94511" lon="4.73791">
        <ele>186</ele>
        <time>2018-09-04T09:45:22Z</time>
      </trkpt>
      <trkpt lat="45.94507" lon="4.73787">
        <ele>186</ele>
        <time>2018-09-04T09:45:23Z</time>
      </trkpt>
      <trkpt lat="45.94503" lon="4.73782">
        <ele>186</ele>
        <time>2018-09-04T09:45:24Z</time>
      </trkpt>
      <trkpt lat="45.94496" lon="4.73774">
        <ele>186</ele>
        <time>2018-09-04T09:45:26Z</time>
      </trkpt>
      <trkpt lat="45.94493" lon="4.73767">
        <ele>186</ele>
        <time>2018-09-04T09:45:27Z</time>
      </trkpt>
      <trkpt lat="45.94489" lon="4.73761">
        <ele>186</ele>
        <time>2018-09-04T09:45:28Z</time>
      </trkpt>
      <trkpt lat="45.94486" lon="4.73755">
        <ele>186</ele>
        <time>2018-09-04T09:45:29Z</time>
      </trkpt>
      <trkpt lat="45.94484" lon="4.73748">
        <ele>186</ele>
        <time>2018-09-04T09:45:30Z</time>
      </trkpt>
      <trkpt lat="45.94484" lon="4.73741">
        <ele>186</ele>
        <time>2018-09-04T09:45:31Z</time>
      </trkpt>
      <trkpt lat="45.94484" lon="4.73732">
        <ele>186</ele>
        <time>2018-09-04T09:45:32Z</time>
      </trkpt>
      <trkpt lat="45.94484" lon="4.73724">
        <ele>186</ele>
        <time>2018-09-04T09:45:33Z</time>
      </trkpt>
      <trkpt lat="45.94485" lon="4.73716">
        <ele>186</ele>
        <time>2018-09-04T09:45:34Z</time>
      </trkpt>
      <trkpt lat="45.94486" lon="4.73707">
        <ele>186</ele>
        <time>2018-09-04T09:45:35Z</time>
      </trkpt>
      <trkpt lat="45.94487" lon="4.73698">
        <ele>186</ele>
        <time>2018-09-04T09:45:36Z</time>
      </trkpt>
      <trkpt lat="45.94489" lon="4.7369">
        <ele>186</ele>
        <time>2018-09-04T09:45:37Z</time>
      </trkpt>
      <trkpt lat="45.9449" lon="4.73682">
        <ele>186</ele>
        <time>2018-09-04T09:45:38Z</time>
      </trkpt>
      <trkpt lat="45.94491" lon="4.73674">
        <ele>185</ele>
        <time>2018-09-04T09:45:39Z</time>
      </trkpt>
      <trkpt lat="45.94493" lon="4.73666">
        <ele>185</ele>
        <time>2018-09-04T09:45:40Z</time>
      </trkpt>
      <trkpt lat="45.94495" lon="4.73658">
        <ele>185</ele>
        <time>2018-09-04T09:45:41Z</time>
      </trkpt>
      <trkpt lat="45.94497" lon="4.73652">
        <ele>185</ele>
        <time>2018-09-04T09:45:42Z</time>
      </trkpt>
      <trkpt lat="45.94498" lon="4.73644">
        <ele>186</ele>
        <time>2018-09-04T09:45:43Z</time>
      </trkpt>
      <trkpt lat="45.94499" lon="4.73636">
        <ele>186</ele>
        <time>2018-09-04T09:45:44Z</time>
      </trkpt>
      <trkpt lat="45.94499" lon="4.73629">
        <ele>186</ele>
        <time>2018-09-04T09:45:45Z</time>
      </trkpt>
      <trkpt lat="45.945" lon="4.73621">
        <ele>186</ele>
        <time>2018-09-04T09:45:46Z</time>
      </trkpt>
      <trkpt lat="45.94501" lon="4.73614">
        <ele>184</ele>
        <time>2018-09-04T09:45:47Z</time>
      </trkpt>
      <trkpt lat="45.94502" lon="4.73606">
        <ele>184</ele>
        <time>2018-09-04T09:45:48Z</time>
      </trkpt>
      <trkpt lat="45.94503" lon="4.73597">
        <ele>184</ele>
        <time>2018-09-04T09:45:49Z</time>
      </trkpt>
      <trkpt lat="45.94504" lon="4.73587">
        <ele>185</ele>
        <time>2018-09-04T09:45:50Z</time>
      </trkpt>
      <trkpt lat="45.94505" lon="4.73578">
        <ele>184</ele>
        <time>2018-09-04T09:45:51Z</time>
      </trkpt>
      <trkpt lat="45.94506" lon="4.73568">
        <ele>184</ele>
        <time>2018-09-04T09:45:52Z</time>
      </trkpt>
      <trkpt lat="45.94504" lon="4.73558">
        <ele>184</ele>
        <time>2018-09-04T09:45:53Z</time>
      </trkpt>
      <trkpt lat="45.94506" lon="4.7355">
        <ele>183</ele>
        <time>2018-09-04T09:45:54Z</time>
      </trkpt>
      <trkpt lat="45.94507" lon="4.73541">
        <ele>183</ele>
        <time>2018-09-04T09:45:55Z</time>
      </trkpt>
      <trkpt lat="45.94507" lon="4.73534">
        <ele>183</ele>
        <time>2018-09-04T09:45:56Z</time>
      </trkpt>
      <trkpt lat="45.94508" lon="4.73524">
        <ele>183</ele>
        <time>2018-09-04T09:45:57Z</time>
      </trkpt>
      <trkpt lat="45.94507" lon="4.73515">
        <ele>183</ele>
        <time>2018-09-04T09:45:58Z</time>
      </trkpt>
      <trkpt lat="45.94508" lon="4.73504">
        <ele>183</ele>
        <time>2018-09-04T09:45:59Z</time>
      </trkpt>
      <trkpt lat="45.94507" lon="4.73493">
        <ele>182</ele>
        <time>2018-09-04T09:46:00Z</time>
      </trkpt>
      <trkpt lat="45.94506" lon="4.73483">
        <ele>182</ele>
        <time>2018-09-04T09:46:01Z</time>
      </trkpt>
      <trkpt lat="45.94506" lon="4.73473">
        <ele>182</ele>
        <time>2018-09-04T09:46:02Z</time>
      </trkpt>
      <trkpt lat="45.94506" lon="4.73464">
        <ele>181</ele>
        <time>2018-09-04T09:46:03Z</time>
      </trkpt>
      <trkpt lat="45.94503" lon="4.73451">
        <ele>181</ele>
        <time>2018-09-04T09:46:04Z</time>
      </trkpt>
      <trkpt lat="45.94501" lon="4.73441">
        <ele>181</ele>
        <time>2018-09-04T09:46:05Z</time>
      </trkpt>
      <trkpt lat="45.94501" lon="4.73431">
        <ele>180</ele>
        <time>2018-09-04T09:46:06Z</time>
      </trkpt>
      <trkpt lat="45.94501" lon="4.7342">
        <ele>180</ele>
        <time>2018-09-04T09:46:07Z</time>
      </trkpt>
      <trkpt lat="45.945" lon="4.73409">
        <ele>180</ele>
        <time>2018-09-04T09:46:08Z</time>
      </trkpt>
      <trkpt lat="45.94499" lon="4.73398">
        <ele>180</ele>
        <time>2018-09-04T09:46:09Z</time>
      </trkpt>
      <trkpt lat="45.94497" lon="4.73385">
        <ele>179</ele>
        <time>2018-09-04T09:46:10Z</time>
      </trkpt>
      <trkpt lat="45.94496" lon="4.73376">
        <ele>179</ele>
        <time>2018-09-04T09:46:11Z</time>
      </trkpt>
      <trkpt lat="45.94495" lon="4.73366">
        <ele>179</ele>
        <time>2018-09-04T09:46:12Z</time>
      </trkpt>
      <trkpt lat="45.94493" lon="4.73354">
        <ele>178</ele>
        <time>2018-09-04T09:46:13Z</time>
      </trkpt>
      <trkpt lat="45.94493" lon="4.73342">
        <ele>178</ele>
        <time>2018-09-04T09:46:14Z</time>
      </trkpt>
      <trkpt lat="45.94492" lon="4.73331">
        <ele>177</ele>
        <time>2018-09-04T09:46:15Z</time>
      </trkpt>
      <trkpt lat="45.94491" lon="4.73321">
        <ele>177</ele>
        <time>2018-09-04T09:46:16Z</time>
      </trkpt>
      <trkpt lat="45.9449" lon="4.73311">
        <ele>177</ele>
        <time>2018-09-04T09:46:17Z</time>
      </trkpt>
      <trkpt lat="45.94489" lon="4.733">
        <ele>177</ele>
        <time>2018-09-04T09:46:18Z</time>
      </trkpt>
      <trkpt lat="45.94489" lon="4.73289">
        <ele>177</ele>
        <time>2018-09-04T09:46:19Z</time>
      </trkpt>
      <trkpt lat="45.94489" lon="4.73279">
        <ele>177</ele>
        <time>2018-09-04T09:46:20Z</time>
      </trkpt>
      <trkpt lat="45.94487" lon="4.73267">
        <ele>177</ele>
        <time>2018-09-04T09:46:21Z</time>
      </trkpt>
      <trkpt lat="45.94485" lon="4.73255">
        <ele>176</ele>
        <time>2018-09-04T09:46:22Z</time>
      </trkpt>
      <trkpt lat="45.94484" lon="4.73244">
        <ele>175</ele>
        <time>2018-09-04T09:46:23Z</time>
      </trkpt>
      <trkpt lat="45.94483" lon="4.73233">
        <ele>175</ele>
        <time>2018-09-04T09:46:24Z</time>
      </trkpt>
      <trkpt lat="45.94482" lon="4.73223">
        <ele>175</ele>
        <time>2018-09-04T09:46:25Z</time>
      </trkpt>
      <trkpt lat="45.9448" lon="4.73212">
        <ele>175</ele>
        <time>2018-09-04T09:46:26Z</time>
      </trkpt>
      <trkpt lat="45.94478" lon="4.732">
        <ele>174</ele>
        <time>2018-09-04T09:46:27Z</time>
      </trkpt>
      <trkpt lat="45.94476" lon="4.73189">
        <ele>174</ele>
        <time>2018-09-04T09:46:28Z</time>
      </trkpt>
      <trkpt lat="45.94473" lon="4.73177">
        <ele>174</ele>
        <time>2018-09-04T09:46:29Z</time>
      </trkpt>
      <trkpt lat="45.94479" lon="4.73171">
        <ele>174</ele>
        <time>2018-09-04T09:46:30Z</time>
      </trkpt>
      <trkpt lat="45.94477" lon="4.73161">
        <ele>173</ele>
        <time>2018-09-04T09:46:31Z</time>
      </trkpt>
      <trkpt lat="45.94474" lon="4.7315">
        <ele>172</ele>
        <time>2018-09-04T09:46:32Z</time>
      </trkpt>
      <trkpt lat="45.94473" lon="4.7314">
        <ele>172</ele>
        <time>2018-09-04T09:46:33Z</time>
      </trkpt>
      <trkpt lat="45.94472" lon="4.7313">
        <ele>172</ele>
        <time>2018-09-04T09:46:34Z</time>
      </trkpt>
      <trkpt lat="45.94471" lon="4.7312">
        <ele>172</ele>
        <time>2018-09-04T09:46:35Z</time>
      </trkpt>
      <trkpt lat="45.9447" lon="4.7311">
        <ele>172</ele>
        <time>2018-09-04T09:46:36Z</time>
      </trkpt>
      <trkpt lat="45.94468" lon="4.731">
        <ele>172</ele>
        <time>2018-09-04T09:46:37Z</time>
      </trkpt>
      <trkpt lat="45.94467" lon="4.73091">
        <ele>172</ele>
        <time>2018-09-04T09:46:38Z</time>
      </trkpt>
      <trkpt lat="45.94467" lon="4.73084">
        <ele>171</ele>
        <time>2018-09-04T09:46:39Z</time>
      </trkpt>
      <trkpt lat="45.94464" lon="4.73074">
        <ele>170</ele>
        <time>2018-09-04T09:46:40Z</time>
      </trkpt>
      <trkpt lat="45.94463" lon="4.73065">
        <ele>170</ele>
        <time>2018-09-04T09:46:41Z</time>
      </trkpt>
      <trkpt lat="45.94462" lon="4.73058">
        <ele>170</ele>
        <time>2018-09-04T09:46:42Z</time>
      </trkpt>
      <trkpt lat="45.94461" lon="4.7305">
        <ele>170</ele>
        <time>2018-09-04T09:46:43Z</time>
      </trkpt>
      <trkpt lat="45.94459" lon="4.73042">
        <ele>170</ele>
        <time>2018-09-04T09:46:44Z</time>
      </trkpt>
      <trkpt lat="45.94459" lon="4.73034">
        <ele>169</ele>
        <time>2018-09-04T09:46:45Z</time>
      </trkpt>
      <trkpt lat="45.94462" lon="4.73028">
        <ele>169</ele>
        <time>2018-09-04T09:46:46Z</time>
      </trkpt>
      <trkpt lat="45.94458" lon="4.7302">
        <ele>169</ele>
        <time>2018-09-04T09:46:47Z</time>
      </trkpt>
      <trkpt lat="45.94457" lon="4.73013">
        <ele>169</ele>
        <time>2018-09-04T09:46:48Z</time>
      </trkpt>
      <trkpt lat="45.94455" lon="4.73007">
        <ele>169</ele>
        <time>2018-09-04T09:46:49Z</time>
      </trkpt>
      <trkpt lat="45.94454" lon="4.73">
        <ele>169</ele>
        <time>2018-09-04T09:46:50Z</time>
      </trkpt>
      <trkpt lat="45.94453" lon="4.72994">
        <ele>167</ele>
        <time>2018-09-04T09:46:51Z</time>
      </trkpt>
      <trkpt lat="45.94452" lon="4.72987">
        <ele>167</ele>
        <time>2018-09-04T09:46:52Z</time>
      </trkpt>
      <trkpt lat="45.94452" lon="4.72974">
        <ele>167</ele>
        <time>2018-09-04T09:46:54Z</time>
      </trkpt>
      <trkpt lat="45.9445" lon="4.72968">
        <ele>167</ele>
        <time>2018-09-04T09:46:55Z</time>
      </trkpt>
      <trkpt lat="45.94449" lon="4.72955">
        <ele>167</ele>
        <time>2018-09-04T09:46:57Z</time>
      </trkpt>
      <trkpt lat="45.94448" lon="4.7295">
        <ele>167</ele>
        <time>2018-09-04T09:46:58Z</time>
      </trkpt>
      <trkpt lat="45.94446" lon="4.72944">
        <ele>167</ele>
        <time>2018-09-04T09:46:59Z</time>
      </trkpt>
      <trkpt lat="45.94445" lon="4.72937">
        <ele>167</ele>
        <time>2018-09-04T09:47:00Z</time>
      </trkpt>
      <trkpt lat="45.94444" lon="4.72927">
        <ele>167</ele>
        <time>2018-09-04T09:47:02Z</time>
      </trkpt>
      <trkpt lat="45.94443" lon="4.7292">
        <ele>167</ele>
        <time>2018-09-04T09:47:03Z</time>
      </trkpt>
      <trkpt lat="45.94442" lon="4.72912">
        <ele>166</ele>
        <time>2018-09-04T09:47:04Z</time>
      </trkpt>
      <trkpt lat="45.94441" lon="4.72906">
        <ele>166</ele>
        <time>2018-09-04T09:47:05Z</time>
      </trkpt>
      <trkpt lat="45.94441" lon="4.72901">
        <ele>166</ele>
        <time>2018-09-04T09:47:06Z</time>
      </trkpt>
      <trkpt lat="45.9444" lon="4.72893">
        <ele>166</ele>
        <time>2018-09-04T09:47:07Z</time>
      </trkpt>
      <trkpt lat="45.94439" lon="4.72887">
        <ele>166</ele>
        <time>2018-09-04T09:47:08Z</time>
      </trkpt>
      <trkpt lat="45.94438" lon="4.7288">
        <ele>166</ele>
        <time>2018-09-04T09:47:09Z</time>
      </trkpt>
      <trkpt lat="45.94437" lon="4.72872">
        <ele>166</ele>
        <time>2018-09-04T09:47:10Z</time>
      </trkpt>
      <trkpt lat="45.94434" lon="4.72863">
        <ele>166</ele>
        <time>2018-09-04T09:47:11Z</time>
      </trkpt>
      <trkpt lat="45.94433" lon="4.72854">
        <ele>166</ele>
        <time>2018-09-04T09:47:12Z</time>
      </trkpt>
      <trkpt lat="45.94431" lon="4.72846">
        <ele>166</ele>
        <time>2018-09-04T09:47:13Z</time>
      </trkpt>
      <trkpt lat="45.9443" lon="4.72836">
        <ele>166</ele>
        <time>2018-09-04T09:47:14Z</time>
      </trkpt>
      <trkpt lat="45.94428" lon="4.72828">
        <ele>167</ele>
        <time>2018-09-04T09:47:15Z</time>
      </trkpt>
      <trkpt lat="45.94428" lon="4.72818">
        <ele>167</ele>
        <time>2018-09-04T09:47:16Z</time>
      </trkpt>
      <trkpt lat="45.94427" lon="4.72808">
        <ele>167</ele>
        <time>2018-09-04T09:47:17Z</time>
      </trkpt>
      <trkpt lat="45.94426" lon="4.72798">
        <ele>167</ele>
        <time>2018-09-04T09:47:18Z</time>
      </trkpt>
      <trkpt lat="45.94425" lon="4.72788">
        <ele>168</ele>
        <time>2018-09-04T09:47:19Z</time>
      </trkpt>
      <trkpt lat="45.94424" lon="4.72778">
        <ele>168</ele>
        <time>2018-09-04T09:47:20Z</time>
      </trkpt>
      <trkpt lat="45.94423" lon="4.72768">
        <ele>169</ele>
        <time>2018-09-04T09:47:21Z</time>
      </trkpt>
      <trkpt lat="45.94424" lon="4.72758">
        <ele>170</ele>
        <time>2018-09-04T09:47:22Z</time>
      </trkpt>
      <trkpt lat="45.94424" lon="4.72748">
        <ele>171</ele>
        <time>2018-09-04T09:47:23Z</time>
      </trkpt>
      <trkpt lat="45.94422" lon="4.72739">
        <ele>171</ele>
        <time>2018-09-04T09:47:24Z</time>
      </trkpt>
      <trkpt lat="45.94422" lon="4.7273">
        <ele>171</ele>
        <time>2018-09-04T09:47:25Z</time>
      </trkpt>
      <trkpt lat="45.9442" lon="4.7272">
        <ele>171</ele>
        <time>2018-09-04T09:47:26Z</time>
      </trkpt>
      <trkpt lat="45.94419" lon="4.72711">
        <ele>172</ele>
        <time>2018-09-04T09:47:27Z</time>
      </trkpt>
      <trkpt lat="45.94419" lon="4.72702">
        <ele>172</ele>
        <time>2018-09-04T09:47:28Z</time>
      </trkpt>
      <trkpt lat="45.94418" lon="4.72692">
        <ele>172</ele>
        <time>2018-09-04T09:47:29Z</time>
      </trkpt>
      <trkpt lat="45.94416" lon="4.72682">
        <ele>173</ele>
        <time>2018-09-04T09:47:30Z</time>
      </trkpt>
      <trkpt lat="45.94414" lon="4.72671">
        <ele>174</ele>
        <time>2018-09-04T09:47:31Z</time>
      </trkpt>
      <trkpt lat="45.94413" lon="4.72662">
        <ele>174</ele>
        <time>2018-09-04T09:47:32Z</time>
      </trkpt>
      <trkpt lat="45.94411" lon="4.72653">
        <ele>174</ele>
        <time>2018-09-04T09:47:33Z</time>
      </trkpt>
      <trkpt lat="45.9441" lon="4.72643">
        <ele>174</ele>
        <time>2018-09-04T09:47:34Z</time>
      </trkpt>
      <trkpt lat="45.9441" lon="4.72636">
        <ele>174</ele>
        <time>2018-09-04T09:47:35Z</time>
      </trkpt>
      <trkpt lat="45.94409" lon="4.72627">
        <ele>174</ele>
        <time>2018-09-04T09:47:36Z</time>
      </trkpt>
      <trkpt lat="45.94407" lon="4.72619">
        <ele>173</ele>
        <time>2018-09-04T09:47:37Z</time>
      </trkpt>
      <trkpt lat="45.94405" lon="4.7261">
        <ele>173</ele>
        <time>2018-09-04T09:47:38Z</time>
      </trkpt>
      <trkpt lat="45.94406" lon="4.72602">
        <ele>173</ele>
        <time>2018-09-04T09:47:39Z</time>
      </trkpt>
      <trkpt lat="45.94405" lon="4.72596">
        <ele>173</ele>
        <time>2018-09-04T09:47:40Z</time>
      </trkpt>
      <trkpt lat="45.94403" lon="4.72587">
        <ele>173</ele>
        <time>2018-09-04T09:47:41Z</time>
      </trkpt>
      <trkpt lat="45.94402" lon="4.72578">
        <ele>173</ele>
        <time>2018-09-04T09:47:42Z</time>
      </trkpt>
      <trkpt lat="45.94399" lon="4.72569">
        <ele>173</ele>
        <time>2018-09-04T09:47:43Z</time>
      </trkpt>
      <trkpt lat="45.94397" lon="4.72562">
        <ele>173</ele>
        <time>2018-09-04T09:47:44Z</time>
      </trkpt>
      <trkpt lat="45.94395" lon="4.72553">
        <ele>173</ele>
        <time>2018-09-04T09:47:45Z</time>
      </trkpt>
      <trkpt lat="45.94393" lon="4.72546">
        <ele>173</ele>
        <time>2018-09-04T09:47:46Z</time>
      </trkpt>
      <trkpt lat="45.94391" lon="4.72538">
        <ele>174</ele>
        <time>2018-09-04T09:47:47Z</time>
      </trkpt>
      <trkpt lat="45.94389" lon="4.72529">
        <ele>174</ele>
        <time>2018-09-04T09:47:48Z</time>
      </trkpt>
      <trkpt lat="45.94387" lon="4.72521">
        <ele>174</ele>
        <time>2018-09-04T09:47:49Z</time>
      </trkpt>
      <trkpt lat="45.94385" lon="4.72513">
        <ele>174</ele>
        <time>2018-09-04T09:47:50Z</time>
      </trkpt>
      <trkpt lat="45.94382" lon="4.72504">
        <ele>174</ele>
        <time>2018-09-04T09:47:51Z</time>
      </trkpt>
      <trkpt lat="45.94379" lon="4.72496">
        <ele>173</ele>
        <time>2018-09-04T09:47:52Z</time>
      </trkpt>
      <trkpt lat="45.94375" lon="4.72488">
        <ele>173</ele>
        <time>2018-09-04T09:47:53Z</time>
      </trkpt>
      <trkpt lat="45.94372" lon="4.72481">
        <ele>173</ele>
        <time>2018-09-04T09:47:54Z</time>
      </trkpt>
      <trkpt lat="45.9437" lon="4.72474">
        <ele>173</ele>
        <time>2018-09-04T09:47:55Z</time>
      </trkpt>
      <trkpt lat="45.94368" lon="4.72467">
        <ele>173</ele>
        <time>2018-09-04T09:47:56Z</time>
      </trkpt>
      <trkpt lat="45.94365" lon="4.72461">
        <ele>173</ele>
        <time>2018-09-04T09:47:57Z</time>
      </trkpt>
      <trkpt lat="45.94363" lon="4.72454">
        <ele>173</ele>
        <time>2018-09-04T09:47:58Z</time>
      </trkpt>
      <trkpt lat="45.94358" lon="4.72448">
        <ele>173</ele>
        <time>2018-09-04T09:47:59Z</time>
      </trkpt>
      <trkpt lat="45.94354" lon="4.7244">
        <ele>173</ele>
        <time>2018-09-04T09:48:00Z</time>
      </trkpt>
      <trkpt lat="45.9435" lon="4.72433">
        <ele>173</ele>
        <time>2018-09-04T09:48:01Z</time>
      </trkpt>
      <trkpt lat="45.94346" lon="4.72423">
        <ele>173</ele>
        <time>2018-09-04T09:48:02Z</time>
      </trkpt>
      <trkpt lat="45.94343" lon="4.72416">
        <ele>173</ele>
        <time>2018-09-04T09:48:03Z</time>
      </trkpt>
      <trkpt lat="45.94339" lon="4.72408">
        <ele>173</ele>
        <time>2018-09-04T09:48:04Z</time>
      </trkpt>
      <trkpt lat="45.94336" lon="4.72401">
        <ele>173</ele>
        <time>2018-09-04T09:48:05Z</time>
      </trkpt>
      <trkpt lat="45.94332" lon="4.72393">
        <ele>172</ele>
        <time>2018-09-04T09:48:06Z</time>
      </trkpt>
      <trkpt lat="45.94328" lon="4.72387">
        <ele>172</ele>
        <time>2018-09-04T09:48:07Z</time>
      </trkpt>
      <trkpt lat="45.94325" lon="4.7238">
        <ele>172</ele>
        <time>2018-09-04T09:48:08Z</time>
      </trkpt>
      <trkpt lat="45.94322" lon="4.72374">
        <ele>172</ele>
        <time>2018-09-04T09:48:09Z</time>
      </trkpt>
      <trkpt lat="45.94319" lon="4.72367">
        <ele>172</ele>
        <time>2018-09-04T09:48:10Z</time>
      </trkpt>
      <trkpt lat="45.94316" lon="4.7236">
        <ele>172</ele>
        <time>2018-09-04T09:48:11Z</time>
      </trkpt>
      <trkpt lat="45.94315" lon="4.72353">
        <ele>172</ele>
        <time>2018-09-04T09:48:12Z</time>
      </trkpt>
      <trkpt lat="45.94311" lon="4.72346">
        <ele>172</ele>
        <time>2018-09-04T09:48:13Z</time>
      </trkpt>
      <trkpt lat="45.94306" lon="4.72338">
        <ele>172</ele>
        <time>2018-09-04T09:48:14Z</time>
      </trkpt>
      <trkpt lat="45.94303" lon="4.72331">
        <ele>171</ele>
        <time>2018-09-04T09:48:15Z</time>
      </trkpt>
      <trkpt lat="45.94299" lon="4.72323">
        <ele>171</ele>
        <time>2018-09-04T09:48:16Z</time>
      </trkpt>
      <trkpt lat="45.94297" lon="4.72314">
        <ele>171</ele>
        <time>2018-09-04T09:48:17Z</time>
      </trkpt>
      <trkpt lat="45.94294" lon="4.72307">
        <ele>171</ele>
        <time>2018-09-04T09:48:18Z</time>
      </trkpt>
      <trkpt lat="45.94291" lon="4.72299">
        <ele>171</ele>
        <time>2018-09-04T09:48:19Z</time>
      </trkpt>
      <trkpt lat="45.9429" lon="4.72292">
        <ele>171</ele>
        <time>2018-09-04T09:48:20Z</time>
      </trkpt>
      <trkpt lat="45.94288" lon="4.72286">
        <ele>171</ele>
        <time>2018-09-04T09:48:21Z</time>
      </trkpt>
      <trkpt lat="45.94286" lon="4.7228">
        <ele>171</ele>
        <time>2018-09-04T09:48:22Z</time>
      </trkpt>
      <trkpt lat="45.94282" lon="4.72276">
        <ele>171</ele>
        <time>2018-09-04T09:48:23Z</time>
      </trkpt>
      <trkpt lat="45.94278" lon="4.72269">
        <ele>171</ele>
        <time>2018-09-04T09:48:26Z</time>
      </trkpt>
      <trkpt lat="45.94269" lon="4.72264">
        <ele>171</ele>
        <time>2018-09-04T09:48:27Z</time>
      </trkpt>
      <trkpt lat="45.94261" lon="4.72268">
        <ele>171</ele>
        <time>2018-09-04T09:48:29Z</time>
      </trkpt>
      <trkpt lat="45.94257" lon="4.72271">
        <ele>171</ele>
        <time>2018-09-04T09:48:30Z</time>
      </trkpt>
      <trkpt lat="45.94249" lon="4.72276">
        <ele>171</ele>
        <time>2018-09-04T09:48:32Z</time>
      </trkpt>
      <trkpt lat="45.94243" lon="4.72278">
        <ele>171</ele>
        <time>2018-09-04T09:48:33Z</time>
      </trkpt>
      <trkpt lat="45.94237" lon="4.72281">
        <ele>171</ele>
        <time>2018-09-04T09:48:34Z</time>
      </trkpt>
      <trkpt lat="45.94232" lon="4.72283">
        <ele>171</ele>
        <time>2018-09-04T09:48:35Z</time>
      </trkpt>
      <trkpt lat="45.94227" lon="4.72284">
        <ele>171</ele>
        <time>2018-09-04T09:48:36Z</time>
      </trkpt>
      <trkpt lat="45.94222" lon="4.72284">
        <ele>171</ele>
        <time>2018-09-04T09:48:37Z</time>
      </trkpt>
      <trkpt lat="45.94216" lon="4.72285">
        <ele>171</ele>
        <time>2018-09-04T09:48:38Z</time>
      </trkpt>
      <trkpt lat="45.94211" lon="4.72285">
        <ele>171</ele>
        <time>2018-09-04T09:48:39Z</time>
      </trkpt>
      <trkpt lat="45.94206" lon="4.72285">
        <ele>171</ele>
        <time>2018-09-04T09:48:40Z</time>
      </trkpt>
      <trkpt lat="45.94199" lon="4.72282">
        <ele>171</ele>
        <time>2018-09-04T09:48:41Z</time>
      </trkpt>
      <trkpt lat="45.94194" lon="4.72281">
        <ele>171</ele>
        <time>2018-09-04T09:48:42Z</time>
      </trkpt>
      <trkpt lat="45.94189" lon="4.72281">
        <ele>171</ele>
        <time>2018-09-04T09:48:43Z</time>
      </trkpt>
      <trkpt lat="45.94184" lon="4.72282">
        <ele>171</ele>
        <time>2018-09-04T09:48:44Z</time>
      </trkpt>
      <trkpt lat="45.94179" lon="4.72283">
        <ele>171</ele>
        <time>2018-09-04T09:48:45Z</time>
      </trkpt>
      <trkpt lat="45.94175" lon="4.72281">
        <ele>171</ele>
        <time>2018-09-04T09:48:46Z</time>
      </trkpt>
      <trkpt lat="45.9417" lon="4.72281">
        <ele>171</ele>
        <time>2018-09-04T09:48:47Z</time>
      </trkpt>
      <trkpt lat="45.94165" lon="4.7228">
        <ele>171</ele>
        <time>2018-09-04T09:48:48Z</time>
      </trkpt>
      <trkpt lat="45.94159" lon="4.7228">
        <ele>171</ele>
        <time>2018-09-04T09:48:49Z</time>
      </trkpt>
      <trkpt lat="45.94153" lon="4.72279">
        <ele>171</ele>
        <time>2018-09-04T09:48:50Z</time>
      </trkpt>
      <trkpt lat="45.94148" lon="4.72276">
        <ele>171</ele>
        <time>2018-09-04T09:48:51Z</time>
      </trkpt>
      <trkpt lat="45.94141" lon="4.72276">
        <ele>171</ele>
        <time>2018-09-04T09:48:52Z</time>
      </trkpt>
      <trkpt lat="45.94136" lon="4.72272">
        <ele>171</ele>
        <time>2018-09-04T09:48:53Z</time>
      </trkpt>
      <trkpt lat="45.94131" lon="4.72269">
        <ele>171</ele>
        <time>2018-09-04T09:48:54Z</time>
      </trkpt>
      <trkpt lat="45.94127" lon="4.72268">
        <ele>171</ele>
        <time>2018-09-04T09:48:55Z</time>
      </trkpt>
      <trkpt lat="45.94121" lon="4.72266">
        <ele>171</ele>
        <time>2018-09-04T09:48:56Z</time>
      </trkpt>
      <trkpt lat="45.94117" lon="4.72265">
        <ele>171</ele>
        <time>2018-09-04T09:48:57Z</time>
      </trkpt>
      <trkpt lat="45.94112" lon="4.72263">
        <ele>171</ele>
        <time>2018-09-04T09:48:58Z</time>
      </trkpt>
      <trkpt lat="45.94107" lon="4.72263">
        <ele>171</ele>
        <time>2018-09-04T09:48:59Z</time>
      </trkpt>
      <trkpt lat="45.94101" lon="4.72261">
        <ele>171</ele>
        <time>2018-09-04T09:49:00Z</time>
      </trkpt>
      <trkpt lat="45.94095" lon="4.7226">
        <ele>171</ele>
        <time>2018-09-04T09:49:01Z</time>
      </trkpt>
      <trkpt lat="45.94089" lon="4.72261">
        <ele>171</ele>
        <time>2018-09-04T09:49:02Z</time>
      </trkpt>
      <trkpt lat="45.94083" lon="4.72263">
        <ele>171</ele>
        <time>2018-09-04T09:49:03Z</time>
      </trkpt>
      <trkpt lat="45.94078" lon="4.72265">
        <ele>171</ele>
        <time>2018-09-04T09:49:04Z</time>
      </trkpt>
      <trkpt lat="45.94073" lon="4.72269">
        <ele>171</ele>
        <time>2018-09-04T09:49:05Z</time>
      </trkpt>
      <trkpt lat="45.94068" lon="4.72277">
        <ele>171</ele>
        <time>2018-09-04T09:49:06Z</time>
      </trkpt>
      <trkpt lat="45.94063" lon="4.72282">
        <ele>171</ele>
        <time>2018-09-04T09:49:07Z</time>
      </trkpt>
      <trkpt lat="45.94059" lon="4.72286">
        <ele>171</ele>
        <time>2018-09-04T09:49:08Z</time>
      </trkpt>
      <trkpt lat="45.94055" lon="4.72291">
        <ele>171</ele>
        <time>2018-09-04T09:49:09Z</time>
      </trkpt>
      <trkpt lat="45.9405" lon="4.72295">
        <ele>171</ele>
        <time>2018-09-04T09:49:10Z</time>
      </trkpt>
      <trkpt lat="45.94047" lon="4.72301">
        <ele>171</ele>
        <time>2018-09-04T09:49:11Z</time>
      </trkpt>
      <trkpt lat="45.94042" lon="4.72306">
        <ele>171</ele>
        <time>2018-09-04T09:49:12Z</time>
      </trkpt>
      <trkpt lat="45.94038" lon="4.72312">
        <ele>171</ele>
        <time>2018-09-04T09:49:13Z</time>
      </trkpt>
      <trkpt lat="45.94034" lon="4.72315">
        <ele>171</ele>
        <time>2018-09-04T09:49:14Z</time>
      </trkpt>
      <trkpt lat="45.94028" lon="4.72319">
        <ele>171</ele>
        <time>2018-09-04T09:49:15Z</time>
      </trkpt>
      <trkpt lat="45.94024" lon="4.72327">
        <ele>171</ele>
        <time>2018-09-04T09:49:16Z</time>
      </trkpt>
      <trkpt lat="45.9402" lon="4.72334">
        <ele>171</ele>
        <time>2018-09-04T09:49:17Z</time>
      </trkpt>
      <trkpt lat="45.94014" lon="4.72337">
        <ele>171</ele>
        <time>2018-09-04T09:49:18Z</time>
      </trkpt>
      <trkpt lat="45.94008" lon="4.72342">
        <ele>170</ele>
        <time>2018-09-04T09:49:19Z</time>
      </trkpt>
      <trkpt lat="45.94004" lon="4.72348">
        <ele>171</ele>
        <time>2018-09-04T09:49:20Z</time>
      </trkpt>
      <trkpt lat="45.94" lon="4.72356">
        <ele>171</ele>
        <time>2018-09-04T09:49:21Z</time>
      </trkpt>
      <trkpt lat="45.93995" lon="4.72362">
        <ele>171</ele>
        <time>2018-09-04T09:49:22Z</time>
      </trkpt>
      <trkpt lat="45.9399" lon="4.72369">
        <ele>171</ele>
        <time>2018-09-04T09:49:23Z</time>
      </trkpt>
      <trkpt lat="45.93986" lon="4.72376">
        <ele>171</ele>
        <time>2018-09-04T09:49:24Z</time>
      </trkpt>
      <trkpt lat="45.93982" lon="4.72382">
        <ele>171</ele>
        <time>2018-09-04T09:49:25Z</time>
      </trkpt>
      <trkpt lat="45.93978" lon="4.72388">
        <ele>171</ele>
        <time>2018-09-04T09:49:26Z</time>
      </trkpt>
      <trkpt lat="45.93975" lon="4.72393">
        <ele>171</ele>
        <time>2018-09-04T09:49:27Z</time>
      </trkpt>
      <trkpt lat="45.93971" lon="4.72399">
        <ele>171</ele>
        <time>2018-09-04T09:49:28Z</time>
      </trkpt>
      <trkpt lat="45.93966" lon="4.72401">
        <ele>171</ele>
        <time>2018-09-04T09:49:29Z</time>
      </trkpt>
      <trkpt lat="45.93962" lon="4.72406">
        <ele>171</ele>
        <time>2018-09-04T09:49:30Z</time>
      </trkpt>
      <trkpt lat="45.93957" lon="4.72409">
        <ele>171</ele>
        <time>2018-09-04T09:49:31Z</time>
      </trkpt>
      <trkpt lat="45.93953" lon="4.72413">
        <ele>171</ele>
        <time>2018-09-04T09:49:32Z</time>
      </trkpt>
      <trkpt lat="45.9395" lon="4.72419">
        <ele>171</ele>
        <time>2018-09-04T09:49:33Z</time>
      </trkpt>
      <trkpt lat="45.93946" lon="4.72423">
        <ele>171</ele>
        <time>2018-09-04T09:49:34Z</time>
      </trkpt>
      <trkpt lat="45.93942" lon="4.72428">
        <ele>171</ele>
        <time>2018-09-04T09:49:35Z</time>
      </trkpt>
      <trkpt lat="45.93938" lon="4.72433">
        <ele>171</ele>
        <time>2018-09-04T09:49:36Z</time>
      </trkpt>
      <trkpt lat="45.93933" lon="4.72439">
        <ele>171</ele>
        <time>2018-09-04T09:49:37Z</time>
      </trkpt>
      <trkpt lat="45.9393" lon="4.72443">
        <ele>171</ele>
        <time>2018-09-04T09:49:38Z</time>
      </trkpt>
      <trkpt lat="45.93926" lon="4.72447">
        <ele>171</ele>
        <time>2018-09-04T09:49:39Z</time>
      </trkpt>
      <trkpt lat="45.93922" lon="4.72452">
        <ele>171</ele>
        <time>2018-09-04T09:49:40Z</time>
      </trkpt>
      <trkpt lat="45.93918" lon="4.72457">
        <ele>171</ele>
        <time>2018-09-04T09:49:41Z</time>
      </trkpt>
      <trkpt lat="45.93915" lon="4.72461">
        <ele>172</ele>
        <time>2018-09-04T09:49:42Z</time>
      </trkpt>
      <trkpt lat="45.93911" lon="4.72465">
        <ele>172</ele>
        <time>2018-09-04T09:49:43Z</time>
      </trkpt>
      <trkpt lat="45.93906" lon="4.7247">
        <ele>172</ele>
        <time>2018-09-04T09:49:44Z</time>
      </trkpt>
      <trkpt lat="45.93902" lon="4.72473">
        <ele>172</ele>
        <time>2018-09-04T09:49:45Z</time>
      </trkpt>
      <trkpt lat="45.93894" lon="4.7248">
        <ele>172</ele>
        <time>2018-09-04T09:49:47Z</time>
      </trkpt>
      <trkpt lat="45.9389" lon="4.72485">
        <ele>172</ele>
        <time>2018-09-04T09:49:48Z</time>
      </trkpt>
      <trkpt lat="45.93884" lon="4.72494">
        <ele>172</ele>
        <time>2018-09-04T09:49:50Z</time>
      </trkpt>
      <trkpt lat="45.93883" lon="4.72501">
        <ele>173</ele>
        <time>2018-09-04T09:49:51Z</time>
      </trkpt>
      <trkpt lat="45.93879" lon="4.72506">
        <ele>173</ele>
        <time>2018-09-04T09:49:52Z</time>
      </trkpt>
      <trkpt lat="45.93878" lon="4.72513">
        <ele>173</ele>
        <time>2018-09-04T09:49:53Z</time>
      </trkpt>
      <trkpt lat="45.93873" lon="4.72513">
        <ele>173</ele>
        <time>2018-09-04T09:49:54Z</time>
      </trkpt>
      <trkpt lat="45.93868" lon="4.72514">
        <ele>173</ele>
        <time>2018-09-04T09:49:55Z</time>
      </trkpt>
      <trkpt lat="45.93864" lon="4.72512">
        <ele>173</ele>
        <time>2018-09-04T09:49:56Z</time>
      </trkpt>
      <trkpt lat="45.93859" lon="4.72508">
        <ele>173</ele>
        <time>2018-09-04T09:49:57Z</time>
      </trkpt>
      <trkpt lat="45.93843" lon="4.72495">
        <ele>173</ele>
        <time>2018-09-04T09:50:02Z</time>
      </trkpt>
      <trkpt lat="45.93836" lon="4.72488">
        <ele>173</ele>
        <time>2018-09-04T09:50:04Z</time>
      </trkpt>
      <trkpt lat="45.93828" lon="4.72479">
        <ele>173</ele>
        <time>2018-09-04T09:50:05Z</time>
      </trkpt>
      <trkpt lat="45.93834" lon="4.72464">
        <ele>173</ele>
        <time>2018-09-04T09:50:06Z</time>
      </trkpt>
      <trkpt lat="45.93822" lon="4.72467">
        <ele>172</ele>
        <time>2018-09-04T09:50:07Z</time>
      </trkpt>
      <trkpt lat="45.93816" lon="4.72463">
        <ele>172</ele>
        <time>2018-09-04T09:50:08Z</time>
      </trkpt>
      <trkpt lat="45.93811" lon="4.72461">
        <ele>172</ele>
        <time>2018-09-04T09:50:09Z</time>
      </trkpt>
      <trkpt lat="45.93805" lon="4.72454">
        <ele>172</ele>
        <time>2018-09-04T09:50:11Z</time>
      </trkpt>
      <trkpt lat="45.93799" lon="4.72453">
        <ele>172</ele>
        <time>2018-09-04T09:50:12Z</time>
      </trkpt>
      <trkpt lat="45.93795" lon="4.72445">
        <ele>172</ele>
        <time>2018-09-04T09:50:14Z</time>
      </trkpt>
      <trkpt lat="45.93791" lon="4.72439">
        <ele>172</ele>
        <time>2018-09-04T09:50:15Z</time>
      </trkpt>
      <trkpt lat="45.93785" lon="4.72432">
        <ele>172</ele>
        <time>2018-09-04T09:50:17Z</time>
      </trkpt>
      <trkpt lat="45.93784" lon="4.72431">
        <ele>172</ele>
        <time>2018-09-04T09:50:18Z</time>
      </trkpt>
      <trkpt lat="45.93779" lon="4.72426">
        <ele>172</ele>
        <time>2018-09-04T09:50:19Z</time>
      </trkpt>
      <trkpt lat="45.93776" lon="4.72422">
        <ele>171</ele>
        <time>2018-09-04T09:50:20Z</time>
      </trkpt>
      <trkpt lat="45.93772" lon="4.72419">
        <ele>171</ele>
        <time>2018-09-04T09:50:21Z</time>
      </trkpt>
      <trkpt lat="45.93769" lon="4.72415">
        <ele>171</ele>
        <time>2018-09-04T09:50:22Z</time>
      </trkpt>
      <trkpt lat="45.93764" lon="4.72412">
        <ele>171</ele>
        <time>2018-09-04T09:50:23Z</time>
      </trkpt>
      <trkpt lat="45.93761" lon="4.72408">
        <ele>171</ele>
        <time>2018-09-04T09:50:24Z</time>
      </trkpt>
      <trkpt lat="45.93757" lon="4.72403">
        <ele>171</ele>
        <time>2018-09-04T09:50:25Z</time>
      </trkpt>
      <trkpt lat="45.93753" lon="4.72398">
        <ele>171</ele>
        <time>2018-09-04T09:50:26Z</time>
      </trkpt>
      <trkpt lat="45.93746" lon="4.72391">
        <ele>171</ele>
        <time>2018-09-04T09:50:28Z</time>
      </trkpt>
      <trkpt lat="45.93742" lon="4.72387">
        <ele>171</ele>
        <time>2018-09-04T09:50:29Z</time>
      </trkpt>
      <trkpt lat="45.93737" lon="4.72379">
        <ele>171</ele>
        <time>2018-09-04T09:50:31Z</time>
      </trkpt>
      <trkpt lat="45.9373" lon="4.72377">
        <ele>171</ele>
        <time>2018-09-04T09:50:32Z</time>
      </trkpt>
      <trkpt lat="45.93725" lon="4.72373">
        <ele>172</ele>
        <time>2018-09-04T09:50:33Z</time>
      </trkpt>
      <trkpt lat="45.93721" lon="4.72368">
        <ele>172</ele>
        <time>2018-09-04T09:50:34Z</time>
      </trkpt>
      <trkpt lat="45.93716" lon="4.72363">
        <ele>172</ele>
        <time>2018-09-04T09:50:35Z</time>
      </trkpt>
      <trkpt lat="45.93712" lon="4.72361">
        <ele>172</ele>
        <time>2018-09-04T09:50:36Z</time>
      </trkpt>
      <trkpt lat="45.93707" lon="4.72358">
        <ele>171</ele>
        <time>2018-09-04T09:50:37Z</time>
      </trkpt>
      <trkpt lat="45.93703" lon="4.72353">
        <ele>171</ele>
        <time>2018-09-04T09:50:38Z</time>
      </trkpt>
      <trkpt lat="45.93699" lon="4.7235">
        <ele>171</ele>
        <time>2018-09-04T09:50:39Z</time>
      </trkpt>
      <trkpt lat="45.93686" lon="4.72335">
        <ele>171</ele>
        <time>2018-09-04T09:50:43Z</time>
      </trkpt>
      <trkpt lat="45.9368" lon="4.72328">
        <ele>171</ele>
        <time>2018-09-04T09:50:44Z</time>
      </trkpt>
      <trkpt lat="45.93677" lon="4.72326">
        <ele>171</ele>
        <time>2018-09-04T09:50:45Z</time>
      </trkpt>
      <trkpt lat="45.9367" lon="4.72319">
        <ele>171</ele>
        <time>2018-09-04T09:50:47Z</time>
      </trkpt>
      <trkpt lat="45.93665" lon="4.72316">
        <ele>172</ele>
        <time>2018-09-04T09:50:48Z</time>
      </trkpt>
      <trkpt lat="45.93657" lon="4.7231">
        <ele>172</ele>
        <time>2018-09-04T09:50:50Z</time>
      </trkpt>
      <trkpt lat="45.93653" lon="4.72305">
        <ele>172</ele>
        <time>2018-09-04T09:50:51Z</time>
      </trkpt>
      <trkpt lat="45.93648" lon="4.72302">
        <ele>172</ele>
        <time>2018-09-04T09:50:52Z</time>
      </trkpt>
      <trkpt lat="45.93642" lon="4.72297">
        <ele>172</ele>
        <time>2018-09-04T09:50:53Z</time>
      </trkpt>
      <trkpt lat="45.93638" lon="4.72292">
        <ele>172</ele>
        <time>2018-09-04T09:50:54Z</time>
      </trkpt>
      <trkpt lat="45.93634" lon="4.72288">
        <ele>172</ele>
        <time>2018-09-04T09:50:55Z</time>
      </trkpt>
      <trkpt lat="45.93626" lon="4.72281">
        <ele>172</ele>
        <time>2018-09-04T09:50:57Z</time>
      </trkpt>
      <trkpt lat="45.93623" lon="4.72277">
        <ele>172</ele>
        <time>2018-09-04T09:50:58Z</time>
      </trkpt>
      <trkpt lat="45.93616" lon="4.72272">
        <ele>172</ele>
        <time>2018-09-04T09:51:00Z</time>
      </trkpt>
      <trkpt lat="45.93612" lon="4.72268">
        <ele>172</ele>
        <time>2018-09-04T09:51:01Z</time>
      </trkpt>
      <trkpt lat="45.93608" lon="4.72265">
        <ele>172</ele>
        <time>2018-09-04T09:51:02Z</time>
      </trkpt>
      <trkpt lat="45.93603" lon="4.72263">
        <ele>173</ele>
        <time>2018-09-04T09:51:03Z</time>
      </trkpt>
      <trkpt lat="45.93598" lon="4.72257">
        <ele>173</ele>
        <time>2018-09-04T09:51:05Z</time>
      </trkpt>
      <trkpt lat="45.93594" lon="4.72253">
        <ele>173</ele>
        <time>2018-09-04T09:51:06Z</time>
      </trkpt>
      <trkpt lat="45.9359" lon="4.72247">
        <ele>173</ele>
        <time>2018-09-04T09:51:07Z</time>
      </trkpt>
      <trkpt lat="45.93586" lon="4.72243">
        <ele>173</ele>
        <time>2018-09-04T09:51:08Z</time>
      </trkpt>
      <trkpt lat="45.93579" lon="4.72237">
        <ele>173</ele>
        <time>2018-09-04T09:51:10Z</time>
      </trkpt>
      <trkpt lat="45.93578" lon="4.72235">
        <ele>173</ele>
        <time>2018-09-04T09:51:11Z</time>
      </trkpt>
      <trkpt lat="45.93571" lon="4.72229">
        <ele>173</ele>
        <time>2018-09-04T09:51:15Z</time>
      </trkpt>
      <trkpt lat="45.93568" lon="4.72227">
        <ele>173</ele>
        <time>2018-09-04T09:51:16Z</time>
      </trkpt>
      <trkpt lat="45.93562" lon="4.72222">
        <ele>173</ele>
        <time>2018-09-04T09:51:19Z</time>
      </trkpt>
      <trkpt lat="45.93559" lon="4.7222">
        <ele>173</ele>
        <time>2018-09-04T09:51:20Z</time>
      </trkpt>
      <trkpt lat="45.93551" lon="4.72216">
        <ele>173</ele>
        <time>2018-09-04T09:51:21Z</time>
      </trkpt>
      <trkpt lat="45.93549" lon="4.72216">
        <ele>173</ele>
        <time>2018-09-04T09:51:22Z</time>
      </trkpt>
      <trkpt lat="45.93544" lon="4.72225">
        <ele>172</ele>
        <time>2018-09-04T09:51:25Z</time>
      </trkpt>
      <trkpt lat="45.9354" lon="4.72237">
        <ele>172</ele>
        <time>2018-09-04T09:51:26Z</time>
      </trkpt>
      <trkpt lat="45.93536" lon="4.72247">
        <ele>172</ele>
        <time>2018-09-04T09:51:28Z</time>
      </trkpt>
      <trkpt lat="45.93534" lon="4.72251">
        <ele>172</ele>
        <time>2018-09-04T09:51:29Z</time>
      </trkpt>
      <trkpt lat="45.9353" lon="4.72261">
        <ele>172</ele>
        <time>2018-09-04T09:51:32Z</time>
      </trkpt>
      <trkpt lat="45.93529" lon="4.72264">
        <ele>172</ele>
        <time>2018-09-04T09:51:33Z</time>
      </trkpt>
      <trkpt lat="45.93526" lon="4.72271">
        <ele>172</ele>
        <time>2018-09-04T09:51:35Z</time>
      </trkpt>
      <trkpt lat="45.93522" lon="4.72282">
        <ele>172</ele>
        <time>2018-09-04T09:51:36Z</time>
      </trkpt>
      <trkpt lat="45.93518" lon="4.72292">
        <ele>172</ele>
        <time>2018-09-04T09:51:38Z</time>
      </trkpt>
      <trkpt lat="45.93515" lon="4.72297">
        <ele>172</ele>
        <time>2018-09-04T09:51:39Z</time>
      </trkpt>
      <trkpt lat="45.93513" lon="4.72301">
        <ele>172</ele>
        <time>2018-09-04T09:51:40Z</time>
      </trkpt>
      <trkpt lat="45.93509" lon="4.72306">
        <ele>173</ele>
        <time>2018-09-04T09:51:41Z</time>
      </trkpt>
      <trkpt lat="45.93506" lon="4.72311">
        <ele>173</ele>
        <time>2018-09-04T09:51:42Z</time>
      </trkpt>
      <trkpt lat="45.93502" lon="4.72316">
        <ele>173</ele>
        <time>2018-09-04T09:51:43Z</time>
      </trkpt>
      <trkpt lat="45.93498" lon="4.72321">
        <ele>173</ele>
        <time>2018-09-04T09:51:44Z</time>
      </trkpt>
      <trkpt lat="45.93495" lon="4.72327">
        <ele>173</ele>
        <time>2018-09-04T09:51:45Z</time>
      </trkpt>
      <trkpt lat="45.93492" lon="4.72332">
        <ele>173</ele>
        <time>2018-09-04T09:51:46Z</time>
      </trkpt>
      <trkpt lat="45.93488" lon="4.72337">
        <ele>173</ele>
        <time>2018-09-04T09:51:47Z</time>
      </trkpt>
      <trkpt lat="45.93483" lon="4.72342">
        <ele>173</ele>
        <time>2018-09-04T09:51:48Z</time>
      </trkpt>
      <trkpt lat="45.93478" lon="4.72346">
        <ele>173</ele>
        <time>2018-09-04T09:51:49Z</time>
      </trkpt>
      <trkpt lat="45.93474" lon="4.72351">
        <ele>173</ele>
        <time>2018-09-04T09:51:50Z</time>
      </trkpt>
      <trkpt lat="45.9347" lon="4.72357">
        <ele>173</ele>
        <time>2018-09-04T09:51:51Z</time>
      </trkpt>
      <trkpt lat="45.93467" lon="4.72362">
        <ele>173</ele>
        <time>2018-09-04T09:51:52Z</time>
      </trkpt>
      <trkpt lat="45.93464" lon="4.72368">
        <ele>173</ele>
        <time>2018-09-04T09:51:53Z</time>
      </trkpt>
      <trkpt lat="45.93459" lon="4.72372">
        <ele>173</ele>
        <time>2018-09-04T09:51:54Z</time>
      </trkpt>
      <trkpt lat="45.93455" lon="4.72377">
        <ele>173</ele>
        <time>2018-09-04T09:51:55Z</time>
      </trkpt>
      <trkpt lat="45.93451" lon="4.72382">
        <ele>173</ele>
        <time>2018-09-04T09:51:56Z</time>
      </trkpt>
      <trkpt lat="45.93447" lon="4.72385">
        <ele>173</ele>
        <time>2018-09-04T09:51:57Z</time>
      </trkpt>
      <trkpt lat="45.93442" lon="4.72389">
        <ele>173</ele>
        <time>2018-09-04T09:51:58Z</time>
      </trkpt>
      <trkpt lat="45.93437" lon="4.72393">
        <ele>173</ele>
        <time>2018-09-04T09:51:59Z</time>
      </trkpt>
      <trkpt lat="45.93432" lon="4.72398">
        <ele>174</ele>
        <time>2018-09-04T09:52:00Z</time>
      </trkpt>
      <trkpt lat="45.93427" lon="4.72398">
        <ele>174</ele>
        <time>2018-09-04T09:52:01Z</time>
      </trkpt>
      <trkpt lat="45.93422" lon="4.724">
        <ele>174</ele>
        <time>2018-09-04T09:52:02Z</time>
      </trkpt>
      <trkpt lat="45.93416" lon="4.72401">
        <ele>174</ele>
        <time>2018-09-04T09:52:03Z</time>
      </trkpt>
      <trkpt lat="45.9341" lon="4.72402">
        <ele>174</ele>
        <time>2018-09-04T09:52:04Z</time>
      </trkpt>
      <trkpt lat="45.93404" lon="4.72402">
        <ele>174</ele>
        <time>2018-09-04T09:52:05Z</time>
      </trkpt>
      <trkpt lat="45.93396" lon="4.72399">
        <ele>174</ele>
        <time>2018-09-04T09:52:07Z</time>
      </trkpt>
      <trkpt lat="45.93392" lon="4.72399">
        <ele>174</ele>
        <time>2018-09-04T09:52:08Z</time>
      </trkpt>
      <trkpt lat="45.93387" lon="4.72401">
        <ele>174</ele>
        <time>2018-09-04T09:52:09Z</time>
      </trkpt>
      <trkpt lat="45.93385" lon="4.72409">
        <ele>174</ele>
        <time>2018-09-04T09:52:10Z</time>
      </trkpt>
      <trkpt lat="45.93384" lon="4.72415">
        <ele>174</ele>
        <time>2018-09-04T09:52:11Z</time>
      </trkpt>
      <trkpt lat="45.93385" lon="4.72422">
        <ele>173</ele>
        <time>2018-09-04T09:52:12Z</time>
      </trkpt>
      <trkpt lat="45.93386" lon="4.72426">
        <ele>173</ele>
        <time>2018-09-04T09:52:13Z</time>
      </trkpt>
      <trkpt lat="45.93388" lon="4.72433">
        <ele>173</ele>
        <time>2018-09-04T09:52:14Z</time>
      </trkpt>
      <trkpt lat="45.93389" lon="4.72442">
        <ele>173</ele>
        <time>2018-09-04T09:52:15Z</time>
      </trkpt>
      <trkpt lat="45.93389" lon="4.7245">
        <ele>173</ele>
        <time>2018-09-04T09:52:16Z</time>
      </trkpt>
      <trkpt lat="45.93388" lon="4.72461">
        <ele>173</ele>
        <time>2018-09-04T09:52:17Z</time>
      </trkpt>
      <trkpt lat="45.93385" lon="4.72469">
        <ele>173</ele>
        <time>2018-09-04T09:52:18Z</time>
      </trkpt>
      <trkpt lat="45.93382" lon="4.72474">
        <ele>173</ele>
        <time>2018-09-04T09:52:19Z</time>
      </trkpt>
      <trkpt lat="45.93378" lon="4.7248">
        <ele>173</ele>
        <time>2018-09-04T09:52:20Z</time>
      </trkpt>
      <trkpt lat="45.93373" lon="4.72484">
        <ele>173</ele>
        <time>2018-09-04T09:52:21Z</time>
      </trkpt>
      <trkpt lat="45.93369" lon="4.72487">
        <ele>173</ele>
        <time>2018-09-04T09:52:22Z</time>
      </trkpt>
      <trkpt lat="45.93365" lon="4.72494">
        <ele>173</ele>
        <time>2018-09-04T09:52:23Z</time>
      </trkpt>
      <trkpt lat="45.93361" lon="4.72499">
        <ele>173</ele>
        <time>2018-09-04T09:52:24Z</time>
      </trkpt>
      <trkpt lat="45.93356" lon="4.72507">
        <ele>172</ele>
        <time>2018-09-04T09:52:25Z</time>
      </trkpt>
      <trkpt lat="45.93352" lon="4.72512">
        <ele>172</ele>
        <time>2018-09-04T09:52:26Z</time>
      </trkpt>
      <trkpt lat="45.93347" lon="4.72517">
        <ele>172</ele>
        <time>2018-09-04T09:52:27Z</time>
      </trkpt>
      <trkpt lat="45.93342" lon="4.72523">
        <ele>172</ele>
        <time>2018-09-04T09:52:28Z</time>
      </trkpt>
      <trkpt lat="45.93338" lon="4.72528">
        <ele>172</ele>
        <time>2018-09-04T09:52:29Z</time>
      </trkpt>
      <trkpt lat="45.93333" lon="4.72533">
        <ele>172</ele>
        <time>2018-09-04T09:52:30Z</time>
      </trkpt>
      <trkpt lat="45.93329" lon="4.72537">
        <ele>172</ele>
        <time>2018-09-04T09:52:31Z</time>
      </trkpt>
      <trkpt lat="45.93323" lon="4.72536">
        <ele>172</ele>
        <time>2018-09-04T09:52:32Z</time>
      </trkpt>
      <trkpt lat="45.93319" lon="4.72542">
        <ele>172</ele>
        <time>2018-09-04T09:52:33Z</time>
      </trkpt>
      <trkpt lat="45.93315" lon="4.72546">
        <ele>172</ele>
        <time>2018-09-04T09:52:34Z</time>
      </trkpt>
      <trkpt lat="45.9331" lon="4.7255">
        <ele>172</ele>
        <time>2018-09-04T09:52:35Z</time>
      </trkpt>
      <trkpt lat="45.93308" lon="4.72555">
        <ele>172</ele>
        <time>2018-09-04T09:52:36Z</time>
      </trkpt>
      <trkpt lat="45.93304" lon="4.72559">
        <ele>172</ele>
        <time>2018-09-04T09:52:37Z</time>
      </trkpt>
      <trkpt lat="45.93301" lon="4.72564">
        <ele>172</ele>
        <time>2018-09-04T09:52:38Z</time>
      </trkpt>
      <trkpt lat="45.93296" lon="4.72568">
        <ele>172</ele>
        <time>2018-09-04T09:52:39Z</time>
      </trkpt>
      <trkpt lat="45.93293" lon="4.72574">
        <ele>171</ele>
        <time>2018-09-04T09:52:40Z</time>
      </trkpt>
      <trkpt lat="45.93289" lon="4.72581">
        <ele>171</ele>
        <time>2018-09-04T09:52:41Z</time>
      </trkpt>
      <trkpt lat="45.93284" lon="4.72586">
        <ele>170</ele>
        <time>2018-09-04T09:52:42Z</time>
      </trkpt>
      <trkpt lat="45.9328" lon="4.72592">
        <ele>170</ele>
        <time>2018-09-04T09:52:43Z</time>
      </trkpt>
      <trkpt lat="45.93276" lon="4.72597">
        <ele>170</ele>
        <time>2018-09-04T09:52:44Z</time>
      </trkpt>
      <trkpt lat="45.93273" lon="4.72604">
        <ele>170</ele>
        <time>2018-09-04T09:52:45Z</time>
      </trkpt>
      <trkpt lat="45.93267" lon="4.7261">
        <ele>170</ele>
        <time>2018-09-04T09:52:46Z</time>
      </trkpt>
      <trkpt lat="45.93262" lon="4.72615">
        <ele>170</ele>
        <time>2018-09-04T09:52:47Z</time>
      </trkpt>
      <trkpt lat="45.93257" lon="4.72622">
        <ele>170</ele>
        <time>2018-09-04T09:52:48Z</time>
      </trkpt>
      <trkpt lat="45.93252" lon="4.72628">
        <ele>170</ele>
        <time>2018-09-04T09:52:49Z</time>
      </trkpt>
      <trkpt lat="45.93247" lon="4.72633">
        <ele>170</ele>
        <time>2018-09-04T09:52:50Z</time>
      </trkpt>
      <trkpt lat="45.93242" lon="4.72639">
        <ele>170</ele>
        <time>2018-09-04T09:52:51Z</time>
      </trkpt>
      <trkpt lat="45.93236" lon="4.72644">
        <ele>170</ele>
        <time>2018-09-04T09:52:52Z</time>
      </trkpt>
      <trkpt lat="45.93231" lon="4.72647">
        <ele>170</ele>
        <time>2018-09-04T09:52:53Z</time>
      </trkpt>
      <trkpt lat="45.93225" lon="4.72652">
        <ele>170</ele>
        <time>2018-09-04T09:52:54Z</time>
      </trkpt>
      <trkpt lat="45.9322" lon="4.72657">
        <ele>170</ele>
        <time>2018-09-04T09:52:55Z</time>
      </trkpt>
      <trkpt lat="45.93215" lon="4.72663">
        <ele>170</ele>
        <time>2018-09-04T09:52:56Z</time>
      </trkpt>
      <trkpt lat="45.93209" lon="4.72667">
        <ele>169</ele>
        <time>2018-09-04T09:52:57Z</time>
      </trkpt>
      <trkpt lat="45.93204" lon="4.72672">
        <ele>169</ele>
        <time>2018-09-04T09:52:58Z</time>
      </trkpt>
      <trkpt lat="45.93199" lon="4.72678">
        <ele>169</ele>
        <time>2018-09-04T09:52:59Z</time>
      </trkpt>
      <trkpt lat="45.93195" lon="4.72684">
        <ele>169</ele>
        <time>2018-09-04T09:53:00Z</time>
      </trkpt>
      <trkpt lat="45.9319" lon="4.7269">
        <ele>169</ele>
        <time>2018-09-04T09:53:01Z</time>
      </trkpt>
      <trkpt lat="45.93185" lon="4.72696">
        <ele>169</ele>
        <time>2018-09-04T09:53:02Z</time>
      </trkpt>
      <trkpt lat="45.93181" lon="4.72702">
        <ele>169</ele>
        <time>2018-09-04T09:53:03Z</time>
      </trkpt>
      <trkpt lat="45.93175" lon="4.72707">
        <ele>170</ele>
        <time>2018-09-04T09:53:04Z</time>
      </trkpt>
      <trkpt lat="45.93171" lon="4.72715">
        <ele>170</ele>
        <time>2018-09-04T09:53:05Z</time>
      </trkpt>
      <trkpt lat="45.93167" lon="4.72721">
        <ele>170</ele>
        <time>2018-09-04T09:53:06Z</time>
      </trkpt>
      <trkpt lat="45.93164" lon="4.72732">
        <ele>170</ele>
        <time>2018-09-04T09:53:07Z</time>
      </trkpt>
      <trkpt lat="45.93159" lon="4.72737">
        <ele>170</ele>
        <time>2018-09-04T09:53:08Z</time>
      </trkpt>
      <trkpt lat="45.93154" lon="4.72742">
        <ele>170</ele>
        <time>2018-09-04T09:53:09Z</time>
      </trkpt>
      <trkpt lat="45.93149" lon="4.72748">
        <ele>170</ele>
        <time>2018-09-04T09:53:10Z</time>
      </trkpt>
      <trkpt lat="45.93144" lon="4.72753">
        <ele>171</ele>
        <time>2018-09-04T09:53:11Z</time>
      </trkpt>
      <trkpt lat="45.93139" lon="4.72759">
        <ele>171</ele>
        <time>2018-09-04T09:53:12Z</time>
      </trkpt>
      <trkpt lat="45.93133" lon="4.72764">
        <ele>171</ele>
        <time>2018-09-04T09:53:13Z</time>
      </trkpt>
      <trkpt lat="45.93129" lon="4.72772">
        <ele>171</ele>
        <time>2018-09-04T09:53:14Z</time>
      </trkpt>
      <trkpt lat="45.93124" lon="4.72779">
        <ele>171</ele>
        <time>2018-09-04T09:53:15Z</time>
      </trkpt>
      <trkpt lat="45.93119" lon="4.72785">
        <ele>171</ele>
        <time>2018-09-04T09:53:16Z</time>
      </trkpt>
      <trkpt lat="45.93114" lon="4.72792">
        <ele>171</ele>
        <time>2018-09-04T09:53:17Z</time>
      </trkpt>
      <trkpt lat="45.9311" lon="4.72798">
        <ele>171</ele>
        <time>2018-09-04T09:53:18Z</time>
      </trkpt>
      <trkpt lat="45.93106" lon="4.72804">
        <ele>171</ele>
        <time>2018-09-04T09:53:19Z</time>
      </trkpt>
      <trkpt lat="45.93101" lon="4.72807">
        <ele>171</ele>
        <time>2018-09-04T09:53:20Z</time>
      </trkpt>
      <trkpt lat="45.93096" lon="4.72812">
        <ele>172</ele>
        <time>2018-09-04T09:53:21Z</time>
      </trkpt>
      <trkpt lat="45.93091" lon="4.72816">
        <ele>172</ele>
        <time>2018-09-04T09:53:22Z</time>
      </trkpt>
      <trkpt lat="45.93087" lon="4.72821">
        <ele>172</ele>
        <time>2018-09-04T09:53:23Z</time>
      </trkpt>
      <trkpt lat="45.93081" lon="4.72824">
        <ele>173</ele>
        <time>2018-09-04T09:53:24Z</time>
      </trkpt>
      <trkpt lat="45.93054" lon="4.7285">
        <ele>172</ele>
        <time>2018-09-04T09:53:30Z</time>
      </trkpt>
      <trkpt lat="45.93046" lon="4.72854">
        <ele>172</ele>
        <time>2018-09-04T09:53:31Z</time>
      </trkpt>
      <trkpt lat="45.93042" lon="4.72855">
        <ele>172</ele>
        <time>2018-09-04T09:53:32Z</time>
      </trkpt>
      <trkpt lat="45.93039" lon="4.72866">
        <ele>172</ele>
        <time>2018-09-04T09:53:33Z</time>
      </trkpt>
      <trkpt lat="45.93037" lon="4.72868">
        <ele>172</ele>
        <time>2018-09-04T09:53:34Z</time>
      </trkpt>
      <trkpt lat="45.93033" lon="4.72873">
        <ele>172</ele>
        <time>2018-09-04T09:53:35Z</time>
      </trkpt>
      <trkpt lat="45.93029" lon="4.72877">
        <ele>172</ele>
        <time>2018-09-04T09:53:36Z</time>
      </trkpt>
      <trkpt lat="45.93025" lon="4.72882">
        <ele>172</ele>
        <time>2018-09-04T09:53:37Z</time>
      </trkpt>
      <trkpt lat="45.93021" lon="4.72887">
        <ele>172</ele>
        <time>2018-09-04T09:53:38Z</time>
      </trkpt>
      <trkpt lat="45.93017" lon="4.72892">
        <ele>172</ele>
        <time>2018-09-04T09:53:39Z</time>
      </trkpt>
      <trkpt lat="45.93013" lon="4.72896">
        <ele>172</ele>
        <time>2018-09-04T09:53:40Z</time>
      </trkpt>
      <trkpt lat="45.93009" lon="4.72902">
        <ele>172</ele>
        <time>2018-09-04T09:53:41Z</time>
      </trkpt>
      <trkpt lat="45.93005" lon="4.7291">
        <ele>171</ele>
        <time>2018-09-04T09:53:42Z</time>
      </trkpt>
      <trkpt lat="45.93001" lon="4.72915">
        <ele>171</ele>
        <time>2018-09-04T09:53:43Z</time>
      </trkpt>
      <trkpt lat="45.92997" lon="4.7292">
        <ele>171</ele>
        <time>2018-09-04T09:53:44Z</time>
      </trkpt>
      <trkpt lat="45.92992" lon="4.72926">
        <ele>171</ele>
        <time>2018-09-04T09:53:45Z</time>
      </trkpt>
      <trkpt lat="45.92988" lon="4.72931">
        <ele>171</ele>
        <time>2018-09-04T09:53:46Z</time>
      </trkpt>
      <trkpt lat="45.92984" lon="4.72935">
        <ele>171</ele>
        <time>2018-09-04T09:53:47Z</time>
      </trkpt>
      <trkpt lat="45.9298" lon="4.7294">
        <ele>171</ele>
        <time>2018-09-04T09:53:48Z</time>
      </trkpt>
      <trkpt lat="45.92976" lon="4.72944">
        <ele>171</ele>
        <time>2018-09-04T09:53:49Z</time>
      </trkpt>
      <trkpt lat="45.92972" lon="4.72949">
        <ele>171</ele>
        <time>2018-09-04T09:53:50Z</time>
      </trkpt>
      <trkpt lat="45.92968" lon="4.72953">
        <ele>171</ele>
        <time>2018-09-04T09:53:51Z</time>
      </trkpt>
      <trkpt lat="45.92965" lon="4.72958">
        <ele>171</ele>
        <time>2018-09-04T09:53:52Z</time>
      </trkpt>
      <trkpt lat="45.92961" lon="4.72963">
        <ele>171</ele>
        <time>2018-09-04T09:53:53Z</time>
      </trkpt>
      <trkpt lat="45.92958" lon="4.72966">
        <ele>171</ele>
        <time>2018-09-04T09:53:54Z</time>
      </trkpt>
      <trkpt lat="45.92953" lon="4.7297">
        <ele>171</ele>
        <time>2018-09-04T09:53:55Z</time>
      </trkpt>
      <trkpt lat="45.92949" lon="4.72974">
        <ele>171</ele>
        <time>2018-09-04T09:53:56Z</time>
      </trkpt>
      <trkpt lat="45.92944" lon="4.72981">
        <ele>171</ele>
        <time>2018-09-04T09:53:57Z</time>
      </trkpt>
      <trkpt lat="45.9294" lon="4.72986">
        <ele>171</ele>
        <time>2018-09-04T09:53:58Z</time>
      </trkpt>
      <trkpt lat="45.92936" lon="4.72991">
        <ele>171</ele>
        <time>2018-09-04T09:53:59Z</time>
      </trkpt>
      <trkpt lat="45.92932" lon="4.72997">
        <ele>172</ele>
        <time>2018-09-04T09:54:00Z</time>
      </trkpt>
      <trkpt lat="45.92927" lon="4.73001">
        <ele>172</ele>
        <time>2018-09-04T09:54:01Z</time>
      </trkpt>
      <trkpt lat="45.92924" lon="4.7301">
        <ele>172</ele>
        <time>2018-09-04T09:54:02Z</time>
      </trkpt>
      <trkpt lat="45.9292" lon="4.73015">
        <ele>172</ele>
        <time>2018-09-04T09:54:03Z</time>
      </trkpt>
      <trkpt lat="45.92916" lon="4.73019">
        <ele>172</ele>
        <time>2018-09-04T09:54:04Z</time>
      </trkpt>
      <trkpt lat="45.92912" lon="4.73024">
        <ele>172</ele>
        <time>2018-09-04T09:54:05Z</time>
      </trkpt>
      <trkpt lat="45.92908" lon="4.73028">
        <ele>172</ele>
        <time>2018-09-04T09:54:06Z</time>
      </trkpt>
      <trkpt lat="45.92902" lon="4.73036">
        <ele>172</ele>
        <time>2018-09-04T09:54:08Z</time>
      </trkpt>
      <trkpt lat="45.92898" lon="4.73041">
        <ele>172</ele>
        <time>2018-09-04T09:54:09Z</time>
      </trkpt>
      <trkpt lat="45.92895" lon="4.73046">
        <ele>172</ele>
        <time>2018-09-04T09:54:10Z</time>
      </trkpt>
      <trkpt lat="45.92892" lon="4.73051">
        <ele>172</ele>
        <time>2018-09-04T09:54:11Z</time>
      </trkpt>
      <trkpt lat="45.92889" lon="4.73057">
        <ele>172</ele>
        <time>2018-09-04T09:54:12Z</time>
      </trkpt>
      <trkpt lat="45.92885" lon="4.73062">
        <ele>172</ele>
        <time>2018-09-04T09:54:13Z</time>
      </trkpt>
      <trkpt lat="45.92881" lon="4.73067">
        <ele>172</ele>
        <time>2018-09-04T09:54:14Z</time>
      </trkpt>
      <trkpt lat="45.92878" lon="4.73072">
        <ele>172</ele>
        <time>2018-09-04T09:54:15Z</time>
      </trkpt>
      <trkpt lat="45.92874" lon="4.73076">
        <ele>172</ele>
        <time>2018-09-04T09:54:16Z</time>
      </trkpt>
      <trkpt lat="45.92871" lon="4.73081">
        <ele>172</ele>
        <time>2018-09-04T09:54:17Z</time>
      </trkpt>
      <trkpt lat="45.92867" lon="4.73087">
        <ele>172</ele>
        <time>2018-09-04T09:54:18Z</time>
      </trkpt>
      <trkpt lat="45.92863" lon="4.73092">
        <ele>171</ele>
        <time>2018-09-04T09:54:19Z</time>
      </trkpt>
      <trkpt lat="45.92859" lon="4.73095">
        <ele>171</ele>
        <time>2018-09-04T09:54:20Z</time>
      </trkpt>
      <trkpt lat="45.92855" lon="4.73098">
        <ele>171</ele>
        <time>2018-09-04T09:54:21Z</time>
      </trkpt>
      <trkpt lat="45.92848" lon="4.73096">
        <ele>171</ele>
        <time>2018-09-04T09:54:23Z</time>
      </trkpt>
      <trkpt lat="45.92846" lon="4.73091">
        <ele>171</ele>
        <time>2018-09-04T09:54:24Z</time>
      </trkpt>
      <trkpt lat="45.92844" lon="4.73082">
        <ele>171</ele>
        <time>2018-09-04T09:54:26Z</time>
      </trkpt>
      <trkpt lat="45.92842" lon="4.73076">
        <ele>171</ele>
        <time>2018-09-04T09:54:27Z</time>
      </trkpt>
      <trkpt lat="45.92841" lon="4.73069">
        <ele>171</ele>
        <time>2018-09-04T09:54:28Z</time>
      </trkpt>
      <trkpt lat="45.9284" lon="4.73062">
        <ele>171</ele>
        <time>2018-09-04T09:54:29Z</time>
      </trkpt>
      <trkpt lat="45.92842" lon="4.73051">
        <ele>171</ele>
        <time>2018-09-04T09:54:31Z</time>
      </trkpt>
      <trkpt lat="45.9284" lon="4.73044">
        <ele>171</ele>
        <time>2018-09-04T09:54:32Z</time>
      </trkpt>
      <trkpt lat="45.92836" lon="4.73036">
        <ele>171</ele>
        <time>2018-09-04T09:54:33Z</time>
      </trkpt>
      <trkpt lat="45.92835" lon="4.73028">
        <ele>171</ele>
        <time>2018-09-04T09:54:34Z</time>
      </trkpt>
      <trkpt lat="45.92835" lon="4.73021">
        <ele>171</ele>
        <time>2018-09-04T09:54:35Z</time>
      </trkpt>
      <trkpt lat="45.92836" lon="4.73014">
        <ele>171</ele>
        <time>2018-09-04T09:54:36Z</time>
      </trkpt>
      <trkpt lat="45.92836" lon="4.73007">
        <ele>170</ele>
        <time>2018-09-04T09:54:37Z</time>
      </trkpt>
      <trkpt lat="45.92834" lon="4.73">
        <ele>170</ele>
        <time>2018-09-04T09:54:38Z</time>
      </trkpt>
      <trkpt lat="45.92831" lon="4.72993">
        <ele>170</ele>
        <time>2018-09-04T09:54:39Z</time>
      </trkpt>
      <trkpt lat="45.9283" lon="4.72987">
        <ele>170</ele>
        <time>2018-09-04T09:54:40Z</time>
      </trkpt>
      <trkpt lat="45.92829" lon="4.72981">
        <ele>170</ele>
        <time>2018-09-04T09:54:41Z</time>
      </trkpt>
      <trkpt lat="45.92829" lon="4.72974">
        <ele>170</ele>
        <time>2018-09-04T09:54:42Z</time>
      </trkpt>
      <trkpt lat="45.92828" lon="4.72968">
        <ele>170</ele>
        <time>2018-09-04T09:54:43Z</time>
      </trkpt>
      <trkpt lat="45.92827" lon="4.72961">
        <ele>170</ele>
        <time>2018-09-04T09:54:44Z</time>
      </trkpt>
      <trkpt lat="45.92828" lon="4.72954">
        <ele>170</ele>
        <time>2018-09-04T09:54:45Z</time>
      </trkpt>
      <trkpt lat="45.92827" lon="4.72947">
        <ele>170</ele>
        <time>2018-09-04T09:54:46Z</time>
      </trkpt>
      <trkpt lat="45.92826" lon="4.72939">
        <ele>170</ele>
        <time>2018-09-04T09:54:47Z</time>
      </trkpt>
      <trkpt lat="45.92825" lon="4.72932">
        <ele>170</ele>
        <time>2018-09-04T09:54:48Z</time>
      </trkpt>
      <trkpt lat="45.92824" lon="4.72925">
        <ele>170</ele>
        <time>2018-09-04T09:54:49Z</time>
      </trkpt>
      <trkpt lat="45.92824" lon="4.72918">
        <ele>170</ele>
        <time>2018-09-04T09:54:50Z</time>
      </trkpt>
      <trkpt lat="45.92823" lon="4.72912">
        <ele>170</ele>
        <time>2018-09-04T09:54:51Z</time>
      </trkpt>
      <trkpt lat="45.92822" lon="4.72905">
        <ele>170</ele>
        <time>2018-09-04T09:54:52Z</time>
      </trkpt>
      <trkpt lat="45.92821" lon="4.72895">
        <ele>170</ele>
        <time>2018-09-04T09:54:54Z</time>
      </trkpt>
      <trkpt lat="45.92818" lon="4.72885">
        <ele>170</ele>
        <time>2018-09-04T09:54:55Z</time>
      </trkpt>
      <trkpt lat="45.92817" lon="4.72878">
        <ele>170</ele>
        <time>2018-09-04T09:54:56Z</time>
      </trkpt>
      <trkpt lat="45.92816" lon="4.72872">
        <ele>170</ele>
        <time>2018-09-04T09:54:57Z</time>
      </trkpt>
      <trkpt lat="45.92814" lon="4.72865">
        <ele>170</ele>
        <time>2018-09-04T09:54:58Z</time>
      </trkpt>
      <trkpt lat="45.92814" lon="4.72858">
        <ele>170</ele>
        <time>2018-09-04T09:54:59Z</time>
      </trkpt>
      <trkpt lat="45.92813" lon="4.72852">
        <ele>170</ele>
        <time>2018-09-04T09:55:00Z</time>
      </trkpt>
      <trkpt lat="45.92812" lon="4.72845">
        <ele>170</ele>
        <time>2018-09-04T09:55:01Z</time>
      </trkpt>
      <trkpt lat="45.92809" lon="4.72833">
        <ele>171</ele>
        <time>2018-09-04T09:55:03Z</time>
      </trkpt>
      <trkpt lat="45.92808" lon="4.72827">
        <ele>171</ele>
        <time>2018-09-04T09:55:04Z</time>
      </trkpt>
      <trkpt lat="45.92806" lon="4.72816">
        <ele>171</ele>
        <time>2018-09-04T09:55:06Z</time>
      </trkpt>
      <trkpt lat="45.92805" lon="4.7281">
        <ele>171</ele>
        <time>2018-09-04T09:55:07Z</time>
      </trkpt>
      <trkpt lat="45.92802" lon="4.72799">
        <ele>171</ele>
        <time>2018-09-04T09:55:09Z</time>
      </trkpt>
      <trkpt lat="45.92801" lon="4.72793">
        <ele>171</ele>
        <time>2018-09-04T09:55:10Z</time>
      </trkpt>
      <trkpt lat="45.92796" lon="4.72789">
        <ele>171</ele>
        <time>2018-09-04T09:55:12Z</time>
      </trkpt>
      <trkpt lat="45.92789" lon="4.72789">
        <ele>171</ele>
        <time>2018-09-04T09:55:13Z</time>
      </trkpt>
      <trkpt lat="45.92786" lon="4.72793">
        <ele>170</ele>
        <time>2018-09-04T09:55:15Z</time>
      </trkpt>
      <trkpt lat="45.92782" lon="4.72796">
        <ele>170</ele>
        <time>2018-09-04T09:55:16Z</time>
      </trkpt>
      <trkpt lat="45.92778" lon="4.72798">
        <ele>170</ele>
        <time>2018-09-04T09:55:17Z</time>
      </trkpt>
      <trkpt lat="45.92771" lon="4.72804">
        <ele>170</ele>
        <time>2018-09-04T09:55:18Z</time>
      </trkpt>
      <trkpt lat="45.92766" lon="4.72809">
        <ele>170</ele>
        <time>2018-09-04T09:55:19Z</time>
      </trkpt>
      <trkpt lat="45.92764" lon="4.72815">
        <ele>170</ele>
        <time>2018-09-04T09:55:20Z</time>
      </trkpt>
      <trkpt lat="45.92759" lon="4.72818">
        <ele>170</ele>
        <time>2018-09-04T09:55:21Z</time>
      </trkpt>
      <trkpt lat="45.92755" lon="4.72825">
        <ele>170</ele>
        <time>2018-09-04T09:55:22Z</time>
      </trkpt>
      <trkpt lat="45.92753" lon="4.72831">
        <ele>169</ele>
        <time>2018-09-04T09:55:23Z</time>
      </trkpt>
      <trkpt lat="45.92748" lon="4.72834">
        <ele>169</ele>
        <time>2018-09-04T09:55:24Z</time>
      </trkpt>
      <trkpt lat="45.92743" lon="4.72838">
        <ele>169</ele>
        <time>2018-09-04T09:55:25Z</time>
      </trkpt>
      <trkpt lat="45.92739" lon="4.72841">
        <ele>169</ele>
        <time>2018-09-04T09:55:26Z</time>
      </trkpt>
      <trkpt lat="45.92733" lon="4.72842">
        <ele>169</ele>
        <time>2018-09-04T09:55:27Z</time>
      </trkpt>
      <trkpt lat="45.92728" lon="4.72846">
        <ele>169</ele>
        <time>2018-09-04T09:55:28Z</time>
      </trkpt>
      <trkpt lat="45.92724" lon="4.72848">
        <ele>169</ele>
        <time>2018-09-04T09:55:29Z</time>
      </trkpt>
      <trkpt lat="45.92719" lon="4.72851">
        <ele>169</ele>
        <time>2018-09-04T09:55:30Z</time>
      </trkpt>
      <trkpt lat="45.92715" lon="4.72856">
        <ele>169</ele>
        <time>2018-09-04T09:55:31Z</time>
      </trkpt>
      <trkpt lat="45.9271" lon="4.7286">
        <ele>169</ele>
        <time>2018-09-04T09:55:32Z</time>
      </trkpt>
      <trkpt lat="45.92705" lon="4.72863">
        <ele>169</ele>
        <time>2018-09-04T09:55:33Z</time>
      </trkpt>
      <trkpt lat="45.92701" lon="4.72867">
        <ele>169</ele>
        <time>2018-09-04T09:55:34Z</time>
      </trkpt>
      <trkpt lat="45.92697" lon="4.7287">
        <ele>169</ele>
        <time>2018-09-04T09:55:35Z</time>
      </trkpt>
      <trkpt lat="45.92692" lon="4.72872">
        <ele>169</ele>
        <time>2018-09-04T09:55:36Z</time>
      </trkpt>
      <trkpt lat="45.92688" lon="4.72876">
        <ele>170</ele>
        <time>2018-09-04T09:55:37Z</time>
      </trkpt>
      <trkpt lat="45.92683" lon="4.72879">
        <ele>170</ele>
        <time>2018-09-04T09:55:38Z</time>
      </trkpt>
      <trkpt lat="45.92679" lon="4.72882">
        <ele>170</ele>
        <time>2018-09-04T09:55:39Z</time>
      </trkpt>
      <trkpt lat="45.92675" lon="4.72885">
        <ele>170</ele>
        <time>2018-09-04T09:55:40Z</time>
      </trkpt>
      <trkpt lat="45.92671" lon="4.72889">
        <ele>170</ele>
        <time>2018-09-04T09:55:41Z</time>
      </trkpt>
      <trkpt lat="45.92667" lon="4.72893">
        <ele>170</ele>
        <time>2018-09-04T09:55:42Z</time>
      </trkpt>
      <trkpt lat="45.92662" lon="4.72896">
        <ele>170</ele>
        <time>2018-09-04T09:55:43Z</time>
      </trkpt>
      <trkpt lat="45.92658" lon="4.729">
        <ele>170</ele>
        <time>2018-09-04T09:55:44Z</time>
      </trkpt>
      <trkpt lat="45.92652" lon="4.72904">
        <ele>170</ele>
        <time>2018-09-04T09:55:45Z</time>
      </trkpt>
      <trkpt lat="45.92646" lon="4.72906">
        <ele>170</ele>
        <time>2018-09-04T09:55:46Z</time>
      </trkpt>
      <trkpt lat="45.92641" lon="4.72909">
        <ele>169</ele>
        <time>2018-09-04T09:55:47Z</time>
      </trkpt>
      <trkpt lat="45.92636" lon="4.72912">
        <ele>169</ele>
        <time>2018-09-04T09:55:48Z</time>
      </trkpt>
      <trkpt lat="45.92633" lon="4.72918">
        <ele>170</ele>
        <time>2018-09-04T09:55:49Z</time>
      </trkpt>
      <trkpt lat="45.92628" lon="4.72922">
        <ele>170</ele>
        <time>2018-09-04T09:55:50Z</time>
      </trkpt>
      <trkpt lat="45.92623" lon="4.72928">
        <ele>169</ele>
        <time>2018-09-04T09:55:51Z</time>
      </trkpt>
      <trkpt lat="45.92619" lon="4.72933">
        <ele>169</ele>
        <time>2018-09-04T09:55:52Z</time>
      </trkpt>
      <trkpt lat="45.92614" lon="4.72936">
        <ele>169</ele>
        <time>2018-09-04T09:55:53Z</time>
      </trkpt>
      <trkpt lat="45.92608" lon="4.7294">
        <ele>169</ele>
        <time>2018-09-04T09:55:54Z</time>
      </trkpt>
      <trkpt lat="45.92602" lon="4.72946">
        <ele>169</ele>
        <time>2018-09-04T09:55:55Z</time>
      </trkpt>
      <trkpt lat="45.92597" lon="4.72951">
        <ele>169</ele>
        <time>2018-09-04T09:55:56Z</time>
      </trkpt>
      <trkpt lat="45.92593" lon="4.72956">
        <ele>169</ele>
        <time>2018-09-04T09:55:57Z</time>
      </trkpt>
      <trkpt lat="45.92588" lon="4.72963">
        <ele>169</ele>
        <time>2018-09-04T09:55:58Z</time>
      </trkpt>
      <trkpt lat="45.92583" lon="4.72968">
        <ele>169</ele>
        <time>2018-09-04T09:55:59Z</time>
      </trkpt>
      <trkpt lat="45.92578" lon="4.72973">
        <ele>169</ele>
        <time>2018-09-04T09:56:00Z</time>
      </trkpt>
      <trkpt lat="45.92573" lon="4.72977">
        <ele>169</ele>
        <time>2018-09-04T09:56:01Z</time>
      </trkpt>
      <trkpt lat="45.92569" lon="4.72981">
        <ele>169</ele>
        <time>2018-09-04T09:56:02Z</time>
      </trkpt>
      <trkpt lat="45.92565" lon="4.72985">
        <ele>169</ele>
        <time>2018-09-04T09:56:03Z</time>
      </trkpt>
      <trkpt lat="45.9256" lon="4.72989">
        <ele>169</ele>
        <time>2018-09-04T09:56:04Z</time>
      </trkpt>
      <trkpt lat="45.92556" lon="4.72994">
        <ele>169</ele>
        <time>2018-09-04T09:56:05Z</time>
      </trkpt>
      <trkpt lat="45.92552" lon="4.72999">
        <ele>169</ele>
        <time>2018-09-04T09:56:06Z</time>
      </trkpt>
      <trkpt lat="45.92547" lon="4.73004">
        <ele>169</ele>
        <time>2018-09-04T09:56:07Z</time>
      </trkpt>
      <trkpt lat="45.92542" lon="4.73011">
        <ele>169</ele>
        <time>2018-09-04T09:56:08Z</time>
      </trkpt>
      <trkpt lat="45.92536" lon="4.73016">
        <ele>169</ele>
        <time>2018-09-04T09:56:09Z</time>
      </trkpt>
      <trkpt lat="45.92531" lon="4.7302">
        <ele>169</ele>
        <time>2018-09-04T09:56:10Z</time>
      </trkpt>
      <trkpt lat="45.92525" lon="4.73024">
        <ele>169</ele>
        <time>2018-09-04T09:56:11Z</time>
      </trkpt>
      <trkpt lat="45.92522" lon="4.73031">
        <ele>169</ele>
        <time>2018-09-04T09:56:12Z</time>
      </trkpt>
      <trkpt lat="45.92516" lon="4.73031">
        <ele>169</ele>
        <time>2018-09-04T09:56:13Z</time>
      </trkpt>
      <trkpt lat="45.92511" lon="4.73036">
        <ele>169</ele>
        <time>2018-09-04T09:56:14Z</time>
      </trkpt>
      <trkpt lat="45.92506" lon="4.73039">
        <ele>169</ele>
        <time>2018-09-04T09:56:15Z</time>
      </trkpt>
      <trkpt lat="45.92499" lon="4.73042">
        <ele>170</ele>
        <time>2018-09-04T09:56:16Z</time>
      </trkpt>
      <trkpt lat="45.92494" lon="4.73047">
        <ele>170</ele>
        <time>2018-09-04T09:56:17Z</time>
      </trkpt>
      <trkpt lat="45.9249" lon="4.73052">
        <ele>170</ele>
        <time>2018-09-04T09:56:18Z</time>
      </trkpt>
      <trkpt lat="45.92485" lon="4.73056">
        <ele>170</ele>
        <time>2018-09-04T09:56:19Z</time>
      </trkpt>
      <trkpt lat="45.9248" lon="4.7306">
        <ele>170</ele>
        <time>2018-09-04T09:56:20Z</time>
      </trkpt>
      <trkpt lat="45.92475" lon="4.73063">
        <ele>170</ele>
        <time>2018-09-04T09:56:21Z</time>
      </trkpt>
      <trkpt lat="45.92471" lon="4.73066">
        <ele>170</ele>
        <time>2018-09-04T09:56:22Z</time>
      </trkpt>
      <trkpt lat="45.92466" lon="4.7307">
        <ele>170</ele>
        <time>2018-09-04T09:56:23Z</time>
      </trkpt>
      <trkpt lat="45.92461" lon="4.73073">
        <ele>170</ele>
        <time>2018-09-04T09:56:24Z</time>
      </trkpt>
      <trkpt lat="45.92457" lon="4.73078">
        <ele>170</ele>
        <time>2018-09-04T09:56:25Z</time>
      </trkpt>
      <trkpt lat="45.92452" lon="4.73081">
        <ele>170</ele>
        <time>2018-09-04T09:56:26Z</time>
      </trkpt>
      <trkpt lat="45.92448" lon="4.73086">
        <ele>170</ele>
        <time>2018-09-04T09:56:27Z</time>
      </trkpt>
      <trkpt lat="45.92445" lon="4.7309">
        <ele>170</ele>
        <time>2018-09-04T09:56:28Z</time>
      </trkpt>
      <trkpt lat="45.9244" lon="4.73094">
        <ele>170</ele>
        <time>2018-09-04T09:56:29Z</time>
      </trkpt>
      <trkpt lat="45.92437" lon="4.73096">
        <ele>171</ele>
        <time>2018-09-04T09:56:30Z</time>
      </trkpt>
      <trkpt lat="45.92433" lon="4.73103">
        <ele>170</ele>
        <time>2018-09-04T09:56:31Z</time>
      </trkpt>
      <trkpt lat="45.92428" lon="4.73106">
        <ele>171</ele>
        <time>2018-09-04T09:56:32Z</time>
      </trkpt>
      <trkpt lat="45.9242" lon="4.73112">
        <ele>170</ele>
        <time>2018-09-04T09:56:34Z</time>
      </trkpt>
      <trkpt lat="45.92417" lon="4.73116">
        <ele>170</ele>
        <time>2018-09-04T09:56:35Z</time>
      </trkpt>
      <trkpt lat="45.92413" lon="4.73119">
        <ele>171</ele>
        <time>2018-09-04T09:56:36Z</time>
      </trkpt>
      <trkpt lat="45.92411" lon="4.73126">
        <ele>171</ele>
        <time>2018-09-04T09:56:37Z</time>
      </trkpt>
      <trkpt lat="45.92409" lon="4.73133">
        <ele>171</ele>
        <time>2018-09-04T09:56:38Z</time>
      </trkpt>
      <trkpt lat="45.92409" lon="4.7314">
        <ele>171</ele>
        <time>2018-09-04T09:56:39Z</time>
      </trkpt>
      <trkpt lat="45.92408" lon="4.73147">
        <ele>171</ele>
        <time>2018-09-04T09:56:40Z</time>
      </trkpt>
      <trkpt lat="45.92408" lon="4.73155">
        <ele>170</ele>
        <time>2018-09-04T09:56:41Z</time>
      </trkpt>
      <trkpt lat="45.92408" lon="4.73161">
        <ele>170</ele>
        <time>2018-09-04T09:56:42Z</time>
      </trkpt>
      <trkpt lat="45.92408" lon="4.73168">
        <ele>170</ele>
        <time>2018-09-04T09:56:43Z</time>
      </trkpt>
      <trkpt lat="45.92408" lon="4.73175">
        <ele>170</ele>
        <time>2018-09-04T09:56:44Z</time>
      </trkpt>
      <trkpt lat="45.92408" lon="4.73182">
        <ele>171</ele>
        <time>2018-09-04T09:56:45Z</time>
      </trkpt>
      <trkpt lat="45.92408" lon="4.73188">
        <ele>171</ele>
        <time>2018-09-04T09:56:46Z</time>
      </trkpt>
      <trkpt lat="45.92408" lon="4.73195">
        <ele>171</ele>
        <time>2018-09-04T09:56:47Z</time>
      </trkpt>
      <trkpt lat="45.92408" lon="4.73203">
        <ele>171</ele>
        <time>2018-09-04T09:56:48Z</time>
      </trkpt>
      <trkpt lat="45.92409" lon="4.73213">
        <ele>171</ele>
        <time>2018-09-04T09:56:49Z</time>
      </trkpt>
      <trkpt lat="45.92409" lon="4.73221">
        <ele>171</ele>
        <time>2018-09-04T09:56:50Z</time>
      </trkpt>
      <trkpt lat="45.92409" lon="4.73229">
        <ele>171</ele>
        <time>2018-09-04T09:56:51Z</time>
      </trkpt>
      <trkpt lat="45.92409" lon="4.73235">
        <ele>171</ele>
        <time>2018-09-04T09:56:52Z</time>
      </trkpt>
      <trkpt lat="45.92409" lon="4.73243">
        <ele>171</ele>
        <time>2018-09-04T09:56:53Z</time>
      </trkpt>
      <trkpt lat="45.9241" lon="4.73251">
        <ele>171</ele>
        <time>2018-09-04T09:56:54Z</time>
      </trkpt>
      <trkpt lat="45.9241" lon="4.73258">
        <ele>171</ele>
        <time>2018-09-04T09:56:55Z</time>
      </trkpt>
      <trkpt lat="45.92411" lon="4.73265">
        <ele>171</ele>
        <time>2018-09-04T09:56:56Z</time>
      </trkpt>
      <trkpt lat="45.92411" lon="4.73271">
        <ele>171</ele>
        <time>2018-09-04T09:56:57Z</time>
      </trkpt>
      <trkpt lat="45.92412" lon="4.73278">
        <ele>171</ele>
        <time>2018-09-04T09:56:58Z</time>
      </trkpt>
      <trkpt lat="45.92412" lon="4.73284">
        <ele>171</ele>
        <time>2018-09-04T09:56:59Z</time>
      </trkpt>
      <trkpt lat="45.92413" lon="4.73296">
        <ele>171</ele>
        <time>2018-09-04T09:57:01Z</time>
      </trkpt>
      <trkpt lat="45.92414" lon="4.73303">
        <ele>171</ele>
        <time>2018-09-04T09:57:02Z</time>
      </trkpt>
      <trkpt lat="45.92415" lon="4.73314">
        <ele>171</ele>
        <time>2018-09-04T09:57:04Z</time>
      </trkpt>
      <trkpt lat="45.92415" lon="4.7332">
        <ele>171</ele>
        <time>2018-09-04T09:57:05Z</time>
      </trkpt>
      <trkpt lat="45.92416" lon="4.73328">
        <ele>171</ele>
        <time>2018-09-04T09:57:06Z</time>
      </trkpt>
      <trkpt lat="45.92416" lon="4.73335">
        <ele>171</ele>
        <time>2018-09-04T09:57:07Z</time>
      </trkpt>
      <trkpt lat="45.92418" lon="4.73342">
        <ele>171</ele>
        <time>2018-09-04T09:57:08Z</time>
      </trkpt>
      <trkpt lat="45.92419" lon="4.73351">
        <ele>171</ele>
        <time>2018-09-04T09:57:09Z</time>
      </trkpt>
      <trkpt lat="45.9242" lon="4.73358">
        <ele>171</ele>
        <time>2018-09-04T09:57:10Z</time>
      </trkpt>
      <trkpt lat="45.9242" lon="4.73365">
        <ele>172</ele>
        <time>2018-09-04T09:57:11Z</time>
      </trkpt>
      <trkpt lat="45.92422" lon="4.73373">
        <ele>172</ele>
        <time>2018-09-04T09:57:12Z</time>
      </trkpt>
      <trkpt lat="45.92423" lon="4.73379">
        <ele>172</ele>
        <time>2018-09-04T09:57:13Z</time>
      </trkpt>
      <trkpt lat="45.92424" lon="4.73388">
        <ele>172</ele>
        <time>2018-09-04T09:57:14Z</time>
      </trkpt>
      <trkpt lat="45.92426" lon="4.73396">
        <ele>172</ele>
        <time>2018-09-04T09:57:15Z</time>
      </trkpt>
      <trkpt lat="45.92429" lon="4.73402">
        <ele>172</ele>
        <time>2018-09-04T09:57:16Z</time>
      </trkpt>
      <trkpt lat="45.92432" lon="4.73407">
        <ele>172</ele>
        <time>2018-09-04T09:57:17Z</time>
      </trkpt>
      <trkpt lat="45.92435" lon="4.73415">
        <ele>172</ele>
        <time>2018-09-04T09:57:18Z</time>
      </trkpt>
      <trkpt lat="45.92439" lon="4.73418">
        <ele>173</ele>
        <time>2018-09-04T09:57:19Z</time>
      </trkpt>
      <trkpt lat="45.92443" lon="4.73422">
        <ele>173</ele>
        <time>2018-09-04T09:57:20Z</time>
      </trkpt>
      <trkpt lat="45.92447" lon="4.73426">
        <ele>173</ele>
        <time>2018-09-04T09:57:21Z</time>
      </trkpt>
      <trkpt lat="45.92451" lon="4.73429">
        <ele>173</ele>
        <time>2018-09-04T09:57:22Z</time>
      </trkpt>
      <trkpt lat="45.92456" lon="4.73433">
        <ele>173</ele>
        <time>2018-09-04T09:57:23Z</time>
      </trkpt>
      <trkpt lat="45.92459" lon="4.73438">
        <ele>173</ele>
        <time>2018-09-04T09:57:24Z</time>
      </trkpt>
      <trkpt lat="45.92462" lon="4.73444">
        <ele>173</ele>
        <time>2018-09-04T09:57:25Z</time>
      </trkpt>
      <trkpt lat="45.92464" lon="4.73451">
        <ele>173</ele>
        <time>2018-09-04T09:57:26Z</time>
      </trkpt>
      <trkpt lat="45.92465" lon="4.73458">
        <ele>173</ele>
        <time>2018-09-04T09:57:27Z</time>
      </trkpt>
      <trkpt lat="45.92465" lon="4.73465">
        <ele>173</ele>
        <time>2018-09-04T09:57:28Z</time>
      </trkpt>
      <trkpt lat="45.92467" lon="4.73472">
        <ele>173</ele>
        <time>2018-09-04T09:57:29Z</time>
      </trkpt>
      <trkpt lat="45.92467" lon="4.7348">
        <ele>173</ele>
        <time>2018-09-04T09:57:30Z</time>
      </trkpt>
      <trkpt lat="45.92467" lon="4.73488">
        <ele>173</ele>
        <time>2018-09-04T09:57:31Z</time>
      </trkpt>
      <trkpt lat="45.92467" lon="4.73496">
        <ele>173</ele>
        <time>2018-09-04T09:57:32Z</time>
      </trkpt>
      <trkpt lat="45.92467" lon="4.73504">
        <ele>174</ele>
        <time>2018-09-04T09:57:33Z</time>
      </trkpt>
      <trkpt lat="45.92468" lon="4.73511">
        <ele>174</ele>
        <time>2018-09-04T09:57:34Z</time>
      </trkpt>
      <trkpt lat="45.92468" lon="4.73518">
        <ele>174</ele>
        <time>2018-09-04T09:57:35Z</time>
      </trkpt>
      <trkpt lat="45.92468" lon="4.73526">
        <ele>174</ele>
        <time>2018-09-04T09:57:36Z</time>
      </trkpt>
      <trkpt lat="45.92467" lon="4.73534">
        <ele>174</ele>
        <time>2018-09-04T09:57:37Z</time>
      </trkpt>
      <trkpt lat="45.92467" lon="4.7354">
        <ele>174</ele>
        <time>2018-09-04T09:57:38Z</time>
      </trkpt>
      <trkpt lat="45.92467" lon="4.73546">
        <ele>173</ele>
        <time>2018-09-04T09:57:39Z</time>
      </trkpt>
      <trkpt lat="45.92466" lon="4.73553">
        <ele>173</ele>
        <time>2018-09-04T09:57:40Z</time>
      </trkpt>
      <trkpt lat="45.92469" lon="4.73564">
        <ele>173</ele>
        <time>2018-09-04T09:57:41Z</time>
      </trkpt>
      <trkpt lat="45.92469" lon="4.73571">
        <ele>173</ele>
        <time>2018-09-04T09:57:42Z</time>
      </trkpt>
      <trkpt lat="45.9247" lon="4.73578">
        <ele>173</ele>
        <time>2018-09-04T09:57:43Z</time>
      </trkpt>
      <trkpt lat="45.9247" lon="4.73585">
        <ele>174</ele>
        <time>2018-09-04T09:57:44Z</time>
      </trkpt>
      <trkpt lat="45.9247" lon="4.73594">
        <ele>174</ele>
        <time>2018-09-04T09:57:45Z</time>
      </trkpt>
      <trkpt lat="45.92469" lon="4.73601">
        <ele>174</ele>
        <time>2018-09-04T09:57:46Z</time>
      </trkpt>
      <trkpt lat="45.92469" lon="4.73609">
        <ele>174</ele>
        <time>2018-09-04T09:57:47Z</time>
      </trkpt>
      <trkpt lat="45.92469" lon="4.73622">
        <ele>174</ele>
        <time>2018-09-04T09:57:49Z</time>
      </trkpt>
      <trkpt lat="45.9247" lon="4.7363">
        <ele>174</ele>
        <time>2018-09-04T09:57:50Z</time>
      </trkpt>
      <trkpt lat="45.9247" lon="4.73638">
        <ele>174</ele>
        <time>2018-09-04T09:57:51Z</time>
      </trkpt>
      <trkpt lat="45.9247" lon="4.73646">
        <ele>174</ele>
        <time>2018-09-04T09:57:52Z</time>
      </trkpt>
      <trkpt lat="45.92469" lon="4.73652">
        <ele>174</ele>
        <time>2018-09-04T09:57:53Z</time>
      </trkpt>
      <trkpt lat="45.92468" lon="4.73659">
        <ele>174</ele>
        <time>2018-09-04T09:57:54Z</time>
      </trkpt>
      <trkpt lat="45.92467" lon="4.73666">
        <ele>174</ele>
        <time>2018-09-04T09:57:55Z</time>
      </trkpt>
      <trkpt lat="45.92466" lon="4.73672">
        <ele>174</ele>
        <time>2018-09-04T09:57:56Z</time>
      </trkpt>
      <trkpt lat="45.92466" lon="4.73679">
        <ele>174</ele>
        <time>2018-09-04T09:57:57Z</time>
      </trkpt>
      <trkpt lat="45.92466" lon="4.73686">
        <ele>174</ele>
        <time>2018-09-04T09:57:58Z</time>
      </trkpt>
      <trkpt lat="45.92465" lon="4.73696">
        <ele>174</ele>
        <time>2018-09-04T09:58:00Z</time>
      </trkpt>
      <trkpt lat="45.92465" lon="4.73699">
        <ele>174</ele>
        <time>2018-09-04T09:58:01Z</time>
      </trkpt>
      <trkpt lat="45.92465" lon="4.73708">
        <ele>174</ele>
        <time>2018-09-04T09:58:42.702Z</time>
      </trkpt>
    </trkseg>
  </trk>
</gpx>